<?xml version="1.0" encoding="UTF-8" standalone="no" ?>
<gpx xmlns="http://www.topografix.com/GPX/1/1" xmlns:xsi="http://www.w3.org/2001/XMLSchema-instance" xsi:schemaLocation="http://www.topografix.com/GPX/1/1 http://www.topografix.com/GPX/1/1/gpx.xsd" version="1.1" creator="VisuGPX - https://www.visugpx.com">
  <metadata>
    <name>Pornichet 04/09/2022</name>
    <desc><![CDATA[Sortie dimanche 04 septembre 2022]]></desc>
  </metadata>
  <trk>
    <name><![CDATA[Pornichet Cyclisme]]></name>
    <trkseg>
      <trkpt lat="47.26396" lon="-2.31553">
        <ele>9.4</ele>
        <time>2022-09-04T06:56:13.000Z</time>
      </trkpt>
      <trkpt lat="47.26398" lon="-2.31568">
        <ele>9.3</ele>
        <time>2022-09-04T06:56:17.000Z</time>
      </trkpt>
      <trkpt lat="47.26399" lon="-2.31573">
        <ele>0.40000000596046</ele>
        <time>2022-09-04T06:56:18.000Z</time>
      </trkpt>
      <trkpt lat="47.26399" lon="-2.31578">
        <ele>0.80000001192093</ele>
        <time>2022-09-04T06:56:19.000Z</time>
      </trkpt>
      <trkpt lat="47.26399" lon="-2.31582">
        <ele>0.80000001192093</ele>
        <time>2022-09-04T06:56:20.000Z</time>
      </trkpt>
      <trkpt lat="47.26404" lon="-2.31632">
        <ele>0.80000001192093</ele>
        <time>2022-09-04T06:56:28.000Z</time>
      </trkpt>
      <trkpt lat="47.26405" lon="-2.31653">
        <ele>0.80000001192093</ele>
        <time>2022-09-04T06:56:32.000Z</time>
      </trkpt>
      <trkpt lat="47.26402" lon="-2.31655">
        <ele>0.80000001192093</ele>
        <time>2022-09-04T06:56:33.000Z</time>
      </trkpt>
      <trkpt lat="47.2639" lon="-2.31661">
        <ele>0.80000001192093</ele>
        <time>2022-09-04T06:56:37.000Z</time>
      </trkpt>
      <trkpt lat="47.26387" lon="-2.31663">
        <ele>0.80000001192093</ele>
        <time>2022-09-04T06:56:38.000Z</time>
      </trkpt>
      <trkpt lat="47.26372" lon="-2.31674">
        <ele>0.20000000298023</ele>
        <time>2022-09-04T06:56:42.000Z</time>
      </trkpt>
      <trkpt lat="47.26368" lon="-2.31676">
        <ele>-0.40000000596046</ele>
        <time>2022-09-04T06:56:43.000Z</time>
      </trkpt>
      <trkpt lat="47.26364" lon="-2.31679">
        <ele>-1</ele>
        <time>2022-09-04T06:56:44.000Z</time>
      </trkpt>
      <trkpt lat="47.2636" lon="-2.31681">
        <ele>-2.4000000953674</ele>
        <time>2022-09-04T06:56:45.000Z</time>
      </trkpt>
      <trkpt lat="47.26347" lon="-2.3169">
        <ele>-2.4000000953674</ele>
        <time>2022-09-04T06:56:48.000Z</time>
      </trkpt>
      <trkpt lat="47.26342" lon="-2.31693">
        <ele>-2.4000000953674</ele>
        <time>2022-09-04T06:56:49.000Z</time>
      </trkpt>
      <trkpt lat="47.26336" lon="-2.31695">
        <ele>-2.4000000953674</ele>
        <time>2022-09-04T06:56:50.000Z</time>
      </trkpt>
      <trkpt lat="47.26319" lon="-2.31704">
        <ele>-2.7999999523163</ele>
        <time>2022-09-04T06:56:54.000Z</time>
      </trkpt>
      <trkpt lat="47.26314" lon="-2.31707">
        <ele>-3.2000000476837</ele>
        <time>2022-09-04T06:56:55.000Z</time>
      </trkpt>
      <trkpt lat="47.2631" lon="-2.3171">
        <ele>-3.5999999046326</ele>
        <time>2022-09-04T06:56:56.000Z</time>
      </trkpt>
      <trkpt lat="47.26307" lon="-2.31715">
        <ele>-4</ele>
        <time>2022-09-04T06:56:57.000Z</time>
      </trkpt>
      <trkpt lat="47.26305" lon="-2.31721">
        <ele>-4.4000000953674</ele>
        <time>2022-09-04T06:56:58.000Z</time>
      </trkpt>
      <trkpt lat="47.26304" lon="-2.31732">
        <ele>-4.4000000953674</ele>
        <time>2022-09-04T06:57:00.000Z</time>
      </trkpt>
      <trkpt lat="47.26304" lon="-2.31742">
        <ele>-4.4000000953674</ele>
        <time>2022-09-04T06:57:02.000Z</time>
      </trkpt>
      <trkpt lat="47.26305" lon="-2.31766">
        <ele>-4.4000000953674</ele>
        <time>2022-09-04T06:57:07.000Z</time>
      </trkpt>
      <trkpt lat="47.26304" lon="-2.31806">
        <ele>-4.4000000953674</ele>
        <time>2022-09-04T06:57:14.000Z</time>
      </trkpt>
      <trkpt lat="47.26301" lon="-2.31829">
        <ele>-4.4000000953674</ele>
        <time>2022-09-04T06:57:18.000Z</time>
      </trkpt>
      <trkpt lat="47.26299" lon="-2.31866">
        <ele>-4.4000000953674</ele>
        <time>2022-09-04T06:57:24.000Z</time>
      </trkpt>
      <trkpt lat="47.26293" lon="-2.31882">
        <ele>-4.4000000953674</ele>
        <time>2022-09-04T06:57:28.000Z</time>
      </trkpt>
      <trkpt lat="47.2628" lon="-2.31901">
        <ele>-4.4000000953674</ele>
        <time>2022-09-04T06:57:33.000Z</time>
      </trkpt>
      <trkpt lat="47.26264" lon="-2.31924">
        <ele>-4.4000000953674</ele>
        <time>2022-09-04T06:57:39.000Z</time>
      </trkpt>
      <trkpt lat="47.26263" lon="-2.31928">
        <ele>-4.8000001907349</ele>
        <time>2022-09-04T06:57:40.000Z</time>
      </trkpt>
      <trkpt lat="47.26261" lon="-2.31932">
        <ele>-5.1999998092651</ele>
        <time>2022-09-04T06:57:41.000Z</time>
      </trkpt>
      <trkpt lat="47.26259" lon="-2.31936">
        <ele>-5.5999999046326</ele>
        <time>2022-09-04T06:57:42.000Z</time>
      </trkpt>
      <trkpt lat="47.26257" lon="-2.31939">
        <ele>-6</ele>
        <time>2022-09-04T06:57:43.000Z</time>
      </trkpt>
      <trkpt lat="47.26254" lon="-2.31943">
        <ele>-6.4000000953674</ele>
        <time>2022-09-04T06:57:44.000Z</time>
      </trkpt>
      <trkpt lat="47.2625" lon="-2.31946">
        <ele>-6.4000000953674</ele>
        <time>2022-09-04T06:57:45.000Z</time>
      </trkpt>
      <trkpt lat="47.26233" lon="-2.31964">
        <ele>-6.4000000953674</ele>
        <time>2022-09-04T06:57:51.000Z</time>
      </trkpt>
      <trkpt lat="47.26222" lon="-2.31975">
        <ele>-6.4000000953674</ele>
        <time>2022-09-04T06:57:56.000Z</time>
      </trkpt>
      <trkpt lat="47.2621" lon="-2.31985">
        <ele>-6.4000000953674</ele>
        <time>2022-09-04T06:58:01.000Z</time>
      </trkpt>
      <trkpt lat="47.26207" lon="-2.32">
        <ele>-6.4000000953674</ele>
        <time>2022-09-04T06:58:05.000Z</time>
      </trkpt>
      <trkpt lat="47.26203" lon="-2.32006">
        <ele>-6.4000000953674</ele>
        <time>2022-09-04T06:58:07.000Z</time>
      </trkpt>
      <trkpt lat="47.262" lon="-2.32008">
        <ele>-6.4000000953674</ele>
        <time>2022-09-04T06:58:08.000Z</time>
      </trkpt>
      <trkpt lat="47.26185" lon="-2.3201">
        <ele>-6.4000000953674</ele>
        <time>2022-09-04T06:58:13.000Z</time>
      </trkpt>
      <trkpt lat="47.2617" lon="-2.32016">
        <ele>-6.4000000953674</ele>
        <time>2022-09-04T06:58:18.000Z</time>
      </trkpt>
      <trkpt lat="47.2616" lon="-2.32035">
        <ele>-6.4000000953674</ele>
        <time>2022-09-04T06:58:22.000Z</time>
      </trkpt>
      <trkpt lat="47.26145" lon="-2.32079">
        <ele>-6.4000000953674</ele>
        <time>2022-09-04T06:58:30.000Z</time>
      </trkpt>
      <trkpt lat="47.26137" lon="-2.32112">
        <ele>-6.4000000953674</ele>
        <time>2022-09-04T06:58:36.000Z</time>
      </trkpt>
      <trkpt lat="47.26127" lon="-2.32142">
        <ele>-6.4000000953674</ele>
        <time>2022-09-04T06:58:42.000Z</time>
      </trkpt>
      <trkpt lat="47.26114" lon="-2.32174">
        <ele>-6.4000000953674</ele>
        <time>2022-09-04T06:58:48.000Z</time>
      </trkpt>
      <trkpt lat="47.26101" lon="-2.32203">
        <ele>-6.4000000953674</ele>
        <time>2022-09-04T06:58:54.000Z</time>
      </trkpt>
      <trkpt lat="47.26085" lon="-2.32228">
        <ele>-6.4000000953674</ele>
        <time>2022-09-04T06:59:00.000Z</time>
      </trkpt>
      <trkpt lat="47.2607" lon="-2.32247">
        <ele>-6.4000000953674</ele>
        <time>2022-09-04T06:59:05.000Z</time>
      </trkpt>
      <trkpt lat="47.26067" lon="-2.32251">
        <ele>-6.4000000953674</ele>
        <time>2022-09-04T06:59:06.000Z</time>
      </trkpt>
      <trkpt lat="47.26061" lon="-2.32259">
        <ele>-6.4000000953674</ele>
        <time>2022-09-04T06:59:08.000Z</time>
      </trkpt>
      <trkpt lat="47.26053" lon="-2.32267">
        <ele>-6.4000000953674</ele>
        <time>2022-09-04T06:59:10.000Z</time>
      </trkpt>
      <trkpt lat="47.26034" lon="-2.32287">
        <ele>-6.4000000953674</ele>
        <time>2022-09-04T06:59:15.000Z</time>
      </trkpt>
      <trkpt lat="47.26024" lon="-2.32299">
        <ele>-6.4000000953674</ele>
        <time>2022-09-04T06:59:18.000Z</time>
      </trkpt>
      <trkpt lat="47.26011" lon="-2.32315">
        <ele>-6.4000000953674</ele>
        <time>2022-09-04T06:59:22.000Z</time>
      </trkpt>
      <trkpt lat="47.25984" lon="-2.3235">
        <ele>-6.4000000953674</ele>
        <time>2022-09-04T06:59:30.000Z</time>
      </trkpt>
      <trkpt lat="47.25974" lon="-2.32362">
        <ele>-6.4000000953674</ele>
        <time>2022-09-04T06:59:33.000Z</time>
      </trkpt>
      <trkpt lat="47.25954" lon="-2.32386">
        <ele>-6.4000000953674</ele>
        <time>2022-09-04T06:59:39.000Z</time>
      </trkpt>
      <trkpt lat="47.25929" lon="-2.32419">
        <ele>-6.4000000953674</ele>
        <time>2022-09-04T06:59:47.000Z</time>
      </trkpt>
      <trkpt lat="47.25909" lon="-2.32445">
        <ele>-6.4000000953674</ele>
        <time>2022-09-04T06:59:54.000Z</time>
      </trkpt>
      <trkpt lat="47.25892" lon="-2.32465">
        <ele>-6.4000000953674</ele>
        <time>2022-09-04T07:00:00.000Z</time>
      </trkpt>
      <trkpt lat="47.25878" lon="-2.32471">
        <ele>-6.4000000953674</ele>
        <time>2022-09-04T07:00:04.000Z</time>
      </trkpt>
      <trkpt lat="47.25858" lon="-2.32474">
        <ele>-6.4000000953674</ele>
        <time>2022-09-04T07:00:09.000Z</time>
      </trkpt>
      <trkpt lat="47.2585" lon="-2.32474">
        <ele>-6.4000000953674</ele>
        <time>2022-09-04T07:00:11.000Z</time>
      </trkpt>
      <trkpt lat="47.25825" lon="-2.32465">
        <ele>-6.4000000953674</ele>
        <time>2022-09-04T07:00:17.000Z</time>
      </trkpt>
      <trkpt lat="47.258" lon="-2.32454">
        <ele>-6.4000000953674</ele>
        <time>2022-09-04T07:00:24.000Z</time>
      </trkpt>
      <trkpt lat="47.25787" lon="-2.32456">
        <ele>-6.4000000953674</ele>
        <time>2022-09-04T07:00:28.000Z</time>
      </trkpt>
      <trkpt lat="47.25776" lon="-2.32446">
        <ele>-6.4000000953674</ele>
        <time>2022-09-04T07:00:31.000Z</time>
      </trkpt>
      <trkpt lat="47.25761" lon="-2.32425">
        <ele>-6.4000000953674</ele>
        <time>2022-09-04T07:00:36.000Z</time>
      </trkpt>
      <trkpt lat="47.25743" lon="-2.32423">
        <ele>-6.4000000953674</ele>
        <time>2022-09-04T07:00:40.000Z</time>
      </trkpt>
      <trkpt lat="47.25738" lon="-2.32423">
        <ele>-6.4000000953674</ele>
        <time>2022-09-04T07:00:41.000Z</time>
      </trkpt>
      <trkpt lat="47.25701" lon="-2.32421">
        <ele>-6.4000000953674</ele>
        <time>2022-09-04T07:00:49.000Z</time>
      </trkpt>
      <trkpt lat="47.25669" lon="-2.32419">
        <ele>-6.4000000953674</ele>
        <time>2022-09-04T07:00:57.000Z</time>
      </trkpt>
      <trkpt lat="47.25665" lon="-2.32422">
        <ele>-6.4000000953674</ele>
        <time>2022-09-04T07:00:58.000Z</time>
      </trkpt>
      <trkpt lat="47.25662" lon="-2.32432">
        <ele>-6.4000000953674</ele>
        <time>2022-09-04T07:01:00.000Z</time>
      </trkpt>
      <trkpt lat="47.25665" lon="-2.32454">
        <ele>-6.4000000953674</ele>
        <time>2022-09-04T07:01:04.000Z</time>
      </trkpt>
      <trkpt lat="47.25667" lon="-2.3246">
        <ele>-6.4000000953674</ele>
        <time>2022-09-04T07:01:05.000Z</time>
      </trkpt>
      <trkpt lat="47.25671" lon="-2.32476">
        <ele>-6</ele>
        <time>2022-09-04T07:01:08.000Z</time>
      </trkpt>
      <trkpt lat="47.25673" lon="-2.32482">
        <ele>-5.5999999046326</ele>
        <time>2022-09-04T07:01:09.000Z</time>
      </trkpt>
      <trkpt lat="47.25674" lon="-2.32487">
        <ele>-5.1999998092651</ele>
        <time>2022-09-04T07:01:10.000Z</time>
      </trkpt>
      <trkpt lat="47.25676" lon="-2.32493">
        <ele>-4.8000001907349</ele>
        <time>2022-09-04T07:01:11.000Z</time>
      </trkpt>
      <trkpt lat="47.25678" lon="-2.32498">
        <ele>-4.1999998092651</ele>
        <time>2022-09-04T07:01:12.000Z</time>
      </trkpt>
      <trkpt lat="47.25679" lon="-2.32504">
        <ele>-4.1999998092651</ele>
        <time>2022-09-04T07:01:13.000Z</time>
      </trkpt>
      <trkpt lat="47.25689" lon="-2.32531">
        <ele>-4.1999998092651</ele>
        <time>2022-09-04T07:01:18.000Z</time>
      </trkpt>
      <trkpt lat="47.25692" lon="-2.32541">
        <ele>-4.1999998092651</ele>
        <time>2022-09-04T07:01:20.000Z</time>
      </trkpt>
      <trkpt lat="47.25695" lon="-2.3255">
        <ele>-3.7999999523163</ele>
        <time>2022-09-04T07:01:22.000Z</time>
      </trkpt>
      <trkpt lat="47.25697" lon="-2.32555">
        <ele>-3.4000000953674</ele>
        <time>2022-09-04T07:01:23.000Z</time>
      </trkpt>
      <trkpt lat="47.25698" lon="-2.3256">
        <ele>-3</ele>
        <time>2022-09-04T07:01:24.000Z</time>
      </trkpt>
      <trkpt lat="47.257" lon="-2.32565">
        <ele>-2.5999999046326</ele>
        <time>2022-09-04T07:01:25.000Z</time>
      </trkpt>
      <trkpt lat="47.25701" lon="-2.3257">
        <ele>-2.2000000476837</ele>
        <time>2022-09-04T07:01:26.000Z</time>
      </trkpt>
      <trkpt lat="47.25706" lon="-2.32585">
        <ele>-2.2000000476837</ele>
        <time>2022-09-04T07:01:29.000Z</time>
      </trkpt>
      <trkpt lat="47.25709" lon="-2.32612">
        <ele>-2.2000000476837</ele>
        <time>2022-09-04T07:01:34.000Z</time>
      </trkpt>
      <trkpt lat="47.25702" lon="-2.32624">
        <ele>-2.2000000476837</ele>
        <time>2022-09-04T07:01:37.000Z</time>
      </trkpt>
      <trkpt lat="47.25695" lon="-2.32627">
        <ele>-2.2000000476837</ele>
        <time>2022-09-04T07:01:39.000Z</time>
      </trkpt>
      <trkpt lat="47.2568" lon="-2.32632">
        <ele>-1.7999999523163</ele>
        <time>2022-09-04T07:01:43.000Z</time>
      </trkpt>
      <trkpt lat="47.25676" lon="-2.32634">
        <ele>-1.3999999761581</ele>
        <time>2022-09-04T07:01:44.000Z</time>
      </trkpt>
      <trkpt lat="47.25672" lon="-2.32635">
        <ele>-1</ele>
        <time>2022-09-04T07:01:45.000Z</time>
      </trkpt>
      <trkpt lat="47.25669" lon="-2.32637">
        <ele>-0.60000002384186</ele>
        <time>2022-09-04T07:01:46.000Z</time>
      </trkpt>
      <trkpt lat="47.25665" lon="-2.32639">
        <ele>-0.20000000298023</ele>
        <time>2022-09-04T07:01:47.000Z</time>
      </trkpt>
      <trkpt lat="47.25646" lon="-2.32646">
        <ele>-0.20000000298023</ele>
        <time>2022-09-04T07:01:52.000Z</time>
      </trkpt>
      <trkpt lat="47.25624" lon="-2.32655">
        <ele>-0.20000000298023</ele>
        <time>2022-09-04T07:01:58.000Z</time>
      </trkpt>
      <trkpt lat="47.25609" lon="-2.32662">
        <ele>0.20000000298023</ele>
        <time>2022-09-04T07:02:02.000Z</time>
      </trkpt>
      <trkpt lat="47.25605" lon="-2.32664">
        <ele>0.60000002384186</ele>
        <time>2022-09-04T07:02:03.000Z</time>
      </trkpt>
      <trkpt lat="47.25602" lon="-2.32667">
        <ele>1</ele>
        <time>2022-09-04T07:02:04.000Z</time>
      </trkpt>
      <trkpt lat="47.25598" lon="-2.32669">
        <ele>1.3999999761581</ele>
        <time>2022-09-04T07:02:05.000Z</time>
      </trkpt>
      <trkpt lat="47.25595" lon="-2.32671">
        <ele>1.7999999523163</ele>
        <time>2022-09-04T07:02:06.000Z</time>
      </trkpt>
      <trkpt lat="47.25567" lon="-2.32682">
        <ele>1.7999999523163</ele>
        <time>2022-09-04T07:02:13.000Z</time>
      </trkpt>
      <trkpt lat="47.25543" lon="-2.32692">
        <ele>1.7999999523163</ele>
        <time>2022-09-04T07:02:19.000Z</time>
      </trkpt>
      <trkpt lat="47.25539" lon="-2.32693">
        <ele>1.7999999523163</ele>
        <time>2022-09-04T07:02:20.000Z</time>
      </trkpt>
      <trkpt lat="47.25506" lon="-2.327">
        <ele>1.7999999523163</ele>
        <time>2022-09-04T07:02:28.000Z</time>
      </trkpt>
      <trkpt lat="47.2548" lon="-2.32707">
        <ele>1.7999999523163</ele>
        <time>2022-09-04T07:02:35.000Z</time>
      </trkpt>
      <trkpt lat="47.25476" lon="-2.3271">
        <ele>1.7999999523163</ele>
        <time>2022-09-04T07:02:36.000Z</time>
      </trkpt>
      <trkpt lat="47.25461" lon="-2.32731">
        <ele>1.7999999523163</ele>
        <time>2022-09-04T07:02:41.000Z</time>
      </trkpt>
      <trkpt lat="47.25439" lon="-2.32762">
        <ele>1.7999999523163</ele>
        <time>2022-09-04T07:02:48.000Z</time>
      </trkpt>
      <trkpt lat="47.25437" lon="-2.32766">
        <ele>1.7999999523163</ele>
        <time>2022-09-04T07:02:49.000Z</time>
      </trkpt>
      <trkpt lat="47.25427" lon="-2.32789">
        <ele>1.7999999523163</ele>
        <time>2022-09-04T07:02:54.000Z</time>
      </trkpt>
      <trkpt lat="47.25423" lon="-2.32793">
        <ele>1.7999999523163</ele>
        <time>2022-09-04T07:02:55.000Z</time>
      </trkpt>
      <trkpt lat="47.25408" lon="-2.32815">
        <ele>1.3999999761581</ele>
        <time>2022-09-04T07:03:00.000Z</time>
      </trkpt>
      <trkpt lat="47.25404" lon="-2.3282">
        <ele>1</ele>
        <time>2022-09-04T07:03:01.000Z</time>
      </trkpt>
      <trkpt lat="47.254" lon="-2.32824">
        <ele>0.60000002384186</ele>
        <time>2022-09-04T07:03:02.000Z</time>
      </trkpt>
      <trkpt lat="47.25397" lon="-2.32829">
        <ele>0.20000000298023</ele>
        <time>2022-09-04T07:03:03.000Z</time>
      </trkpt>
      <trkpt lat="47.25393" lon="-2.32834">
        <ele>-0.20000000298023</ele>
        <time>2022-09-04T07:03:04.000Z</time>
      </trkpt>
      <trkpt lat="47.25386" lon="-2.32843">
        <ele>-0.20000000298023</ele>
        <time>2022-09-04T07:03:06.000Z</time>
      </trkpt>
      <trkpt lat="47.25375" lon="-2.32855">
        <ele>-0.20000000298023</ele>
        <time>2022-09-04T07:03:09.000Z</time>
      </trkpt>
      <trkpt lat="47.25343" lon="-2.32887">
        <ele>-0.20000000298023</ele>
        <time>2022-09-04T07:03:18.000Z</time>
      </trkpt>
      <trkpt lat="47.25329" lon="-2.32901">
        <ele>-0.20000000298023</ele>
        <time>2022-09-04T07:03:22.000Z</time>
      </trkpt>
      <trkpt lat="47.25318" lon="-2.32912">
        <ele>-0.20000000298023</ele>
        <time>2022-09-04T07:03:25.000Z</time>
      </trkpt>
      <trkpt lat="47.25315" lon="-2.32915">
        <ele>-0.20000000298023</ele>
        <time>2022-09-04T07:03:26.000Z</time>
      </trkpt>
      <trkpt lat="47.25308" lon="-2.32928">
        <ele>-0.20000000298023</ele>
        <time>2022-09-04T07:03:29.000Z</time>
      </trkpt>
      <trkpt lat="47.25309" lon="-2.32955">
        <ele>-0.20000000298023</ele>
        <time>2022-09-04T07:03:34.000Z</time>
      </trkpt>
      <trkpt lat="47.25311" lon="-2.3296">
        <ele>-0.20000000298023</ele>
        <time>2022-09-04T07:03:35.000Z</time>
      </trkpt>
      <trkpt lat="47.25321" lon="-2.32987">
        <ele>-0.20000000298023</ele>
        <time>2022-09-04T07:03:40.000Z</time>
      </trkpt>
      <trkpt lat="47.25324" lon="-2.32992">
        <ele>-0.20000000298023</ele>
        <time>2022-09-04T07:03:41.000Z</time>
      </trkpt>
      <trkpt lat="47.25332" lon="-2.33008">
        <ele>-0.20000000298023</ele>
        <time>2022-09-04T07:03:44.000Z</time>
      </trkpt>
      <trkpt lat="47.25336" lon="-2.33019">
        <ele>-0.20000000298023</ele>
        <time>2022-09-04T07:03:46.000Z</time>
      </trkpt>
      <trkpt lat="47.2535" lon="-2.3305">
        <ele>-0.20000000298023</ele>
        <time>2022-09-04T07:03:52.000Z</time>
      </trkpt>
      <trkpt lat="47.25365" lon="-2.33089">
        <ele>-0.20000000298023</ele>
        <time>2022-09-04T07:04:00.000Z</time>
      </trkpt>
      <trkpt lat="47.25374" lon="-2.33117">
        <ele>-0.20000000298023</ele>
        <time>2022-09-04T07:04:07.000Z</time>
      </trkpt>
      <trkpt lat="47.25373" lon="-2.33119">
        <ele>-0.20000000298023</ele>
        <time>2022-09-04T07:04:11.000Z</time>
      </trkpt>
      <trkpt lat="47.25374" lon="-2.33115">
        <ele>-0.20000000298023</ele>
        <time>2022-09-04T07:11:26.000Z</time>
      </trkpt>
      <trkpt lat="47.25373" lon="-2.3311">
        <ele>-0.20000000298023</ele>
        <time>2022-09-04T07:11:28.000Z</time>
      </trkpt>
      <trkpt lat="47.25365" lon="-2.33092">
        <ele>-0.20000000298023</ele>
        <time>2022-09-04T07:11:32.000Z</time>
      </trkpt>
      <trkpt lat="47.25363" lon="-2.33087">
        <ele>-0.20000000298023</ele>
        <time>2022-09-04T07:11:33.000Z</time>
      </trkpt>
      <trkpt lat="47.25354" lon="-2.3306">
        <ele>-0.20000000298023</ele>
        <time>2022-09-04T07:11:38.000Z</time>
      </trkpt>
      <trkpt lat="47.25335" lon="-2.33012">
        <ele>-0.20000000298023</ele>
        <time>2022-09-04T07:11:47.000Z</time>
      </trkpt>
      <trkpt lat="47.25331" lon="-2.33001">
        <ele>-0.20000000298023</ele>
        <time>2022-09-04T07:11:49.000Z</time>
      </trkpt>
      <trkpt lat="47.25317" lon="-2.32968">
        <ele>-0.20000000298023</ele>
        <time>2022-09-04T07:11:55.000Z</time>
      </trkpt>
      <trkpt lat="47.25307" lon="-2.32937">
        <ele>-0.20000000298023</ele>
        <time>2022-09-04T07:12:00.000Z</time>
      </trkpt>
      <trkpt lat="47.25307" lon="-2.32925">
        <ele>-0.20000000298023</ele>
        <time>2022-09-04T07:12:02.000Z</time>
      </trkpt>
      <trkpt lat="47.25315" lon="-2.32911">
        <ele>-0.20000000298023</ele>
        <time>2022-09-04T07:12:05.000Z</time>
      </trkpt>
      <trkpt lat="47.25319" lon="-2.32907">
        <ele>-0.20000000298023</ele>
        <time>2022-09-04T07:12:06.000Z</time>
      </trkpt>
      <trkpt lat="47.25326" lon="-2.329">
        <ele>-0.20000000298023</ele>
        <time>2022-09-04T07:12:08.000Z</time>
      </trkpt>
      <trkpt lat="47.25336" lon="-2.32892">
        <ele>-0.20000000298023</ele>
        <time>2022-09-04T07:12:11.000Z</time>
      </trkpt>
      <trkpt lat="47.25367" lon="-2.32861">
        <ele>-0.20000000298023</ele>
        <time>2022-09-04T07:12:20.000Z</time>
      </trkpt>
      <trkpt lat="47.25396" lon="-2.32829">
        <ele>-0.20000000298023</ele>
        <time>2022-09-04T07:12:28.000Z</time>
      </trkpt>
      <trkpt lat="47.25423" lon="-2.3279">
        <ele>-0.20000000298023</ele>
        <time>2022-09-04T07:12:37.000Z</time>
      </trkpt>
      <trkpt lat="47.25426" lon="-2.32769">
        <ele>-0.20000000298023</ele>
        <time>2022-09-04T07:12:41.000Z</time>
      </trkpt>
      <trkpt lat="47.25418" lon="-2.32751">
        <ele>0.20000000298023</ele>
        <time>2022-09-04T07:12:45.000Z</time>
      </trkpt>
      <trkpt lat="47.25415" lon="-2.32746">
        <ele>0.60000002384186</ele>
        <time>2022-09-04T07:12:46.000Z</time>
      </trkpt>
      <trkpt lat="47.25412" lon="-2.32742">
        <ele>1</ele>
        <time>2022-09-04T07:12:47.000Z</time>
      </trkpt>
      <trkpt lat="47.2541" lon="-2.32737">
        <ele>1.7999999523163</ele>
        <time>2022-09-04T07:12:48.000Z</time>
      </trkpt>
      <trkpt lat="47.254" lon="-2.32716">
        <ele>2.2000000476837</ele>
        <time>2022-09-04T07:12:52.000Z</time>
      </trkpt>
      <trkpt lat="47.25398" lon="-2.32711">
        <ele>2.7999999523163</ele>
        <time>2022-09-04T07:12:53.000Z</time>
      </trkpt>
      <trkpt lat="47.25396" lon="-2.32707">
        <ele>3.2000000476837</ele>
        <time>2022-09-04T07:12:54.000Z</time>
      </trkpt>
      <trkpt lat="47.25393" lon="-2.32703">
        <ele>3.5999999046326</ele>
        <time>2022-09-04T07:12:55.000Z</time>
      </trkpt>
      <trkpt lat="47.25391" lon="-2.32698">
        <ele>4</ele>
        <time>2022-09-04T07:12:56.000Z</time>
      </trkpt>
      <trkpt lat="47.25388" lon="-2.32693">
        <ele>4</ele>
        <time>2022-09-04T07:12:57.000Z</time>
      </trkpt>
      <trkpt lat="47.25374" lon="-2.3266">
        <ele>4.4000000953674</ele>
        <time>2022-09-04T07:13:04.000Z</time>
      </trkpt>
      <trkpt lat="47.25372" lon="-2.32655">
        <ele>4.8000001907349</ele>
        <time>2022-09-04T07:13:05.000Z</time>
      </trkpt>
      <trkpt lat="47.25369" lon="-2.3265">
        <ele>5.1999998092651</ele>
        <time>2022-09-04T07:13:06.000Z</time>
      </trkpt>
      <trkpt lat="47.25367" lon="-2.32645">
        <ele>5.5999999046326</ele>
        <time>2022-09-04T07:13:07.000Z</time>
      </trkpt>
      <trkpt lat="47.25364" lon="-2.3264">
        <ele>6.1999998092651</ele>
        <time>2022-09-04T07:13:08.000Z</time>
      </trkpt>
      <trkpt lat="47.25356" lon="-2.32625">
        <ele>6.1999998092651</ele>
        <time>2022-09-04T07:13:11.000Z</time>
      </trkpt>
      <trkpt lat="47.25335" lon="-2.32584">
        <ele>6.1999998092651</ele>
        <time>2022-09-04T07:13:19.000Z</time>
      </trkpt>
      <trkpt lat="47.25315" lon="-2.3255">
        <ele>6.1999998092651</ele>
        <time>2022-09-04T07:13:26.000Z</time>
      </trkpt>
      <trkpt lat="47.25312" lon="-2.32546">
        <ele>6.1999998092651</ele>
        <time>2022-09-04T07:13:27.000Z</time>
      </trkpt>
      <trkpt lat="47.25306" lon="-2.32536">
        <ele>6.5999999046326</ele>
        <time>2022-09-04T07:13:29.000Z</time>
      </trkpt>
      <trkpt lat="47.25303" lon="-2.32532">
        <ele>7</ele>
        <time>2022-09-04T07:13:30.000Z</time>
      </trkpt>
      <trkpt lat="47.253" lon="-2.32527">
        <ele>7.4000000953674</ele>
        <time>2022-09-04T07:13:31.000Z</time>
      </trkpt>
      <trkpt lat="47.25297" lon="-2.32523">
        <ele>7.8000001907349</ele>
        <time>2022-09-04T07:13:32.000Z</time>
      </trkpt>
      <trkpt lat="47.25293" lon="-2.32519">
        <ele>8.1999998092651</ele>
        <time>2022-09-04T07:13:33.000Z</time>
      </trkpt>
      <trkpt lat="47.25261" lon="-2.32478">
        <ele>8.1999998092651</ele>
        <time>2022-09-04T07:13:42.000Z</time>
      </trkpt>
      <trkpt lat="47.25237" lon="-2.32453">
        <ele>8.1999998092651</ele>
        <time>2022-09-04T07:13:48.000Z</time>
      </trkpt>
      <trkpt lat="47.25204" lon="-2.32418">
        <ele>8.1999998092651</ele>
        <time>2022-09-04T07:13:56.000Z</time>
      </trkpt>
      <trkpt lat="47.25175" lon="-2.32391">
        <ele>8.1999998092651</ele>
        <time>2022-09-04T07:14:03.000Z</time>
      </trkpt>
      <trkpt lat="47.25152" lon="-2.32367">
        <ele>8.1999998092651</ele>
        <time>2022-09-04T07:14:09.000Z</time>
      </trkpt>
      <trkpt lat="47.25145" lon="-2.32358">
        <ele>8.6000003814697</ele>
        <time>2022-09-04T07:14:11.000Z</time>
      </trkpt>
      <trkpt lat="47.25142" lon="-2.32352">
        <ele>9</ele>
        <time>2022-09-04T07:14:12.000Z</time>
      </trkpt>
      <trkpt lat="47.25139" lon="-2.32346">
        <ele>9.3999996185303</ele>
        <time>2022-09-04T07:14:13.000Z</time>
      </trkpt>
      <trkpt lat="47.25137" lon="-2.3234">
        <ele>9.8000001907349</ele>
        <time>2022-09-04T07:14:14.000Z</time>
      </trkpt>
      <trkpt lat="47.25136" lon="-2.32333">
        <ele>10.199999809265</ele>
        <time>2022-09-04T07:14:15.000Z</time>
      </trkpt>
      <trkpt lat="47.25133" lon="-2.32315">
        <ele>10.199999809265</ele>
        <time>2022-09-04T07:14:18.000Z</time>
      </trkpt>
      <trkpt lat="47.25132" lon="-2.32309">
        <ele>10.199999809265</ele>
        <time>2022-09-04T07:14:19.000Z</time>
      </trkpt>
      <trkpt lat="47.25132" lon="-2.32296">
        <ele>10.60000038147</ele>
        <time>2022-09-04T07:14:21.000Z</time>
      </trkpt>
      <trkpt lat="47.25132" lon="-2.3229">
        <ele>11</ele>
        <time>2022-09-04T07:14:22.000Z</time>
      </trkpt>
      <trkpt lat="47.25132" lon="-2.32283">
        <ele>11.39999961853</ele>
        <time>2022-09-04T07:14:23.000Z</time>
      </trkpt>
      <trkpt lat="47.25132" lon="-2.32277">
        <ele>11.800000190735</ele>
        <time>2022-09-04T07:14:24.000Z</time>
      </trkpt>
      <trkpt lat="47.25132" lon="-2.32271">
        <ele>12.199999809265</ele>
        <time>2022-09-04T07:14:25.000Z</time>
      </trkpt>
      <trkpt lat="47.25129" lon="-2.32223">
        <ele>12.199999809265</ele>
        <time>2022-09-04T07:14:33.000Z</time>
      </trkpt>
      <trkpt lat="47.25125" lon="-2.32182">
        <ele>12.199999809265</ele>
        <time>2022-09-04T07:14:39.000Z</time>
      </trkpt>
      <trkpt lat="47.25125" lon="-2.32176">
        <ele>12.199999809265</ele>
        <time>2022-09-04T07:14:40.000Z</time>
      </trkpt>
      <trkpt lat="47.25122" lon="-2.32148">
        <ele>12.199999809265</ele>
        <time>2022-09-04T07:14:44.000Z</time>
      </trkpt>
      <trkpt lat="47.25122" lon="-2.32128">
        <ele>12.199999809265</ele>
        <time>2022-09-04T07:14:47.000Z</time>
      </trkpt>
      <trkpt lat="47.25121" lon="-2.32114">
        <ele>12.199999809265</ele>
        <time>2022-09-04T07:14:49.000Z</time>
      </trkpt>
      <trkpt lat="47.2512" lon="-2.32094">
        <ele>12.199999809265</ele>
        <time>2022-09-04T07:14:52.000Z</time>
      </trkpt>
      <trkpt lat="47.25114" lon="-2.32037">
        <ele>12.199999809265</ele>
        <time>2022-09-04T07:15:00.000Z</time>
      </trkpt>
      <trkpt lat="47.25113" lon="-2.32003">
        <ele>12.199999809265</ele>
        <time>2022-09-04T07:15:05.000Z</time>
      </trkpt>
      <trkpt lat="47.25112" lon="-2.31996">
        <ele>12.199999809265</ele>
        <time>2022-09-04T07:15:06.000Z</time>
      </trkpt>
      <trkpt lat="47.25107" lon="-2.31976">
        <ele>12.199999809265</ele>
        <time>2022-09-04T07:15:09.000Z</time>
      </trkpt>
      <trkpt lat="47.25105" lon="-2.31945">
        <ele>12.199999809265</ele>
        <time>2022-09-04T07:15:13.000Z</time>
      </trkpt>
      <trkpt lat="47.25102" lon="-2.31913">
        <ele>12.60000038147</ele>
        <time>2022-09-04T07:15:17.000Z</time>
      </trkpt>
      <trkpt lat="47.25101" lon="-2.31905">
        <ele>13.199999809265</ele>
        <time>2022-09-04T07:15:18.000Z</time>
      </trkpt>
      <trkpt lat="47.25099" lon="-2.31897">
        <ele>13.60000038147</ele>
        <time>2022-09-04T07:15:19.000Z</time>
      </trkpt>
      <trkpt lat="47.25098" lon="-2.31889">
        <ele>14</ele>
        <time>2022-09-04T07:15:20.000Z</time>
      </trkpt>
      <trkpt lat="47.25097" lon="-2.3188">
        <ele>14.39999961853</ele>
        <time>2022-09-04T07:15:21.000Z</time>
      </trkpt>
      <trkpt lat="47.25089" lon="-2.31823">
        <ele>14.39999961853</ele>
        <time>2022-09-04T07:15:28.000Z</time>
      </trkpt>
      <trkpt lat="47.25086" lon="-2.31808">
        <ele>14.39999961853</ele>
        <time>2022-09-04T07:15:30.000Z</time>
      </trkpt>
      <trkpt lat="47.25081" lon="-2.31789">
        <ele>14.39999961853</ele>
        <time>2022-09-04T07:15:33.000Z</time>
      </trkpt>
      <trkpt lat="47.2507" lon="-2.31744">
        <ele>14.39999961853</ele>
        <time>2022-09-04T07:15:40.000Z</time>
      </trkpt>
      <trkpt lat="47.25059" lon="-2.31697">
        <ele>14.39999961853</ele>
        <time>2022-09-04T07:15:47.000Z</time>
      </trkpt>
      <trkpt lat="47.25058" lon="-2.31692">
        <ele>14.39999961853</ele>
        <time>2022-09-04T07:15:48.000Z</time>
      </trkpt>
      <trkpt lat="47.25048" lon="-2.31656">
        <ele>14.39999961853</ele>
        <time>2022-09-04T07:15:54.000Z</time>
      </trkpt>
      <trkpt lat="47.2504" lon="-2.3164">
        <ele>14.39999961853</ele>
        <time>2022-09-04T07:15:58.000Z</time>
      </trkpt>
      <trkpt lat="47.25037" lon="-2.31635">
        <ele>14.39999961853</ele>
        <time>2022-09-04T07:15:59.000Z</time>
      </trkpt>
      <trkpt lat="47.25026" lon="-2.31622">
        <ele>14.39999961853</ele>
        <time>2022-09-04T07:16:02.000Z</time>
      </trkpt>
      <trkpt lat="47.25023" lon="-2.31618">
        <ele>14.39999961853</ele>
        <time>2022-09-04T07:16:03.000Z</time>
      </trkpt>
      <trkpt lat="47.25016" lon="-2.31611">
        <ele>14.800000190735</ele>
        <time>2022-09-04T07:16:05.000Z</time>
      </trkpt>
      <trkpt lat="47.25013" lon="-2.31607">
        <ele>15.199999809265</ele>
        <time>2022-09-04T07:16:06.000Z</time>
      </trkpt>
      <trkpt lat="47.25009" lon="-2.31603">
        <ele>15.60000038147</ele>
        <time>2022-09-04T07:16:07.000Z</time>
      </trkpt>
      <trkpt lat="47.25005" lon="-2.316">
        <ele>16</ele>
        <time>2022-09-04T07:16:08.000Z</time>
      </trkpt>
      <trkpt lat="47.25002" lon="-2.31596">
        <ele>16.60000038147</ele>
        <time>2022-09-04T07:16:09.000Z</time>
      </trkpt>
      <trkpt lat="47.24999" lon="-2.31593">
        <ele>16.60000038147</ele>
        <time>2022-09-04T07:16:10.000Z</time>
      </trkpt>
      <trkpt lat="47.24977" lon="-2.31567">
        <ele>16.60000038147</ele>
        <time>2022-09-04T07:16:17.000Z</time>
      </trkpt>
      <trkpt lat="47.24969" lon="-2.31542">
        <ele>16.60000038147</ele>
        <time>2022-09-04T07:16:21.000Z</time>
      </trkpt>
      <trkpt lat="47.24963" lon="-2.31498">
        <ele>16.60000038147</ele>
        <time>2022-09-04T07:16:28.000Z</time>
      </trkpt>
      <trkpt lat="47.24961" lon="-2.31453">
        <ele>16.60000038147</ele>
        <time>2022-09-04T07:16:35.000Z</time>
      </trkpt>
      <trkpt lat="47.24959" lon="-2.31433">
        <ele>16.60000038147</ele>
        <time>2022-09-04T07:16:38.000Z</time>
      </trkpt>
      <trkpt lat="47.24954" lon="-2.31405">
        <ele>16.60000038147</ele>
        <time>2022-09-04T07:16:42.000Z</time>
      </trkpt>
      <trkpt lat="47.24944" lon="-2.31368">
        <ele>16.60000038147</ele>
        <time>2022-09-04T07:16:48.000Z</time>
      </trkpt>
      <trkpt lat="47.2494" lon="-2.31356">
        <ele>17</ele>
        <time>2022-09-04T07:16:50.000Z</time>
      </trkpt>
      <trkpt lat="47.24938" lon="-2.31349">
        <ele>17.39999961853</ele>
        <time>2022-09-04T07:16:51.000Z</time>
      </trkpt>
      <trkpt lat="47.24937" lon="-2.31342">
        <ele>17.799999237061</ele>
        <time>2022-09-04T07:16:52.000Z</time>
      </trkpt>
      <trkpt lat="47.24935" lon="-2.31336">
        <ele>18.200000762939</ele>
        <time>2022-09-04T07:16:53.000Z</time>
      </trkpt>
      <trkpt lat="47.24933" lon="-2.31329">
        <ele>18.60000038147</ele>
        <time>2022-09-04T07:16:54.000Z</time>
      </trkpt>
      <trkpt lat="47.2493" lon="-2.31323">
        <ele>18.60000038147</ele>
        <time>2022-09-04T07:16:55.000Z</time>
      </trkpt>
      <trkpt lat="47.24924" lon="-2.31302">
        <ele>18.60000038147</ele>
        <time>2022-09-04T07:17:00.000Z</time>
      </trkpt>
      <trkpt lat="47.24919" lon="-2.31282">
        <ele>18.60000038147</ele>
        <time>2022-09-04T07:17:05.000Z</time>
      </trkpt>
      <trkpt lat="47.2491" lon="-2.3125">
        <ele>18.60000038147</ele>
        <time>2022-09-04T07:17:10.000Z</time>
      </trkpt>
      <trkpt lat="47.24895" lon="-2.312">
        <ele>18.60000038147</ele>
        <time>2022-09-04T07:17:17.000Z</time>
      </trkpt>
      <trkpt lat="47.24881" lon="-2.31147">
        <ele>18.60000038147</ele>
        <time>2022-09-04T07:17:25.000Z</time>
      </trkpt>
      <trkpt lat="47.24868" lon="-2.31105">
        <ele>18.60000038147</ele>
        <time>2022-09-04T07:17:31.000Z</time>
      </trkpt>
      <trkpt lat="47.24848" lon="-2.31046">
        <ele>18.60000038147</ele>
        <time>2022-09-04T07:17:39.000Z</time>
      </trkpt>
      <trkpt lat="47.24831" lon="-2.31001">
        <ele>18.60000038147</ele>
        <time>2022-09-04T07:17:46.000Z</time>
      </trkpt>
      <trkpt lat="47.24822" lon="-2.3098">
        <ele>18.60000038147</ele>
        <time>2022-09-04T07:17:50.000Z</time>
      </trkpt>
      <trkpt lat="47.24816" lon="-2.30967">
        <ele>18.60000038147</ele>
        <time>2022-09-04T07:17:53.000Z</time>
      </trkpt>
      <trkpt lat="47.24811" lon="-2.30965">
        <ele>18.60000038147</ele>
        <time>2022-09-04T07:17:54.000Z</time>
      </trkpt>
      <trkpt lat="47.24803" lon="-2.30968">
        <ele>18.60000038147</ele>
        <time>2022-09-04T07:17:56.000Z</time>
      </trkpt>
      <trkpt lat="47.24793" lon="-2.30975">
        <ele>18.60000038147</ele>
        <time>2022-09-04T07:17:58.000Z</time>
      </trkpt>
      <trkpt lat="47.24777" lon="-2.30983">
        <ele>18.60000038147</ele>
        <time>2022-09-04T07:18:01.000Z</time>
      </trkpt>
      <trkpt lat="47.24747" lon="-2.30997">
        <ele>18.200000762939</ele>
        <time>2022-09-04T07:18:06.000Z</time>
      </trkpt>
      <trkpt lat="47.2474" lon="-2.31001">
        <ele>17.60000038147</ele>
        <time>2022-09-04T07:18:07.000Z</time>
      </trkpt>
      <trkpt lat="47.24735" lon="-2.31007">
        <ele>17.200000762939</ele>
        <time>2022-09-04T07:18:08.000Z</time>
      </trkpt>
      <trkpt lat="47.24729" lon="-2.31013">
        <ele>16.39999961853</ele>
        <time>2022-09-04T07:18:09.000Z</time>
      </trkpt>
      <trkpt lat="47.2472" lon="-2.31028">
        <ele>16.39999961853</ele>
        <time>2022-09-04T07:18:11.000Z</time>
      </trkpt>
      <trkpt lat="47.24716" lon="-2.31035">
        <ele>16</ele>
        <time>2022-09-04T07:18:12.000Z</time>
      </trkpt>
      <trkpt lat="47.24711" lon="-2.31043">
        <ele>15.39999961853</ele>
        <time>2022-09-04T07:18:13.000Z</time>
      </trkpt>
      <trkpt lat="47.24707" lon="-2.31051">
        <ele>15</ele>
        <time>2022-09-04T07:18:14.000Z</time>
      </trkpt>
      <trkpt lat="47.24703" lon="-2.31059">
        <ele>14.60000038147</ele>
        <time>2022-09-04T07:18:15.000Z</time>
      </trkpt>
      <trkpt lat="47.24699" lon="-2.31067">
        <ele>14.199999809265</ele>
        <time>2022-09-04T07:18:16.000Z</time>
      </trkpt>
      <trkpt lat="47.24691" lon="-2.31081">
        <ele>14.199999809265</ele>
        <time>2022-09-04T07:18:18.000Z</time>
      </trkpt>
      <trkpt lat="47.24668" lon="-2.31125">
        <ele>14.199999809265</ele>
        <time>2022-09-04T07:18:24.000Z</time>
      </trkpt>
      <trkpt lat="47.24647" lon="-2.31159">
        <ele>14.199999809265</ele>
        <time>2022-09-04T07:18:29.000Z</time>
      </trkpt>
      <trkpt lat="47.24623" lon="-2.31187">
        <ele>14.199999809265</ele>
        <time>2022-09-04T07:18:35.000Z</time>
      </trkpt>
      <trkpt lat="47.24596" lon="-2.31215">
        <ele>14.199999809265</ele>
        <time>2022-09-04T07:18:41.000Z</time>
      </trkpt>
      <trkpt lat="47.2457" lon="-2.31243">
        <ele>14.199999809265</ele>
        <time>2022-09-04T07:18:48.000Z</time>
      </trkpt>
      <trkpt lat="47.24546" lon="-2.31271">
        <ele>14.199999809265</ele>
        <time>2022-09-04T07:18:54.000Z</time>
      </trkpt>
      <trkpt lat="47.24527" lon="-2.31287">
        <ele>13.800000190735</ele>
        <time>2022-09-04T07:18:58.000Z</time>
      </trkpt>
      <trkpt lat="47.24522" lon="-2.31291">
        <ele>13.39999961853</ele>
        <time>2022-09-04T07:18:59.000Z</time>
      </trkpt>
      <trkpt lat="47.24516" lon="-2.31296">
        <ele>13</ele>
        <time>2022-09-04T07:19:00.000Z</time>
      </trkpt>
      <trkpt lat="47.2451" lon="-2.313">
        <ele>12.60000038147</ele>
        <time>2022-09-04T07:19:01.000Z</time>
      </trkpt>
      <trkpt lat="47.24506" lon="-2.31304">
        <ele>12.199999809265</ele>
        <time>2022-09-04T07:19:02.000Z</time>
      </trkpt>
      <trkpt lat="47.24497" lon="-2.31311">
        <ele>12.199999809265</ele>
        <time>2022-09-04T07:19:04.000Z</time>
      </trkpt>
      <trkpt lat="47.24492" lon="-2.31311">
        <ele>11.800000190735</ele>
        <time>2022-09-04T07:19:05.000Z</time>
      </trkpt>
      <trkpt lat="47.24488" lon="-2.3131">
        <ele>11.39999961853</ele>
        <time>2022-09-04T07:19:06.000Z</time>
      </trkpt>
      <trkpt lat="47.24484" lon="-2.31307">
        <ele>10.800000190735</ele>
        <time>2022-09-04T07:19:07.000Z</time>
      </trkpt>
      <trkpt lat="47.2448" lon="-2.31303">
        <ele>10.39999961853</ele>
        <time>2022-09-04T07:19:08.000Z</time>
      </trkpt>
      <trkpt lat="47.24476" lon="-2.31297">
        <ele>10</ele>
        <time>2022-09-04T07:19:09.000Z</time>
      </trkpt>
      <trkpt lat="47.24474" lon="-2.3129">
        <ele>10</ele>
        <time>2022-09-04T07:19:10.000Z</time>
      </trkpt>
      <trkpt lat="47.24472" lon="-2.31283">
        <ele>10</ele>
        <time>2022-09-04T07:19:11.000Z</time>
      </trkpt>
      <trkpt lat="47.24469" lon="-2.31276">
        <ele>10</ele>
        <time>2022-09-04T07:19:12.000Z</time>
      </trkpt>
      <trkpt lat="47.24462" lon="-2.31264">
        <ele>9.3999996185303</ele>
        <time>2022-09-04T07:19:14.000Z</time>
      </trkpt>
      <trkpt lat="47.24459" lon="-2.31258">
        <ele>9</ele>
        <time>2022-09-04T07:19:15.000Z</time>
      </trkpt>
      <trkpt lat="47.24457" lon="-2.31251">
        <ele>8.6000003814697</ele>
        <time>2022-09-04T07:19:16.000Z</time>
      </trkpt>
      <trkpt lat="47.24455" lon="-2.31245">
        <ele>8</ele>
        <time>2022-09-04T07:19:17.000Z</time>
      </trkpt>
      <trkpt lat="47.24454" lon="-2.31239">
        <ele>7.5999999046326</ele>
        <time>2022-09-04T07:19:18.000Z</time>
      </trkpt>
      <trkpt lat="47.24453" lon="-2.31235">
        <ele>7.5999999046326</ele>
        <time>2022-09-04T07:19:19.000Z</time>
      </trkpt>
      <trkpt lat="47.24445" lon="-2.31224">
        <ele>7.5999999046326</ele>
        <time>2022-09-04T07:19:22.000Z</time>
      </trkpt>
      <trkpt lat="47.24444" lon="-2.31222">
        <ele>7.5999999046326</ele>
        <time>2022-09-04T07:19:23.000Z</time>
      </trkpt>
      <trkpt lat="47.24441" lon="-2.31222">
        <ele>7.1999998092651</ele>
        <time>2022-09-04T07:19:24.000Z</time>
      </trkpt>
      <trkpt lat="47.24438" lon="-2.31224">
        <ele>6.8000001907349</ele>
        <time>2022-09-04T07:19:25.000Z</time>
      </trkpt>
      <trkpt lat="47.24436" lon="-2.31225">
        <ele>6.1999998092651</ele>
        <time>2022-09-04T07:19:26.000Z</time>
      </trkpt>
      <trkpt lat="47.24434" lon="-2.31226">
        <ele>5.8000001907349</ele>
        <time>2022-09-04T07:19:27.000Z</time>
      </trkpt>
      <trkpt lat="47.24432" lon="-2.31225">
        <ele>5.4000000953674</ele>
        <time>2022-09-04T07:19:28.000Z</time>
      </trkpt>
      <trkpt lat="47.24429" lon="-2.31224">
        <ele>5.4000000953674</ele>
        <time>2022-09-04T07:19:30.000Z</time>
      </trkpt>
      <trkpt lat="47.24425" lon="-2.3122">
        <ele>5.4000000953674</ele>
        <time>2022-09-04T07:19:32.000Z</time>
      </trkpt>
      <trkpt lat="47.24423" lon="-2.31215">
        <ele>5.4000000953674</ele>
        <time>2022-09-04T07:19:33.000Z</time>
      </trkpt>
      <trkpt lat="47.24419" lon="-2.31207">
        <ele>5.4000000953674</ele>
        <time>2022-09-04T07:19:35.000Z</time>
      </trkpt>
      <trkpt lat="47.24415" lon="-2.31197">
        <ele>5.4000000953674</ele>
        <time>2022-09-04T07:19:38.000Z</time>
      </trkpt>
      <trkpt lat="47.24412" lon="-2.31192">
        <ele>5.4000000953674</ele>
        <time>2022-09-04T07:19:40.000Z</time>
      </trkpt>
      <trkpt lat="47.24402" lon="-2.3118">
        <ele>5.8000001907349</ele>
        <time>2022-09-04T07:19:44.000Z</time>
      </trkpt>
      <trkpt lat="47.24399" lon="-2.31176">
        <ele>6.1999998092651</ele>
        <time>2022-09-04T07:19:45.000Z</time>
      </trkpt>
      <trkpt lat="47.24395" lon="-2.31172">
        <ele>6.5999999046326</ele>
        <time>2022-09-04T07:19:46.000Z</time>
      </trkpt>
      <trkpt lat="47.24391" lon="-2.31168">
        <ele>7</ele>
        <time>2022-09-04T07:19:47.000Z</time>
      </trkpt>
      <trkpt lat="47.24387" lon="-2.31162">
        <ele>7.4000000953674</ele>
        <time>2022-09-04T07:19:48.000Z</time>
      </trkpt>
      <trkpt lat="47.24384" lon="-2.31158">
        <ele>7.4000000953674</ele>
        <time>2022-09-04T07:19:49.000Z</time>
      </trkpt>
      <trkpt lat="47.24366" lon="-2.31134">
        <ele>7.4000000953674</ele>
        <time>2022-09-04T07:19:55.000Z</time>
      </trkpt>
      <trkpt lat="47.24357" lon="-2.31112">
        <ele>7.4000000953674</ele>
        <time>2022-09-04T07:20:00.000Z</time>
      </trkpt>
      <trkpt lat="47.24346" lon="-2.31072">
        <ele>7.4000000953674</ele>
        <time>2022-09-04T07:20:07.000Z</time>
      </trkpt>
      <trkpt lat="47.24344" lon="-2.31066">
        <ele>7.4000000953674</ele>
        <time>2022-09-04T07:20:08.000Z</time>
      </trkpt>
      <trkpt lat="47.24335" lon="-2.31047">
        <ele>7.4000000953674</ele>
        <time>2022-09-04T07:20:12.000Z</time>
      </trkpt>
      <trkpt lat="47.24324" lon="-2.31037">
        <ele>7.4000000953674</ele>
        <time>2022-09-04T07:20:15.000Z</time>
      </trkpt>
      <trkpt lat="47.2432" lon="-2.31036">
        <ele>7.4000000953674</ele>
        <time>2022-09-04T07:20:16.000Z</time>
      </trkpt>
      <trkpt lat="47.24301" lon="-2.31036">
        <ele>7.4000000953674</ele>
        <time>2022-09-04T07:20:19.000Z</time>
      </trkpt>
      <trkpt lat="47.24295" lon="-2.31036">
        <ele>7.4000000953674</ele>
        <time>2022-09-04T07:20:20.000Z</time>
      </trkpt>
      <trkpt lat="47.24287" lon="-2.31036">
        <ele>7</ele>
        <time>2022-09-04T07:20:22.000Z</time>
      </trkpt>
      <trkpt lat="47.24285" lon="-2.31034">
        <ele>6.5999999046326</ele>
        <time>2022-09-04T07:20:23.000Z</time>
      </trkpt>
      <trkpt lat="47.24283" lon="-2.3103">
        <ele>6.1999998092651</ele>
        <time>2022-09-04T07:20:24.000Z</time>
      </trkpt>
      <trkpt lat="47.24282" lon="-2.31026">
        <ele>5.8000001907349</ele>
        <time>2022-09-04T07:20:25.000Z</time>
      </trkpt>
      <trkpt lat="47.24282" lon="-2.3102">
        <ele>5.1999998092651</ele>
        <time>2022-09-04T07:20:26.000Z</time>
      </trkpt>
      <trkpt lat="47.24285" lon="-2.30995">
        <ele>5.1999998092651</ele>
        <time>2022-09-04T07:20:30.000Z</time>
      </trkpt>
      <trkpt lat="47.24287" lon="-2.30965">
        <ele>5.8000001907349</ele>
        <time>2022-09-04T07:20:35.000Z</time>
      </trkpt>
      <trkpt lat="47.24288" lon="-2.30959">
        <ele>6.1999998092651</ele>
        <time>2022-09-04T07:20:36.000Z</time>
      </trkpt>
      <trkpt lat="47.24288" lon="-2.30953">
        <ele>7.1999998092651</ele>
        <time>2022-09-04T07:20:37.000Z</time>
      </trkpt>
      <trkpt lat="47.2429" lon="-2.30948">
        <ele>7.5999999046326</ele>
        <time>2022-09-04T07:20:38.000Z</time>
      </trkpt>
      <trkpt lat="47.24295" lon="-2.30933">
        <ele>8</ele>
        <time>2022-09-04T07:20:41.000Z</time>
      </trkpt>
      <trkpt lat="47.24295" lon="-2.30927">
        <ele>8.3999996185303</ele>
        <time>2022-09-04T07:20:42.000Z</time>
      </trkpt>
      <trkpt lat="47.24296" lon="-2.30922">
        <ele>9</ele>
        <time>2022-09-04T07:20:43.000Z</time>
      </trkpt>
      <trkpt lat="47.24294" lon="-2.30916">
        <ele>9.3999996185303</ele>
        <time>2022-09-04T07:20:44.000Z</time>
      </trkpt>
      <trkpt lat="47.24292" lon="-2.30911">
        <ele>9.8000001907349</ele>
        <time>2022-09-04T07:20:45.000Z</time>
      </trkpt>
      <trkpt lat="47.24287" lon="-2.3088">
        <ele>9.8000001907349</ele>
        <time>2022-09-04T07:20:50.000Z</time>
      </trkpt>
      <trkpt lat="47.24288" lon="-2.30854">
        <ele>9.8000001907349</ele>
        <time>2022-09-04T07:20:54.000Z</time>
      </trkpt>
      <trkpt lat="47.24289" lon="-2.30848">
        <ele>9.8000001907349</ele>
        <time>2022-09-04T07:20:55.000Z</time>
      </trkpt>
      <trkpt lat="47.24291" lon="-2.30843">
        <ele>10.199999809265</ele>
        <time>2022-09-04T07:20:56.000Z</time>
      </trkpt>
      <trkpt lat="47.24293" lon="-2.30839">
        <ele>10.60000038147</ele>
        <time>2022-09-04T07:20:57.000Z</time>
      </trkpt>
      <trkpt lat="47.24295" lon="-2.30834">
        <ele>11.199999809265</ele>
        <time>2022-09-04T07:20:58.000Z</time>
      </trkpt>
      <trkpt lat="47.24297" lon="-2.30829">
        <ele>11.60000038147</ele>
        <time>2022-09-04T07:20:59.000Z</time>
      </trkpt>
      <trkpt lat="47.243" lon="-2.30824">
        <ele>12</ele>
        <time>2022-09-04T07:21:00.000Z</time>
      </trkpt>
      <trkpt lat="47.24312" lon="-2.30811">
        <ele>12</ele>
        <time>2022-09-04T07:21:04.000Z</time>
      </trkpt>
      <trkpt lat="47.24336" lon="-2.30797">
        <ele>12</ele>
        <time>2022-09-04T07:21:11.000Z</time>
      </trkpt>
      <trkpt lat="47.24348" lon="-2.30794">
        <ele>12.39999961853</ele>
        <time>2022-09-04T07:21:14.000Z</time>
      </trkpt>
      <trkpt lat="47.24352" lon="-2.30793">
        <ele>12.800000190735</ele>
        <time>2022-09-04T07:21:15.000Z</time>
      </trkpt>
      <trkpt lat="47.24355" lon="-2.30791">
        <ele>13.199999809265</ele>
        <time>2022-09-04T07:21:16.000Z</time>
      </trkpt>
      <trkpt lat="47.24359" lon="-2.3079">
        <ele>13.60000038147</ele>
        <time>2022-09-04T07:21:17.000Z</time>
      </trkpt>
      <trkpt lat="47.24363" lon="-2.30787">
        <ele>14</ele>
        <time>2022-09-04T07:21:18.000Z</time>
      </trkpt>
      <trkpt lat="47.24376" lon="-2.30771">
        <ele>14.39999961853</ele>
        <time>2022-09-04T07:21:23.000Z</time>
      </trkpt>
      <trkpt lat="47.24378" lon="-2.30768">
        <ele>14.800000190735</ele>
        <time>2022-09-04T07:21:24.000Z</time>
      </trkpt>
      <trkpt lat="47.2438" lon="-2.30764">
        <ele>15.199999809265</ele>
        <time>2022-09-04T07:21:25.000Z</time>
      </trkpt>
      <trkpt lat="47.24382" lon="-2.30761">
        <ele>16</ele>
        <time>2022-09-04T07:21:26.000Z</time>
      </trkpt>
      <trkpt lat="47.24385" lon="-2.30755">
        <ele>16</ele>
        <time>2022-09-04T07:21:28.000Z</time>
      </trkpt>
      <trkpt lat="47.24392" lon="-2.30748">
        <ele>16.39999961853</ele>
        <time>2022-09-04T07:21:31.000Z</time>
      </trkpt>
      <trkpt lat="47.24394" lon="-2.30744">
        <ele>16.799999237061</ele>
        <time>2022-09-04T07:21:32.000Z</time>
      </trkpt>
      <trkpt lat="47.24396" lon="-2.30739">
        <ele>17.200000762939</ele>
        <time>2022-09-04T07:21:33.000Z</time>
      </trkpt>
      <trkpt lat="47.24397" lon="-2.30735">
        <ele>17.799999237061</ele>
        <time>2022-09-04T07:21:34.000Z</time>
      </trkpt>
      <trkpt lat="47.24398" lon="-2.30731">
        <ele>18.200000762939</ele>
        <time>2022-09-04T07:21:35.000Z</time>
      </trkpt>
      <trkpt lat="47.24402" lon="-2.3071">
        <ele>18.200000762939</ele>
        <time>2022-09-04T07:21:39.000Z</time>
      </trkpt>
      <trkpt lat="47.24404" lon="-2.30698">
        <ele>18.200000762939</ele>
        <time>2022-09-04T07:21:41.000Z</time>
      </trkpt>
      <trkpt lat="47.2441" lon="-2.30681">
        <ele>18.200000762939</ele>
        <time>2022-09-04T07:21:44.000Z</time>
      </trkpt>
      <trkpt lat="47.24412" lon="-2.30676">
        <ele>18.200000762939</ele>
        <time>2022-09-04T07:21:45.000Z</time>
      </trkpt>
      <trkpt lat="47.24413" lon="-2.3067">
        <ele>18.200000762939</ele>
        <time>2022-09-04T07:21:46.000Z</time>
      </trkpt>
      <trkpt lat="47.24419" lon="-2.30645">
        <ele>18.200000762939</ele>
        <time>2022-09-04T07:21:50.000Z</time>
      </trkpt>
      <trkpt lat="47.2443" lon="-2.30625">
        <ele>18.200000762939</ele>
        <time>2022-09-04T07:21:54.000Z</time>
      </trkpt>
      <trkpt lat="47.24433" lon="-2.3062">
        <ele>18.200000762939</ele>
        <time>2022-09-04T07:21:55.000Z</time>
      </trkpt>
      <trkpt lat="47.24445" lon="-2.30603">
        <ele>18.200000762939</ele>
        <time>2022-09-04T07:21:59.000Z</time>
      </trkpt>
      <trkpt lat="47.2446" lon="-2.30584">
        <ele>18.200000762939</ele>
        <time>2022-09-04T07:22:03.000Z</time>
      </trkpt>
      <trkpt lat="47.24464" lon="-2.30579">
        <ele>17.799999237061</ele>
        <time>2022-09-04T07:22:04.000Z</time>
      </trkpt>
      <trkpt lat="47.24467" lon="-2.30572">
        <ele>17.39999961853</ele>
        <time>2022-09-04T07:22:05.000Z</time>
      </trkpt>
      <trkpt lat="47.2447" lon="-2.30565">
        <ele>16.799999237061</ele>
        <time>2022-09-04T07:22:06.000Z</time>
      </trkpt>
      <trkpt lat="47.24472" lon="-2.30557">
        <ele>16.39999961853</ele>
        <time>2022-09-04T07:22:07.000Z</time>
      </trkpt>
      <trkpt lat="47.24473" lon="-2.30552">
        <ele>16</ele>
        <time>2022-09-04T07:22:08.000Z</time>
      </trkpt>
      <trkpt lat="47.24473" lon="-2.30548">
        <ele>16</ele>
        <time>2022-09-04T07:22:09.000Z</time>
      </trkpt>
      <trkpt lat="47.24471" lon="-2.30547">
        <ele>16</ele>
        <time>2022-09-04T07:22:10.000Z</time>
      </trkpt>
      <trkpt lat="47.24464" lon="-2.30548">
        <ele>16</ele>
        <time>2022-09-04T07:22:12.000Z</time>
      </trkpt>
      <trkpt lat="47.24461" lon="-2.30551">
        <ele>15.60000038147</ele>
        <time>2022-09-04T07:22:13.000Z</time>
      </trkpt>
      <trkpt lat="47.24457" lon="-2.30554">
        <ele>15.199999809265</ele>
        <time>2022-09-04T07:22:14.000Z</time>
      </trkpt>
      <trkpt lat="47.24453" lon="-2.30556">
        <ele>14.800000190735</ele>
        <time>2022-09-04T07:22:15.000Z</time>
      </trkpt>
      <trkpt lat="47.24449" lon="-2.30559">
        <ele>13.800000190735</ele>
        <time>2022-09-04T07:22:16.000Z</time>
      </trkpt>
      <trkpt lat="47.24429" lon="-2.30572">
        <ele>13.39999961853</ele>
        <time>2022-09-04T07:22:20.000Z</time>
      </trkpt>
      <trkpt lat="47.24424" lon="-2.30575">
        <ele>13</ele>
        <time>2022-09-04T07:22:21.000Z</time>
      </trkpt>
      <trkpt lat="47.24419" lon="-2.30577">
        <ele>12.60000038147</ele>
        <time>2022-09-04T07:22:22.000Z</time>
      </trkpt>
      <trkpt lat="47.24412" lon="-2.3058">
        <ele>12</ele>
        <time>2022-09-04T07:22:23.000Z</time>
      </trkpt>
      <trkpt lat="47.24407" lon="-2.30582">
        <ele>11.60000038147</ele>
        <time>2022-09-04T07:22:24.000Z</time>
      </trkpt>
      <trkpt lat="47.24398" lon="-2.30584">
        <ele>11.60000038147</ele>
        <time>2022-09-04T07:22:26.000Z</time>
      </trkpt>
      <trkpt lat="47.24393" lon="-2.30585">
        <ele>11.60000038147</ele>
        <time>2022-09-04T07:22:27.000Z</time>
      </trkpt>
      <trkpt lat="47.24381" lon="-2.30587">
        <ele>11.199999809265</ele>
        <time>2022-09-04T07:22:30.000Z</time>
      </trkpt>
      <trkpt lat="47.24378" lon="-2.30587">
        <ele>10.800000190735</ele>
        <time>2022-09-04T07:22:31.000Z</time>
      </trkpt>
      <trkpt lat="47.24377" lon="-2.30586">
        <ele>10.39999961853</ele>
        <time>2022-09-04T07:22:32.000Z</time>
      </trkpt>
      <trkpt lat="47.24376" lon="-2.30585">
        <ele>10</ele>
        <time>2022-09-04T07:22:33.000Z</time>
      </trkpt>
      <trkpt lat="47.24376" lon="-2.30579">
        <ele>9.6000003814697</ele>
        <time>2022-09-04T07:22:34.000Z</time>
      </trkpt>
      <trkpt lat="47.24371" lon="-2.30543">
        <ele>9.6000003814697</ele>
        <time>2022-09-04T07:22:37.000Z</time>
      </trkpt>
      <trkpt lat="47.24371" lon="-2.30522">
        <ele>10</ele>
        <time>2022-09-04T07:22:39.000Z</time>
      </trkpt>
      <trkpt lat="47.24371" lon="-2.30514">
        <ele>10.60000038147</ele>
        <time>2022-09-04T07:22:40.000Z</time>
      </trkpt>
      <trkpt lat="47.24371" lon="-2.30506">
        <ele>11.39999961853</ele>
        <time>2022-09-04T07:22:41.000Z</time>
      </trkpt>
      <trkpt lat="47.24371" lon="-2.30501">
        <ele>12</ele>
        <time>2022-09-04T07:22:42.000Z</time>
      </trkpt>
      <trkpt lat="47.24372" lon="-2.30496">
        <ele>12.39999961853</ele>
        <time>2022-09-04T07:22:43.000Z</time>
      </trkpt>
      <trkpt lat="47.24375" lon="-2.3049">
        <ele>12.800000190735</ele>
        <time>2022-09-04T07:22:44.000Z</time>
      </trkpt>
      <trkpt lat="47.24376" lon="-2.30484">
        <ele>13.199999809265</ele>
        <time>2022-09-04T07:22:45.000Z</time>
      </trkpt>
      <trkpt lat="47.24376" lon="-2.30477">
        <ele>13.60000038147</ele>
        <time>2022-09-04T07:22:46.000Z</time>
      </trkpt>
      <trkpt lat="47.24376" lon="-2.3047">
        <ele>14</ele>
        <time>2022-09-04T07:22:47.000Z</time>
      </trkpt>
      <trkpt lat="47.24377" lon="-2.30463">
        <ele>14</ele>
        <time>2022-09-04T07:22:48.000Z</time>
      </trkpt>
      <trkpt lat="47.24378" lon="-2.30458">
        <ele>14</ele>
        <time>2022-09-04T07:22:49.000Z</time>
      </trkpt>
      <trkpt lat="47.24376" lon="-2.30453">
        <ele>14</ele>
        <time>2022-09-04T07:22:51.000Z</time>
      </trkpt>
      <trkpt lat="47.24374" lon="-2.30452">
        <ele>14.39999961853</ele>
        <time>2022-09-04T07:22:52.000Z</time>
      </trkpt>
      <trkpt lat="47.2437" lon="-2.30453">
        <ele>14.800000190735</ele>
        <time>2022-09-04T07:22:53.000Z</time>
      </trkpt>
      <trkpt lat="47.24367" lon="-2.30454">
        <ele>15.199999809265</ele>
        <time>2022-09-04T07:22:54.000Z</time>
      </trkpt>
      <trkpt lat="47.24364" lon="-2.30453">
        <ele>15.60000038147</ele>
        <time>2022-09-04T07:22:55.000Z</time>
      </trkpt>
      <trkpt lat="47.24361" lon="-2.30452">
        <ele>16</ele>
        <time>2022-09-04T07:22:56.000Z</time>
      </trkpt>
      <trkpt lat="47.24353" lon="-2.30449">
        <ele>16</ele>
        <time>2022-09-04T07:22:59.000Z</time>
      </trkpt>
      <trkpt lat="47.24347" lon="-2.30443">
        <ele>16</ele>
        <time>2022-09-04T07:23:01.000Z</time>
      </trkpt>
      <trkpt lat="47.24338" lon="-2.30435">
        <ele>16</ele>
        <time>2022-09-04T07:23:04.000Z</time>
      </trkpt>
      <trkpt lat="47.24334" lon="-2.30432">
        <ele>16</ele>
        <time>2022-09-04T07:23:05.000Z</time>
      </trkpt>
      <trkpt lat="47.24317" lon="-2.30422">
        <ele>16.39999961853</ele>
        <time>2022-09-04T07:23:09.000Z</time>
      </trkpt>
      <trkpt lat="47.24313" lon="-2.3042">
        <ele>16.799999237061</ele>
        <time>2022-09-04T07:23:10.000Z</time>
      </trkpt>
      <trkpt lat="47.24308" lon="-2.30417">
        <ele>17.200000762939</ele>
        <time>2022-09-04T07:23:11.000Z</time>
      </trkpt>
      <trkpt lat="47.24304" lon="-2.30413">
        <ele>17.60000038147</ele>
        <time>2022-09-04T07:23:12.000Z</time>
      </trkpt>
      <trkpt lat="47.243" lon="-2.3041">
        <ele>18</ele>
        <time>2022-09-04T07:23:13.000Z</time>
      </trkpt>
      <trkpt lat="47.24292" lon="-2.30403">
        <ele>18</ele>
        <time>2022-09-04T07:23:15.000Z</time>
      </trkpt>
      <trkpt lat="47.24289" lon="-2.304">
        <ele>18</ele>
        <time>2022-09-04T07:23:16.000Z</time>
      </trkpt>
      <trkpt lat="47.24271" lon="-2.30374">
        <ele>18</ele>
        <time>2022-09-04T07:23:21.000Z</time>
      </trkpt>
      <trkpt lat="47.24267" lon="-2.30369">
        <ele>18</ele>
        <time>2022-09-04T07:23:22.000Z</time>
      </trkpt>
      <trkpt lat="47.24258" lon="-2.30353">
        <ele>18</ele>
        <time>2022-09-04T07:23:25.000Z</time>
      </trkpt>
      <trkpt lat="47.24255" lon="-2.30348">
        <ele>18</ele>
        <time>2022-09-04T07:23:26.000Z</time>
      </trkpt>
      <trkpt lat="47.24244" lon="-2.30328">
        <ele>18</ele>
        <time>2022-09-04T07:23:29.000Z</time>
      </trkpt>
      <trkpt lat="47.2424" lon="-2.30323">
        <ele>18</ele>
        <time>2022-09-04T07:23:30.000Z</time>
      </trkpt>
      <trkpt lat="47.24228" lon="-2.30321">
        <ele>18</ele>
        <time>2022-09-04T07:23:33.000Z</time>
      </trkpt>
      <trkpt lat="47.24224" lon="-2.30323">
        <ele>18</ele>
        <time>2022-09-04T07:23:34.000Z</time>
      </trkpt>
      <trkpt lat="47.24217" lon="-2.30327">
        <ele>17.60000038147</ele>
        <time>2022-09-04T07:23:36.000Z</time>
      </trkpt>
      <trkpt lat="47.24213" lon="-2.30327">
        <ele>17.200000762939</ele>
        <time>2022-09-04T07:23:37.000Z</time>
      </trkpt>
      <trkpt lat="47.2421" lon="-2.30326">
        <ele>16.60000038147</ele>
        <time>2022-09-04T07:23:38.000Z</time>
      </trkpt>
      <trkpt lat="47.24207" lon="-2.30323">
        <ele>16.200000762939</ele>
        <time>2022-09-04T07:23:39.000Z</time>
      </trkpt>
      <trkpt lat="47.24204" lon="-2.3032">
        <ele>15.800000190735</ele>
        <time>2022-09-04T07:23:40.000Z</time>
      </trkpt>
      <trkpt lat="47.24203" lon="-2.30316">
        <ele>15.199999809265</ele>
        <time>2022-09-04T07:23:41.000Z</time>
      </trkpt>
      <trkpt lat="47.24203" lon="-2.30311">
        <ele>14.800000190735</ele>
        <time>2022-09-04T07:23:42.000Z</time>
      </trkpt>
      <trkpt lat="47.24203" lon="-2.30306">
        <ele>14.199999809265</ele>
        <time>2022-09-04T07:23:43.000Z</time>
      </trkpt>
      <trkpt lat="47.24203" lon="-2.30302">
        <ele>13.800000190735</ele>
        <time>2022-09-04T07:23:44.000Z</time>
      </trkpt>
      <trkpt lat="47.242" lon="-2.30286">
        <ele>13.800000190735</ele>
        <time>2022-09-04T07:23:46.000Z</time>
      </trkpt>
      <trkpt lat="47.24199" lon="-2.30277">
        <ele>13.800000190735</ele>
        <time>2022-09-04T07:23:47.000Z</time>
      </trkpt>
      <trkpt lat="47.24196" lon="-2.3026">
        <ele>13.800000190735</ele>
        <time>2022-09-04T07:23:49.000Z</time>
      </trkpt>
      <trkpt lat="47.24192" lon="-2.30242">
        <ele>13.800000190735</ele>
        <time>2022-09-04T07:23:52.000Z</time>
      </trkpt>
      <trkpt lat="47.24183" lon="-2.30246">
        <ele>13.800000190735</ele>
        <time>2022-09-04T07:23:55.000Z</time>
      </trkpt>
      <trkpt lat="47.24171" lon="-2.30242">
        <ele>13.800000190735</ele>
        <time>2022-09-04T07:23:58.000Z</time>
      </trkpt>
      <trkpt lat="47.24167" lon="-2.30239">
        <ele>13.800000190735</ele>
        <time>2022-09-04T07:23:59.000Z</time>
      </trkpt>
      <trkpt lat="47.24161" lon="-2.30227">
        <ele>13.800000190735</ele>
        <time>2022-09-04T07:24:02.000Z</time>
      </trkpt>
      <trkpt lat="47.24152" lon="-2.30201">
        <ele>13.800000190735</ele>
        <time>2022-09-04T07:24:08.000Z</time>
      </trkpt>
      <trkpt lat="47.24144" lon="-2.30181">
        <ele>14.199999809265</ele>
        <time>2022-09-04T07:24:13.000Z</time>
      </trkpt>
      <trkpt lat="47.24141" lon="-2.30178">
        <ele>14.60000038147</ele>
        <time>2022-09-04T07:24:14.000Z</time>
      </trkpt>
      <trkpt lat="47.24139" lon="-2.30173">
        <ele>15</ele>
        <time>2022-09-04T07:24:15.000Z</time>
      </trkpt>
      <trkpt lat="47.24136" lon="-2.3017">
        <ele>15.39999961853</ele>
        <time>2022-09-04T07:24:16.000Z</time>
      </trkpt>
      <trkpt lat="47.24135" lon="-2.30167">
        <ele>15.800000190735</ele>
        <time>2022-09-04T07:24:17.000Z</time>
      </trkpt>
      <trkpt lat="47.2413" lon="-2.30163">
        <ele>16.799999237061</ele>
        <time>2022-09-04T07:24:20.000Z</time>
      </trkpt>
      <trkpt lat="47.24129" lon="-2.30164">
        <ele>17.39999961853</ele>
        <time>2022-09-04T07:24:21.000Z</time>
      </trkpt>
      <trkpt lat="47.24128" lon="-2.30164">
        <ele>17.799999237061</ele>
        <time>2022-09-04T07:24:22.000Z</time>
      </trkpt>
      <trkpt lat="47.24128" lon="-2.30163">
        <ele>18.39999961853</ele>
        <time>2022-09-04T07:24:23.000Z</time>
      </trkpt>
      <trkpt lat="47.24124" lon="-2.30162">
        <ele>18.39999961853</ele>
        <time>2022-09-04T07:25:37.000Z</time>
      </trkpt>
      <trkpt lat="47.24124" lon="-2.30163">
        <ele>18.39999961853</ele>
        <time>2022-09-04T07:25:38.000Z</time>
      </trkpt>
      <trkpt lat="47.24123" lon="-2.30161">
        <ele>18.39999961853</ele>
        <time>2022-09-04T07:25:39.000Z</time>
      </trkpt>
      <trkpt lat="47.24115" lon="-2.30158">
        <ele>18.39999961853</ele>
        <time>2022-09-04T07:25:42.000Z</time>
      </trkpt>
      <trkpt lat="47.2411" lon="-2.30158">
        <ele>18.799999237061</ele>
        <time>2022-09-04T07:25:44.000Z</time>
      </trkpt>
      <trkpt lat="47.24109" lon="-2.30159">
        <ele>19.200000762939</ele>
        <time>2022-09-04T07:25:45.000Z</time>
      </trkpt>
      <trkpt lat="47.24106" lon="-2.3016">
        <ele>19.60000038147</ele>
        <time>2022-09-04T07:25:46.000Z</time>
      </trkpt>
      <trkpt lat="47.24105" lon="-2.30161">
        <ele>20</ele>
        <time>2022-09-04T07:25:47.000Z</time>
      </trkpt>
      <trkpt lat="47.24102" lon="-2.30163">
        <ele>20.39999961853</ele>
        <time>2022-09-04T07:25:48.000Z</time>
      </trkpt>
      <trkpt lat="47.24099" lon="-2.30161">
        <ele>20.39999961853</ele>
        <time>2022-09-04T07:25:50.000Z</time>
      </trkpt>
      <trkpt lat="47.24098" lon="-2.30161">
        <ele>20.39999961853</ele>
        <time>2022-09-04T07:25:51.000Z</time>
      </trkpt>
      <trkpt lat="47.2409" lon="-2.30168">
        <ele>20.39999961853</ele>
        <time>2022-09-04T07:25:55.000Z</time>
      </trkpt>
      <trkpt lat="47.24089" lon="-2.30169">
        <ele>20.39999961853</ele>
        <time>2022-09-04T07:25:56.000Z</time>
      </trkpt>
      <trkpt lat="47.24081" lon="-2.30174">
        <ele>20.39999961853</ele>
        <time>2022-09-04T07:26:01.000Z</time>
      </trkpt>
      <trkpt lat="47.2407" lon="-2.30179">
        <ele>20.39999961853</ele>
        <time>2022-09-04T07:26:05.000Z</time>
      </trkpt>
      <trkpt lat="47.24065" lon="-2.30184">
        <ele>20.39999961853</ele>
        <time>2022-09-04T07:26:07.000Z</time>
      </trkpt>
      <trkpt lat="47.24057" lon="-2.30182">
        <ele>20.39999961853</ele>
        <time>2022-09-04T07:26:09.000Z</time>
      </trkpt>
      <trkpt lat="47.24048" lon="-2.30166">
        <ele>20.39999961853</ele>
        <time>2022-09-04T07:26:13.000Z</time>
      </trkpt>
      <trkpt lat="47.2404" lon="-2.30155">
        <ele>20.39999961853</ele>
        <time>2022-09-04T07:26:17.000Z</time>
      </trkpt>
      <trkpt lat="47.24033" lon="-2.30144">
        <ele>20.39999961853</ele>
        <time>2022-09-04T07:26:22.000Z</time>
      </trkpt>
      <trkpt lat="47.24024" lon="-2.30137">
        <ele>20.39999961853</ele>
        <time>2022-09-04T07:26:26.000Z</time>
      </trkpt>
      <trkpt lat="47.24022" lon="-2.30132">
        <ele>20.39999961853</ele>
        <time>2022-09-04T07:26:28.000Z</time>
      </trkpt>
      <trkpt lat="47.24015" lon="-2.30128">
        <ele>20.39999961853</ele>
        <time>2022-09-04T07:26:31.000Z</time>
      </trkpt>
      <trkpt lat="47.24013" lon="-2.30124">
        <ele>20.39999961853</ele>
        <time>2022-09-04T07:26:33.000Z</time>
      </trkpt>
      <trkpt lat="47.24011" lon="-2.3012">
        <ele>20.39999961853</ele>
        <time>2022-09-04T07:26:35.000Z</time>
      </trkpt>
      <trkpt lat="47.24011" lon="-2.30111">
        <ele>20.39999961853</ele>
        <time>2022-09-04T07:26:39.000Z</time>
      </trkpt>
      <trkpt lat="47.24013" lon="-2.30109">
        <ele>20.39999961853</ele>
        <time>2022-09-04T07:26:40.000Z</time>
      </trkpt>
      <trkpt lat="47.24015" lon="-2.30098">
        <ele>20.39999961853</ele>
        <time>2022-09-04T07:26:43.000Z</time>
      </trkpt>
      <trkpt lat="47.24016" lon="-2.30093">
        <ele>20.39999961853</ele>
        <time>2022-09-04T07:26:44.000Z</time>
      </trkpt>
      <trkpt lat="47.24019" lon="-2.30082">
        <ele>20.39999961853</ele>
        <time>2022-09-04T07:26:48.000Z</time>
      </trkpt>
      <trkpt lat="47.24021" lon="-2.30062">
        <ele>21</ele>
        <time>2022-09-04T07:26:53.000Z</time>
      </trkpt>
      <trkpt lat="47.24021" lon="-2.30059">
        <ele>21.39999961853</ele>
        <time>2022-09-04T07:26:54.000Z</time>
      </trkpt>
      <trkpt lat="47.24021" lon="-2.30056">
        <ele>21.799999237061</ele>
        <time>2022-09-04T07:26:55.000Z</time>
      </trkpt>
      <trkpt lat="47.24023" lon="-2.30054">
        <ele>22.200000762939</ele>
        <time>2022-09-04T07:26:56.000Z</time>
      </trkpt>
      <trkpt lat="47.24025" lon="-2.30055">
        <ele>22.60000038147</ele>
        <time>2022-09-04T07:26:57.000Z</time>
      </trkpt>
      <trkpt lat="47.24027" lon="-2.30054">
        <ele>22.60000038147</ele>
        <time>2022-09-04T07:26:58.000Z</time>
      </trkpt>
      <trkpt lat="47.24037" lon="-2.30047">
        <ele>22.60000038147</ele>
        <time>2022-09-04T07:27:04.000Z</time>
      </trkpt>
      <trkpt lat="47.24042" lon="-2.30041">
        <ele>22.60000038147</ele>
        <time>2022-09-04T07:27:06.000Z</time>
      </trkpt>
      <trkpt lat="47.24044" lon="-2.30039">
        <ele>22.60000038147</ele>
        <time>2022-09-04T07:27:08.000Z</time>
      </trkpt>
      <trkpt lat="47.24048" lon="-2.30038">
        <ele>22.60000038147</ele>
        <time>2022-09-04T07:27:12.000Z</time>
      </trkpt>
      <trkpt lat="47.2405" lon="-2.30037">
        <ele>22.60000038147</ele>
        <time>2022-09-04T07:27:13.000Z</time>
      </trkpt>
      <trkpt lat="47.24055" lon="-2.30024">
        <ele>22.60000038147</ele>
        <time>2022-09-04T07:27:17.000Z</time>
      </trkpt>
      <trkpt lat="47.24056" lon="-2.30002">
        <ele>22.60000038147</ele>
        <time>2022-09-04T07:27:21.000Z</time>
      </trkpt>
      <trkpt lat="47.24056" lon="-2.29989">
        <ele>22.60000038147</ele>
        <time>2022-09-04T07:27:24.000Z</time>
      </trkpt>
      <trkpt lat="47.24055" lon="-2.29987">
        <ele>22.60000038147</ele>
        <time>2022-09-04T07:27:25.000Z</time>
      </trkpt>
      <trkpt lat="47.2405" lon="-2.29984">
        <ele>22.60000038147</ele>
        <time>2022-09-04T07:27:28.000Z</time>
      </trkpt>
      <trkpt lat="47.24049" lon="-2.29982">
        <ele>22.60000038147</ele>
        <time>2022-09-04T07:27:29.000Z</time>
      </trkpt>
      <trkpt lat="47.24047" lon="-2.2997">
        <ele>22.60000038147</ele>
        <time>2022-09-04T07:27:32.000Z</time>
      </trkpt>
      <trkpt lat="47.24048" lon="-2.29957">
        <ele>22.60000038147</ele>
        <time>2022-09-04T07:27:36.000Z</time>
      </trkpt>
      <trkpt lat="47.24051" lon="-2.29945">
        <ele>22.60000038147</ele>
        <time>2022-09-04T07:27:40.000Z</time>
      </trkpt>
      <trkpt lat="47.24052" lon="-2.29942">
        <ele>22.60000038147</ele>
        <time>2022-09-04T07:27:41.000Z</time>
      </trkpt>
      <trkpt lat="47.24054" lon="-2.29935">
        <ele>22.60000038147</ele>
        <time>2022-09-04T07:27:43.000Z</time>
      </trkpt>
      <trkpt lat="47.24051" lon="-2.29921">
        <ele>22.60000038147</ele>
        <time>2022-09-04T07:27:46.000Z</time>
      </trkpt>
      <trkpt lat="47.24049" lon="-2.29917">
        <ele>22.60000038147</ele>
        <time>2022-09-04T07:27:47.000Z</time>
      </trkpt>
      <trkpt lat="47.24043" lon="-2.29903">
        <ele>22.60000038147</ele>
        <time>2022-09-04T07:27:50.000Z</time>
      </trkpt>
      <trkpt lat="47.2404" lon="-2.29887">
        <ele>22.60000038147</ele>
        <time>2022-09-04T07:27:54.000Z</time>
      </trkpt>
      <trkpt lat="47.24044" lon="-2.29868">
        <ele>22.60000038147</ele>
        <time>2022-09-04T07:27:58.000Z</time>
      </trkpt>
      <trkpt lat="47.24044" lon="-2.29863">
        <ele>22.60000038147</ele>
        <time>2022-09-04T07:27:59.000Z</time>
      </trkpt>
      <trkpt lat="47.24048" lon="-2.29848">
        <ele>22.60000038147</ele>
        <time>2022-09-04T07:28:03.000Z</time>
      </trkpt>
      <trkpt lat="47.24051" lon="-2.29846">
        <ele>22.60000038147</ele>
        <time>2022-09-04T07:28:04.000Z</time>
      </trkpt>
      <trkpt lat="47.24064" lon="-2.29845">
        <ele>22.60000038147</ele>
        <time>2022-09-04T07:28:08.000Z</time>
      </trkpt>
      <trkpt lat="47.24078" lon="-2.29847">
        <ele>22.60000038147</ele>
        <time>2022-09-04T07:28:12.000Z</time>
      </trkpt>
      <trkpt lat="47.24086" lon="-2.29847">
        <ele>22.60000038147</ele>
        <time>2022-09-04T07:28:14.000Z</time>
      </trkpt>
      <trkpt lat="47.24098" lon="-2.29848">
        <ele>22.60000038147</ele>
        <time>2022-09-04T07:28:17.000Z</time>
      </trkpt>
      <trkpt lat="47.24109" lon="-2.29858">
        <ele>22.60000038147</ele>
        <time>2022-09-04T07:28:21.000Z</time>
      </trkpt>
      <trkpt lat="47.24111" lon="-2.2986">
        <ele>22.60000038147</ele>
        <time>2022-09-04T07:28:22.000Z</time>
      </trkpt>
      <trkpt lat="47.24112" lon="-2.29863">
        <ele>22.60000038147</ele>
        <time>2022-09-04T07:28:23.000Z</time>
      </trkpt>
      <trkpt lat="47.24112" lon="-2.29871">
        <ele>22.60000038147</ele>
        <time>2022-09-04T07:28:26.000Z</time>
      </trkpt>
      <trkpt lat="47.24116" lon="-2.29892">
        <ele>22.60000038147</ele>
        <time>2022-09-04T07:28:32.000Z</time>
      </trkpt>
      <trkpt lat="47.24116" lon="-2.29898">
        <ele>22.60000038147</ele>
        <time>2022-09-04T07:28:34.000Z</time>
      </trkpt>
      <trkpt lat="47.24114" lon="-2.29905">
        <ele>22.60000038147</ele>
        <time>2022-09-04T07:28:36.000Z</time>
      </trkpt>
      <trkpt lat="47.24106" lon="-2.29919">
        <ele>22.60000038147</ele>
        <time>2022-09-04T07:28:40.000Z</time>
      </trkpt>
      <trkpt lat="47.24101" lon="-2.29926">
        <ele>22.60000038147</ele>
        <time>2022-09-04T07:28:42.000Z</time>
      </trkpt>
      <trkpt lat="47.24097" lon="-2.29932">
        <ele>22.60000038147</ele>
        <time>2022-09-04T07:28:44.000Z</time>
      </trkpt>
      <trkpt lat="47.24094" lon="-2.29935">
        <ele>22.60000038147</ele>
        <time>2022-09-04T07:28:45.000Z</time>
      </trkpt>
      <trkpt lat="47.24084" lon="-2.29941">
        <ele>22.60000038147</ele>
        <time>2022-09-04T07:28:48.000Z</time>
      </trkpt>
      <trkpt lat="47.24075" lon="-2.29943">
        <ele>22.60000038147</ele>
        <time>2022-09-04T07:28:50.000Z</time>
      </trkpt>
      <trkpt lat="47.2407" lon="-2.29942">
        <ele>22.60000038147</ele>
        <time>2022-09-04T07:28:51.000Z</time>
      </trkpt>
      <trkpt lat="47.24054" lon="-2.29934">
        <ele>22.60000038147</ele>
        <time>2022-09-04T07:28:55.000Z</time>
      </trkpt>
      <trkpt lat="47.24048" lon="-2.29933">
        <ele>22.60000038147</ele>
        <time>2022-09-04T07:28:57.000Z</time>
      </trkpt>
      <trkpt lat="47.24045" lon="-2.29935">
        <ele>22.60000038147</ele>
        <time>2022-09-04T07:28:59.000Z</time>
      </trkpt>
      <trkpt lat="47.2404" lon="-2.29939">
        <ele>22.60000038147</ele>
        <time>2022-09-04T07:29:03.000Z</time>
      </trkpt>
      <trkpt lat="47.24038" lon="-2.29941">
        <ele>22.60000038147</ele>
        <time>2022-09-04T07:29:04.000Z</time>
      </trkpt>
      <trkpt lat="47.24035" lon="-2.29956">
        <ele>22.60000038147</ele>
        <time>2022-09-04T07:29:08.000Z</time>
      </trkpt>
      <trkpt lat="47.24039" lon="-2.29971">
        <ele>22.60000038147</ele>
        <time>2022-09-04T07:29:11.000Z</time>
      </trkpt>
      <trkpt lat="47.24042" lon="-2.2998">
        <ele>22.60000038147</ele>
        <time>2022-09-04T07:29:13.000Z</time>
      </trkpt>
      <trkpt lat="47.24047" lon="-2.29997">
        <ele>22.60000038147</ele>
        <time>2022-09-04T07:29:19.000Z</time>
      </trkpt>
      <trkpt lat="47.24046" lon="-2.30006">
        <ele>22.60000038147</ele>
        <time>2022-09-04T07:29:23.000Z</time>
      </trkpt>
      <trkpt lat="47.2404" lon="-2.30016">
        <ele>22.60000038147</ele>
        <time>2022-09-04T07:29:28.000Z</time>
      </trkpt>
      <trkpt lat="47.24035" lon="-2.30033">
        <ele>22.60000038147</ele>
        <time>2022-09-04T07:29:33.000Z</time>
      </trkpt>
      <trkpt lat="47.24035" lon="-2.30038">
        <ele>22.60000038147</ele>
        <time>2022-09-04T07:29:35.000Z</time>
      </trkpt>
      <trkpt lat="47.24036" lon="-2.30043">
        <ele>22.60000038147</ele>
        <time>2022-09-04T07:29:38.000Z</time>
      </trkpt>
      <trkpt lat="47.24035" lon="-2.30055">
        <ele>22.60000038147</ele>
        <time>2022-09-04T07:29:43.000Z</time>
      </trkpt>
      <trkpt lat="47.24031" lon="-2.30057">
        <ele>22.60000038147</ele>
        <time>2022-09-04T07:29:44.000Z</time>
      </trkpt>
      <trkpt lat="47.24015" lon="-2.30066">
        <ele>22.200000762939</ele>
        <time>2022-09-04T07:29:48.000Z</time>
      </trkpt>
      <trkpt lat="47.24011" lon="-2.30068">
        <ele>21.799999237061</ele>
        <time>2022-09-04T07:29:49.000Z</time>
      </trkpt>
      <trkpt lat="47.24009" lon="-2.30068">
        <ele>21.39999961853</ele>
        <time>2022-09-04T07:29:50.000Z</time>
      </trkpt>
      <trkpt lat="47.24005" lon="-2.30072">
        <ele>21</ele>
        <time>2022-09-04T07:29:51.000Z</time>
      </trkpt>
      <trkpt lat="47.24003" lon="-2.30077">
        <ele>20.60000038147</ele>
        <time>2022-09-04T07:29:52.000Z</time>
      </trkpt>
      <trkpt lat="47.23998" lon="-2.30083">
        <ele>20.60000038147</ele>
        <time>2022-09-04T07:29:53.000Z</time>
      </trkpt>
      <trkpt lat="47.2398" lon="-2.30101">
        <ele>20.60000038147</ele>
        <time>2022-09-04T07:29:58.000Z</time>
      </trkpt>
      <trkpt lat="47.23965" lon="-2.30109">
        <ele>20.200000762939</ele>
        <time>2022-09-04T07:30:02.000Z</time>
      </trkpt>
      <trkpt lat="47.23963" lon="-2.30112">
        <ele>19.799999237061</ele>
        <time>2022-09-04T07:30:03.000Z</time>
      </trkpt>
      <trkpt lat="47.23963" lon="-2.30115">
        <ele>19.39999961853</ele>
        <time>2022-09-04T07:30:04.000Z</time>
      </trkpt>
      <trkpt lat="47.23962" lon="-2.30118">
        <ele>18.799999237061</ele>
        <time>2022-09-04T07:30:05.000Z</time>
      </trkpt>
      <trkpt lat="47.2396" lon="-2.30121">
        <ele>18.39999961853</ele>
        <time>2022-09-04T07:30:06.000Z</time>
      </trkpt>
      <trkpt lat="47.23953" lon="-2.30126">
        <ele>18.39999961853</ele>
        <time>2022-09-04T07:30:08.000Z</time>
      </trkpt>
      <trkpt lat="47.23948" lon="-2.30128">
        <ele>18.39999961853</ele>
        <time>2022-09-04T07:30:09.000Z</time>
      </trkpt>
      <trkpt lat="47.23941" lon="-2.30129">
        <ele>18</ele>
        <time>2022-09-04T07:30:10.000Z</time>
      </trkpt>
      <trkpt lat="47.23933" lon="-2.30129">
        <ele>17.60000038147</ele>
        <time>2022-09-04T07:30:11.000Z</time>
      </trkpt>
      <trkpt lat="47.23927" lon="-2.30127">
        <ele>17.200000762939</ele>
        <time>2022-09-04T07:30:12.000Z</time>
      </trkpt>
      <trkpt lat="47.23923" lon="-2.30125">
        <ele>16.799999237061</ele>
        <time>2022-09-04T07:30:13.000Z</time>
      </trkpt>
      <trkpt lat="47.23919" lon="-2.30123">
        <ele>16.39999961853</ele>
        <time>2022-09-04T07:30:14.000Z</time>
      </trkpt>
      <trkpt lat="47.23915" lon="-2.30121">
        <ele>16.39999961853</ele>
        <time>2022-09-04T07:30:15.000Z</time>
      </trkpt>
      <trkpt lat="47.23913" lon="-2.30117">
        <ele>16.39999961853</ele>
        <time>2022-09-04T07:30:16.000Z</time>
      </trkpt>
      <trkpt lat="47.23912" lon="-2.30108">
        <ele>16.39999961853</ele>
        <time>2022-09-04T07:30:18.000Z</time>
      </trkpt>
      <trkpt lat="47.2391" lon="-2.30094">
        <ele>16.39999961853</ele>
        <time>2022-09-04T07:30:22.000Z</time>
      </trkpt>
      <trkpt lat="47.23896" lon="-2.30083">
        <ele>16.39999961853</ele>
        <time>2022-09-04T07:30:25.000Z</time>
      </trkpt>
      <trkpt lat="47.23892" lon="-2.3008">
        <ele>16.39999961853</ele>
        <time>2022-09-04T07:30:26.000Z</time>
      </trkpt>
      <trkpt lat="47.23861" lon="-2.30057">
        <ele>16.39999961853</ele>
        <time>2022-09-04T07:30:33.000Z</time>
      </trkpt>
      <trkpt lat="47.23852" lon="-2.30044">
        <ele>16.39999961853</ele>
        <time>2022-09-04T07:30:36.000Z</time>
      </trkpt>
      <trkpt lat="47.2385" lon="-2.30038">
        <ele>16.39999961853</ele>
        <time>2022-09-04T07:30:37.000Z</time>
      </trkpt>
      <trkpt lat="47.23847" lon="-2.3002">
        <ele>16.799999237061</ele>
        <time>2022-09-04T07:30:40.000Z</time>
      </trkpt>
      <trkpt lat="47.23846" lon="-2.30014">
        <ele>17.200000762939</ele>
        <time>2022-09-04T07:30:41.000Z</time>
      </trkpt>
      <trkpt lat="47.23845" lon="-2.30008">
        <ele>17.799999237061</ele>
        <time>2022-09-04T07:30:42.000Z</time>
      </trkpt>
      <trkpt lat="47.23844" lon="-2.30002">
        <ele>18.200000762939</ele>
        <time>2022-09-04T07:30:43.000Z</time>
      </trkpt>
      <trkpt lat="47.23842" lon="-2.29996">
        <ele>18.60000038147</ele>
        <time>2022-09-04T07:30:44.000Z</time>
      </trkpt>
      <trkpt lat="47.23836" lon="-2.29965">
        <ele>18.60000038147</ele>
        <time>2022-09-04T07:30:50.000Z</time>
      </trkpt>
      <trkpt lat="47.23835" lon="-2.29958">
        <ele>19</ele>
        <time>2022-09-04T07:30:52.000Z</time>
      </trkpt>
      <trkpt lat="47.23835" lon="-2.29956">
        <ele>19.39999961853</ele>
        <time>2022-09-04T07:30:53.000Z</time>
      </trkpt>
      <trkpt lat="47.23834" lon="-2.29953">
        <ele>19.799999237061</ele>
        <time>2022-09-04T07:30:54.000Z</time>
      </trkpt>
      <trkpt lat="47.23834" lon="-2.29951">
        <ele>20.60000038147</ele>
        <time>2022-09-04T07:30:55.000Z</time>
      </trkpt>
      <trkpt lat="47.23832" lon="-2.2994">
        <ele>20.60000038147</ele>
        <time>2022-09-04T07:30:59.000Z</time>
      </trkpt>
      <trkpt lat="47.23826" lon="-2.29912">
        <ele>20.60000038147</ele>
        <time>2022-09-04T07:31:04.000Z</time>
      </trkpt>
      <trkpt lat="47.23825" lon="-2.29905">
        <ele>20.60000038147</ele>
        <time>2022-09-04T07:31:05.000Z</time>
      </trkpt>
      <trkpt lat="47.23817" lon="-2.29858">
        <ele>21</ele>
        <time>2022-09-04T07:31:12.000Z</time>
      </trkpt>
      <trkpt lat="47.23816" lon="-2.29851">
        <ele>21.39999961853</ele>
        <time>2022-09-04T07:31:13.000Z</time>
      </trkpt>
      <trkpt lat="47.23814" lon="-2.29844">
        <ele>21.799999237061</ele>
        <time>2022-09-04T07:31:14.000Z</time>
      </trkpt>
      <trkpt lat="47.23813" lon="-2.29836">
        <ele>22.200000762939</ele>
        <time>2022-09-04T07:31:15.000Z</time>
      </trkpt>
      <trkpt lat="47.23813" lon="-2.29829">
        <ele>22.60000038147</ele>
        <time>2022-09-04T07:31:16.000Z</time>
      </trkpt>
      <trkpt lat="47.23813" lon="-2.29807">
        <ele>22.60000038147</ele>
        <time>2022-09-04T07:31:19.000Z</time>
      </trkpt>
      <trkpt lat="47.23814" lon="-2.2976">
        <ele>22.60000038147</ele>
        <time>2022-09-04T07:31:26.000Z</time>
      </trkpt>
      <trkpt lat="47.23815" lon="-2.297">
        <ele>22.60000038147</ele>
        <time>2022-09-04T07:31:34.000Z</time>
      </trkpt>
      <trkpt lat="47.23815" lon="-2.29684">
        <ele>22.60000038147</ele>
        <time>2022-09-04T07:31:36.000Z</time>
      </trkpt>
      <trkpt lat="47.23816" lon="-2.2966">
        <ele>22.60000038147</ele>
        <time>2022-09-04T07:31:39.000Z</time>
      </trkpt>
      <trkpt lat="47.23816" lon="-2.29628">
        <ele>22.60000038147</ele>
        <time>2022-09-04T07:31:43.000Z</time>
      </trkpt>
      <trkpt lat="47.23816" lon="-2.29613">
        <ele>22.60000038147</ele>
        <time>2022-09-04T07:31:45.000Z</time>
      </trkpt>
      <trkpt lat="47.23819" lon="-2.29561">
        <ele>22.60000038147</ele>
        <time>2022-09-04T07:31:51.000Z</time>
      </trkpt>
      <trkpt lat="47.23819" lon="-2.29532">
        <ele>22.60000038147</ele>
        <time>2022-09-04T07:31:55.000Z</time>
      </trkpt>
      <trkpt lat="47.2382" lon="-2.29525">
        <ele>22.60000038147</ele>
        <time>2022-09-04T07:31:56.000Z</time>
      </trkpt>
      <trkpt lat="47.23821" lon="-2.29488">
        <ele>22.60000038147</ele>
        <time>2022-09-04T07:32:00.000Z</time>
      </trkpt>
      <trkpt lat="47.23822" lon="-2.29444">
        <ele>22.60000038147</ele>
        <time>2022-09-04T07:32:05.000Z</time>
      </trkpt>
      <trkpt lat="47.23822" lon="-2.29435">
        <ele>22.60000038147</ele>
        <time>2022-09-04T07:32:06.000Z</time>
      </trkpt>
      <trkpt lat="47.23824" lon="-2.29429">
        <ele>22.60000038147</ele>
        <time>2022-09-04T07:32:07.000Z</time>
      </trkpt>
      <trkpt lat="47.2383" lon="-2.29417">
        <ele>22.60000038147</ele>
        <time>2022-09-04T07:32:09.000Z</time>
      </trkpt>
      <trkpt lat="47.23849" lon="-2.29375">
        <ele>22.60000038147</ele>
        <time>2022-09-04T07:32:15.000Z</time>
      </trkpt>
      <trkpt lat="47.23866" lon="-2.29341">
        <ele>22.60000038147</ele>
        <time>2022-09-04T07:32:20.000Z</time>
      </trkpt>
      <trkpt lat="47.23871" lon="-2.29337">
        <ele>22.60000038147</ele>
        <time>2022-09-04T07:32:21.000Z</time>
      </trkpt>
      <trkpt lat="47.23893" lon="-2.2933">
        <ele>22.60000038147</ele>
        <time>2022-09-04T07:32:25.000Z</time>
      </trkpt>
      <trkpt lat="47.23904" lon="-2.29331">
        <ele>22.60000038147</ele>
        <time>2022-09-04T07:32:27.000Z</time>
      </trkpt>
      <trkpt lat="47.2391" lon="-2.29338">
        <ele>22.60000038147</ele>
        <time>2022-09-04T07:32:29.000Z</time>
      </trkpt>
      <trkpt lat="47.23916" lon="-2.2935">
        <ele>22.60000038147</ele>
        <time>2022-09-04T07:32:31.000Z</time>
      </trkpt>
      <trkpt lat="47.23919" lon="-2.29356">
        <ele>22.60000038147</ele>
        <time>2022-09-04T07:32:32.000Z</time>
      </trkpt>
      <trkpt lat="47.23926" lon="-2.29369">
        <ele>22.60000038147</ele>
        <time>2022-09-04T07:32:34.000Z</time>
      </trkpt>
      <trkpt lat="47.23934" lon="-2.29383">
        <ele>22.60000038147</ele>
        <time>2022-09-04T07:32:36.000Z</time>
      </trkpt>
      <trkpt lat="47.23952" lon="-2.29416">
        <ele>22.60000038147</ele>
        <time>2022-09-04T07:32:41.000Z</time>
      </trkpt>
      <trkpt lat="47.23975" lon="-2.29462">
        <ele>22.60000038147</ele>
        <time>2022-09-04T07:32:48.000Z</time>
      </trkpt>
      <trkpt lat="47.23994" lon="-2.29501">
        <ele>22.60000038147</ele>
        <time>2022-09-04T07:32:54.000Z</time>
      </trkpt>
      <trkpt lat="47.23995" lon="-2.29509">
        <ele>22.60000038147</ele>
        <time>2022-09-04T07:32:55.000Z</time>
      </trkpt>
      <trkpt lat="47.23999" lon="-2.29565">
        <ele>22.60000038147</ele>
        <time>2022-09-04T07:33:02.000Z</time>
      </trkpt>
      <trkpt lat="47.24001" lon="-2.29589">
        <ele>22.60000038147</ele>
        <time>2022-09-04T07:33:05.000Z</time>
      </trkpt>
      <trkpt lat="47.24003" lon="-2.29612">
        <ele>22.60000038147</ele>
        <time>2022-09-04T07:33:08.000Z</time>
      </trkpt>
      <trkpt lat="47.24007" lon="-2.29659">
        <ele>22.60000038147</ele>
        <time>2022-09-04T07:33:14.000Z</time>
      </trkpt>
      <trkpt lat="47.2401" lon="-2.29705">
        <ele>22.60000038147</ele>
        <time>2022-09-04T07:33:20.000Z</time>
      </trkpt>
      <trkpt lat="47.24013" lon="-2.29737">
        <ele>22.60000038147</ele>
        <time>2022-09-04T07:33:25.000Z</time>
      </trkpt>
      <trkpt lat="47.24015" lon="-2.29776">
        <ele>22.60000038147</ele>
        <time>2022-09-04T07:33:31.000Z</time>
      </trkpt>
      <trkpt lat="47.24019" lon="-2.29804">
        <ele>22.60000038147</ele>
        <time>2022-09-04T07:33:36.000Z</time>
      </trkpt>
      <trkpt lat="47.24026" lon="-2.29804">
        <ele>22.60000038147</ele>
        <time>2022-09-04T07:33:39.000Z</time>
      </trkpt>
      <trkpt lat="47.24038" lon="-2.29795">
        <ele>22.60000038147</ele>
        <time>2022-09-04T07:33:44.000Z</time>
      </trkpt>
      <trkpt lat="47.24049" lon="-2.2979">
        <ele>22.60000038147</ele>
        <time>2022-09-04T07:33:47.000Z</time>
      </trkpt>
      <trkpt lat="47.24052" lon="-2.29792">
        <ele>22.60000038147</ele>
        <time>2022-09-04T07:33:48.000Z</time>
      </trkpt>
      <trkpt lat="47.2406" lon="-2.29798">
        <ele>22.60000038147</ele>
        <time>2022-09-04T07:33:51.000Z</time>
      </trkpt>
      <trkpt lat="47.24066" lon="-2.29806">
        <ele>22.60000038147</ele>
        <time>2022-09-04T07:33:54.000Z</time>
      </trkpt>
      <trkpt lat="47.24076" lon="-2.29828">
        <ele>22.60000038147</ele>
        <time>2022-09-04T07:34:01.000Z</time>
      </trkpt>
      <trkpt lat="47.24081" lon="-2.29833">
        <ele>22.60000038147</ele>
        <time>2022-09-04T07:34:03.000Z</time>
      </trkpt>
      <trkpt lat="47.24089" lon="-2.29835">
        <ele>22.60000038147</ele>
        <time>2022-09-04T07:34:05.000Z</time>
      </trkpt>
      <trkpt lat="47.24111" lon="-2.29833">
        <ele>22.60000038147</ele>
        <time>2022-09-04T07:34:10.000Z</time>
      </trkpt>
      <trkpt lat="47.24117" lon="-2.29832">
        <ele>22.60000038147</ele>
        <time>2022-09-04T07:34:11.000Z</time>
      </trkpt>
      <trkpt lat="47.24139" lon="-2.29831">
        <ele>22.60000038147</ele>
        <time>2022-09-04T07:34:16.000Z</time>
      </trkpt>
      <trkpt lat="47.24149" lon="-2.2984">
        <ele>22.60000038147</ele>
        <time>2022-09-04T07:34:20.000Z</time>
      </trkpt>
      <trkpt lat="47.2415" lon="-2.29842">
        <ele>22.60000038147</ele>
        <time>2022-09-04T07:34:21.000Z</time>
      </trkpt>
      <trkpt lat="47.24154" lon="-2.29853">
        <ele>22.60000038147</ele>
        <time>2022-09-04T07:34:25.000Z</time>
      </trkpt>
      <trkpt lat="47.24162" lon="-2.29854">
        <ele>22.60000038147</ele>
        <time>2022-09-04T07:34:30.000Z</time>
      </trkpt>
      <trkpt lat="47.24164" lon="-2.29853">
        <ele>22.60000038147</ele>
        <time>2022-09-04T07:34:31.000Z</time>
      </trkpt>
      <trkpt lat="47.2417" lon="-2.29844">
        <ele>22.60000038147</ele>
        <time>2022-09-04T07:34:34.000Z</time>
      </trkpt>
      <trkpt lat="47.24173" lon="-2.29831">
        <ele>22.60000038147</ele>
        <time>2022-09-04T07:34:37.000Z</time>
      </trkpt>
      <trkpt lat="47.24172" lon="-2.29829">
        <ele>22.60000038147</ele>
        <time>2022-09-04T07:34:38.000Z</time>
      </trkpt>
      <trkpt lat="47.24169" lon="-2.29825">
        <ele>22.60000038147</ele>
        <time>2022-09-04T07:34:40.000Z</time>
      </trkpt>
      <trkpt lat="47.24169" lon="-2.29818">
        <ele>22.60000038147</ele>
        <time>2022-09-04T07:34:42.000Z</time>
      </trkpt>
      <trkpt lat="47.24163" lon="-2.29808">
        <ele>22.60000038147</ele>
        <time>2022-09-04T07:34:47.000Z</time>
      </trkpt>
      <trkpt lat="47.24153" lon="-2.29806">
        <ele>22.60000038147</ele>
        <time>2022-09-04T07:34:51.000Z</time>
      </trkpt>
      <trkpt lat="47.24138" lon="-2.29808">
        <ele>22.60000038147</ele>
        <time>2022-09-04T07:34:56.000Z</time>
      </trkpt>
      <trkpt lat="47.24131" lon="-2.2981">
        <ele>22.60000038147</ele>
        <time>2022-09-04T07:35:00.000Z</time>
      </trkpt>
      <trkpt lat="47.24142" lon="-2.29809">
        <ele>22.60000038147</ele>
        <time>2022-09-04T07:35:20.000Z</time>
      </trkpt>
      <trkpt lat="47.24153" lon="-2.29809">
        <ele>22.60000038147</ele>
        <time>2022-09-04T07:35:27.000Z</time>
      </trkpt>
      <trkpt lat="47.2416" lon="-2.29818">
        <ele>22.60000038147</ele>
        <time>2022-09-04T07:35:31.000Z</time>
      </trkpt>
      <trkpt lat="47.24162" lon="-2.29821">
        <ele>22.60000038147</ele>
        <time>2022-09-04T07:35:33.000Z</time>
      </trkpt>
      <trkpt lat="47.24164" lon="-2.29821">
        <ele>22.60000038147</ele>
        <time>2022-09-04T07:35:35.000Z</time>
      </trkpt>
      <trkpt lat="47.24168" lon="-2.2982">
        <ele>22.60000038147</ele>
        <time>2022-09-04T07:35:47.000Z</time>
      </trkpt>
      <trkpt lat="47.2417" lon="-2.29819">
        <ele>22.60000038147</ele>
        <time>2022-09-04T07:35:48.000Z</time>
      </trkpt>
      <trkpt lat="47.24181" lon="-2.29811">
        <ele>22.60000038147</ele>
        <time>2022-09-04T07:35:53.000Z</time>
      </trkpt>
      <trkpt lat="47.24184" lon="-2.2981">
        <ele>22.60000038147</ele>
        <time>2022-09-04T07:35:54.000Z</time>
      </trkpt>
      <trkpt lat="47.24195" lon="-2.29807">
        <ele>22.60000038147</ele>
        <time>2022-09-04T07:35:57.000Z</time>
      </trkpt>
      <trkpt lat="47.24219" lon="-2.29799">
        <ele>22.60000038147</ele>
        <time>2022-09-04T07:36:02.000Z</time>
      </trkpt>
      <trkpt lat="47.2423" lon="-2.29797">
        <ele>22.60000038147</ele>
        <time>2022-09-04T07:36:06.000Z</time>
      </trkpt>
      <trkpt lat="47.24237" lon="-2.29797">
        <ele>22.60000038147</ele>
        <time>2022-09-04T07:36:10.000Z</time>
      </trkpt>
      <trkpt lat="47.24239" lon="-2.29796">
        <ele>22.60000038147</ele>
        <time>2022-09-04T07:36:12.000Z</time>
      </trkpt>
      <trkpt lat="47.24241" lon="-2.29794">
        <ele>22.60000038147</ele>
        <time>2022-09-04T07:36:13.000Z</time>
      </trkpt>
      <trkpt lat="47.24247" lon="-2.2979">
        <ele>22.60000038147</ele>
        <time>2022-09-04T07:36:16.000Z</time>
      </trkpt>
      <trkpt lat="47.24254" lon="-2.29789">
        <ele>22.60000038147</ele>
        <time>2022-09-04T07:36:18.000Z</time>
      </trkpt>
      <trkpt lat="47.24266" lon="-2.29788">
        <ele>22.60000038147</ele>
        <time>2022-09-04T07:36:21.000Z</time>
      </trkpt>
      <trkpt lat="47.24283" lon="-2.29784">
        <ele>22.60000038147</ele>
        <time>2022-09-04T07:36:26.000Z</time>
      </trkpt>
      <trkpt lat="47.24289" lon="-2.29796">
        <ele>22.60000038147</ele>
        <time>2022-09-04T07:36:30.000Z</time>
      </trkpt>
      <trkpt lat="47.24291" lon="-2.29807">
        <ele>22.60000038147</ele>
        <time>2022-09-04T07:36:32.000Z</time>
      </trkpt>
      <trkpt lat="47.24295" lon="-2.29833">
        <ele>22.60000038147</ele>
        <time>2022-09-04T07:36:36.000Z</time>
      </trkpt>
      <trkpt lat="47.24302" lon="-2.29867">
        <ele>22.60000038147</ele>
        <time>2022-09-04T07:36:42.000Z</time>
      </trkpt>
      <trkpt lat="47.24304" lon="-2.29871">
        <ele>22.200000762939</ele>
        <time>2022-09-04T07:36:43.000Z</time>
      </trkpt>
      <trkpt lat="47.24307" lon="-2.29873">
        <ele>21.799999237061</ele>
        <time>2022-09-04T07:36:44.000Z</time>
      </trkpt>
      <trkpt lat="47.24309" lon="-2.29874">
        <ele>21.39999961853</ele>
        <time>2022-09-04T07:36:45.000Z</time>
      </trkpt>
      <trkpt lat="47.24311" lon="-2.29875">
        <ele>21</ele>
        <time>2022-09-04T07:36:46.000Z</time>
      </trkpt>
      <trkpt lat="47.24312" lon="-2.29876">
        <ele>20.60000038147</ele>
        <time>2022-09-04T07:36:47.000Z</time>
      </trkpt>
      <trkpt lat="47.24314" lon="-2.29876">
        <ele>20.60000038147</ele>
        <time>2022-09-04T07:36:48.000Z</time>
      </trkpt>
      <trkpt lat="47.24317" lon="-2.29876">
        <ele>20.60000038147</ele>
        <time>2022-09-04T07:36:50.000Z</time>
      </trkpt>
      <trkpt lat="47.2432" lon="-2.29875">
        <ele>20.60000038147</ele>
        <time>2022-09-04T07:36:52.000Z</time>
      </trkpt>
      <trkpt lat="47.24321" lon="-2.2987">
        <ele>20.60000038147</ele>
        <time>2022-09-04T07:36:54.000Z</time>
      </trkpt>
      <trkpt lat="47.24323" lon="-2.29851">
        <ele>20.60000038147</ele>
        <time>2022-09-04T07:36:59.000Z</time>
      </trkpt>
      <trkpt lat="47.24321" lon="-2.29828">
        <ele>20.60000038147</ele>
        <time>2022-09-04T07:37:05.000Z</time>
      </trkpt>
      <trkpt lat="47.24327" lon="-2.29815">
        <ele>20.60000038147</ele>
        <time>2022-09-04T07:37:09.000Z</time>
      </trkpt>
      <trkpt lat="47.24341" lon="-2.29809">
        <ele>20.60000038147</ele>
        <time>2022-09-04T07:37:14.000Z</time>
      </trkpt>
      <trkpt lat="47.24358" lon="-2.298">
        <ele>20.60000038147</ele>
        <time>2022-09-04T07:37:20.000Z</time>
      </trkpt>
      <trkpt lat="47.24372" lon="-2.29779">
        <ele>21</ele>
        <time>2022-09-04T07:37:26.000Z</time>
      </trkpt>
      <trkpt lat="47.24374" lon="-2.29775">
        <ele>21.39999961853</ele>
        <time>2022-09-04T07:37:27.000Z</time>
      </trkpt>
      <trkpt lat="47.24376" lon="-2.29771">
        <ele>21.799999237061</ele>
        <time>2022-09-04T07:37:28.000Z</time>
      </trkpt>
      <trkpt lat="47.24377" lon="-2.29766">
        <ele>22.200000762939</ele>
        <time>2022-09-04T07:37:29.000Z</time>
      </trkpt>
      <trkpt lat="47.24379" lon="-2.29762">
        <ele>22.799999237061</ele>
        <time>2022-09-04T07:37:30.000Z</time>
      </trkpt>
      <trkpt lat="47.24387" lon="-2.29743">
        <ele>22.799999237061</ele>
        <time>2022-09-04T07:37:34.000Z</time>
      </trkpt>
      <trkpt lat="47.24398" lon="-2.29711">
        <ele>22.799999237061</ele>
        <time>2022-09-04T07:37:41.000Z</time>
      </trkpt>
      <trkpt lat="47.24411" lon="-2.29697">
        <ele>22.799999237061</ele>
        <time>2022-09-04T07:37:46.000Z</time>
      </trkpt>
      <trkpt lat="47.24426" lon="-2.29689">
        <ele>22.799999237061</ele>
        <time>2022-09-04T07:37:52.000Z</time>
      </trkpt>
      <trkpt lat="47.24436" lon="-2.2968">
        <ele>22.799999237061</ele>
        <time>2022-09-04T07:37:57.000Z</time>
      </trkpt>
      <trkpt lat="47.24439" lon="-2.29661">
        <ele>22.799999237061</ele>
        <time>2022-09-04T07:38:02.000Z</time>
      </trkpt>
      <trkpt lat="47.24441" lon="-2.29639">
        <ele>22.799999237061</ele>
        <time>2022-09-04T07:38:08.000Z</time>
      </trkpt>
      <trkpt lat="47.24451" lon="-2.29627">
        <ele>22.799999237061</ele>
        <time>2022-09-04T07:38:13.000Z</time>
      </trkpt>
      <trkpt lat="47.24465" lon="-2.29614">
        <ele>22.799999237061</ele>
        <time>2022-09-04T07:38:17.000Z</time>
      </trkpt>
      <trkpt lat="47.24488" lon="-2.29592">
        <ele>22.799999237061</ele>
        <time>2022-09-04T07:38:23.000Z</time>
      </trkpt>
      <trkpt lat="47.2451" lon="-2.29573">
        <ele>22.799999237061</ele>
        <time>2022-09-04T07:38:29.000Z</time>
      </trkpt>
      <trkpt lat="47.24524" lon="-2.29563">
        <ele>22.799999237061</ele>
        <time>2022-09-04T07:38:34.000Z</time>
      </trkpt>
      <trkpt lat="47.24525" lon="-2.29561">
        <ele>23.200000762939</ele>
        <time>2022-09-04T07:38:35.000Z</time>
      </trkpt>
      <trkpt lat="47.24526" lon="-2.29558">
        <ele>23.60000038147</ele>
        <time>2022-09-04T07:38:36.000Z</time>
      </trkpt>
      <trkpt lat="47.24526" lon="-2.29554">
        <ele>24</ele>
        <time>2022-09-04T07:38:37.000Z</time>
      </trkpt>
      <trkpt lat="47.24526" lon="-2.29549">
        <ele>24.39999961853</ele>
        <time>2022-09-04T07:38:38.000Z</time>
      </trkpt>
      <trkpt lat="47.24526" lon="-2.29544">
        <ele>24.799999237061</ele>
        <time>2022-09-04T07:38:39.000Z</time>
      </trkpt>
      <trkpt lat="47.24522" lon="-2.29514">
        <ele>24.799999237061</ele>
        <time>2022-09-04T07:38:45.000Z</time>
      </trkpt>
      <trkpt lat="47.24522" lon="-2.29467">
        <ele>24.799999237061</ele>
        <time>2022-09-04T07:38:53.000Z</time>
      </trkpt>
      <trkpt lat="47.24522" lon="-2.29437">
        <ele>24.799999237061</ele>
        <time>2022-09-04T07:38:58.000Z</time>
      </trkpt>
      <trkpt lat="47.24521" lon="-2.29425">
        <ele>24.799999237061</ele>
        <time>2022-09-04T07:39:00.000Z</time>
      </trkpt>
      <trkpt lat="47.2452" lon="-2.29383">
        <ele>24.799999237061</ele>
        <time>2022-09-04T07:39:07.000Z</time>
      </trkpt>
      <trkpt lat="47.24519" lon="-2.29371">
        <ele>24.799999237061</ele>
        <time>2022-09-04T07:39:09.000Z</time>
      </trkpt>
      <trkpt lat="47.24515" lon="-2.29348">
        <ele>24.799999237061</ele>
        <time>2022-09-04T07:39:13.000Z</time>
      </trkpt>
      <trkpt lat="47.24515" lon="-2.29328">
        <ele>24.799999237061</ele>
        <time>2022-09-04T07:39:16.000Z</time>
      </trkpt>
      <trkpt lat="47.24514" lon="-2.29315">
        <ele>24.799999237061</ele>
        <time>2022-09-04T07:39:18.000Z</time>
      </trkpt>
      <trkpt lat="47.24513" lon="-2.29271">
        <ele>24.799999237061</ele>
        <time>2022-09-04T07:39:24.000Z</time>
      </trkpt>
      <trkpt lat="47.24515" lon="-2.29226">
        <ele>24.799999237061</ele>
        <time>2022-09-04T07:39:30.000Z</time>
      </trkpt>
      <trkpt lat="47.24523" lon="-2.29168">
        <ele>24.799999237061</ele>
        <time>2022-09-04T07:39:38.000Z</time>
      </trkpt>
      <trkpt lat="47.24534" lon="-2.29127">
        <ele>24.799999237061</ele>
        <time>2022-09-04T07:39:44.000Z</time>
      </trkpt>
      <trkpt lat="47.24545" lon="-2.29077">
        <ele>24.799999237061</ele>
        <time>2022-09-04T07:39:51.000Z</time>
      </trkpt>
      <trkpt lat="47.24552" lon="-2.29026">
        <ele>24.39999961853</ele>
        <time>2022-09-04T07:39:58.000Z</time>
      </trkpt>
      <trkpt lat="47.24553" lon="-2.29019">
        <ele>23.60000038147</ele>
        <time>2022-09-04T07:39:59.000Z</time>
      </trkpt>
      <trkpt lat="47.24553" lon="-2.29012">
        <ele>23.200000762939</ele>
        <time>2022-09-04T07:40:00.000Z</time>
      </trkpt>
      <trkpt lat="47.24552" lon="-2.29005">
        <ele>22.799999237061</ele>
        <time>2022-09-04T07:40:01.000Z</time>
      </trkpt>
      <trkpt lat="47.2455" lon="-2.28983">
        <ele>22.799999237061</ele>
        <time>2022-09-04T07:40:04.000Z</time>
      </trkpt>
      <trkpt lat="47.24533" lon="-2.28919">
        <ele>22.799999237061</ele>
        <time>2022-09-04T07:40:13.000Z</time>
      </trkpt>
      <trkpt lat="47.24523" lon="-2.28883">
        <ele>22.39999961853</ele>
        <time>2022-09-04T07:40:18.000Z</time>
      </trkpt>
      <trkpt lat="47.24523" lon="-2.28876">
        <ele>22</ele>
        <time>2022-09-04T07:40:19.000Z</time>
      </trkpt>
      <trkpt lat="47.24524" lon="-2.28868">
        <ele>21.60000038147</ele>
        <time>2022-09-04T07:40:20.000Z</time>
      </trkpt>
      <trkpt lat="47.24527" lon="-2.28861">
        <ele>21</ele>
        <time>2022-09-04T07:40:21.000Z</time>
      </trkpt>
      <trkpt lat="47.24531" lon="-2.28855">
        <ele>20.60000038147</ele>
        <time>2022-09-04T07:40:22.000Z</time>
      </trkpt>
      <trkpt lat="47.24543" lon="-2.28842">
        <ele>20.60000038147</ele>
        <time>2022-09-04T07:40:25.000Z</time>
      </trkpt>
      <trkpt lat="47.24548" lon="-2.28838">
        <ele>20.60000038147</ele>
        <time>2022-09-04T07:40:26.000Z</time>
      </trkpt>
      <trkpt lat="47.24565" lon="-2.28815">
        <ele>20.60000038147</ele>
        <time>2022-09-04T07:40:31.000Z</time>
      </trkpt>
      <trkpt lat="47.24569" lon="-2.28811">
        <ele>20.60000038147</ele>
        <time>2022-09-04T07:40:32.000Z</time>
      </trkpt>
      <trkpt lat="47.24583" lon="-2.28801">
        <ele>20.60000038147</ele>
        <time>2022-09-04T07:40:35.000Z</time>
      </trkpt>
      <trkpt lat="47.24609" lon="-2.28782">
        <ele>20.60000038147</ele>
        <time>2022-09-04T07:40:41.000Z</time>
      </trkpt>
      <trkpt lat="47.24613" lon="-2.28778">
        <ele>20.60000038147</ele>
        <time>2022-09-04T07:40:42.000Z</time>
      </trkpt>
      <trkpt lat="47.24631" lon="-2.28754">
        <ele>20.60000038147</ele>
        <time>2022-09-04T07:40:47.000Z</time>
      </trkpt>
      <trkpt lat="47.2465" lon="-2.28721">
        <ele>20.60000038147</ele>
        <time>2022-09-04T07:40:53.000Z</time>
      </trkpt>
      <trkpt lat="47.24659" lon="-2.28711">
        <ele>20.60000038147</ele>
        <time>2022-09-04T07:40:55.000Z</time>
      </trkpt>
      <trkpt lat="47.24685" lon="-2.28681">
        <ele>20.60000038147</ele>
        <time>2022-09-04T07:41:01.000Z</time>
      </trkpt>
      <trkpt lat="47.24704" lon="-2.28652">
        <ele>21</ele>
        <time>2022-09-04T07:41:06.000Z</time>
      </trkpt>
      <trkpt lat="47.24709" lon="-2.28647">
        <ele>21.39999961853</ele>
        <time>2022-09-04T07:41:07.000Z</time>
      </trkpt>
      <trkpt lat="47.24714" lon="-2.28642">
        <ele>22</ele>
        <time>2022-09-04T07:41:08.000Z</time>
      </trkpt>
      <trkpt lat="47.24719" lon="-2.28638">
        <ele>22.39999961853</ele>
        <time>2022-09-04T07:41:09.000Z</time>
      </trkpt>
      <trkpt lat="47.24724" lon="-2.28632">
        <ele>22.799999237061</ele>
        <time>2022-09-04T07:41:10.000Z</time>
      </trkpt>
      <trkpt lat="47.24729" lon="-2.28627">
        <ele>22.799999237061</ele>
        <time>2022-09-04T07:41:11.000Z</time>
      </trkpt>
      <trkpt lat="47.24742" lon="-2.28601">
        <ele>22.799999237061</ele>
        <time>2022-09-04T07:41:15.000Z</time>
      </trkpt>
      <trkpt lat="47.24744" lon="-2.28586">
        <ele>22.799999237061</ele>
        <time>2022-09-04T07:41:17.000Z</time>
      </trkpt>
      <trkpt lat="47.24749" lon="-2.2857">
        <ele>22.799999237061</ele>
        <time>2022-09-04T07:41:19.000Z</time>
      </trkpt>
      <trkpt lat="47.24767" lon="-2.28549">
        <ele>22.799999237061</ele>
        <time>2022-09-04T07:41:23.000Z</time>
      </trkpt>
      <trkpt lat="47.24795" lon="-2.28519">
        <ele>22.799999237061</ele>
        <time>2022-09-04T07:41:29.000Z</time>
      </trkpt>
      <trkpt lat="47.24828" lon="-2.28494">
        <ele>22.799999237061</ele>
        <time>2022-09-04T07:41:35.000Z</time>
      </trkpt>
      <trkpt lat="47.24866" lon="-2.28459">
        <ele>22.799999237061</ele>
        <time>2022-09-04T07:41:42.000Z</time>
      </trkpt>
      <trkpt lat="47.24886" lon="-2.28436">
        <ele>22.39999961853</ele>
        <time>2022-09-04T07:41:46.000Z</time>
      </trkpt>
      <trkpt lat="47.24891" lon="-2.28431">
        <ele>22</ele>
        <time>2022-09-04T07:41:47.000Z</time>
      </trkpt>
      <trkpt lat="47.24898" lon="-2.28427">
        <ele>21.39999961853</ele>
        <time>2022-09-04T07:41:48.000Z</time>
      </trkpt>
      <trkpt lat="47.24904" lon="-2.28423">
        <ele>21</ele>
        <time>2022-09-04T07:41:49.000Z</time>
      </trkpt>
      <trkpt lat="47.24911" lon="-2.28419">
        <ele>20.60000038147</ele>
        <time>2022-09-04T07:41:50.000Z</time>
      </trkpt>
      <trkpt lat="47.24925" lon="-2.28414">
        <ele>20.60000038147</ele>
        <time>2022-09-04T07:41:52.000Z</time>
      </trkpt>
      <trkpt lat="47.24932" lon="-2.28411">
        <ele>20.200000762939</ele>
        <time>2022-09-04T07:41:53.000Z</time>
      </trkpt>
      <trkpt lat="47.24939" lon="-2.28409">
        <ele>19.799999237061</ele>
        <time>2022-09-04T07:41:54.000Z</time>
      </trkpt>
      <trkpt lat="47.24947" lon="-2.28407">
        <ele>19.39999961853</ele>
        <time>2022-09-04T07:41:55.000Z</time>
      </trkpt>
      <trkpt lat="47.24955" lon="-2.28404">
        <ele>19</ele>
        <time>2022-09-04T07:41:56.000Z</time>
      </trkpt>
      <trkpt lat="47.24963" lon="-2.28401">
        <ele>18.60000038147</ele>
        <time>2022-09-04T07:41:57.000Z</time>
      </trkpt>
      <trkpt lat="47.24979" lon="-2.28392">
        <ele>18.200000762939</ele>
        <time>2022-09-04T07:41:59.000Z</time>
      </trkpt>
      <trkpt lat="47.24985" lon="-2.28385">
        <ele>17.799999237061</ele>
        <time>2022-09-04T07:42:00.000Z</time>
      </trkpt>
      <trkpt lat="47.2499" lon="-2.28376">
        <ele>17.200000762939</ele>
        <time>2022-09-04T07:42:01.000Z</time>
      </trkpt>
      <trkpt lat="47.24994" lon="-2.28367">
        <ele>16.799999237061</ele>
        <time>2022-09-04T07:42:02.000Z</time>
      </trkpt>
      <trkpt lat="47.24998" lon="-2.28357">
        <ele>16.39999961853</ele>
        <time>2022-09-04T07:42:03.000Z</time>
      </trkpt>
      <trkpt lat="47.25002" lon="-2.28348">
        <ele>16.39999961853</ele>
        <time>2022-09-04T07:42:04.000Z</time>
      </trkpt>
      <trkpt lat="47.25015" lon="-2.28331">
        <ele>16.39999961853</ele>
        <time>2022-09-04T07:42:07.000Z</time>
      </trkpt>
      <trkpt lat="47.25024" lon="-2.28324">
        <ele>16.39999961853</ele>
        <time>2022-09-04T07:42:09.000Z</time>
      </trkpt>
      <trkpt lat="47.25028" lon="-2.28317">
        <ele>16.39999961853</ele>
        <time>2022-09-04T07:42:11.000Z</time>
      </trkpt>
      <trkpt lat="47.2503" lon="-2.28301">
        <ele>16.799999237061</ele>
        <time>2022-09-04T07:42:14.000Z</time>
      </trkpt>
      <trkpt lat="47.25029" lon="-2.28295">
        <ele>17.200000762939</ele>
        <time>2022-09-04T07:42:15.000Z</time>
      </trkpt>
      <trkpt lat="47.2503" lon="-2.2829">
        <ele>17.60000038147</ele>
        <time>2022-09-04T07:42:16.000Z</time>
      </trkpt>
      <trkpt lat="47.25031" lon="-2.28284">
        <ele>18</ele>
        <time>2022-09-04T07:42:17.000Z</time>
      </trkpt>
      <trkpt lat="47.25031" lon="-2.2828">
        <ele>18.39999961853</ele>
        <time>2022-09-04T07:42:18.000Z</time>
      </trkpt>
      <trkpt lat="47.25031" lon="-2.28274">
        <ele>18.39999961853</ele>
        <time>2022-09-04T07:42:19.000Z</time>
      </trkpt>
      <trkpt lat="47.25033" lon="-2.28263">
        <ele>18.39999961853</ele>
        <time>2022-09-04T07:42:21.000Z</time>
      </trkpt>
      <trkpt lat="47.25036" lon="-2.28242">
        <ele>18.39999961853</ele>
        <time>2022-09-04T07:42:24.000Z</time>
      </trkpt>
      <trkpt lat="47.25045" lon="-2.28196">
        <ele>18.39999961853</ele>
        <time>2022-09-04T07:42:30.000Z</time>
      </trkpt>
      <trkpt lat="47.25055" lon="-2.28161">
        <ele>18.39999961853</ele>
        <time>2022-09-04T07:42:35.000Z</time>
      </trkpt>
      <trkpt lat="47.25066" lon="-2.28125">
        <ele>18.39999961853</ele>
        <time>2022-09-04T07:42:40.000Z</time>
      </trkpt>
      <trkpt lat="47.25069" lon="-2.2811">
        <ele>18.39999961853</ele>
        <time>2022-09-04T07:42:42.000Z</time>
      </trkpt>
      <trkpt lat="47.2507" lon="-2.28095">
        <ele>18.39999961853</ele>
        <time>2022-09-04T07:42:44.000Z</time>
      </trkpt>
      <trkpt lat="47.25072" lon="-2.28088">
        <ele>18.39999961853</ele>
        <time>2022-09-04T07:42:45.000Z</time>
      </trkpt>
      <trkpt lat="47.25079" lon="-2.28073">
        <ele>18.39999961853</ele>
        <time>2022-09-04T07:42:47.000Z</time>
      </trkpt>
      <trkpt lat="47.25085" lon="-2.28057">
        <ele>18.39999961853</ele>
        <time>2022-09-04T07:42:49.000Z</time>
      </trkpt>
      <trkpt lat="47.25095" lon="-2.28035">
        <ele>18.39999961853</ele>
        <time>2022-09-04T07:42:52.000Z</time>
      </trkpt>
      <trkpt lat="47.25109" lon="-2.28002">
        <ele>18.799999237061</ele>
        <time>2022-09-04T07:42:57.000Z</time>
      </trkpt>
      <trkpt lat="47.25112" lon="-2.27996">
        <ele>19.200000762939</ele>
        <time>2022-09-04T07:42:58.000Z</time>
      </trkpt>
      <trkpt lat="47.25116" lon="-2.27989">
        <ele>19.799999237061</ele>
        <time>2022-09-04T07:42:59.000Z</time>
      </trkpt>
      <trkpt lat="47.25119" lon="-2.27983">
        <ele>20.200000762939</ele>
        <time>2022-09-04T07:43:00.000Z</time>
      </trkpt>
      <trkpt lat="47.25123" lon="-2.27976">
        <ele>20.60000038147</ele>
        <time>2022-09-04T07:43:01.000Z</time>
      </trkpt>
      <trkpt lat="47.25131" lon="-2.27965">
        <ele>20.60000038147</ele>
        <time>2022-09-04T07:43:03.000Z</time>
      </trkpt>
      <trkpt lat="47.2514" lon="-2.27955">
        <ele>20.60000038147</ele>
        <time>2022-09-04T07:43:05.000Z</time>
      </trkpt>
      <trkpt lat="47.2516" lon="-2.27939">
        <ele>20.60000038147</ele>
        <time>2022-09-04T07:43:09.000Z</time>
      </trkpt>
      <trkpt lat="47.25179" lon="-2.27926">
        <ele>21</ele>
        <time>2022-09-04T07:43:13.000Z</time>
      </trkpt>
      <trkpt lat="47.25184" lon="-2.27922">
        <ele>21.39999961853</ele>
        <time>2022-09-04T07:43:14.000Z</time>
      </trkpt>
      <trkpt lat="47.25189" lon="-2.27918">
        <ele>21.799999237061</ele>
        <time>2022-09-04T07:43:15.000Z</time>
      </trkpt>
      <trkpt lat="47.25194" lon="-2.27915">
        <ele>22.200000762939</ele>
        <time>2022-09-04T07:43:16.000Z</time>
      </trkpt>
      <trkpt lat="47.25199" lon="-2.27912">
        <ele>22.799999237061</ele>
        <time>2022-09-04T07:43:17.000Z</time>
      </trkpt>
      <trkpt lat="47.25214" lon="-2.27903">
        <ele>22.799999237061</ele>
        <time>2022-09-04T07:43:20.000Z</time>
      </trkpt>
      <trkpt lat="47.25244" lon="-2.27888">
        <ele>22.799999237061</ele>
        <time>2022-09-04T07:43:26.000Z</time>
      </trkpt>
      <trkpt lat="47.25276" lon="-2.27874">
        <ele>22.799999237061</ele>
        <time>2022-09-04T07:43:32.000Z</time>
      </trkpt>
      <trkpt lat="47.25294" lon="-2.2787">
        <ele>23.200000762939</ele>
        <time>2022-09-04T07:43:35.000Z</time>
      </trkpt>
      <trkpt lat="47.253" lon="-2.27869">
        <ele>23.60000038147</ele>
        <time>2022-09-04T07:43:36.000Z</time>
      </trkpt>
      <trkpt lat="47.25306" lon="-2.27868">
        <ele>24</ele>
        <time>2022-09-04T07:43:37.000Z</time>
      </trkpt>
      <trkpt lat="47.25312" lon="-2.27867">
        <ele>24.39999961853</ele>
        <time>2022-09-04T07:43:38.000Z</time>
      </trkpt>
      <trkpt lat="47.25318" lon="-2.27867">
        <ele>24.799999237061</ele>
        <time>2022-09-04T07:43:39.000Z</time>
      </trkpt>
      <trkpt lat="47.25329" lon="-2.27865">
        <ele>24.799999237061</ele>
        <time>2022-09-04T07:43:41.000Z</time>
      </trkpt>
      <trkpt lat="47.25339" lon="-2.27863">
        <ele>24.799999237061</ele>
        <time>2022-09-04T07:43:43.000Z</time>
      </trkpt>
      <trkpt lat="47.25373" lon="-2.27855">
        <ele>24.799999237061</ele>
        <time>2022-09-04T07:43:49.000Z</time>
      </trkpt>
      <trkpt lat="47.25398" lon="-2.27845">
        <ele>25.200000762939</ele>
        <time>2022-09-04T07:43:54.000Z</time>
      </trkpt>
      <trkpt lat="47.25403" lon="-2.27842">
        <ele>25.60000038147</ele>
        <time>2022-09-04T07:43:55.000Z</time>
      </trkpt>
      <trkpt lat="47.25408" lon="-2.2784">
        <ele>26</ele>
        <time>2022-09-04T07:43:56.000Z</time>
      </trkpt>
      <trkpt lat="47.25413" lon="-2.27837">
        <ele>26.39999961853</ele>
        <time>2022-09-04T07:43:57.000Z</time>
      </trkpt>
      <trkpt lat="47.25418" lon="-2.27834">
        <ele>26.799999237061</ele>
        <time>2022-09-04T07:43:58.000Z</time>
      </trkpt>
      <trkpt lat="47.25423" lon="-2.27831">
        <ele>26.799999237061</ele>
        <time>2022-09-04T07:43:59.000Z</time>
      </trkpt>
      <trkpt lat="47.25439" lon="-2.27819">
        <ele>26.799999237061</ele>
        <time>2022-09-04T07:44:02.000Z</time>
      </trkpt>
      <trkpt lat="47.25453" lon="-2.27804">
        <ele>26.799999237061</ele>
        <time>2022-09-04T07:44:05.000Z</time>
      </trkpt>
      <trkpt lat="47.25461" lon="-2.27794">
        <ele>26.799999237061</ele>
        <time>2022-09-04T07:44:07.000Z</time>
      </trkpt>
      <trkpt lat="47.25472" lon="-2.2778">
        <ele>26.799999237061</ele>
        <time>2022-09-04T07:44:10.000Z</time>
      </trkpt>
      <trkpt lat="47.25475" lon="-2.27776">
        <ele>26.799999237061</ele>
        <time>2022-09-04T07:44:11.000Z</time>
      </trkpt>
      <trkpt lat="47.25487" lon="-2.27761">
        <ele>26.799999237061</ele>
        <time>2022-09-04T07:44:14.000Z</time>
      </trkpt>
      <trkpt lat="47.25495" lon="-2.27753">
        <ele>26.799999237061</ele>
        <time>2022-09-04T07:44:16.000Z</time>
      </trkpt>
      <trkpt lat="47.25498" lon="-2.27749">
        <ele>27.39999961853</ele>
        <time>2022-09-04T07:44:17.000Z</time>
      </trkpt>
      <trkpt lat="47.25501" lon="-2.27744">
        <ele>27.799999237061</ele>
        <time>2022-09-04T07:44:18.000Z</time>
      </trkpt>
      <trkpt lat="47.25502" lon="-2.27738">
        <ele>28.200000762939</ele>
        <time>2022-09-04T07:44:19.000Z</time>
      </trkpt>
      <trkpt lat="47.25502" lon="-2.27731">
        <ele>28.60000038147</ele>
        <time>2022-09-04T07:44:20.000Z</time>
      </trkpt>
      <trkpt lat="47.25501" lon="-2.27725">
        <ele>29.200000762939</ele>
        <time>2022-09-04T07:44:21.000Z</time>
      </trkpt>
      <trkpt lat="47.255" lon="-2.27717">
        <ele>29.200000762939</ele>
        <time>2022-09-04T07:44:22.000Z</time>
      </trkpt>
      <trkpt lat="47.25492" lon="-2.27674">
        <ele>29.200000762939</ele>
        <time>2022-09-04T07:44:28.000Z</time>
      </trkpt>
      <trkpt lat="47.25484" lon="-2.2763">
        <ele>29.200000762939</ele>
        <time>2022-09-04T07:44:34.000Z</time>
      </trkpt>
      <trkpt lat="47.25481" lon="-2.27624">
        <ele>29.200000762939</ele>
        <time>2022-09-04T07:44:35.000Z</time>
      </trkpt>
      <trkpt lat="47.25471" lon="-2.27608">
        <ele>29.200000762939</ele>
        <time>2022-09-04T07:44:38.000Z</time>
      </trkpt>
      <trkpt lat="47.2546" lon="-2.27579">
        <ele>29.200000762939</ele>
        <time>2022-09-04T07:44:42.000Z</time>
      </trkpt>
      <trkpt lat="47.25458" lon="-2.27565">
        <ele>29.200000762939</ele>
        <time>2022-09-04T07:44:44.000Z</time>
      </trkpt>
      <trkpt lat="47.25456" lon="-2.27552">
        <ele>29.200000762939</ele>
        <time>2022-09-04T07:44:46.000Z</time>
      </trkpt>
      <trkpt lat="47.25451" lon="-2.27533">
        <ele>29.200000762939</ele>
        <time>2022-09-04T07:44:49.000Z</time>
      </trkpt>
      <trkpt lat="47.25448" lon="-2.27521">
        <ele>29.200000762939</ele>
        <time>2022-09-04T07:44:51.000Z</time>
      </trkpt>
      <trkpt lat="47.25445" lon="-2.2751">
        <ele>29.200000762939</ele>
        <time>2022-09-04T07:44:53.000Z</time>
      </trkpt>
      <trkpt lat="47.25442" lon="-2.27505">
        <ele>29.200000762939</ele>
        <time>2022-09-04T07:44:54.000Z</time>
      </trkpt>
      <trkpt lat="47.25433" lon="-2.27494">
        <ele>29.200000762939</ele>
        <time>2022-09-04T07:44:56.000Z</time>
      </trkpt>
      <trkpt lat="47.25423" lon="-2.27471">
        <ele>29.200000762939</ele>
        <time>2022-09-04T07:44:59.000Z</time>
      </trkpt>
      <trkpt lat="47.2542" lon="-2.27463">
        <ele>29.200000762939</ele>
        <time>2022-09-04T07:45:00.000Z</time>
      </trkpt>
      <trkpt lat="47.25403" lon="-2.27407">
        <ele>29.200000762939</ele>
        <time>2022-09-04T07:45:07.000Z</time>
      </trkpt>
      <trkpt lat="47.25397" lon="-2.27384">
        <ele>29.200000762939</ele>
        <time>2022-09-04T07:45:11.000Z</time>
      </trkpt>
      <trkpt lat="47.25387" lon="-2.27365">
        <ele>29.200000762939</ele>
        <time>2022-09-04T07:45:15.000Z</time>
      </trkpt>
      <trkpt lat="47.25378" lon="-2.27357">
        <ele>29.200000762939</ele>
        <time>2022-09-04T07:45:17.000Z</time>
      </trkpt>
      <trkpt lat="47.25374" lon="-2.27352">
        <ele>29.200000762939</ele>
        <time>2022-09-04T07:45:18.000Z</time>
      </trkpt>
      <trkpt lat="47.2537" lon="-2.27346">
        <ele>29.200000762939</ele>
        <time>2022-09-04T07:45:19.000Z</time>
      </trkpt>
      <trkpt lat="47.25353" lon="-2.27324">
        <ele>29.200000762939</ele>
        <time>2022-09-04T07:45:23.000Z</time>
      </trkpt>
      <trkpt lat="47.25347" lon="-2.27311">
        <ele>29.200000762939</ele>
        <time>2022-09-04T07:45:25.000Z</time>
      </trkpt>
      <trkpt lat="47.25344" lon="-2.27299">
        <ele>29.200000762939</ele>
        <time>2022-09-04T07:45:27.000Z</time>
      </trkpt>
      <trkpt lat="47.2534" lon="-2.27288">
        <ele>29.200000762939</ele>
        <time>2022-09-04T07:45:29.000Z</time>
      </trkpt>
      <trkpt lat="47.25332" lon="-2.27272">
        <ele>29.200000762939</ele>
        <time>2022-09-04T07:45:32.000Z</time>
      </trkpt>
      <trkpt lat="47.25329" lon="-2.27267">
        <ele>29.200000762939</ele>
        <time>2022-09-04T07:45:33.000Z</time>
      </trkpt>
      <trkpt lat="47.25325" lon="-2.27263">
        <ele>29.200000762939</ele>
        <time>2022-09-04T07:45:34.000Z</time>
      </trkpt>
      <trkpt lat="47.25314" lon="-2.27244">
        <ele>29.200000762939</ele>
        <time>2022-09-04T07:45:37.000Z</time>
      </trkpt>
      <trkpt lat="47.25307" lon="-2.2723">
        <ele>29.200000762939</ele>
        <time>2022-09-04T07:45:39.000Z</time>
      </trkpt>
      <trkpt lat="47.25305" lon="-2.27223">
        <ele>29.200000762939</ele>
        <time>2022-09-04T07:45:40.000Z</time>
      </trkpt>
      <trkpt lat="47.25299" lon="-2.27209">
        <ele>29.200000762939</ele>
        <time>2022-09-04T07:45:42.000Z</time>
      </trkpt>
      <trkpt lat="47.25291" lon="-2.27189">
        <ele>29.200000762939</ele>
        <time>2022-09-04T07:45:45.000Z</time>
      </trkpt>
      <trkpt lat="47.2528" lon="-2.27173">
        <ele>29.200000762939</ele>
        <time>2022-09-04T07:45:48.000Z</time>
      </trkpt>
      <trkpt lat="47.25271" lon="-2.27156">
        <ele>29.200000762939</ele>
        <time>2022-09-04T07:45:51.000Z</time>
      </trkpt>
      <trkpt lat="47.25261" lon="-2.27143">
        <ele>29.200000762939</ele>
        <time>2022-09-04T07:45:54.000Z</time>
      </trkpt>
      <trkpt lat="47.25245" lon="-2.27122">
        <ele>29.200000762939</ele>
        <time>2022-09-04T07:45:58.000Z</time>
      </trkpt>
      <trkpt lat="47.25242" lon="-2.27116">
        <ele>29.200000762939</ele>
        <time>2022-09-04T07:45:59.000Z</time>
      </trkpt>
      <trkpt lat="47.2522" lon="-2.27079">
        <ele>29.200000762939</ele>
        <time>2022-09-04T07:46:06.000Z</time>
      </trkpt>
      <trkpt lat="47.25212" lon="-2.27062">
        <ele>29.200000762939</ele>
        <time>2022-09-04T07:46:09.000Z</time>
      </trkpt>
      <trkpt lat="47.25208" lon="-2.27049">
        <ele>29.200000762939</ele>
        <time>2022-09-04T07:46:11.000Z</time>
      </trkpt>
      <trkpt lat="47.25206" lon="-2.27043">
        <ele>29.200000762939</ele>
        <time>2022-09-04T07:46:12.000Z</time>
      </trkpt>
      <trkpt lat="47.25192" lon="-2.27022">
        <ele>29.200000762939</ele>
        <time>2022-09-04T07:46:16.000Z</time>
      </trkpt>
      <trkpt lat="47.25184" lon="-2.27003">
        <ele>29.200000762939</ele>
        <time>2022-09-04T07:46:19.000Z</time>
      </trkpt>
      <trkpt lat="47.25183" lon="-2.26986">
        <ele>29.200000762939</ele>
        <time>2022-09-04T07:46:21.000Z</time>
      </trkpt>
      <trkpt lat="47.2518" lon="-2.2697">
        <ele>29.200000762939</ele>
        <time>2022-09-04T07:46:24.000Z</time>
      </trkpt>
      <trkpt lat="47.25178" lon="-2.2697">
        <ele>29.200000762939</ele>
        <time>2022-09-04T07:46:25.000Z</time>
      </trkpt>
      <trkpt lat="47.2517" lon="-2.26969">
        <ele>29.200000762939</ele>
        <time>2022-09-04T07:46:28.000Z</time>
      </trkpt>
      <trkpt lat="47.25165" lon="-2.26961">
        <ele>29.200000762939</ele>
        <time>2022-09-04T07:46:31.000Z</time>
      </trkpt>
      <trkpt lat="47.25162" lon="-2.26956">
        <ele>29.200000762939</ele>
        <time>2022-09-04T07:46:32.000Z</time>
      </trkpt>
      <trkpt lat="47.25148" lon="-2.26943">
        <ele>29.200000762939</ele>
        <time>2022-09-04T07:46:36.000Z</time>
      </trkpt>
      <trkpt lat="47.25145" lon="-2.26939">
        <ele>29.200000762939</ele>
        <time>2022-09-04T07:46:37.000Z</time>
      </trkpt>
      <trkpt lat="47.25136" lon="-2.26921">
        <ele>29.200000762939</ele>
        <time>2022-09-04T07:46:40.000Z</time>
      </trkpt>
      <trkpt lat="47.25131" lon="-2.26907">
        <ele>29.200000762939</ele>
        <time>2022-09-04T07:46:42.000Z</time>
      </trkpt>
      <trkpt lat="47.25127" lon="-2.26901">
        <ele>29.200000762939</ele>
        <time>2022-09-04T07:46:43.000Z</time>
      </trkpt>
      <trkpt lat="47.25122" lon="-2.26898">
        <ele>29.200000762939</ele>
        <time>2022-09-04T07:46:44.000Z</time>
      </trkpt>
      <trkpt lat="47.25107" lon="-2.26893">
        <ele>29.200000762939</ele>
        <time>2022-09-04T07:46:47.000Z</time>
      </trkpt>
      <trkpt lat="47.25103" lon="-2.26888">
        <ele>29.200000762939</ele>
        <time>2022-09-04T07:46:48.000Z</time>
      </trkpt>
      <trkpt lat="47.25091" lon="-2.26873">
        <ele>29.200000762939</ele>
        <time>2022-09-04T07:46:51.000Z</time>
      </trkpt>
      <trkpt lat="47.25087" lon="-2.26869">
        <ele>29.200000762939</ele>
        <time>2022-09-04T07:46:52.000Z</time>
      </trkpt>
      <trkpt lat="47.25083" lon="-2.26865">
        <ele>29.200000762939</ele>
        <time>2022-09-04T07:46:53.000Z</time>
      </trkpt>
      <trkpt lat="47.25066" lon="-2.2686">
        <ele>29.200000762939</ele>
        <time>2022-09-04T07:46:57.000Z</time>
      </trkpt>
      <trkpt lat="47.25059" lon="-2.2686">
        <ele>29.200000762939</ele>
        <time>2022-09-04T07:46:59.000Z</time>
      </trkpt>
      <trkpt lat="47.25048" lon="-2.26861">
        <ele>29.200000762939</ele>
        <time>2022-09-04T07:47:03.000Z</time>
      </trkpt>
      <trkpt lat="47.2504" lon="-2.26861">
        <ele>29.200000762939</ele>
        <time>2022-09-04T07:47:05.000Z</time>
      </trkpt>
      <trkpt lat="47.25025" lon="-2.26864">
        <ele>29.200000762939</ele>
        <time>2022-09-04T07:47:08.000Z</time>
      </trkpt>
      <trkpt lat="47.24989" lon="-2.26872">
        <ele>29.200000762939</ele>
        <time>2022-09-04T07:47:15.000Z</time>
      </trkpt>
      <trkpt lat="47.24967" lon="-2.26864">
        <ele>29.200000762939</ele>
        <time>2022-09-04T07:47:19.000Z</time>
      </trkpt>
      <trkpt lat="47.24953" lon="-2.26851">
        <ele>29.200000762939</ele>
        <time>2022-09-04T07:47:22.000Z</time>
      </trkpt>
      <trkpt lat="47.24948" lon="-2.26849">
        <ele>29.200000762939</ele>
        <time>2022-09-04T07:47:23.000Z</time>
      </trkpt>
      <trkpt lat="47.24943" lon="-2.26847">
        <ele>29.200000762939</ele>
        <time>2022-09-04T07:47:24.000Z</time>
      </trkpt>
      <trkpt lat="47.24924" lon="-2.26831">
        <ele>29.200000762939</ele>
        <time>2022-09-04T07:47:28.000Z</time>
      </trkpt>
      <trkpt lat="47.24914" lon="-2.26827">
        <ele>29.200000762939</ele>
        <time>2022-09-04T07:47:30.000Z</time>
      </trkpt>
      <trkpt lat="47.24906" lon="-2.26823">
        <ele>29.200000762939</ele>
        <time>2022-09-04T07:47:32.000Z</time>
      </trkpt>
      <trkpt lat="47.24901" lon="-2.26823">
        <ele>29.200000762939</ele>
        <time>2022-09-04T07:47:33.000Z</time>
      </trkpt>
      <trkpt lat="47.24891" lon="-2.2682">
        <ele>29.200000762939</ele>
        <time>2022-09-04T07:47:35.000Z</time>
      </trkpt>
      <trkpt lat="47.24881" lon="-2.26814">
        <ele>29.200000762939</ele>
        <time>2022-09-04T07:47:37.000Z</time>
      </trkpt>
      <trkpt lat="47.24871" lon="-2.26811">
        <ele>29.200000762939</ele>
        <time>2022-09-04T07:47:39.000Z</time>
      </trkpt>
      <trkpt lat="47.24861" lon="-2.26806">
        <ele>29.200000762939</ele>
        <time>2022-09-04T07:47:41.000Z</time>
      </trkpt>
      <trkpt lat="47.2485" lon="-2.26802">
        <ele>29.200000762939</ele>
        <time>2022-09-04T07:47:43.000Z</time>
      </trkpt>
      <trkpt lat="47.24833" lon="-2.26803">
        <ele>28.60000038147</ele>
        <time>2022-09-04T07:47:46.000Z</time>
      </trkpt>
      <trkpt lat="47.24828" lon="-2.26802">
        <ele>28.200000762939</ele>
        <time>2022-09-04T07:47:47.000Z</time>
      </trkpt>
      <trkpt lat="47.24822" lon="-2.268">
        <ele>27.799999237061</ele>
        <time>2022-09-04T07:47:48.000Z</time>
      </trkpt>
      <trkpt lat="47.24816" lon="-2.26798">
        <ele>26.799999237061</ele>
        <time>2022-09-04T07:47:49.000Z</time>
      </trkpt>
      <trkpt lat="47.2481" lon="-2.26796">
        <ele>26.799999237061</ele>
        <time>2022-09-04T07:47:50.000Z</time>
      </trkpt>
      <trkpt lat="47.24781" lon="-2.26786">
        <ele>26.799999237061</ele>
        <time>2022-09-04T07:47:56.000Z</time>
      </trkpt>
      <trkpt lat="47.24772" lon="-2.26784">
        <ele>26.799999237061</ele>
        <time>2022-09-04T07:47:58.000Z</time>
      </trkpt>
      <trkpt lat="47.24756" lon="-2.26781">
        <ele>26.39999961853</ele>
        <time>2022-09-04T07:48:01.000Z</time>
      </trkpt>
      <trkpt lat="47.2475" lon="-2.26781">
        <ele>26</ele>
        <time>2022-09-04T07:48:02.000Z</time>
      </trkpt>
      <trkpt lat="47.24743" lon="-2.26781">
        <ele>25.60000038147</ele>
        <time>2022-09-04T07:48:03.000Z</time>
      </trkpt>
      <trkpt lat="47.24737" lon="-2.26781">
        <ele>25</ele>
        <time>2022-09-04T07:48:04.000Z</time>
      </trkpt>
      <trkpt lat="47.24731" lon="-2.2678">
        <ele>24.60000038147</ele>
        <time>2022-09-04T07:48:05.000Z</time>
      </trkpt>
      <trkpt lat="47.24725" lon="-2.2678">
        <ele>24.60000038147</ele>
        <time>2022-09-04T07:48:06.000Z</time>
      </trkpt>
      <trkpt lat="47.24689" lon="-2.26782">
        <ele>24.60000038147</ele>
        <time>2022-09-04T07:48:12.000Z</time>
      </trkpt>
      <trkpt lat="47.24684" lon="-2.26783">
        <ele>24.60000038147</ele>
        <time>2022-09-04T07:48:13.000Z</time>
      </trkpt>
      <trkpt lat="47.24677" lon="-2.26792">
        <ele>24.60000038147</ele>
        <time>2022-09-04T07:48:15.000Z</time>
      </trkpt>
      <trkpt lat="47.2467" lon="-2.26799">
        <ele>24.200000762939</ele>
        <time>2022-09-04T07:48:17.000Z</time>
      </trkpt>
      <trkpt lat="47.24666" lon="-2.26802">
        <ele>23.799999237061</ele>
        <time>2022-09-04T07:48:18.000Z</time>
      </trkpt>
      <trkpt lat="47.24662" lon="-2.26805">
        <ele>23.39999961853</ele>
        <time>2022-09-04T07:48:19.000Z</time>
      </trkpt>
      <trkpt lat="47.24658" lon="-2.26808">
        <ele>23</ele>
        <time>2022-09-04T07:48:20.000Z</time>
      </trkpt>
      <trkpt lat="47.24654" lon="-2.26812">
        <ele>22.60000038147</ele>
        <time>2022-09-04T07:48:21.000Z</time>
      </trkpt>
      <trkpt lat="47.24646" lon="-2.26813">
        <ele>22.60000038147</ele>
        <time>2022-09-04T07:48:23.000Z</time>
      </trkpt>
      <trkpt lat="47.2464" lon="-2.26813">
        <ele>22.60000038147</ele>
        <time>2022-09-04T07:48:24.000Z</time>
      </trkpt>
      <trkpt lat="47.24631" lon="-2.26821">
        <ele>22.200000762939</ele>
        <time>2022-09-04T07:48:26.000Z</time>
      </trkpt>
      <trkpt lat="47.24626" lon="-2.26825">
        <ele>21.799999237061</ele>
        <time>2022-09-04T07:48:27.000Z</time>
      </trkpt>
      <trkpt lat="47.24622" lon="-2.26828">
        <ele>21.200000762939</ele>
        <time>2022-09-04T07:48:28.000Z</time>
      </trkpt>
      <trkpt lat="47.24617" lon="-2.26832">
        <ele>20.799999237061</ele>
        <time>2022-09-04T07:48:29.000Z</time>
      </trkpt>
      <trkpt lat="47.24611" lon="-2.26837">
        <ele>20.39999961853</ele>
        <time>2022-09-04T07:48:30.000Z</time>
      </trkpt>
      <trkpt lat="47.24606" lon="-2.2684">
        <ele>20.39999961853</ele>
        <time>2022-09-04T07:48:31.000Z</time>
      </trkpt>
      <trkpt lat="47.24589" lon="-2.2684">
        <ele>20.39999961853</ele>
        <time>2022-09-04T07:48:34.000Z</time>
      </trkpt>
      <trkpt lat="47.24584" lon="-2.26842">
        <ele>20</ele>
        <time>2022-09-04T07:48:35.000Z</time>
      </trkpt>
      <trkpt lat="47.24579" lon="-2.26845">
        <ele>19.60000038147</ele>
        <time>2022-09-04T07:48:36.000Z</time>
      </trkpt>
      <trkpt lat="47.24574" lon="-2.26849">
        <ele>19.200000762939</ele>
        <time>2022-09-04T07:48:37.000Z</time>
      </trkpt>
      <trkpt lat="47.24569" lon="-2.26853">
        <ele>18.39999961853</ele>
        <time>2022-09-04T07:48:38.000Z</time>
      </trkpt>
      <trkpt lat="47.2456" lon="-2.26859">
        <ele>18.39999961853</ele>
        <time>2022-09-04T07:48:40.000Z</time>
      </trkpt>
      <trkpt lat="47.24549" lon="-2.2687">
        <ele>18.39999961853</ele>
        <time>2022-09-04T07:48:43.000Z</time>
      </trkpt>
      <trkpt lat="47.24531" lon="-2.26889">
        <ele>18.39999961853</ele>
        <time>2022-09-04T07:48:48.000Z</time>
      </trkpt>
      <trkpt lat="47.24527" lon="-2.26901">
        <ele>18.39999961853</ele>
        <time>2022-09-04T07:48:50.000Z</time>
      </trkpt>
      <trkpt lat="47.24521" lon="-2.26914">
        <ele>18.39999961853</ele>
        <time>2022-09-04T07:48:52.000Z</time>
      </trkpt>
      <trkpt lat="47.24513" lon="-2.26924">
        <ele>18</ele>
        <time>2022-09-04T07:48:54.000Z</time>
      </trkpt>
      <trkpt lat="47.24508" lon="-2.26927">
        <ele>17.60000038147</ele>
        <time>2022-09-04T07:48:55.000Z</time>
      </trkpt>
      <trkpt lat="47.24503" lon="-2.26931">
        <ele>17.200000762939</ele>
        <time>2022-09-04T07:48:56.000Z</time>
      </trkpt>
      <trkpt lat="47.24498" lon="-2.26934">
        <ele>16.799999237061</ele>
        <time>2022-09-04T07:48:57.000Z</time>
      </trkpt>
      <trkpt lat="47.24493" lon="-2.26936">
        <ele>16.200000762939</ele>
        <time>2022-09-04T07:48:58.000Z</time>
      </trkpt>
      <trkpt lat="47.24479" lon="-2.26937">
        <ele>16.200000762939</ele>
        <time>2022-09-04T07:49:00.000Z</time>
      </trkpt>
      <trkpt lat="47.24468" lon="-2.26934">
        <ele>16.200000762939</ele>
        <time>2022-09-04T07:49:02.000Z</time>
      </trkpt>
      <trkpt lat="47.24463" lon="-2.26934">
        <ele>16.200000762939</ele>
        <time>2022-09-04T07:49:03.000Z</time>
      </trkpt>
      <trkpt lat="47.24457" lon="-2.26934">
        <ele>16.200000762939</ele>
        <time>2022-09-04T07:49:04.000Z</time>
      </trkpt>
      <trkpt lat="47.24438" lon="-2.26935">
        <ele>16.200000762939</ele>
        <time>2022-09-04T07:49:08.000Z</time>
      </trkpt>
      <trkpt lat="47.24434" lon="-2.26939">
        <ele>16.200000762939</ele>
        <time>2022-09-04T07:49:09.000Z</time>
      </trkpt>
      <trkpt lat="47.24416" lon="-2.26956">
        <ele>16.200000762939</ele>
        <time>2022-09-04T07:49:14.000Z</time>
      </trkpt>
      <trkpt lat="47.24399" lon="-2.26982">
        <ele>16.200000762939</ele>
        <time>2022-09-04T07:49:18.000Z</time>
      </trkpt>
      <trkpt lat="47.24375" lon="-2.27018">
        <ele>16.200000762939</ele>
        <time>2022-09-04T07:49:24.000Z</time>
      </trkpt>
      <trkpt lat="47.24368" lon="-2.27028">
        <ele>15.800000190735</ele>
        <time>2022-09-04T07:49:26.000Z</time>
      </trkpt>
      <trkpt lat="47.24365" lon="-2.27032">
        <ele>15</ele>
        <time>2022-09-04T07:49:27.000Z</time>
      </trkpt>
      <trkpt lat="47.24362" lon="-2.27035">
        <ele>14.60000038147</ele>
        <time>2022-09-04T07:49:28.000Z</time>
      </trkpt>
      <trkpt lat="47.24359" lon="-2.27039">
        <ele>14.199999809265</ele>
        <time>2022-09-04T07:49:29.000Z</time>
      </trkpt>
      <trkpt lat="47.24342" lon="-2.27065">
        <ele>14.199999809265</ele>
        <time>2022-09-04T07:49:35.000Z</time>
      </trkpt>
      <trkpt lat="47.24324" lon="-2.27082">
        <ele>14.199999809265</ele>
        <time>2022-09-04T07:49:39.000Z</time>
      </trkpt>
      <trkpt lat="47.24305" lon="-2.27107">
        <ele>14.199999809265</ele>
        <time>2022-09-04T07:49:44.000Z</time>
      </trkpt>
      <trkpt lat="47.24289" lon="-2.27111">
        <ele>14.199999809265</ele>
        <time>2022-09-04T07:49:47.000Z</time>
      </trkpt>
      <trkpt lat="47.24263" lon="-2.27114">
        <ele>14.199999809265</ele>
        <time>2022-09-04T07:49:51.000Z</time>
      </trkpt>
      <trkpt lat="47.24241" lon="-2.2713">
        <ele>13.800000190735</ele>
        <time>2022-09-04T07:49:55.000Z</time>
      </trkpt>
      <trkpt lat="47.24235" lon="-2.27134">
        <ele>13.39999961853</ele>
        <time>2022-09-04T07:49:56.000Z</time>
      </trkpt>
      <trkpt lat="47.24229" lon="-2.27138">
        <ele>13</ele>
        <time>2022-09-04T07:49:57.000Z</time>
      </trkpt>
      <trkpt lat="47.24224" lon="-2.27142">
        <ele>12.60000038147</ele>
        <time>2022-09-04T07:49:58.000Z</time>
      </trkpt>
      <trkpt lat="47.24218" lon="-2.27146">
        <ele>12.199999809265</ele>
        <time>2022-09-04T07:49:59.000Z</time>
      </trkpt>
      <trkpt lat="47.24212" lon="-2.2715">
        <ele>12.199999809265</ele>
        <time>2022-09-04T07:50:00.000Z</time>
      </trkpt>
      <trkpt lat="47.24173" lon="-2.27168">
        <ele>12.199999809265</ele>
        <time>2022-09-04T07:50:07.000Z</time>
      </trkpt>
      <trkpt lat="47.24147" lon="-2.27178">
        <ele>12.199999809265</ele>
        <time>2022-09-04T07:50:12.000Z</time>
      </trkpt>
      <trkpt lat="47.24123" lon="-2.27188">
        <ele>12.199999809265</ele>
        <time>2022-09-04T07:50:17.000Z</time>
      </trkpt>
      <trkpt lat="47.24119" lon="-2.27189">
        <ele>12.199999809265</ele>
        <time>2022-09-04T07:50:18.000Z</time>
      </trkpt>
      <trkpt lat="47.24105" lon="-2.2719">
        <ele>12.199999809265</ele>
        <time>2022-09-04T07:50:22.000Z</time>
      </trkpt>
      <trkpt lat="47.24103" lon="-2.27186">
        <ele>11.800000190735</ele>
        <time>2022-09-04T07:50:23.000Z</time>
      </trkpt>
      <trkpt lat="47.24101" lon="-2.27181">
        <ele>11.199999809265</ele>
        <time>2022-09-04T07:50:24.000Z</time>
      </trkpt>
      <trkpt lat="47.241" lon="-2.27175">
        <ele>10.800000190735</ele>
        <time>2022-09-04T07:50:25.000Z</time>
      </trkpt>
      <trkpt lat="47.241" lon="-2.27168">
        <ele>10.39999961853</ele>
        <time>2022-09-04T07:50:26.000Z</time>
      </trkpt>
      <trkpt lat="47.241" lon="-2.27161">
        <ele>10</ele>
        <time>2022-09-04T07:50:27.000Z</time>
      </trkpt>
      <trkpt lat="47.241" lon="-2.27145">
        <ele>10</ele>
        <time>2022-09-04T07:50:29.000Z</time>
      </trkpt>
      <trkpt lat="47.24101" lon="-2.27096">
        <ele>10</ele>
        <time>2022-09-04T07:50:35.000Z</time>
      </trkpt>
      <trkpt lat="47.24101" lon="-2.27032">
        <ele>9.6000003814697</ele>
        <time>2022-09-04T07:50:42.000Z</time>
      </trkpt>
      <trkpt lat="47.24101" lon="-2.27024">
        <ele>9.1999998092651</ele>
        <time>2022-09-04T07:50:43.000Z</time>
      </trkpt>
      <trkpt lat="47.24101" lon="-2.27015">
        <ele>8.8000001907349</ele>
        <time>2022-09-04T07:50:44.000Z</time>
      </trkpt>
      <trkpt lat="47.241" lon="-2.27007">
        <ele>8.3999996185303</ele>
        <time>2022-09-04T07:50:45.000Z</time>
      </trkpt>
      <trkpt lat="47.241" lon="-2.27001">
        <ele>8</ele>
        <time>2022-09-04T07:50:46.000Z</time>
      </trkpt>
      <trkpt lat="47.24098" lon="-2.26997">
        <ele>8</ele>
        <time>2022-09-04T07:50:47.000Z</time>
      </trkpt>
      <trkpt lat="47.24096" lon="-2.26994">
        <ele>8</ele>
        <time>2022-09-04T07:50:48.000Z</time>
      </trkpt>
      <trkpt lat="47.24085" lon="-2.26995">
        <ele>8</ele>
        <time>2022-09-04T07:50:52.000Z</time>
      </trkpt>
      <trkpt lat="47.24074" lon="-2.26998">
        <ele>8</ele>
        <time>2022-09-04T07:50:55.000Z</time>
      </trkpt>
      <trkpt lat="47.24067" lon="-2.27">
        <ele>7.5999999046326</ele>
        <time>2022-09-04T07:50:57.000Z</time>
      </trkpt>
      <trkpt lat="47.24063" lon="-2.27001">
        <ele>7</ele>
        <time>2022-09-04T07:50:58.000Z</time>
      </trkpt>
      <trkpt lat="47.2406" lon="-2.27002">
        <ele>6.5999999046326</ele>
        <time>2022-09-04T07:50:59.000Z</time>
      </trkpt>
      <trkpt lat="47.24058" lon="-2.27003">
        <ele>6.1999998092651</ele>
        <time>2022-09-04T07:51:00.000Z</time>
      </trkpt>
      <trkpt lat="47.24056" lon="-2.27004">
        <ele>5.8000001907349</ele>
        <time>2022-09-04T07:51:01.000Z</time>
      </trkpt>
      <trkpt lat="47.24054" lon="-2.27005">
        <ele>5.8000001907349</ele>
        <time>2022-09-04T07:51:02.000Z</time>
      </trkpt>
      <trkpt lat="47.24054" lon="-2.27004">
        <ele>5.8000001907349</ele>
        <time>2022-09-04T07:51:05.000Z</time>
      </trkpt>
      <trkpt lat="47.24047" lon="-2.26999">
        <ele>5.8000001907349</ele>
        <time>2022-09-04T07:51:52.000Z</time>
      </trkpt>
      <trkpt lat="47.24044" lon="-2.27001">
        <ele>5.8000001907349</ele>
        <time>2022-09-04T07:51:55.000Z</time>
      </trkpt>
      <trkpt lat="47.24043" lon="-2.26998">
        <ele>5.8000001907349</ele>
        <time>2022-09-04T07:51:59.000Z</time>
      </trkpt>
      <trkpt lat="47.24048" lon="-2.26984">
        <ele>5.8000001907349</ele>
        <time>2022-09-04T07:52:04.000Z</time>
      </trkpt>
      <trkpt lat="47.24049" lon="-2.26977">
        <ele>5.8000001907349</ele>
        <time>2022-09-04T07:52:06.000Z</time>
      </trkpt>
      <trkpt lat="47.24048" lon="-2.2697">
        <ele>6.1999998092651</ele>
        <time>2022-09-04T07:52:08.000Z</time>
      </trkpt>
      <trkpt lat="47.24047" lon="-2.26966">
        <ele>6.5999999046326</ele>
        <time>2022-09-04T07:52:09.000Z</time>
      </trkpt>
      <trkpt lat="47.24047" lon="-2.26963">
        <ele>7</ele>
        <time>2022-09-04T07:52:10.000Z</time>
      </trkpt>
      <trkpt lat="47.24047" lon="-2.26959">
        <ele>7.5999999046326</ele>
        <time>2022-09-04T07:52:11.000Z</time>
      </trkpt>
      <trkpt lat="47.24047" lon="-2.26955">
        <ele>8</ele>
        <time>2022-09-04T07:52:12.000Z</time>
      </trkpt>
      <trkpt lat="47.24047" lon="-2.26943">
        <ele>8</ele>
        <time>2022-09-04T07:52:15.000Z</time>
      </trkpt>
      <trkpt lat="47.24047" lon="-2.26939">
        <ele>8.3999996185303</ele>
        <time>2022-09-04T07:52:16.000Z</time>
      </trkpt>
      <trkpt lat="47.24047" lon="-2.26935">
        <ele>8.8000001907349</ele>
        <time>2022-09-04T07:52:17.000Z</time>
      </trkpt>
      <trkpt lat="47.24047" lon="-2.26932">
        <ele>9.3999996185303</ele>
        <time>2022-09-04T07:52:18.000Z</time>
      </trkpt>
      <trkpt lat="47.24047" lon="-2.26928">
        <ele>10.199999809265</ele>
        <time>2022-09-04T07:52:19.000Z</time>
      </trkpt>
      <trkpt lat="47.24049" lon="-2.26917">
        <ele>10.199999809265</ele>
        <time>2022-09-04T07:52:22.000Z</time>
      </trkpt>
      <trkpt lat="47.24049" lon="-2.26914">
        <ele>10.60000038147</ele>
        <time>2022-09-04T07:52:23.000Z</time>
      </trkpt>
      <trkpt lat="47.2405" lon="-2.26911">
        <ele>11.199999809265</ele>
        <time>2022-09-04T07:52:24.000Z</time>
      </trkpt>
      <trkpt lat="47.24051" lon="-2.26907">
        <ele>11.60000038147</ele>
        <time>2022-09-04T07:52:25.000Z</time>
      </trkpt>
      <trkpt lat="47.24052" lon="-2.26903">
        <ele>12</ele>
        <time>2022-09-04T07:52:26.000Z</time>
      </trkpt>
      <trkpt lat="47.24052" lon="-2.26901">
        <ele>12.39999961853</ele>
        <time>2022-09-04T07:52:27.000Z</time>
      </trkpt>
      <trkpt lat="47.24053" lon="-2.26898">
        <ele>12.39999961853</ele>
        <time>2022-09-04T07:52:28.000Z</time>
      </trkpt>
      <trkpt lat="47.24055" lon="-2.26881">
        <ele>12.800000190735</ele>
        <time>2022-09-04T07:52:33.000Z</time>
      </trkpt>
      <trkpt lat="47.24055" lon="-2.26879">
        <ele>13.199999809265</ele>
        <time>2022-09-04T07:52:34.000Z</time>
      </trkpt>
      <trkpt lat="47.24055" lon="-2.26877">
        <ele>13.800000190735</ele>
        <time>2022-09-04T07:52:35.000Z</time>
      </trkpt>
      <trkpt lat="47.24056" lon="-2.26874">
        <ele>14.199999809265</ele>
        <time>2022-09-04T07:52:36.000Z</time>
      </trkpt>
      <trkpt lat="47.24057" lon="-2.2687">
        <ele>14.60000038147</ele>
        <time>2022-09-04T07:52:37.000Z</time>
      </trkpt>
      <trkpt lat="47.24058" lon="-2.26865">
        <ele>14.60000038147</ele>
        <time>2022-09-04T07:52:38.000Z</time>
      </trkpt>
      <trkpt lat="47.2406" lon="-2.26853">
        <ele>15</ele>
        <time>2022-09-04T07:52:41.000Z</time>
      </trkpt>
      <trkpt lat="47.2406" lon="-2.26848">
        <ele>15.39999961853</ele>
        <time>2022-09-04T07:52:42.000Z</time>
      </trkpt>
      <trkpt lat="47.24059" lon="-2.26843">
        <ele>16.200000762939</ele>
        <time>2022-09-04T07:52:43.000Z</time>
      </trkpt>
      <trkpt lat="47.24057" lon="-2.26839">
        <ele>16.60000038147</ele>
        <time>2022-09-04T07:52:44.000Z</time>
      </trkpt>
      <trkpt lat="47.24046" lon="-2.26827">
        <ele>16.60000038147</ele>
        <time>2022-09-04T07:52:49.000Z</time>
      </trkpt>
      <trkpt lat="47.24027" lon="-2.26814">
        <ele>16.60000038147</ele>
        <time>2022-09-04T07:52:56.000Z</time>
      </trkpt>
      <trkpt lat="47.2401" lon="-2.26801">
        <ele>16.60000038147</ele>
        <time>2022-09-04T07:53:01.000Z</time>
      </trkpt>
      <trkpt lat="47.23996" lon="-2.2679">
        <ele>16.60000038147</ele>
        <time>2022-09-04T07:53:05.000Z</time>
      </trkpt>
      <trkpt lat="47.23988" lon="-2.26787">
        <ele>16.60000038147</ele>
        <time>2022-09-04T07:53:07.000Z</time>
      </trkpt>
      <trkpt lat="47.23984" lon="-2.26786">
        <ele>16.200000762939</ele>
        <time>2022-09-04T07:53:08.000Z</time>
      </trkpt>
      <trkpt lat="47.2398" lon="-2.26784">
        <ele>15.800000190735</ele>
        <time>2022-09-04T07:53:09.000Z</time>
      </trkpt>
      <trkpt lat="47.23976" lon="-2.26782">
        <ele>15.199999809265</ele>
        <time>2022-09-04T07:53:10.000Z</time>
      </trkpt>
      <trkpt lat="47.23972" lon="-2.2678">
        <ele>14.800000190735</ele>
        <time>2022-09-04T07:53:11.000Z</time>
      </trkpt>
      <trkpt lat="47.23967" lon="-2.26778">
        <ele>14.39999961853</ele>
        <time>2022-09-04T07:53:12.000Z</time>
      </trkpt>
      <trkpt lat="47.23963" lon="-2.26777">
        <ele>14.39999961853</ele>
        <time>2022-09-04T07:53:13.000Z</time>
      </trkpt>
      <trkpt lat="47.23946" lon="-2.26766">
        <ele>14</ele>
        <time>2022-09-04T07:53:18.000Z</time>
      </trkpt>
      <trkpt lat="47.23942" lon="-2.26764">
        <ele>13.39999961853</ele>
        <time>2022-09-04T07:53:19.000Z</time>
      </trkpt>
      <trkpt lat="47.23939" lon="-2.26762">
        <ele>13</ele>
        <time>2022-09-04T07:53:20.000Z</time>
      </trkpt>
      <trkpt lat="47.23937" lon="-2.2676">
        <ele>12.60000038147</ele>
        <time>2022-09-04T07:53:21.000Z</time>
      </trkpt>
      <trkpt lat="47.23935" lon="-2.26758">
        <ele>12</ele>
        <time>2022-09-04T07:53:22.000Z</time>
      </trkpt>
      <trkpt lat="47.23931" lon="-2.26754">
        <ele>12</ele>
        <time>2022-09-04T07:53:24.000Z</time>
      </trkpt>
      <trkpt lat="47.23926" lon="-2.26751">
        <ele>11.60000038147</ele>
        <time>2022-09-04T07:53:27.000Z</time>
      </trkpt>
      <trkpt lat="47.23924" lon="-2.2675">
        <ele>11.199999809265</ele>
        <time>2022-09-04T07:53:28.000Z</time>
      </trkpt>
      <trkpt lat="47.23922" lon="-2.26749">
        <ele>10.800000190735</ele>
        <time>2022-09-04T07:53:29.000Z</time>
      </trkpt>
      <trkpt lat="47.2392" lon="-2.26747">
        <ele>10.39999961853</ele>
        <time>2022-09-04T07:53:30.000Z</time>
      </trkpt>
      <trkpt lat="47.23918" lon="-2.26747">
        <ele>10</ele>
        <time>2022-09-04T07:53:31.000Z</time>
      </trkpt>
      <trkpt lat="47.2391" lon="-2.26749">
        <ele>10</ele>
        <time>2022-09-04T07:53:35.000Z</time>
      </trkpt>
      <trkpt lat="47.2391" lon="-2.26751">
        <ele>9.6000003814697</ele>
        <time>2022-09-04T07:53:36.000Z</time>
      </trkpt>
      <trkpt lat="47.23909" lon="-2.26752">
        <ele>9.1999998092651</ele>
        <time>2022-09-04T07:53:37.000Z</time>
      </trkpt>
      <trkpt lat="47.23908" lon="-2.26753">
        <ele>8.8000001907349</ele>
        <time>2022-09-04T07:53:38.000Z</time>
      </trkpt>
      <trkpt lat="47.23907" lon="-2.26754">
        <ele>8.3999996185303</ele>
        <time>2022-09-04T07:53:39.000Z</time>
      </trkpt>
      <trkpt lat="47.23906" lon="-2.26754">
        <ele>8</ele>
        <time>2022-09-04T07:53:40.000Z</time>
      </trkpt>
      <trkpt lat="47.23904" lon="-2.26747">
        <ele>8</ele>
        <time>2022-09-04T07:53:44.000Z</time>
      </trkpt>
      <trkpt lat="47.23911" lon="-2.26745">
        <ele>8</ele>
        <time>2022-09-04T07:53:48.000Z</time>
      </trkpt>
      <trkpt lat="47.23912" lon="-2.26745">
        <ele>8</ele>
        <time>2022-09-04T07:53:49.000Z</time>
      </trkpt>
      <trkpt lat="47.23921" lon="-2.26747">
        <ele>8</ele>
        <time>2022-09-04T07:53:55.000Z</time>
      </trkpt>
      <trkpt lat="47.23923" lon="-2.26747">
        <ele>8</ele>
        <time>2022-09-04T07:53:58.000Z</time>
      </trkpt>
      <trkpt lat="47.23926" lon="-2.26748">
        <ele>8</ele>
        <time>2022-09-04T07:54:24.000Z</time>
      </trkpt>
      <trkpt lat="47.23928" lon="-2.26749">
        <ele>8</ele>
        <time>2022-09-04T07:54:25.000Z</time>
      </trkpt>
      <trkpt lat="47.23931" lon="-2.26748">
        <ele>8</ele>
        <time>2022-09-04T07:54:26.000Z</time>
      </trkpt>
      <trkpt lat="47.23934" lon="-2.26747">
        <ele>8.3999996185303</ele>
        <time>2022-09-04T07:54:27.000Z</time>
      </trkpt>
      <trkpt lat="47.23937" lon="-2.26746">
        <ele>8.8000001907349</ele>
        <time>2022-09-04T07:54:28.000Z</time>
      </trkpt>
      <trkpt lat="47.2394" lon="-2.26743">
        <ele>9.1999998092651</ele>
        <time>2022-09-04T07:54:29.000Z</time>
      </trkpt>
      <trkpt lat="47.23945" lon="-2.2674">
        <ele>9.6000003814697</ele>
        <time>2022-09-04T07:54:30.000Z</time>
      </trkpt>
      <trkpt lat="47.23948" lon="-2.26737">
        <ele>10</ele>
        <time>2022-09-04T07:54:31.000Z</time>
      </trkpt>
      <trkpt lat="47.23953" lon="-2.26736">
        <ele>10</ele>
        <time>2022-09-04T07:54:32.000Z</time>
      </trkpt>
      <trkpt lat="47.23961" lon="-2.26735">
        <ele>10</ele>
        <time>2022-09-04T07:54:34.000Z</time>
      </trkpt>
      <trkpt lat="47.23974" lon="-2.26737">
        <ele>10</ele>
        <time>2022-09-04T07:54:37.000Z</time>
      </trkpt>
      <trkpt lat="47.23985" lon="-2.26738">
        <ele>10.39999961853</ele>
        <time>2022-09-04T07:54:40.000Z</time>
      </trkpt>
      <trkpt lat="47.23988" lon="-2.26738">
        <ele>10.800000190735</ele>
        <time>2022-09-04T07:54:41.000Z</time>
      </trkpt>
      <trkpt lat="47.23992" lon="-2.26738">
        <ele>11.39999961853</ele>
        <time>2022-09-04T07:54:42.000Z</time>
      </trkpt>
      <trkpt lat="47.23995" lon="-2.26738">
        <ele>11.800000190735</ele>
        <time>2022-09-04T07:54:43.000Z</time>
      </trkpt>
      <trkpt lat="47.23998" lon="-2.26739">
        <ele>12.199999809265</ele>
        <time>2022-09-04T07:54:44.000Z</time>
      </trkpt>
      <trkpt lat="47.24004" lon="-2.2674">
        <ele>12.199999809265</ele>
        <time>2022-09-04T07:54:46.000Z</time>
      </trkpt>
      <trkpt lat="47.24013" lon="-2.26738">
        <ele>12.60000038147</ele>
        <time>2022-09-04T07:54:49.000Z</time>
      </trkpt>
      <trkpt lat="47.24016" lon="-2.26738">
        <ele>13</ele>
        <time>2022-09-04T07:54:50.000Z</time>
      </trkpt>
      <trkpt lat="47.24019" lon="-2.26737">
        <ele>13.39999961853</ele>
        <time>2022-09-04T07:54:51.000Z</time>
      </trkpt>
      <trkpt lat="47.24022" lon="-2.26736">
        <ele>13.800000190735</ele>
        <time>2022-09-04T07:54:52.000Z</time>
      </trkpt>
      <trkpt lat="47.24026" lon="-2.26735">
        <ele>14.39999961853</ele>
        <time>2022-09-04T07:54:53.000Z</time>
      </trkpt>
      <trkpt lat="47.24043" lon="-2.26725">
        <ele>14.39999961853</ele>
        <time>2022-09-04T07:54:58.000Z</time>
      </trkpt>
      <trkpt lat="47.24052" lon="-2.26719">
        <ele>14.800000190735</ele>
        <time>2022-09-04T07:55:01.000Z</time>
      </trkpt>
      <trkpt lat="47.24054" lon="-2.26716">
        <ele>15.199999809265</ele>
        <time>2022-09-04T07:55:02.000Z</time>
      </trkpt>
      <trkpt lat="47.24056" lon="-2.26713">
        <ele>15.60000038147</ele>
        <time>2022-09-04T07:55:03.000Z</time>
      </trkpt>
      <trkpt lat="47.24059" lon="-2.26711">
        <ele>16</ele>
        <time>2022-09-04T07:55:04.000Z</time>
      </trkpt>
      <trkpt lat="47.24061" lon="-2.26708">
        <ele>16.60000038147</ele>
        <time>2022-09-04T07:55:05.000Z</time>
      </trkpt>
      <trkpt lat="47.24068" lon="-2.267">
        <ele>17</ele>
        <time>2022-09-04T07:55:08.000Z</time>
      </trkpt>
      <trkpt lat="47.2407" lon="-2.26697">
        <ele>17.39999961853</ele>
        <time>2022-09-04T07:55:09.000Z</time>
      </trkpt>
      <trkpt lat="47.24072" lon="-2.26694">
        <ele>17.799999237061</ele>
        <time>2022-09-04T07:55:10.000Z</time>
      </trkpt>
      <trkpt lat="47.24074" lon="-2.2669">
        <ele>18.200000762939</ele>
        <time>2022-09-04T07:55:11.000Z</time>
      </trkpt>
      <trkpt lat="47.24075" lon="-2.26687">
        <ele>18.60000038147</ele>
        <time>2022-09-04T07:55:12.000Z</time>
      </trkpt>
      <trkpt lat="47.24083" lon="-2.26672">
        <ele>18.60000038147</ele>
        <time>2022-09-04T07:55:16.000Z</time>
      </trkpt>
      <trkpt lat="47.24084" lon="-2.26669">
        <ele>19</ele>
        <time>2022-09-04T07:55:17.000Z</time>
      </trkpt>
      <trkpt lat="47.24086" lon="-2.26666">
        <ele>19.39999961853</ele>
        <time>2022-09-04T07:55:18.000Z</time>
      </trkpt>
      <trkpt lat="47.24087" lon="-2.26662">
        <ele>19.799999237061</ele>
        <time>2022-09-04T07:55:19.000Z</time>
      </trkpt>
      <trkpt lat="47.24089" lon="-2.26659">
        <ele>20.200000762939</ele>
        <time>2022-09-04T07:55:20.000Z</time>
      </trkpt>
      <trkpt lat="47.24091" lon="-2.26655">
        <ele>20.60000038147</ele>
        <time>2022-09-04T07:55:21.000Z</time>
      </trkpt>
      <trkpt lat="47.24094" lon="-2.26651">
        <ele>20.60000038147</ele>
        <time>2022-09-04T07:55:23.000Z</time>
      </trkpt>
      <trkpt lat="47.24096" lon="-2.2665">
        <ele>20.60000038147</ele>
        <time>2022-09-04T07:55:24.000Z</time>
      </trkpt>
      <trkpt lat="47.241" lon="-2.26652">
        <ele>20.60000038147</ele>
        <time>2022-09-04T07:55:27.000Z</time>
      </trkpt>
      <trkpt lat="47.24107" lon="-2.26652">
        <ele>20.60000038147</ele>
        <time>2022-09-04T07:55:31.000Z</time>
      </trkpt>
      <trkpt lat="47.24109" lon="-2.26649">
        <ele>20.60000038147</ele>
        <time>2022-09-04T07:55:32.000Z</time>
      </trkpt>
      <trkpt lat="47.24111" lon="-2.26643">
        <ele>20.60000038147</ele>
        <time>2022-09-04T07:55:35.000Z</time>
      </trkpt>
      <trkpt lat="47.24112" lon="-2.26641">
        <ele>20.60000038147</ele>
        <time>2022-09-04T07:55:37.000Z</time>
      </trkpt>
      <trkpt lat="47.24115" lon="-2.26637">
        <ele>20.60000038147</ele>
        <time>2022-09-04T07:55:42.000Z</time>
      </trkpt>
      <trkpt lat="47.24116" lon="-2.26639">
        <ele>20.200000762939</ele>
        <time>2022-09-04T07:55:43.000Z</time>
      </trkpt>
      <trkpt lat="47.24118" lon="-2.26641">
        <ele>19.799999237061</ele>
        <time>2022-09-04T07:55:44.000Z</time>
      </trkpt>
      <trkpt lat="47.24118" lon="-2.26644">
        <ele>19.39999961853</ele>
        <time>2022-09-04T07:55:45.000Z</time>
      </trkpt>
      <trkpt lat="47.24117" lon="-2.26645">
        <ele>19</ele>
        <time>2022-09-04T07:55:46.000Z</time>
      </trkpt>
      <trkpt lat="47.24116" lon="-2.26647">
        <ele>18.60000038147</ele>
        <time>2022-09-04T07:55:47.000Z</time>
      </trkpt>
      <trkpt lat="47.24115" lon="-2.26647">
        <ele>18.60000038147</ele>
        <time>2022-09-04T07:55:48.000Z</time>
      </trkpt>
      <trkpt lat="47.24114" lon="-2.26649">
        <ele>18.60000038147</ele>
        <time>2022-09-04T07:55:51.000Z</time>
      </trkpt>
      <trkpt lat="47.24119" lon="-2.26643">
        <ele>18.60000038147</ele>
        <time>2022-09-04T07:59:06.000Z</time>
      </trkpt>
      <trkpt lat="47.24121" lon="-2.26637">
        <ele>18.60000038147</ele>
        <time>2022-09-04T07:59:08.000Z</time>
      </trkpt>
      <trkpt lat="47.24128" lon="-2.26615">
        <ele>18.60000038147</ele>
        <time>2022-09-04T07:59:13.000Z</time>
      </trkpt>
      <trkpt lat="47.2413" lon="-2.26609">
        <ele>18.60000038147</ele>
        <time>2022-09-04T07:59:14.000Z</time>
      </trkpt>
      <trkpt lat="47.24136" lon="-2.26595">
        <ele>18.60000038147</ele>
        <time>2022-09-04T07:59:17.000Z</time>
      </trkpt>
      <trkpt lat="47.24138" lon="-2.26594">
        <ele>18.200000762939</ele>
        <time>2022-09-04T07:59:18.000Z</time>
      </trkpt>
      <trkpt lat="47.2414" lon="-2.26591">
        <ele>17.60000038147</ele>
        <time>2022-09-04T07:59:19.000Z</time>
      </trkpt>
      <trkpt lat="47.24139" lon="-2.26588">
        <ele>17.200000762939</ele>
        <time>2022-09-04T07:59:20.000Z</time>
      </trkpt>
      <trkpt lat="47.24139" lon="-2.26585">
        <ele>16.799999237061</ele>
        <time>2022-09-04T07:59:21.000Z</time>
      </trkpt>
      <trkpt lat="47.24139" lon="-2.26582">
        <ele>16.39999961853</ele>
        <time>2022-09-04T07:59:22.000Z</time>
      </trkpt>
      <trkpt lat="47.24143" lon="-2.26577">
        <ele>16.39999961853</ele>
        <time>2022-09-04T07:59:25.000Z</time>
      </trkpt>
      <trkpt lat="47.24144" lon="-2.26576">
        <ele>16.39999961853</ele>
        <time>2022-09-04T07:59:26.000Z</time>
      </trkpt>
      <trkpt lat="47.24155" lon="-2.26578">
        <ele>16.39999961853</ele>
        <time>2022-09-04T07:59:31.000Z</time>
      </trkpt>
      <trkpt lat="47.24165" lon="-2.26588">
        <ele>16.39999961853</ele>
        <time>2022-09-04T07:59:36.000Z</time>
      </trkpt>
      <trkpt lat="47.24165" lon="-2.26595">
        <ele>16.799999237061</ele>
        <time>2022-09-04T07:59:38.000Z</time>
      </trkpt>
      <trkpt lat="47.24165" lon="-2.26597">
        <ele>17.200000762939</ele>
        <time>2022-09-04T07:59:39.000Z</time>
      </trkpt>
      <trkpt lat="47.24164" lon="-2.266">
        <ele>17.60000038147</ele>
        <time>2022-09-04T07:59:40.000Z</time>
      </trkpt>
      <trkpt lat="47.24163" lon="-2.26602">
        <ele>18</ele>
        <time>2022-09-04T07:59:41.000Z</time>
      </trkpt>
      <trkpt lat="47.24161" lon="-2.26606">
        <ele>18.39999961853</ele>
        <time>2022-09-04T07:59:42.000Z</time>
      </trkpt>
      <trkpt lat="47.2416" lon="-2.26609">
        <ele>18.39999961853</ele>
        <time>2022-09-04T07:59:43.000Z</time>
      </trkpt>
      <trkpt lat="47.24161" lon="-2.26612">
        <ele>18.799999237061</ele>
        <time>2022-09-04T07:59:44.000Z</time>
      </trkpt>
      <trkpt lat="47.24163" lon="-2.26613">
        <ele>19.39999961853</ele>
        <time>2022-09-04T07:59:45.000Z</time>
      </trkpt>
      <trkpt lat="47.24165" lon="-2.26613">
        <ele>19.799999237061</ele>
        <time>2022-09-04T07:59:46.000Z</time>
      </trkpt>
      <trkpt lat="47.24168" lon="-2.26614">
        <ele>20.200000762939</ele>
        <time>2022-09-04T07:59:47.000Z</time>
      </trkpt>
      <trkpt lat="47.24171" lon="-2.26614">
        <ele>20.60000038147</ele>
        <time>2022-09-04T07:59:48.000Z</time>
      </trkpt>
      <trkpt lat="47.24183" lon="-2.26618">
        <ele>20.60000038147</ele>
        <time>2022-09-04T07:59:53.000Z</time>
      </trkpt>
      <trkpt lat="47.24197" lon="-2.26624">
        <ele>20.60000038147</ele>
        <time>2022-09-04T08:00:00.000Z</time>
      </trkpt>
      <trkpt lat="47.24209" lon="-2.26626">
        <ele>20.60000038147</ele>
        <time>2022-09-04T08:00:06.000Z</time>
      </trkpt>
      <trkpt lat="47.2422" lon="-2.26626">
        <ele>20.60000038147</ele>
        <time>2022-09-04T08:00:12.000Z</time>
      </trkpt>
      <trkpt lat="47.24229" lon="-2.26614">
        <ele>20.60000038147</ele>
        <time>2022-09-04T08:00:16.000Z</time>
      </trkpt>
      <trkpt lat="47.2423" lon="-2.26584">
        <ele>20.60000038147</ele>
        <time>2022-09-04T08:00:21.000Z</time>
      </trkpt>
      <trkpt lat="47.24232" lon="-2.26553">
        <ele>20.60000038147</ele>
        <time>2022-09-04T08:00:26.000Z</time>
      </trkpt>
      <trkpt lat="47.24234" lon="-2.26547">
        <ele>20.60000038147</ele>
        <time>2022-09-04T08:00:28.000Z</time>
      </trkpt>
      <trkpt lat="47.24238" lon="-2.26545">
        <ele>20.200000762939</ele>
        <time>2022-09-04T08:00:30.000Z</time>
      </trkpt>
      <trkpt lat="47.2424" lon="-2.26546">
        <ele>19.799999237061</ele>
        <time>2022-09-04T08:00:31.000Z</time>
      </trkpt>
      <trkpt lat="47.24242" lon="-2.26547">
        <ele>18.799999237061</ele>
        <time>2022-09-04T08:00:32.000Z</time>
      </trkpt>
      <trkpt lat="47.24244" lon="-2.26549">
        <ele>18.39999961853</ele>
        <time>2022-09-04T08:00:33.000Z</time>
      </trkpt>
      <trkpt lat="47.24246" lon="-2.26552">
        <ele>18.39999961853</ele>
        <time>2022-09-04T08:00:34.000Z</time>
      </trkpt>
      <trkpt lat="47.24251" lon="-2.26558">
        <ele>18.39999961853</ele>
        <time>2022-09-04T08:00:36.000Z</time>
      </trkpt>
      <trkpt lat="47.24262" lon="-2.26572">
        <ele>18.39999961853</ele>
        <time>2022-09-04T08:00:40.000Z</time>
      </trkpt>
      <trkpt lat="47.24268" lon="-2.26577">
        <ele>18.799999237061</ele>
        <time>2022-09-04T08:00:42.000Z</time>
      </trkpt>
      <trkpt lat="47.24271" lon="-2.26577">
        <ele>19.200000762939</ele>
        <time>2022-09-04T08:00:43.000Z</time>
      </trkpt>
      <trkpt lat="47.24274" lon="-2.26575">
        <ele>19.799999237061</ele>
        <time>2022-09-04T08:00:44.000Z</time>
      </trkpt>
      <trkpt lat="47.24278" lon="-2.26572">
        <ele>20.200000762939</ele>
        <time>2022-09-04T08:00:45.000Z</time>
      </trkpt>
      <trkpt lat="47.24282" lon="-2.26569">
        <ele>20.60000038147</ele>
        <time>2022-09-04T08:00:46.000Z</time>
      </trkpt>
      <trkpt lat="47.24286" lon="-2.26565">
        <ele>20.60000038147</ele>
        <time>2022-09-04T08:00:47.000Z</time>
      </trkpt>
      <trkpt lat="47.24313" lon="-2.26541">
        <ele>20.60000038147</ele>
        <time>2022-09-04T08:00:53.000Z</time>
      </trkpt>
      <trkpt lat="47.24321" lon="-2.26534">
        <ele>20.60000038147</ele>
        <time>2022-09-04T08:00:55.000Z</time>
      </trkpt>
      <trkpt lat="47.24338" lon="-2.26519">
        <ele>20.60000038147</ele>
        <time>2022-09-04T08:00:59.000Z</time>
      </trkpt>
      <trkpt lat="47.24342" lon="-2.26516">
        <ele>20.60000038147</ele>
        <time>2022-09-04T08:01:00.000Z</time>
      </trkpt>
      <trkpt lat="47.24361" lon="-2.26499">
        <ele>20.60000038147</ele>
        <time>2022-09-04T08:01:04.000Z</time>
      </trkpt>
      <trkpt lat="47.24395" lon="-2.26473">
        <ele>20.60000038147</ele>
        <time>2022-09-04T08:01:11.000Z</time>
      </trkpt>
      <trkpt lat="47.24426" lon="-2.26451">
        <ele>20.60000038147</ele>
        <time>2022-09-04T08:01:17.000Z</time>
      </trkpt>
      <trkpt lat="47.24468" lon="-2.26425">
        <ele>20.60000038147</ele>
        <time>2022-09-04T08:01:25.000Z</time>
      </trkpt>
      <trkpt lat="47.24481" lon="-2.26417">
        <ele>20.60000038147</ele>
        <time>2022-09-04T08:01:28.000Z</time>
      </trkpt>
      <trkpt lat="47.24496" lon="-2.26411">
        <ele>20.60000038147</ele>
        <time>2022-09-04T08:01:31.000Z</time>
      </trkpt>
      <trkpt lat="47.24521" lon="-2.264">
        <ele>20.60000038147</ele>
        <time>2022-09-04T08:01:36.000Z</time>
      </trkpt>
      <trkpt lat="47.24531" lon="-2.26396">
        <ele>20.60000038147</ele>
        <time>2022-09-04T08:01:38.000Z</time>
      </trkpt>
      <trkpt lat="47.24558" lon="-2.26384">
        <ele>20.60000038147</ele>
        <time>2022-09-04T08:01:43.000Z</time>
      </trkpt>
      <trkpt lat="47.24564" lon="-2.26382">
        <ele>20.60000038147</ele>
        <time>2022-09-04T08:01:44.000Z</time>
      </trkpt>
      <trkpt lat="47.24609" lon="-2.26373">
        <ele>20.60000038147</ele>
        <time>2022-09-04T08:01:52.000Z</time>
      </trkpt>
      <trkpt lat="47.24628" lon="-2.26375">
        <ele>20.60000038147</ele>
        <time>2022-09-04T08:01:55.000Z</time>
      </trkpt>
      <trkpt lat="47.24647" lon="-2.26379">
        <ele>20.60000038147</ele>
        <time>2022-09-04T08:01:58.000Z</time>
      </trkpt>
      <trkpt lat="47.24653" lon="-2.26382">
        <ele>20.60000038147</ele>
        <time>2022-09-04T08:01:59.000Z</time>
      </trkpt>
      <trkpt lat="47.24664" lon="-2.26387">
        <ele>20.60000038147</ele>
        <time>2022-09-04T08:02:01.000Z</time>
      </trkpt>
      <trkpt lat="47.24686" lon="-2.26396">
        <ele>20.60000038147</ele>
        <time>2022-09-04T08:02:05.000Z</time>
      </trkpt>
      <trkpt lat="47.24691" lon="-2.26397">
        <ele>20.60000038147</ele>
        <time>2022-09-04T08:02:06.000Z</time>
      </trkpt>
      <trkpt lat="47.24713" lon="-2.26402">
        <ele>20.60000038147</ele>
        <time>2022-09-04T08:02:10.000Z</time>
      </trkpt>
      <trkpt lat="47.24719" lon="-2.26404">
        <ele>20.60000038147</ele>
        <time>2022-09-04T08:02:11.000Z</time>
      </trkpt>
      <trkpt lat="47.24746" lon="-2.26418">
        <ele>21</ele>
        <time>2022-09-04T08:02:16.000Z</time>
      </trkpt>
      <trkpt lat="47.24752" lon="-2.26422">
        <ele>21.39999961853</ele>
        <time>2022-09-04T08:02:17.000Z</time>
      </trkpt>
      <trkpt lat="47.24757" lon="-2.26427">
        <ele>21.799999237061</ele>
        <time>2022-09-04T08:02:18.000Z</time>
      </trkpt>
      <trkpt lat="47.24762" lon="-2.26431">
        <ele>22.200000762939</ele>
        <time>2022-09-04T08:02:19.000Z</time>
      </trkpt>
      <trkpt lat="47.24767" lon="-2.26436">
        <ele>22.60000038147</ele>
        <time>2022-09-04T08:02:20.000Z</time>
      </trkpt>
      <trkpt lat="47.24772" lon="-2.2644">
        <ele>22.60000038147</ele>
        <time>2022-09-04T08:02:21.000Z</time>
      </trkpt>
      <trkpt lat="47.24778" lon="-2.26442">
        <ele>22.60000038147</ele>
        <time>2022-09-04T08:02:22.000Z</time>
      </trkpt>
      <trkpt lat="47.24807" lon="-2.26453">
        <ele>22.60000038147</ele>
        <time>2022-09-04T08:02:27.000Z</time>
      </trkpt>
      <trkpt lat="47.24812" lon="-2.26453">
        <ele>22.60000038147</ele>
        <time>2022-09-04T08:02:28.000Z</time>
      </trkpt>
      <trkpt lat="47.24852" lon="-2.26449">
        <ele>22.60000038147</ele>
        <time>2022-09-04T08:02:35.000Z</time>
      </trkpt>
      <trkpt lat="47.24869" lon="-2.26445">
        <ele>23</ele>
        <time>2022-09-04T08:02:38.000Z</time>
      </trkpt>
      <trkpt lat="47.24874" lon="-2.26443">
        <ele>23.39999961853</ele>
        <time>2022-09-04T08:02:39.000Z</time>
      </trkpt>
      <trkpt lat="47.24879" lon="-2.26442">
        <ele>23.799999237061</ele>
        <time>2022-09-04T08:02:40.000Z</time>
      </trkpt>
      <trkpt lat="47.24885" lon="-2.2644">
        <ele>24.200000762939</ele>
        <time>2022-09-04T08:02:41.000Z</time>
      </trkpt>
      <trkpt lat="47.2489" lon="-2.26439">
        <ele>24.60000038147</ele>
        <time>2022-09-04T08:02:42.000Z</time>
      </trkpt>
      <trkpt lat="47.24923" lon="-2.26428">
        <ele>24.60000038147</ele>
        <time>2022-09-04T08:02:48.000Z</time>
      </trkpt>
      <trkpt lat="47.24934" lon="-2.26424">
        <ele>24.60000038147</ele>
        <time>2022-09-04T08:02:50.000Z</time>
      </trkpt>
      <trkpt lat="47.2495" lon="-2.26424">
        <ele>24.60000038147</ele>
        <time>2022-09-04T08:02:53.000Z</time>
      </trkpt>
      <trkpt lat="47.24964" lon="-2.26413">
        <ele>24.60000038147</ele>
        <time>2022-09-04T08:02:56.000Z</time>
      </trkpt>
      <trkpt lat="47.24973" lon="-2.26392">
        <ele>24.60000038147</ele>
        <time>2022-09-04T08:02:59.000Z</time>
      </trkpt>
      <trkpt lat="47.24984" lon="-2.26383">
        <ele>24.60000038147</ele>
        <time>2022-09-04T08:03:01.000Z</time>
      </trkpt>
      <trkpt lat="47.25001" lon="-2.2637">
        <ele>24.60000038147</ele>
        <time>2022-09-04T08:03:04.000Z</time>
      </trkpt>
      <trkpt lat="47.25014" lon="-2.26361">
        <ele>24.200000762939</ele>
        <time>2022-09-04T08:03:06.000Z</time>
      </trkpt>
      <trkpt lat="47.2502" lon="-2.26358">
        <ele>23.799999237061</ele>
        <time>2022-09-04T08:03:07.000Z</time>
      </trkpt>
      <trkpt lat="47.25027" lon="-2.26356">
        <ele>23.200000762939</ele>
        <time>2022-09-04T08:03:08.000Z</time>
      </trkpt>
      <trkpt lat="47.25034" lon="-2.26354">
        <ele>22.799999237061</ele>
        <time>2022-09-04T08:03:09.000Z</time>
      </trkpt>
      <trkpt lat="47.2504" lon="-2.26351">
        <ele>22.39999961853</ele>
        <time>2022-09-04T08:03:10.000Z</time>
      </trkpt>
      <trkpt lat="47.2505" lon="-2.26338">
        <ele>22.39999961853</ele>
        <time>2022-09-04T08:03:12.000Z</time>
      </trkpt>
      <trkpt lat="47.25055" lon="-2.2631">
        <ele>22.39999961853</ele>
        <time>2022-09-04T08:03:15.000Z</time>
      </trkpt>
      <trkpt lat="47.25056" lon="-2.26301">
        <ele>22.39999961853</ele>
        <time>2022-09-04T08:03:16.000Z</time>
      </trkpt>
      <trkpt lat="47.2506" lon="-2.26264">
        <ele>22.39999961853</ele>
        <time>2022-09-04T08:03:20.000Z</time>
      </trkpt>
      <trkpt lat="47.25063" lon="-2.26257">
        <ele>22.39999961853</ele>
        <time>2022-09-04T08:03:21.000Z</time>
      </trkpt>
      <trkpt lat="47.25071" lon="-2.26236">
        <ele>22.39999961853</ele>
        <time>2022-09-04T08:03:24.000Z</time>
      </trkpt>
      <trkpt lat="47.25074" lon="-2.2623">
        <ele>22.39999961853</ele>
        <time>2022-09-04T08:03:25.000Z</time>
      </trkpt>
      <trkpt lat="47.25075" lon="-2.26223">
        <ele>22.39999961853</ele>
        <time>2022-09-04T08:03:26.000Z</time>
      </trkpt>
      <trkpt lat="47.25077" lon="-2.26199">
        <ele>22.39999961853</ele>
        <time>2022-09-04T08:03:29.000Z</time>
      </trkpt>
      <trkpt lat="47.25077" lon="-2.26157">
        <ele>22.39999961853</ele>
        <time>2022-09-04T08:03:35.000Z</time>
      </trkpt>
      <trkpt lat="47.25076" lon="-2.26149">
        <ele>22.39999961853</ele>
        <time>2022-09-04T08:03:37.000Z</time>
      </trkpt>
      <trkpt lat="47.25073" lon="-2.26145">
        <ele>22.39999961853</ele>
        <time>2022-09-04T08:03:39.000Z</time>
      </trkpt>
      <trkpt lat="47.25069" lon="-2.2614">
        <ele>22</ele>
        <time>2022-09-04T08:03:41.000Z</time>
      </trkpt>
      <trkpt lat="47.25066" lon="-2.26138">
        <ele>21.39999961853</ele>
        <time>2022-09-04T08:03:42.000Z</time>
      </trkpt>
      <trkpt lat="47.25063" lon="-2.26135">
        <ele>21</ele>
        <time>2022-09-04T08:03:43.000Z</time>
      </trkpt>
      <trkpt lat="47.2506" lon="-2.26129">
        <ele>20.60000038147</ele>
        <time>2022-09-04T08:03:44.000Z</time>
      </trkpt>
      <trkpt lat="47.25059" lon="-2.26123">
        <ele>20.200000762939</ele>
        <time>2022-09-04T08:03:45.000Z</time>
      </trkpt>
      <trkpt lat="47.25057" lon="-2.26116">
        <ele>19.799999237061</ele>
        <time>2022-09-04T08:03:46.000Z</time>
      </trkpt>
      <trkpt lat="47.25056" lon="-2.26108">
        <ele>19.39999961853</ele>
        <time>2022-09-04T08:03:47.000Z</time>
      </trkpt>
      <trkpt lat="47.25056" lon="-2.26099">
        <ele>19</ele>
        <time>2022-09-04T08:03:48.000Z</time>
      </trkpt>
      <trkpt lat="47.25056" lon="-2.26091">
        <ele>18.200000762939</ele>
        <time>2022-09-04T08:03:49.000Z</time>
      </trkpt>
      <trkpt lat="47.25057" lon="-2.26073">
        <ele>17.799999237061</ele>
        <time>2022-09-04T08:03:51.000Z</time>
      </trkpt>
      <trkpt lat="47.25058" lon="-2.26064">
        <ele>17.200000762939</ele>
        <time>2022-09-04T08:03:52.000Z</time>
      </trkpt>
      <trkpt lat="47.25059" lon="-2.26054">
        <ele>16.799999237061</ele>
        <time>2022-09-04T08:03:53.000Z</time>
      </trkpt>
      <trkpt lat="47.25061" lon="-2.26045">
        <ele>16.39999961853</ele>
        <time>2022-09-04T08:03:54.000Z</time>
      </trkpt>
      <trkpt lat="47.25062" lon="-2.26035">
        <ele>16</ele>
        <time>2022-09-04T08:03:55.000Z</time>
      </trkpt>
      <trkpt lat="47.25063" lon="-2.26023">
        <ele>16</ele>
        <time>2022-09-04T08:03:56.000Z</time>
      </trkpt>
      <trkpt lat="47.25062" lon="-2.26012">
        <ele>15.39999961853</ele>
        <time>2022-09-04T08:03:57.000Z</time>
      </trkpt>
      <trkpt lat="47.25062" lon="-2.26002">
        <ele>15</ele>
        <time>2022-09-04T08:03:58.000Z</time>
      </trkpt>
      <trkpt lat="47.25062" lon="-2.25994">
        <ele>14.60000038147</ele>
        <time>2022-09-04T08:03:59.000Z</time>
      </trkpt>
      <trkpt lat="47.25062" lon="-2.25987">
        <ele>14</ele>
        <time>2022-09-04T08:04:00.000Z</time>
      </trkpt>
      <trkpt lat="47.25062" lon="-2.25982">
        <ele>13.60000038147</ele>
        <time>2022-09-04T08:04:01.000Z</time>
      </trkpt>
      <trkpt lat="47.25062" lon="-2.25977">
        <ele>13.199999809265</ele>
        <time>2022-09-04T08:04:02.000Z</time>
      </trkpt>
      <trkpt lat="47.25062" lon="-2.25973">
        <ele>12.800000190735</ele>
        <time>2022-09-04T08:04:03.000Z</time>
      </trkpt>
      <trkpt lat="47.25062" lon="-2.2597">
        <ele>12.39999961853</ele>
        <time>2022-09-04T08:04:04.000Z</time>
      </trkpt>
      <trkpt lat="47.25062" lon="-2.25967">
        <ele>12</ele>
        <time>2022-09-04T08:04:05.000Z</time>
      </trkpt>
      <trkpt lat="47.25062" lon="-2.25964">
        <ele>11.60000038147</ele>
        <time>2022-09-04T08:04:06.000Z</time>
      </trkpt>
      <trkpt lat="47.25062" lon="-2.25951">
        <ele>11.60000038147</ele>
        <time>2022-09-04T08:04:10.000Z</time>
      </trkpt>
      <trkpt lat="47.25058" lon="-2.2593">
        <ele>11.60000038147</ele>
        <time>2022-09-04T08:04:14.000Z</time>
      </trkpt>
      <trkpt lat="47.25054" lon="-2.2591">
        <ele>11.60000038147</ele>
        <time>2022-09-04T08:04:18.000Z</time>
      </trkpt>
      <trkpt lat="47.25052" lon="-2.25883">
        <ele>11.60000038147</ele>
        <time>2022-09-04T08:04:24.000Z</time>
      </trkpt>
      <trkpt lat="47.25051" lon="-2.25882">
        <ele>11.60000038147</ele>
        <time>2022-09-04T08:04:26.000Z</time>
      </trkpt>
      <trkpt lat="47.2505" lon="-2.25887">
        <ele>11.60000038147</ele>
        <time>2022-09-04T08:04:28.000Z</time>
      </trkpt>
      <trkpt lat="47.2505" lon="-2.25909">
        <ele>11.60000038147</ele>
        <time>2022-09-04T08:04:34.000Z</time>
      </trkpt>
      <trkpt lat="47.25051" lon="-2.25912">
        <ele>12</ele>
        <time>2022-09-04T08:04:35.000Z</time>
      </trkpt>
      <trkpt lat="47.2505" lon="-2.25916">
        <ele>12.39999961853</ele>
        <time>2022-09-04T08:04:36.000Z</time>
      </trkpt>
      <trkpt lat="47.2505" lon="-2.25921">
        <ele>13.199999809265</ele>
        <time>2022-09-04T08:04:37.000Z</time>
      </trkpt>
      <trkpt lat="47.25049" lon="-2.25926">
        <ele>13.800000190735</ele>
        <time>2022-09-04T08:04:38.000Z</time>
      </trkpt>
      <trkpt lat="47.25048" lon="-2.25929">
        <ele>13.800000190735</ele>
        <time>2022-09-04T08:04:39.000Z</time>
      </trkpt>
      <trkpt lat="47.25044" lon="-2.25938">
        <ele>14.199999809265</ele>
        <time>2022-09-04T08:04:41.000Z</time>
      </trkpt>
      <trkpt lat="47.25042" lon="-2.25943">
        <ele>14.60000038147</ele>
        <time>2022-09-04T08:04:42.000Z</time>
      </trkpt>
      <trkpt lat="47.25041" lon="-2.25946">
        <ele>15</ele>
        <time>2022-09-04T08:04:43.000Z</time>
      </trkpt>
      <trkpt lat="47.25041" lon="-2.25949">
        <ele>15.39999961853</ele>
        <time>2022-09-04T08:04:44.000Z</time>
      </trkpt>
      <trkpt lat="47.25041" lon="-2.2595">
        <ele>15.800000190735</ele>
        <time>2022-09-04T08:04:45.000Z</time>
      </trkpt>
      <trkpt lat="47.25041" lon="-2.2595">
        <ele>15.800000190735</ele>
        <time>2022-09-04T08:04:48.000Z</time>
      </trkpt>
      <trkpt lat="47.25042" lon="-2.2595">
        <ele>15.800000190735</ele>
        <time>2022-09-04T08:04:50.000Z</time>
      </trkpt>
      <trkpt lat="47.25044" lon="-2.2595">
        <ele>15.800000190735</ele>
        <time>2022-09-04T08:04:54.000Z</time>
      </trkpt>
      <trkpt lat="47.25046" lon="-2.2595">
        <ele>15.800000190735</ele>
        <time>2022-09-04T08:05:13.000Z</time>
      </trkpt>
      <trkpt lat="47.25047" lon="-2.2595">
        <ele>15.800000190735</ele>
        <time>2022-09-04T08:05:14.000Z</time>
      </trkpt>
      <trkpt lat="47.25048" lon="-2.25951">
        <ele>15.39999961853</ele>
        <time>2022-09-04T08:05:15.000Z</time>
      </trkpt>
      <trkpt lat="47.2505" lon="-2.25953">
        <ele>15</ele>
        <time>2022-09-04T08:05:16.000Z</time>
      </trkpt>
      <trkpt lat="47.25052" lon="-2.25954">
        <ele>14.39999961853</ele>
        <time>2022-09-04T08:05:17.000Z</time>
      </trkpt>
      <trkpt lat="47.25054" lon="-2.25955">
        <ele>14</ele>
        <time>2022-09-04T08:05:18.000Z</time>
      </trkpt>
      <trkpt lat="47.25056" lon="-2.25954">
        <ele>13.39999961853</ele>
        <time>2022-09-04T08:05:19.000Z</time>
      </trkpt>
      <trkpt lat="47.25057" lon="-2.25951">
        <ele>12.800000190735</ele>
        <time>2022-09-04T08:05:20.000Z</time>
      </trkpt>
      <trkpt lat="47.25057" lon="-2.25948">
        <ele>12.39999961853</ele>
        <time>2022-09-04T08:05:21.000Z</time>
      </trkpt>
      <trkpt lat="47.25059" lon="-2.25945">
        <ele>11.800000190735</ele>
        <time>2022-09-04T08:05:22.000Z</time>
      </trkpt>
      <trkpt lat="47.25059" lon="-2.25941">
        <ele>11.199999809265</ele>
        <time>2022-09-04T08:05:23.000Z</time>
      </trkpt>
      <trkpt lat="47.25059" lon="-2.25931">
        <ele>11.199999809265</ele>
        <time>2022-09-04T08:05:25.000Z</time>
      </trkpt>
      <trkpt lat="47.25056" lon="-2.25918">
        <ele>11.199999809265</ele>
        <time>2022-09-04T08:05:27.000Z</time>
      </trkpt>
      <trkpt lat="47.25054" lon="-2.25912">
        <ele>11.199999809265</ele>
        <time>2022-09-04T08:05:28.000Z</time>
      </trkpt>
      <trkpt lat="47.25055" lon="-2.25895">
        <ele>11.199999809265</ele>
        <time>2022-09-04T08:05:31.000Z</time>
      </trkpt>
      <trkpt lat="47.25054" lon="-2.25884">
        <ele>11.199999809265</ele>
        <time>2022-09-04T08:05:33.000Z</time>
      </trkpt>
      <trkpt lat="47.25052" lon="-2.25878">
        <ele>11.199999809265</ele>
        <time>2022-09-04T08:05:35.000Z</time>
      </trkpt>
      <trkpt lat="47.25052" lon="-2.2587">
        <ele>11.199999809265</ele>
        <time>2022-09-04T08:05:37.000Z</time>
      </trkpt>
      <trkpt lat="47.25053" lon="-2.25864">
        <ele>11.199999809265</ele>
        <time>2022-09-04T08:05:38.000Z</time>
      </trkpt>
      <trkpt lat="47.25055" lon="-2.25852">
        <ele>11.199999809265</ele>
        <time>2022-09-04T08:05:40.000Z</time>
      </trkpt>
      <trkpt lat="47.2506" lon="-2.25836">
        <ele>10.800000190735</ele>
        <time>2022-09-04T08:05:43.000Z</time>
      </trkpt>
      <trkpt lat="47.25063" lon="-2.25835">
        <ele>10.199999809265</ele>
        <time>2022-09-04T08:05:44.000Z</time>
      </trkpt>
      <trkpt lat="47.25066" lon="-2.25837">
        <ele>9.8000001907349</ele>
        <time>2022-09-04T08:05:45.000Z</time>
      </trkpt>
      <trkpt lat="47.25069" lon="-2.25839">
        <ele>9.1999998092651</ele>
        <time>2022-09-04T08:05:46.000Z</time>
      </trkpt>
      <trkpt lat="47.25071" lon="-2.2584">
        <ele>8.8000001907349</ele>
        <time>2022-09-04T08:05:47.000Z</time>
      </trkpt>
      <trkpt lat="47.25073" lon="-2.25838">
        <ele>8.1999998092651</ele>
        <time>2022-09-04T08:05:48.000Z</time>
      </trkpt>
      <trkpt lat="47.25073" lon="-2.25834">
        <ele>7.5999999046326</ele>
        <time>2022-09-04T08:05:49.000Z</time>
      </trkpt>
      <trkpt lat="47.25073" lon="-2.25831">
        <ele>7.1999998092651</ele>
        <time>2022-09-04T08:05:50.000Z</time>
      </trkpt>
      <trkpt lat="47.25072" lon="-2.25828">
        <ele>6.5999999046326</ele>
        <time>2022-09-04T08:05:51.000Z</time>
      </trkpt>
      <trkpt lat="47.25072" lon="-2.25812">
        <ele>6.5999999046326</ele>
        <time>2022-09-04T08:05:54.000Z</time>
      </trkpt>
      <trkpt lat="47.25072" lon="-2.25805">
        <ele>6.5999999046326</ele>
        <time>2022-09-04T08:05:55.000Z</time>
      </trkpt>
      <trkpt lat="47.25073" lon="-2.25797">
        <ele>6.1999998092651</ele>
        <time>2022-09-04T08:05:56.000Z</time>
      </trkpt>
      <trkpt lat="47.25073" lon="-2.25788">
        <ele>5.5999999046326</ele>
        <time>2022-09-04T08:05:57.000Z</time>
      </trkpt>
      <trkpt lat="47.25073" lon="-2.25779">
        <ele>5.1999998092651</ele>
        <time>2022-09-04T08:05:58.000Z</time>
      </trkpt>
      <trkpt lat="47.25073" lon="-2.25771">
        <ele>4.8000001907349</ele>
        <time>2022-09-04T08:05:59.000Z</time>
      </trkpt>
      <trkpt lat="47.25072" lon="-2.25762">
        <ele>4.1999998092651</ele>
        <time>2022-09-04T08:06:00.000Z</time>
      </trkpt>
      <trkpt lat="47.25073" lon="-2.25753">
        <ele>4.1999998092651</ele>
        <time>2022-09-04T08:06:01.000Z</time>
      </trkpt>
      <trkpt lat="47.25074" lon="-2.25744">
        <ele>4.1999998092651</ele>
        <time>2022-09-04T08:06:02.000Z</time>
      </trkpt>
      <trkpt lat="47.2508" lon="-2.25724">
        <ele>3.7999999523163</ele>
        <time>2022-09-04T08:06:04.000Z</time>
      </trkpt>
      <trkpt lat="47.25084" lon="-2.25715">
        <ele>3.2000000476837</ele>
        <time>2022-09-04T08:06:05.000Z</time>
      </trkpt>
      <trkpt lat="47.25085" lon="-2.25709">
        <ele>2.7999999523163</ele>
        <time>2022-09-04T08:06:06.000Z</time>
      </trkpt>
      <trkpt lat="47.25085" lon="-2.25704">
        <ele>2.2000000476837</ele>
        <time>2022-09-04T08:06:07.000Z</time>
      </trkpt>
      <trkpt lat="47.25086" lon="-2.257">
        <ele>1.7999999523163</ele>
        <time>2022-09-04T08:06:08.000Z</time>
      </trkpt>
      <trkpt lat="47.25088" lon="-2.25698">
        <ele>1.7999999523163</ele>
        <time>2022-09-04T08:06:09.000Z</time>
      </trkpt>
      <trkpt lat="47.25088" lon="-2.25695">
        <ele>1.7999999523163</ele>
        <time>2022-09-04T08:06:10.000Z</time>
      </trkpt>
      <trkpt lat="47.25088" lon="-2.25691">
        <ele>1.3999999761581</ele>
        <time>2022-09-04T08:06:12.000Z</time>
      </trkpt>
      <trkpt lat="47.25087" lon="-2.25689">
        <ele>1</ele>
        <time>2022-09-04T08:06:13.000Z</time>
      </trkpt>
      <trkpt lat="47.25087" lon="-2.25687">
        <ele>0.60000002384186</ele>
        <time>2022-09-04T08:06:14.000Z</time>
      </trkpt>
      <trkpt lat="47.25086" lon="-2.25684">
        <ele>0.20000000298023</ele>
        <time>2022-09-04T08:06:15.000Z</time>
      </trkpt>
      <trkpt lat="47.25086" lon="-2.25682">
        <ele>-0.20000000298023</ele>
        <time>2022-09-04T08:06:16.000Z</time>
      </trkpt>
      <trkpt lat="47.25087" lon="-2.25674">
        <ele>-0.20000000298023</ele>
        <time>2022-09-04T08:06:18.000Z</time>
      </trkpt>
      <trkpt lat="47.25089" lon="-2.25656">
        <ele>-0.20000000298023</ele>
        <time>2022-09-04T08:06:24.000Z</time>
      </trkpt>
      <trkpt lat="47.2509" lon="-2.25652">
        <ele>-0.80000001192093</ele>
        <time>2022-09-04T08:06:26.000Z</time>
      </trkpt>
      <trkpt lat="47.25091" lon="-2.2565">
        <ele>-1.2000000476837</ele>
        <time>2022-09-04T08:06:27.000Z</time>
      </trkpt>
      <trkpt lat="47.25091" lon="-2.25648">
        <ele>-1.6000000238419</ele>
        <time>2022-09-04T08:06:28.000Z</time>
      </trkpt>
      <trkpt lat="47.25091" lon="-2.25646">
        <ele>-2</ele>
        <time>2022-09-04T08:06:29.000Z</time>
      </trkpt>
      <trkpt lat="47.25091" lon="-2.25641">
        <ele>-2.4000000953674</ele>
        <time>2022-09-04T08:06:30.000Z</time>
      </trkpt>
      <trkpt lat="47.2509" lon="-2.25636">
        <ele>-2.4000000953674</ele>
        <time>2022-09-04T08:06:31.000Z</time>
      </trkpt>
      <trkpt lat="47.25088" lon="-2.25629">
        <ele>-2.4000000953674</ele>
        <time>2022-09-04T08:06:32.000Z</time>
      </trkpt>
      <trkpt lat="47.25083" lon="-2.25614">
        <ele>-2.4000000953674</ele>
        <time>2022-09-04T08:06:35.000Z</time>
      </trkpt>
      <trkpt lat="47.25079" lon="-2.25604">
        <ele>-2.4000000953674</ele>
        <time>2022-09-04T08:06:39.000Z</time>
      </trkpt>
      <trkpt lat="47.25077" lon="-2.25601">
        <ele>-2.4000000953674</ele>
        <time>2022-09-04T08:06:40.000Z</time>
      </trkpt>
      <trkpt lat="47.25074" lon="-2.25596">
        <ele>-2.4000000953674</ele>
        <time>2022-09-04T08:06:42.000Z</time>
      </trkpt>
      <trkpt lat="47.25075" lon="-2.25595">
        <ele>-2.4000000953674</ele>
        <time>2022-09-04T08:06:43.000Z</time>
      </trkpt>
      <trkpt lat="47.25075" lon="-2.25595">
        <ele>-2.4000000953674</ele>
        <time>2022-09-04T08:06:44.000Z</time>
      </trkpt>
      <trkpt lat="47.25075" lon="-2.25595">
        <ele>-4.4000000953674</ele>
        <time>2022-09-04T08:07:42.000Z</time>
      </trkpt>
      <trkpt lat="47.25079" lon="-2.25593">
        <ele>-4.4000000953674</ele>
        <time>2022-09-04T08:07:44.000Z</time>
      </trkpt>
      <trkpt lat="47.25083" lon="-2.25592">
        <ele>-4.4000000953674</ele>
        <time>2022-09-04T08:07:49.000Z</time>
      </trkpt>
      <trkpt lat="47.25084" lon="-2.25598">
        <ele>-4.4000000953674</ele>
        <time>2022-09-04T08:07:53.000Z</time>
      </trkpt>
      <trkpt lat="47.25083" lon="-2.25603">
        <ele>-4.4000000953674</ele>
        <time>2022-09-04T08:07:56.000Z</time>
      </trkpt>
      <trkpt lat="47.25084" lon="-2.25605">
        <ele>-4.4000000953674</ele>
        <time>2022-09-04T08:07:57.000Z</time>
      </trkpt>
      <trkpt lat="47.25085" lon="-2.25613">
        <ele>-4.4000000953674</ele>
        <time>2022-09-04T08:08:00.000Z</time>
      </trkpt>
      <trkpt lat="47.25087" lon="-2.25616">
        <ele>-4.4000000953674</ele>
        <time>2022-09-04T08:08:01.000Z</time>
      </trkpt>
      <trkpt lat="47.25089" lon="-2.25617">
        <ele>-4.4000000953674</ele>
        <time>2022-09-04T08:08:02.000Z</time>
      </trkpt>
      <trkpt lat="47.25095" lon="-2.25614">
        <ele>-4.4000000953674</ele>
        <time>2022-09-04T08:08:04.000Z</time>
      </trkpt>
      <trkpt lat="47.25104" lon="-2.256">
        <ele>-4.4000000953674</ele>
        <time>2022-09-04T08:08:08.000Z</time>
      </trkpt>
      <trkpt lat="47.25105" lon="-2.25599">
        <ele>-4.4000000953674</ele>
        <time>2022-09-04T08:08:09.000Z</time>
      </trkpt>
      <trkpt lat="47.25106" lon="-2.25599">
        <ele>-4.4000000953674</ele>
        <time>2022-09-04T08:08:11.000Z</time>
      </trkpt>
      <trkpt lat="47.2513" lon="-2.25583">
        <ele>-0.40000000596046</ele>
        <time>2022-09-04T08:11:42.000Z</time>
      </trkpt>
      <trkpt lat="47.25131" lon="-2.25583">
        <ele>-0.40000000596046</ele>
        <time>2022-09-04T08:11:43.000Z</time>
      </trkpt>
      <trkpt lat="47.25137" lon="-2.25578">
        <ele>1.7999999523163</ele>
        <time>2022-09-04T08:11:55.000Z</time>
      </trkpt>
      <trkpt lat="47.25137" lon="-2.25576">
        <ele>1.7999999523163</ele>
        <time>2022-09-04T08:11:56.000Z</time>
      </trkpt>
      <trkpt lat="47.2514" lon="-2.25562">
        <ele>1.7999999523163</ele>
        <time>2022-09-04T08:11:59.000Z</time>
      </trkpt>
      <trkpt lat="47.25141" lon="-2.25557">
        <ele>1.7999999523163</ele>
        <time>2022-09-04T08:12:00.000Z</time>
      </trkpt>
      <trkpt lat="47.25147" lon="-2.25544">
        <ele>1.7999999523163</ele>
        <time>2022-09-04T08:12:03.000Z</time>
      </trkpt>
      <trkpt lat="47.2515" lon="-2.25543">
        <ele>1.7999999523163</ele>
        <time>2022-09-04T08:12:04.000Z</time>
      </trkpt>
      <trkpt lat="47.25158" lon="-2.25543">
        <ele>1.7999999523163</ele>
        <time>2022-09-04T08:12:07.000Z</time>
      </trkpt>
      <trkpt lat="47.25165" lon="-2.25544">
        <ele>1.7999999523163</ele>
        <time>2022-09-04T08:12:09.000Z</time>
      </trkpt>
      <trkpt lat="47.25189" lon="-2.2554">
        <ele>2.2000000476837</ele>
        <time>2022-09-04T08:12:15.000Z</time>
      </trkpt>
      <trkpt lat="47.25192" lon="-2.2554">
        <ele>2.5999999046326</ele>
        <time>2022-09-04T08:12:16.000Z</time>
      </trkpt>
      <trkpt lat="47.25195" lon="-2.2554">
        <ele>3</ele>
        <time>2022-09-04T08:12:17.000Z</time>
      </trkpt>
      <trkpt lat="47.25198" lon="-2.2554">
        <ele>3.4000000953674</ele>
        <time>2022-09-04T08:12:18.000Z</time>
      </trkpt>
      <trkpt lat="47.25201" lon="-2.2554">
        <ele>3.7999999523163</ele>
        <time>2022-09-04T08:12:19.000Z</time>
      </trkpt>
      <trkpt lat="47.25206" lon="-2.25542">
        <ele>4.1999998092651</ele>
        <time>2022-09-04T08:12:21.000Z</time>
      </trkpt>
      <trkpt lat="47.25209" lon="-2.25542">
        <ele>4.5999999046326</ele>
        <time>2022-09-04T08:12:22.000Z</time>
      </trkpt>
      <trkpt lat="47.25212" lon="-2.25542">
        <ele>5</ele>
        <time>2022-09-04T08:12:23.000Z</time>
      </trkpt>
      <trkpt lat="47.25215" lon="-2.25542">
        <ele>5.4000000953674</ele>
        <time>2022-09-04T08:12:24.000Z</time>
      </trkpt>
      <trkpt lat="47.25218" lon="-2.25542">
        <ele>5.8000001907349</ele>
        <time>2022-09-04T08:12:25.000Z</time>
      </trkpt>
      <trkpt lat="47.25224" lon="-2.2554">
        <ele>5.8000001907349</ele>
        <time>2022-09-04T08:12:27.000Z</time>
      </trkpt>
      <trkpt lat="47.25233" lon="-2.25541">
        <ele>6.4000000953674</ele>
        <time>2022-09-04T08:12:30.000Z</time>
      </trkpt>
      <trkpt lat="47.25236" lon="-2.25542">
        <ele>6.8000001907349</ele>
        <time>2022-09-04T08:12:31.000Z</time>
      </trkpt>
      <trkpt lat="47.25239" lon="-2.25542">
        <ele>7.1999998092651</ele>
        <time>2022-09-04T08:12:32.000Z</time>
      </trkpt>
      <trkpt lat="47.25242" lon="-2.25543">
        <ele>7.5999999046326</ele>
        <time>2022-09-04T08:12:33.000Z</time>
      </trkpt>
      <trkpt lat="47.25244" lon="-2.25543">
        <ele>8.1999998092651</ele>
        <time>2022-09-04T08:12:34.000Z</time>
      </trkpt>
      <trkpt lat="47.25261" lon="-2.25541">
        <ele>8.1999998092651</ele>
        <time>2022-09-04T08:12:40.000Z</time>
      </trkpt>
      <trkpt lat="47.25274" lon="-2.25543">
        <ele>8.1999998092651</ele>
        <time>2022-09-04T08:12:45.000Z</time>
      </trkpt>
      <trkpt lat="47.25286" lon="-2.25542">
        <ele>8.1999998092651</ele>
        <time>2022-09-04T08:12:49.000Z</time>
      </trkpt>
      <trkpt lat="47.25299" lon="-2.25541">
        <ele>8.1999998092651</ele>
        <time>2022-09-04T08:12:52.000Z</time>
      </trkpt>
      <trkpt lat="47.25307" lon="-2.25542">
        <ele>8.1999998092651</ele>
        <time>2022-09-04T08:12:54.000Z</time>
      </trkpt>
      <trkpt lat="47.25318" lon="-2.25555">
        <ele>8.1999998092651</ele>
        <time>2022-09-04T08:12:58.000Z</time>
      </trkpt>
      <trkpt lat="47.25323" lon="-2.25574">
        <ele>8.1999998092651</ele>
        <time>2022-09-04T08:13:04.000Z</time>
      </trkpt>
      <trkpt lat="47.25328" lon="-2.25584">
        <ele>8.1999998092651</ele>
        <time>2022-09-04T08:13:10.000Z</time>
      </trkpt>
      <trkpt lat="47.25329" lon="-2.25585">
        <ele>8.1999998092651</ele>
        <time>2022-09-04T08:13:11.000Z</time>
      </trkpt>
      <trkpt lat="47.25332" lon="-2.25591">
        <ele>8.1999998092651</ele>
        <time>2022-09-04T08:13:15.000Z</time>
      </trkpt>
      <trkpt lat="47.25333" lon="-2.25593">
        <ele>8.1999998092651</ele>
        <time>2022-09-04T08:13:16.000Z</time>
      </trkpt>
      <trkpt lat="47.2534" lon="-2.25606">
        <ele>8.1999998092651</ele>
        <time>2022-09-04T08:13:20.000Z</time>
      </trkpt>
      <trkpt lat="47.25352" lon="-2.25634">
        <ele>8.1999998092651</ele>
        <time>2022-09-04T08:13:26.000Z</time>
      </trkpt>
      <trkpt lat="47.25355" lon="-2.25662">
        <ele>8.1999998092651</ele>
        <time>2022-09-04T08:13:31.000Z</time>
      </trkpt>
      <trkpt lat="47.25359" lon="-2.25687">
        <ele>8.1999998092651</ele>
        <time>2022-09-04T08:13:37.000Z</time>
      </trkpt>
      <trkpt lat="47.2536" lon="-2.25711">
        <ele>8.1999998092651</ele>
        <time>2022-09-04T08:13:42.000Z</time>
      </trkpt>
      <trkpt lat="47.25358" lon="-2.25739">
        <ele>8.1999998092651</ele>
        <time>2022-09-04T08:13:49.000Z</time>
      </trkpt>
      <trkpt lat="47.25358" lon="-2.25742">
        <ele>8.1999998092651</ele>
        <time>2022-09-04T08:13:50.000Z</time>
      </trkpt>
      <trkpt lat="47.2536" lon="-2.25759">
        <ele>8.1999998092651</ele>
        <time>2022-09-04T08:13:54.000Z</time>
      </trkpt>
      <trkpt lat="47.25362" lon="-2.25763">
        <ele>7.5999999046326</ele>
        <time>2022-09-04T08:13:55.000Z</time>
      </trkpt>
      <trkpt lat="47.25365" lon="-2.25767">
        <ele>7.1999998092651</ele>
        <time>2022-09-04T08:13:56.000Z</time>
      </trkpt>
      <trkpt lat="47.25368" lon="-2.25771">
        <ele>6.5999999046326</ele>
        <time>2022-09-04T08:13:57.000Z</time>
      </trkpt>
      <trkpt lat="47.2537" lon="-2.25775">
        <ele>5.8000001907349</ele>
        <time>2022-09-04T08:13:58.000Z</time>
      </trkpt>
      <trkpt lat="47.25372" lon="-2.2578">
        <ele>5.1999998092651</ele>
        <time>2022-09-04T08:13:59.000Z</time>
      </trkpt>
      <trkpt lat="47.25375" lon="-2.25785">
        <ele>4.4000000953674</ele>
        <time>2022-09-04T08:14:00.000Z</time>
      </trkpt>
      <trkpt lat="47.25377" lon="-2.25789">
        <ele>3.7999999523163</ele>
        <time>2022-09-04T08:14:01.000Z</time>
      </trkpt>
      <trkpt lat="47.25379" lon="-2.25793">
        <ele>3</ele>
        <time>2022-09-04T08:14:02.000Z</time>
      </trkpt>
      <trkpt lat="47.2538" lon="-2.25801">
        <ele>3</ele>
        <time>2022-09-04T08:14:04.000Z</time>
      </trkpt>
      <trkpt lat="47.25383" lon="-2.25825">
        <ele>3</ele>
        <time>2022-09-04T08:14:09.000Z</time>
      </trkpt>
      <trkpt lat="47.2539" lon="-2.25852">
        <ele>3</ele>
        <time>2022-09-04T08:14:14.000Z</time>
      </trkpt>
      <trkpt lat="47.25397" lon="-2.25879">
        <ele>3</ele>
        <time>2022-09-04T08:14:19.000Z</time>
      </trkpt>
      <trkpt lat="47.25399" lon="-2.259">
        <ele>3</ele>
        <time>2022-09-04T08:14:23.000Z</time>
      </trkpt>
      <trkpt lat="47.25399" lon="-2.25906">
        <ele>3</ele>
        <time>2022-09-04T08:14:24.000Z</time>
      </trkpt>
      <trkpt lat="47.25392" lon="-2.25943">
        <ele>3</ele>
        <time>2022-09-04T08:14:29.000Z</time>
      </trkpt>
      <trkpt lat="47.25388" lon="-2.25967">
        <ele>3.4000000953674</ele>
        <time>2022-09-04T08:14:34.000Z</time>
      </trkpt>
      <trkpt lat="47.25387" lon="-2.25969">
        <ele>4</ele>
        <time>2022-09-04T08:14:35.000Z</time>
      </trkpt>
      <trkpt lat="47.25386" lon="-2.25971">
        <ele>4.4000000953674</ele>
        <time>2022-09-04T08:14:36.000Z</time>
      </trkpt>
      <trkpt lat="47.25385" lon="-2.25973">
        <ele>4.8000001907349</ele>
        <time>2022-09-04T08:14:37.000Z</time>
      </trkpt>
      <trkpt lat="47.25385" lon="-2.25975">
        <ele>5.1999998092651</ele>
        <time>2022-09-04T08:14:38.000Z</time>
      </trkpt>
      <trkpt lat="47.25386" lon="-2.25977">
        <ele>5.1999998092651</ele>
        <time>2022-09-04T08:14:40.000Z</time>
      </trkpt>
      <trkpt lat="47.25392" lon="-2.25979">
        <ele>5.1999998092651</ele>
        <time>2022-09-04T08:14:46.000Z</time>
      </trkpt>
      <trkpt lat="47.25399" lon="-2.25977">
        <ele>5.1999998092651</ele>
        <time>2022-09-04T08:14:48.000Z</time>
      </trkpt>
      <trkpt lat="47.25407" lon="-2.25967">
        <ele>5.1999998092651</ele>
        <time>2022-09-04T08:14:51.000Z</time>
      </trkpt>
      <trkpt lat="47.25417" lon="-2.25953">
        <ele>5.1999998092651</ele>
        <time>2022-09-04T08:14:56.000Z</time>
      </trkpt>
      <trkpt lat="47.25425" lon="-2.25939">
        <ele>5.1999998092651</ele>
        <time>2022-09-04T08:15:01.000Z</time>
      </trkpt>
      <trkpt lat="47.25426" lon="-2.25918">
        <ele>5.1999998092651</ele>
        <time>2022-09-04T08:15:06.000Z</time>
      </trkpt>
      <trkpt lat="47.25427" lon="-2.25907">
        <ele>5.1999998092651</ele>
        <time>2022-09-04T08:15:11.000Z</time>
      </trkpt>
      <trkpt lat="47.25428" lon="-2.25896">
        <ele>5.5999999046326</ele>
        <time>2022-09-04T08:15:15.000Z</time>
      </trkpt>
      <trkpt lat="47.25428" lon="-2.25893">
        <ele>6.1999998092651</ele>
        <time>2022-09-04T08:15:17.000Z</time>
      </trkpt>
      <trkpt lat="47.25428" lon="-2.25889">
        <ele>6.5999999046326</ele>
        <time>2022-09-04T08:15:18.000Z</time>
      </trkpt>
      <trkpt lat="47.25429" lon="-2.25885">
        <ele>7</ele>
        <time>2022-09-04T08:15:19.000Z</time>
      </trkpt>
      <trkpt lat="47.25428" lon="-2.25882">
        <ele>7.4000000953674</ele>
        <time>2022-09-04T08:15:20.000Z</time>
      </trkpt>
      <trkpt lat="47.25429" lon="-2.25872">
        <ele>7.4000000953674</ele>
        <time>2022-09-04T08:15:23.000Z</time>
      </trkpt>
      <trkpt lat="47.25429" lon="-2.2587">
        <ele>7.4000000953674</ele>
        <time>2022-09-04T08:15:24.000Z</time>
      </trkpt>
      <trkpt lat="47.25429" lon="-2.25857">
        <ele>7.4000000953674</ele>
        <time>2022-09-04T08:15:29.000Z</time>
      </trkpt>
      <trkpt lat="47.2543" lon="-2.25854">
        <ele>7.4000000953674</ele>
        <time>2022-09-04T08:15:30.000Z</time>
      </trkpt>
      <trkpt lat="47.25433" lon="-2.25843">
        <ele>7.4000000953674</ele>
        <time>2022-09-04T08:15:34.000Z</time>
      </trkpt>
      <trkpt lat="47.25434" lon="-2.25836">
        <ele>7.4000000953674</ele>
        <time>2022-09-04T08:15:36.000Z</time>
      </trkpt>
      <trkpt lat="47.25433" lon="-2.25815">
        <ele>7.4000000953674</ele>
        <time>2022-09-04T08:15:41.000Z</time>
      </trkpt>
      <trkpt lat="47.25433" lon="-2.25811">
        <ele>7.4000000953674</ele>
        <time>2022-09-04T08:15:42.000Z</time>
      </trkpt>
      <trkpt lat="47.2543" lon="-2.25801">
        <ele>7.4000000953674</ele>
        <time>2022-09-04T08:15:45.000Z</time>
      </trkpt>
      <trkpt lat="47.25429" lon="-2.25798">
        <ele>7.4000000953674</ele>
        <time>2022-09-04T08:15:46.000Z</time>
      </trkpt>
      <trkpt lat="47.25426" lon="-2.25794">
        <ele>6.8000001907349</ele>
        <time>2022-09-04T08:15:47.000Z</time>
      </trkpt>
      <trkpt lat="47.25423" lon="-2.25791">
        <ele>6.4000000953674</ele>
        <time>2022-09-04T08:15:48.000Z</time>
      </trkpt>
      <trkpt lat="47.2542" lon="-2.25788">
        <ele>5.8000001907349</ele>
        <time>2022-09-04T08:15:49.000Z</time>
      </trkpt>
      <trkpt lat="47.25419" lon="-2.25784">
        <ele>5.4000000953674</ele>
        <time>2022-09-04T08:15:50.000Z</time>
      </trkpt>
      <trkpt lat="47.25418" lon="-2.25778">
        <ele>4.8000001907349</ele>
        <time>2022-09-04T08:15:51.000Z</time>
      </trkpt>
      <trkpt lat="47.25419" lon="-2.25772">
        <ele>4.1999998092651</ele>
        <time>2022-09-04T08:15:52.000Z</time>
      </trkpt>
      <trkpt lat="47.25421" lon="-2.25766">
        <ele>3.7999999523163</ele>
        <time>2022-09-04T08:15:53.000Z</time>
      </trkpt>
      <trkpt lat="47.25423" lon="-2.25761">
        <ele>3.2000000476837</ele>
        <time>2022-09-04T08:15:54.000Z</time>
      </trkpt>
      <trkpt lat="47.25425" lon="-2.25755">
        <ele>2.7999999523163</ele>
        <time>2022-09-04T08:15:55.000Z</time>
      </trkpt>
      <trkpt lat="47.25432" lon="-2.25741">
        <ele>2.7999999523163</ele>
        <time>2022-09-04T08:15:58.000Z</time>
      </trkpt>
      <trkpt lat="47.25444" lon="-2.25717">
        <ele>2.7999999523163</ele>
        <time>2022-09-04T08:16:03.000Z</time>
      </trkpt>
      <trkpt lat="47.25454" lon="-2.25697">
        <ele>2.7999999523163</ele>
        <time>2022-09-04T08:16:09.000Z</time>
      </trkpt>
      <trkpt lat="47.25455" lon="-2.25693">
        <ele>2.7999999523163</ele>
        <time>2022-09-04T08:16:11.000Z</time>
      </trkpt>
      <trkpt lat="47.25452" lon="-2.2569">
        <ele>2.7999999523163</ele>
        <time>2022-09-04T08:16:13.000Z</time>
      </trkpt>
      <trkpt lat="47.25448" lon="-2.25688">
        <ele>2.7999999523163</ele>
        <time>2022-09-04T08:16:14.000Z</time>
      </trkpt>
      <trkpt lat="47.25445" lon="-2.25686">
        <ele>2.2000000476837</ele>
        <time>2022-09-04T08:16:15.000Z</time>
      </trkpt>
      <trkpt lat="47.25439" lon="-2.25686">
        <ele>1.7999999523163</ele>
        <time>2022-09-04T08:16:16.000Z</time>
      </trkpt>
      <trkpt lat="47.25433" lon="-2.25686">
        <ele>1.3999999761581</ele>
        <time>2022-09-04T08:16:17.000Z</time>
      </trkpt>
      <trkpt lat="47.25427" lon="-2.25684">
        <ele>1</ele>
        <time>2022-09-04T08:16:18.000Z</time>
      </trkpt>
      <trkpt lat="47.25422" lon="-2.25683">
        <ele>0.40000000596046</ele>
        <time>2022-09-04T08:16:19.000Z</time>
      </trkpt>
      <trkpt lat="47.25409" lon="-2.2568">
        <ele>0.40000000596046</ele>
        <time>2022-09-04T08:16:22.000Z</time>
      </trkpt>
      <trkpt lat="47.25407" lon="-2.25675">
        <ele>0.40000000596046</ele>
        <time>2022-09-04T08:16:24.000Z</time>
      </trkpt>
      <trkpt lat="47.25407" lon="-2.25672">
        <ele>0.40000000596046</ele>
        <time>2022-09-04T08:16:25.000Z</time>
      </trkpt>
      <trkpt lat="47.25411" lon="-2.25668">
        <ele>0.40000000596046</ele>
        <time>2022-09-04T08:16:26.000Z</time>
      </trkpt>
      <trkpt lat="47.25418" lon="-2.25658">
        <ele>0.40000000596046</ele>
        <time>2022-09-04T08:16:28.000Z</time>
      </trkpt>
      <trkpt lat="47.25435" lon="-2.25632">
        <ele>0.40000000596046</ele>
        <time>2022-09-04T08:16:34.000Z</time>
      </trkpt>
      <trkpt lat="47.25441" lon="-2.25614">
        <ele>0.40000000596046</ele>
        <time>2022-09-04T08:16:38.000Z</time>
      </trkpt>
      <trkpt lat="47.2544" lon="-2.25609">
        <ele>0.40000000596046</ele>
        <time>2022-09-04T08:16:39.000Z</time>
      </trkpt>
      <trkpt lat="47.25433" lon="-2.25598">
        <ele>0.40000000596046</ele>
        <time>2022-09-04T08:16:43.000Z</time>
      </trkpt>
      <trkpt lat="47.25431" lon="-2.25596">
        <ele>0.40000000596046</ele>
        <time>2022-09-04T08:16:44.000Z</time>
      </trkpt>
      <trkpt lat="47.25421" lon="-2.25582">
        <ele>0.40000000596046</ele>
        <time>2022-09-04T08:16:48.000Z</time>
      </trkpt>
      <trkpt lat="47.25418" lon="-2.25577">
        <ele>9.4</ele>
        <time>2022-09-04T08:16:49.000Z</time>
      </trkpt>
      <trkpt lat="47.25415" lon="-2.25574">
        <ele>-0.40000000596046</ele>
        <time>2022-09-04T08:16:50.000Z</time>
      </trkpt>
      <trkpt lat="47.25412" lon="-2.2557">
        <ele>-0.80000001192093</ele>
        <time>2022-09-04T08:16:51.000Z</time>
      </trkpt>
      <trkpt lat="47.2541" lon="-2.2557">
        <ele>-1.2000000476837</ele>
        <time>2022-09-04T08:16:52.000Z</time>
      </trkpt>
      <trkpt lat="47.2541" lon="-2.2557">
        <ele>-1.6000000238419</ele>
        <time>2022-09-04T08:16:53.000Z</time>
      </trkpt>
      <trkpt lat="47.25409" lon="-2.25571">
        <ele>-1.6000000238419</ele>
        <time>2022-09-04T08:16:54.000Z</time>
      </trkpt>
      <trkpt lat="47.25407" lon="-2.25574">
        <ele>-1.6000000238419</ele>
        <time>2022-09-04T08:16:55.000Z</time>
      </trkpt>
      <trkpt lat="47.25404" lon="-2.2558">
        <ele>-1.6000000238419</ele>
        <time>2022-09-04T08:16:58.000Z</time>
      </trkpt>
      <trkpt lat="47.25402" lon="-2.25582">
        <ele>-1.6000000238419</ele>
        <time>2022-09-04T08:17:00.000Z</time>
      </trkpt>
      <trkpt lat="47.25398" lon="-2.25592">
        <ele>-1.6000000238419</ele>
        <time>2022-09-04T08:17:12.000Z</time>
      </trkpt>
      <trkpt lat="47.25395" lon="-2.25595">
        <ele>-1.6000000238419</ele>
        <time>2022-09-04T08:17:14.000Z</time>
      </trkpt>
      <trkpt lat="47.25391" lon="-2.256">
        <ele>-1.6000000238419</ele>
        <time>2022-09-04T08:17:17.000Z</time>
      </trkpt>
      <trkpt lat="47.25386" lon="-2.25603">
        <ele>-1.6000000238419</ele>
        <time>2022-09-04T08:17:20.000Z</time>
      </trkpt>
      <trkpt lat="47.25382" lon="-2.25604">
        <ele>-1.6000000238419</ele>
        <time>2022-09-04T08:17:22.000Z</time>
      </trkpt>
      <trkpt lat="47.2538" lon="-2.25601">
        <ele>-1.6000000238419</ele>
        <time>2022-09-04T08:17:23.000Z</time>
      </trkpt>
      <trkpt lat="47.25377" lon="-2.25595">
        <ele>-1.6000000238419</ele>
        <time>2022-09-04T08:17:25.000Z</time>
      </trkpt>
      <trkpt lat="47.25376" lon="-2.25583">
        <ele>-1.6000000238419</ele>
        <time>2022-09-04T08:17:27.000Z</time>
      </trkpt>
      <trkpt lat="47.25376" lon="-2.25577">
        <ele>-1.6000000238419</ele>
        <time>2022-09-04T08:17:28.000Z</time>
      </trkpt>
      <trkpt lat="47.25374" lon="-2.25558">
        <ele>-1.6000000238419</ele>
        <time>2022-09-04T08:17:31.000Z</time>
      </trkpt>
      <trkpt lat="47.25372" lon="-2.25537">
        <ele>-1.6000000238419</ele>
        <time>2022-09-04T08:17:34.000Z</time>
      </trkpt>
      <trkpt lat="47.25372" lon="-2.2553">
        <ele>-2</ele>
        <time>2022-09-04T08:17:35.000Z</time>
      </trkpt>
      <trkpt lat="47.25371" lon="-2.25523">
        <ele>-2.4000000953674</ele>
        <time>2022-09-04T08:17:36.000Z</time>
      </trkpt>
      <trkpt lat="47.2537" lon="-2.25517">
        <ele>-2.7999999523163</ele>
        <time>2022-09-04T08:17:37.000Z</time>
      </trkpt>
      <trkpt lat="47.25369" lon="-2.25511">
        <ele>-3.2000000476837</ele>
        <time>2022-09-04T08:17:38.000Z</time>
      </trkpt>
      <trkpt lat="47.25367" lon="-2.25506">
        <ele>-3.5999999046326</ele>
        <time>2022-09-04T08:17:39.000Z</time>
      </trkpt>
      <trkpt lat="47.25365" lon="-2.25501">
        <ele>-3.5999999046326</ele>
        <time>2022-09-04T08:17:40.000Z</time>
      </trkpt>
      <trkpt lat="47.25361" lon="-2.25472">
        <ele>-3.5999999046326</ele>
        <time>2022-09-04T08:17:45.000Z</time>
      </trkpt>
      <trkpt lat="47.25352" lon="-2.25453">
        <ele>-3.5999999046326</ele>
        <time>2022-09-04T08:17:50.000Z</time>
      </trkpt>
      <trkpt lat="47.25344" lon="-2.25435">
        <ele>-3.5999999046326</ele>
        <time>2022-09-04T08:17:55.000Z</time>
      </trkpt>
      <trkpt lat="47.25346" lon="-2.25417">
        <ele>-3.5999999046326</ele>
        <time>2022-09-04T08:17:59.000Z</time>
      </trkpt>
      <trkpt lat="47.25351" lon="-2.2539">
        <ele>-3.5999999046326</ele>
        <time>2022-09-04T08:18:05.000Z</time>
      </trkpt>
      <trkpt lat="47.25351" lon="-2.25384">
        <ele>-3.5999999046326</ele>
        <time>2022-09-04T08:18:09.000Z</time>
      </trkpt>
      <trkpt lat="47.25353" lon="-2.25383">
        <ele>-5.8000001907349</ele>
        <time>2022-09-04T08:18:40.000Z</time>
      </trkpt>
      <trkpt lat="47.25366" lon="-2.25383">
        <ele>-5.8000001907349</ele>
        <time>2022-09-04T08:18:46.000Z</time>
      </trkpt>
      <trkpt lat="47.25369" lon="-2.25383">
        <ele>-5.8000001907349</ele>
        <time>2022-09-04T08:18:47.000Z</time>
      </trkpt>
      <trkpt lat="47.25381" lon="-2.25378">
        <ele>-5.4000000953674</ele>
        <time>2022-09-04T08:18:51.000Z</time>
      </trkpt>
      <trkpt lat="47.25384" lon="-2.25377">
        <ele>-5</ele>
        <time>2022-09-04T08:18:52.000Z</time>
      </trkpt>
      <trkpt lat="47.25386" lon="-2.25378">
        <ele>-4.5999999046326</ele>
        <time>2022-09-04T08:18:53.000Z</time>
      </trkpt>
      <trkpt lat="47.25387" lon="-2.25379">
        <ele>-4.1999998092651</ele>
        <time>2022-09-04T08:18:54.000Z</time>
      </trkpt>
      <trkpt lat="47.25389" lon="-2.2538">
        <ele>-3.7999999523163</ele>
        <time>2022-09-04T08:18:55.000Z</time>
      </trkpt>
      <trkpt lat="47.2539" lon="-2.25381">
        <ele>-3.7999999523163</ele>
        <time>2022-09-04T08:18:56.000Z</time>
      </trkpt>
      <trkpt lat="47.25391" lon="-2.25383">
        <ele>-3.7999999523163</ele>
        <time>2022-09-04T08:18:57.000Z</time>
      </trkpt>
      <trkpt lat="47.25393" lon="-2.25387">
        <ele>-3.7999999523163</ele>
        <time>2022-09-04T08:18:59.000Z</time>
      </trkpt>
      <trkpt lat="47.25395" lon="-2.25388">
        <ele>-3.7999999523163</ele>
        <time>2022-09-04T08:19:00.000Z</time>
      </trkpt>
      <trkpt lat="47.25405" lon="-2.25395">
        <ele>-3.7999999523163</ele>
        <time>2022-09-04T08:19:05.000Z</time>
      </trkpt>
      <trkpt lat="47.25407" lon="-2.25396">
        <ele>-3.7999999523163</ele>
        <time>2022-09-04T08:19:06.000Z</time>
      </trkpt>
      <trkpt lat="47.25408" lon="-2.25397">
        <ele>-3.4000000953674</ele>
        <time>2022-09-04T08:19:07.000Z</time>
      </trkpt>
      <trkpt lat="47.25411" lon="-2.25399">
        <ele>-3</ele>
        <time>2022-09-04T08:19:08.000Z</time>
      </trkpt>
      <trkpt lat="47.25413" lon="-2.25399">
        <ele>-2.5999999046326</ele>
        <time>2022-09-04T08:19:09.000Z</time>
      </trkpt>
      <trkpt lat="47.25416" lon="-2.254">
        <ele>-2.2000000476837</ele>
        <time>2022-09-04T08:19:10.000Z</time>
      </trkpt>
      <trkpt lat="47.25418" lon="-2.254">
        <ele>-1.6000000238419</ele>
        <time>2022-09-04T08:19:11.000Z</time>
      </trkpt>
      <trkpt lat="47.25428" lon="-2.25405">
        <ele>-1.2000000476837</ele>
        <time>2022-09-04T08:19:15.000Z</time>
      </trkpt>
      <trkpt lat="47.25429" lon="-2.25405">
        <ele>-0.80000001192093</ele>
        <time>2022-09-04T08:19:16.000Z</time>
      </trkpt>
      <trkpt lat="47.2543" lon="-2.25403">
        <ele>-0.40000000596046</ele>
        <time>2022-09-04T08:19:17.000Z</time>
      </trkpt>
      <trkpt lat="47.25431" lon="-2.25402">
        <ele>11</ele>
        <time>2022-09-04T08:19:18.000Z</time>
      </trkpt>
      <trkpt lat="47.25432" lon="-2.25401">
        <ele>0.60000002384186</ele>
        <time>2022-09-04T08:19:19.000Z</time>
      </trkpt>
      <trkpt lat="47.25433" lon="-2.25399">
        <ele>0.60000002384186</ele>
        <time>2022-09-04T08:19:20.000Z</time>
      </trkpt>
      <trkpt lat="47.25442" lon="-2.254">
        <ele>0.60000002384186</ele>
        <time>2022-09-04T08:19:25.000Z</time>
      </trkpt>
      <trkpt lat="47.25443" lon="-2.25401">
        <ele>0.60000002384186</ele>
        <time>2022-09-04T08:19:26.000Z</time>
      </trkpt>
      <trkpt lat="47.25445" lon="-2.25402">
        <ele>1.3999999761581</ele>
        <time>2022-09-04T08:19:27.000Z</time>
      </trkpt>
      <trkpt lat="47.25447" lon="-2.25403">
        <ele>1.7999999523163</ele>
        <time>2022-09-04T08:19:28.000Z</time>
      </trkpt>
      <trkpt lat="47.25448" lon="-2.25405">
        <ele>2.2000000476837</ele>
        <time>2022-09-04T08:19:29.000Z</time>
      </trkpt>
      <trkpt lat="47.2545" lon="-2.25406">
        <ele>2.5999999046326</ele>
        <time>2022-09-04T08:19:30.000Z</time>
      </trkpt>
      <trkpt lat="47.25451" lon="-2.25407">
        <ele>2.5999999046326</ele>
        <time>2022-09-04T08:19:31.000Z</time>
      </trkpt>
      <trkpt lat="47.25453" lon="-2.25416">
        <ele>2.5999999046326</ele>
        <time>2022-09-04T08:19:35.000Z</time>
      </trkpt>
      <trkpt lat="47.25451" lon="-2.2542">
        <ele>2.5999999046326</ele>
        <time>2022-09-04T08:19:37.000Z</time>
      </trkpt>
      <trkpt lat="47.25448" lon="-2.2543">
        <ele>2.5999999046326</ele>
        <time>2022-09-04T08:19:40.000Z</time>
      </trkpt>
      <trkpt lat="47.25446" lon="-2.25437">
        <ele>2.5999999046326</ele>
        <time>2022-09-04T08:19:42.000Z</time>
      </trkpt>
      <trkpt lat="47.25445" lon="-2.25451">
        <ele>2.5999999046326</ele>
        <time>2022-09-04T08:19:47.000Z</time>
      </trkpt>
      <trkpt lat="47.25446" lon="-2.25455">
        <ele>2.5999999046326</ele>
        <time>2022-09-04T08:19:48.000Z</time>
      </trkpt>
      <trkpt lat="47.25452" lon="-2.25464">
        <ele>2.5999999046326</ele>
        <time>2022-09-04T08:19:52.000Z</time>
      </trkpt>
      <trkpt lat="47.25455" lon="-2.25466">
        <ele>2.5999999046326</ele>
        <time>2022-09-04T08:19:53.000Z</time>
      </trkpt>
      <trkpt lat="47.25459" lon="-2.2547">
        <ele>3</ele>
        <time>2022-09-04T08:19:55.000Z</time>
      </trkpt>
      <trkpt lat="47.25461" lon="-2.25473">
        <ele>3.4000000953674</ele>
        <time>2022-09-04T08:19:56.000Z</time>
      </trkpt>
      <trkpt lat="47.25463" lon="-2.25475">
        <ele>3.7999999523163</ele>
        <time>2022-09-04T08:19:57.000Z</time>
      </trkpt>
      <trkpt lat="47.25465" lon="-2.25478">
        <ele>4.1999998092651</ele>
        <time>2022-09-04T08:19:58.000Z</time>
      </trkpt>
      <trkpt lat="47.25466" lon="-2.2548">
        <ele>4.5999999046326</ele>
        <time>2022-09-04T08:19:59.000Z</time>
      </trkpt>
      <trkpt lat="47.25476" lon="-2.25481">
        <ele>4.5999999046326</ele>
        <time>2022-09-04T08:20:04.000Z</time>
      </trkpt>
      <trkpt lat="47.25477" lon="-2.2548">
        <ele>5</ele>
        <time>2022-09-04T08:20:05.000Z</time>
      </trkpt>
      <trkpt lat="47.25479" lon="-2.25479">
        <ele>5.5999999046326</ele>
        <time>2022-09-04T08:20:06.000Z</time>
      </trkpt>
      <trkpt lat="47.25479" lon="-2.25477">
        <ele>6</ele>
        <time>2022-09-04T08:20:07.000Z</time>
      </trkpt>
      <trkpt lat="47.2548" lon="-2.25475">
        <ele>6.4000000953674</ele>
        <time>2022-09-04T08:20:08.000Z</time>
      </trkpt>
      <trkpt lat="47.25481" lon="-2.25471">
        <ele>6.8000001907349</ele>
        <time>2022-09-04T08:20:09.000Z</time>
      </trkpt>
      <trkpt lat="47.25482" lon="-2.25467">
        <ele>6.8000001907349</ele>
        <time>2022-09-04T08:20:10.000Z</time>
      </trkpt>
      <trkpt lat="47.25485" lon="-2.25459">
        <ele>6.8000001907349</ele>
        <time>2022-09-04T08:20:12.000Z</time>
      </trkpt>
      <trkpt lat="47.25487" lon="-2.25453">
        <ele>6.8000001907349</ele>
        <time>2022-09-04T08:20:14.000Z</time>
      </trkpt>
      <trkpt lat="47.25494" lon="-2.25437">
        <ele>7.4000000953674</ele>
        <time>2022-09-04T08:20:19.000Z</time>
      </trkpt>
      <trkpt lat="47.25496" lon="-2.25436">
        <ele>7.8000001907349</ele>
        <time>2022-09-04T08:20:20.000Z</time>
      </trkpt>
      <trkpt lat="47.25498" lon="-2.25436">
        <ele>8.1999998092651</ele>
        <time>2022-09-04T08:20:21.000Z</time>
      </trkpt>
      <trkpt lat="47.255" lon="-2.25436">
        <ele>8.6000003814697</ele>
        <time>2022-09-04T08:20:22.000Z</time>
      </trkpt>
      <trkpt lat="47.25501" lon="-2.25436">
        <ele>9</ele>
        <time>2022-09-04T08:20:23.000Z</time>
      </trkpt>
      <trkpt lat="47.25506" lon="-2.25431">
        <ele>9</ele>
        <time>2022-09-04T08:20:27.000Z</time>
      </trkpt>
      <trkpt lat="47.25506" lon="-2.25429">
        <ele>9</ele>
        <time>2022-09-04T08:20:29.000Z</time>
      </trkpt>
      <trkpt lat="47.25508" lon="-2.2542">
        <ele>9</ele>
        <time>2022-09-04T08:20:37.000Z</time>
      </trkpt>
      <trkpt lat="47.25516" lon="-2.25423">
        <ele>9</ele>
        <time>2022-09-04T08:20:41.000Z</time>
      </trkpt>
      <trkpt lat="47.25521" lon="-2.25428">
        <ele>9.3999996185303</ele>
        <time>2022-09-04T08:20:44.000Z</time>
      </trkpt>
      <trkpt lat="47.25523" lon="-2.25429">
        <ele>9.8000001907349</ele>
        <time>2022-09-04T08:20:45.000Z</time>
      </trkpt>
      <trkpt lat="47.25524" lon="-2.25431">
        <ele>10.199999809265</ele>
        <time>2022-09-04T08:20:46.000Z</time>
      </trkpt>
      <trkpt lat="47.25526" lon="-2.25432">
        <ele>10.60000038147</ele>
        <time>2022-09-04T08:20:47.000Z</time>
      </trkpt>
      <trkpt lat="47.25528" lon="-2.25434">
        <ele>11</ele>
        <time>2022-09-04T08:20:48.000Z</time>
      </trkpt>
      <trkpt lat="47.2553" lon="-2.25436">
        <ele>11</ele>
        <time>2022-09-04T08:20:49.000Z</time>
      </trkpt>
      <trkpt lat="47.25536" lon="-2.25441">
        <ele>11.39999961853</ele>
        <time>2022-09-04T08:20:53.000Z</time>
      </trkpt>
      <trkpt lat="47.25538" lon="-2.25442">
        <ele>11.800000190735</ele>
        <time>2022-09-04T08:20:54.000Z</time>
      </trkpt>
      <trkpt lat="47.2554" lon="-2.25443">
        <ele>12.199999809265</ele>
        <time>2022-09-04T08:20:55.000Z</time>
      </trkpt>
      <trkpt lat="47.25542" lon="-2.25442">
        <ele>12.800000190735</ele>
        <time>2022-09-04T08:20:56.000Z</time>
      </trkpt>
      <trkpt lat="47.25543" lon="-2.25442">
        <ele>13.199999809265</ele>
        <time>2022-09-04T08:20:57.000Z</time>
      </trkpt>
      <trkpt lat="47.25547" lon="-2.25442">
        <ele>13.199999809265</ele>
        <time>2022-09-04T08:21:00.000Z</time>
      </trkpt>
      <trkpt lat="47.25549" lon="-2.25442">
        <ele>13.199999809265</ele>
        <time>2022-09-04T08:21:01.000Z</time>
      </trkpt>
      <trkpt lat="47.25559" lon="-2.25445">
        <ele>13.60000038147</ele>
        <time>2022-09-04T08:21:06.000Z</time>
      </trkpt>
      <trkpt lat="47.25561" lon="-2.25446">
        <ele>14</ele>
        <time>2022-09-04T08:21:07.000Z</time>
      </trkpt>
      <trkpt lat="47.25563" lon="-2.25449">
        <ele>14.39999961853</ele>
        <time>2022-09-04T08:21:08.000Z</time>
      </trkpt>
      <trkpt lat="47.25565" lon="-2.25451">
        <ele>15</ele>
        <time>2022-09-04T08:21:09.000Z</time>
      </trkpt>
      <trkpt lat="47.25566" lon="-2.25453">
        <ele>15.39999961853</ele>
        <time>2022-09-04T08:21:10.000Z</time>
      </trkpt>
      <trkpt lat="47.2557" lon="-2.25459">
        <ele>15.800000190735</ele>
        <time>2022-09-04T08:21:12.000Z</time>
      </trkpt>
      <trkpt lat="47.25572" lon="-2.25462">
        <ele>16.200000762939</ele>
        <time>2022-09-04T08:21:13.000Z</time>
      </trkpt>
      <trkpt lat="47.25573" lon="-2.25465">
        <ele>16.60000038147</ele>
        <time>2022-09-04T08:21:14.000Z</time>
      </trkpt>
      <trkpt lat="47.25574" lon="-2.25468">
        <ele>17</ele>
        <time>2022-09-04T08:21:15.000Z</time>
      </trkpt>
      <trkpt lat="47.25575" lon="-2.25471">
        <ele>17.39999961853</ele>
        <time>2022-09-04T08:21:16.000Z</time>
      </trkpt>
      <trkpt lat="47.25573" lon="-2.25474">
        <ele>17.39999961853</ele>
        <time>2022-09-04T08:21:17.000Z</time>
      </trkpt>
      <trkpt lat="47.25568" lon="-2.25484">
        <ele>17.39999961853</ele>
        <time>2022-09-04T08:21:20.000Z</time>
      </trkpt>
      <trkpt lat="47.25564" lon="-2.2549">
        <ele>17.39999961853</ele>
        <time>2022-09-04T08:21:22.000Z</time>
      </trkpt>
      <trkpt lat="47.25553" lon="-2.25511">
        <ele>17.39999961853</ele>
        <time>2022-09-04T08:21:27.000Z</time>
      </trkpt>
      <trkpt lat="47.25542" lon="-2.25533">
        <ele>17.39999961853</ele>
        <time>2022-09-04T08:21:31.000Z</time>
      </trkpt>
      <trkpt lat="47.25539" lon="-2.25538">
        <ele>17.39999961853</ele>
        <time>2022-09-04T08:21:32.000Z</time>
      </trkpt>
      <trkpt lat="47.25537" lon="-2.25544">
        <ele>17.39999961853</ele>
        <time>2022-09-04T08:21:33.000Z</time>
      </trkpt>
      <trkpt lat="47.25535" lon="-2.2555">
        <ele>17</ele>
        <time>2022-09-04T08:21:34.000Z</time>
      </trkpt>
      <trkpt lat="47.25532" lon="-2.25556">
        <ele>16.60000038147</ele>
        <time>2022-09-04T08:21:35.000Z</time>
      </trkpt>
      <trkpt lat="47.2553" lon="-2.25564">
        <ele>16</ele>
        <time>2022-09-04T08:21:36.000Z</time>
      </trkpt>
      <trkpt lat="47.25528" lon="-2.25571">
        <ele>15.60000038147</ele>
        <time>2022-09-04T08:21:37.000Z</time>
      </trkpt>
      <trkpt lat="47.25526" lon="-2.25578">
        <ele>15.199999809265</ele>
        <time>2022-09-04T08:21:38.000Z</time>
      </trkpt>
      <trkpt lat="47.25524" lon="-2.25585">
        <ele>14.800000190735</ele>
        <time>2022-09-04T08:21:39.000Z</time>
      </trkpt>
      <trkpt lat="47.25522" lon="-2.25593">
        <ele>14.39999961853</ele>
        <time>2022-09-04T08:21:40.000Z</time>
      </trkpt>
      <trkpt lat="47.2552" lon="-2.25602">
        <ele>14</ele>
        <time>2022-09-04T08:21:41.000Z</time>
      </trkpt>
      <trkpt lat="47.25518" lon="-2.2561">
        <ele>13.60000038147</ele>
        <time>2022-09-04T08:21:42.000Z</time>
      </trkpt>
      <trkpt lat="47.25516" lon="-2.25618">
        <ele>13.199999809265</ele>
        <time>2022-09-04T08:21:43.000Z</time>
      </trkpt>
      <trkpt lat="47.25515" lon="-2.25628">
        <ele>12.800000190735</ele>
        <time>2022-09-04T08:21:44.000Z</time>
      </trkpt>
      <trkpt lat="47.25514" lon="-2.25636">
        <ele>12.199999809265</ele>
        <time>2022-09-04T08:21:45.000Z</time>
      </trkpt>
      <trkpt lat="47.25512" lon="-2.25645">
        <ele>11.800000190735</ele>
        <time>2022-09-04T08:21:46.000Z</time>
      </trkpt>
      <trkpt lat="47.25511" lon="-2.25655">
        <ele>11.199999809265</ele>
        <time>2022-09-04T08:21:47.000Z</time>
      </trkpt>
      <trkpt lat="47.2551" lon="-2.25664">
        <ele>10.800000190735</ele>
        <time>2022-09-04T08:21:48.000Z</time>
      </trkpt>
      <trkpt lat="47.25508" lon="-2.25697">
        <ele>10.39999961853</ele>
        <time>2022-09-04T08:21:52.000Z</time>
      </trkpt>
      <trkpt lat="47.25508" lon="-2.25704">
        <ele>10</ele>
        <time>2022-09-04T08:21:53.000Z</time>
      </trkpt>
      <trkpt lat="47.25508" lon="-2.2571">
        <ele>9.6000003814697</ele>
        <time>2022-09-04T08:21:54.000Z</time>
      </trkpt>
      <trkpt lat="47.25508" lon="-2.25716">
        <ele>8.8000001907349</ele>
        <time>2022-09-04T08:21:55.000Z</time>
      </trkpt>
      <trkpt lat="47.25507" lon="-2.25733">
        <ele>9.1999998092651</ele>
        <time>2022-09-04T08:21:58.000Z</time>
      </trkpt>
      <trkpt lat="47.25507" lon="-2.25738">
        <ele>9.6000003814697</ele>
        <time>2022-09-04T08:21:59.000Z</time>
      </trkpt>
      <trkpt lat="47.25506" lon="-2.25742">
        <ele>10</ele>
        <time>2022-09-04T08:22:00.000Z</time>
      </trkpt>
      <trkpt lat="47.25505" lon="-2.25745">
        <ele>10.39999961853</ele>
        <time>2022-09-04T08:22:01.000Z</time>
      </trkpt>
      <trkpt lat="47.25503" lon="-2.25747">
        <ele>10.800000190735</ele>
        <time>2022-09-04T08:22:02.000Z</time>
      </trkpt>
      <trkpt lat="47.25501" lon="-2.2575">
        <ele>10.800000190735</ele>
        <time>2022-09-04T08:22:03.000Z</time>
      </trkpt>
      <trkpt lat="47.25491" lon="-2.25778">
        <ele>11.199999809265</ele>
        <time>2022-09-04T08:22:10.000Z</time>
      </trkpt>
      <trkpt lat="47.2549" lon="-2.25784">
        <ele>11.60000038147</ele>
        <time>2022-09-04T08:22:11.000Z</time>
      </trkpt>
      <trkpt lat="47.25488" lon="-2.25789">
        <ele>12</ele>
        <time>2022-09-04T08:22:12.000Z</time>
      </trkpt>
      <trkpt lat="47.25485" lon="-2.25795">
        <ele>12.39999961853</ele>
        <time>2022-09-04T08:22:13.000Z</time>
      </trkpt>
      <trkpt lat="47.25482" lon="-2.258">
        <ele>12.800000190735</ele>
        <time>2022-09-04T08:22:14.000Z</time>
      </trkpt>
      <trkpt lat="47.25479" lon="-2.25807">
        <ele>12.800000190735</ele>
        <time>2022-09-04T08:22:15.000Z</time>
      </trkpt>
      <trkpt lat="47.25472" lon="-2.25835">
        <ele>12.800000190735</ele>
        <time>2022-09-04T08:22:19.000Z</time>
      </trkpt>
      <trkpt lat="47.25467" lon="-2.25864">
        <ele>12.800000190735</ele>
        <time>2022-09-04T08:22:23.000Z</time>
      </trkpt>
      <trkpt lat="47.25464" lon="-2.25877">
        <ele>12.800000190735</ele>
        <time>2022-09-04T08:22:25.000Z</time>
      </trkpt>
      <trkpt lat="47.25458" lon="-2.25897">
        <ele>12.800000190735</ele>
        <time>2022-09-04T08:22:28.000Z</time>
      </trkpt>
      <trkpt lat="47.25455" lon="-2.25911">
        <ele>12.800000190735</ele>
        <time>2022-09-04T08:22:30.000Z</time>
      </trkpt>
      <trkpt lat="47.25456" lon="-2.25938">
        <ele>12.800000190735</ele>
        <time>2022-09-04T08:22:34.000Z</time>
      </trkpt>
      <trkpt lat="47.25458" lon="-2.25944">
        <ele>12.800000190735</ele>
        <time>2022-09-04T08:22:35.000Z</time>
      </trkpt>
      <trkpt lat="47.25462" lon="-2.25968">
        <ele>12.800000190735</ele>
        <time>2022-09-04T08:22:39.000Z</time>
      </trkpt>
      <trkpt lat="47.25465" lon="-2.25986">
        <ele>12.800000190735</ele>
        <time>2022-09-04T08:22:44.000Z</time>
      </trkpt>
      <trkpt lat="47.25458" lon="-2.25993">
        <ele>12.800000190735</ele>
        <time>2022-09-04T08:22:47.000Z</time>
      </trkpt>
      <trkpt lat="47.2545" lon="-2.26004">
        <ele>12.800000190735</ele>
        <time>2022-09-04T08:22:50.000Z</time>
      </trkpt>
      <trkpt lat="47.25447" lon="-2.26009">
        <ele>12.800000190735</ele>
        <time>2022-09-04T08:22:51.000Z</time>
      </trkpt>
      <trkpt lat="47.2544" lon="-2.26015">
        <ele>12.800000190735</ele>
        <time>2022-09-04T08:22:53.000Z</time>
      </trkpt>
      <trkpt lat="47.25431" lon="-2.26023">
        <ele>12.800000190735</ele>
        <time>2022-09-04T08:22:55.000Z</time>
      </trkpt>
      <trkpt lat="47.25404" lon="-2.26041">
        <ele>12.800000190735</ele>
        <time>2022-09-04T08:23:01.000Z</time>
      </trkpt>
      <trkpt lat="47.25391" lon="-2.26057">
        <ele>12.800000190735</ele>
        <time>2022-09-04T08:23:06.000Z</time>
      </trkpt>
      <trkpt lat="47.25393" lon="-2.26087">
        <ele>12.800000190735</ele>
        <time>2022-09-04T08:23:12.000Z</time>
      </trkpt>
      <trkpt lat="47.25396" lon="-2.26091">
        <ele>12.800000190735</ele>
        <time>2022-09-04T08:23:13.000Z</time>
      </trkpt>
      <trkpt lat="47.25398" lon="-2.26099">
        <ele>12.800000190735</ele>
        <time>2022-09-04T08:23:15.000Z</time>
      </trkpt>
      <trkpt lat="47.25393" lon="-2.26109">
        <ele>12.800000190735</ele>
        <time>2022-09-04T08:23:19.000Z</time>
      </trkpt>
      <trkpt lat="47.25391" lon="-2.2611">
        <ele>12.800000190735</ele>
        <time>2022-09-04T08:23:20.000Z</time>
      </trkpt>
      <trkpt lat="47.25384" lon="-2.26112">
        <ele>12.800000190735</ele>
        <time>2022-09-04T08:23:24.000Z</time>
      </trkpt>
      <trkpt lat="47.25381" lon="-2.26115">
        <ele>13.39999961853</ele>
        <time>2022-09-04T08:23:26.000Z</time>
      </trkpt>
      <trkpt lat="47.25381" lon="-2.26116">
        <ele>13.800000190735</ele>
        <time>2022-09-04T08:23:27.000Z</time>
      </trkpt>
      <trkpt lat="47.2538" lon="-2.26118">
        <ele>14.199999809265</ele>
        <time>2022-09-04T08:23:28.000Z</time>
      </trkpt>
      <trkpt lat="47.2538" lon="-2.26121">
        <ele>14.60000038147</ele>
        <time>2022-09-04T08:23:29.000Z</time>
      </trkpt>
      <trkpt lat="47.25381" lon="-2.26124">
        <ele>15</ele>
        <time>2022-09-04T08:23:30.000Z</time>
      </trkpt>
      <trkpt lat="47.25379" lon="-2.26142">
        <ele>15</ele>
        <time>2022-09-04T08:23:35.000Z</time>
      </trkpt>
      <trkpt lat="47.25378" lon="-2.26144">
        <ele>15</ele>
        <time>2022-09-04T08:23:36.000Z</time>
      </trkpt>
      <trkpt lat="47.25373" lon="-2.26144">
        <ele>15</ele>
        <time>2022-09-04T08:23:39.000Z</time>
      </trkpt>
      <trkpt lat="47.25369" lon="-2.26144">
        <ele>15</ele>
        <time>2022-09-04T08:23:41.000Z</time>
      </trkpt>
      <trkpt lat="47.25365" lon="-2.26145">
        <ele>15.39999961853</ele>
        <time>2022-09-04T08:23:43.000Z</time>
      </trkpt>
      <trkpt lat="47.25364" lon="-2.26145">
        <ele>16</ele>
        <time>2022-09-04T08:23:44.000Z</time>
      </trkpt>
      <trkpt lat="47.25361" lon="-2.26145">
        <ele>16.39999961853</ele>
        <time>2022-09-04T08:23:45.000Z</time>
      </trkpt>
      <trkpt lat="47.25358" lon="-2.26147">
        <ele>16.799999237061</ele>
        <time>2022-09-04T08:23:46.000Z</time>
      </trkpt>
      <trkpt lat="47.25357" lon="-2.26149">
        <ele>17.200000762939</ele>
        <time>2022-09-04T08:23:47.000Z</time>
      </trkpt>
      <trkpt lat="47.25357" lon="-2.26154">
        <ele>17.200000762939</ele>
        <time>2022-09-04T08:23:50.000Z</time>
      </trkpt>
      <trkpt lat="47.25356" lon="-2.26156">
        <ele>17.200000762939</ele>
        <time>2022-09-04T08:23:51.000Z</time>
      </trkpt>
      <trkpt lat="47.25356" lon="-2.26157">
        <ele>17.60000038147</ele>
        <time>2022-09-04T08:23:52.000Z</time>
      </trkpt>
      <trkpt lat="47.25357" lon="-2.26158">
        <ele>18</ele>
        <time>2022-09-04T08:23:53.000Z</time>
      </trkpt>
      <trkpt lat="47.25356" lon="-2.26159">
        <ele>18.39999961853</ele>
        <time>2022-09-04T08:23:54.000Z</time>
      </trkpt>
      <trkpt lat="47.25356" lon="-2.2616">
        <ele>18.799999237061</ele>
        <time>2022-09-04T08:23:55.000Z</time>
      </trkpt>
      <trkpt lat="47.25347" lon="-2.26158">
        <ele>19.200000762939</ele>
        <time>2022-09-04T08:24:01.000Z</time>
      </trkpt>
      <trkpt lat="47.25351" lon="-2.26154">
        <ele>19.200000762939</ele>
        <time>2022-09-04T08:24:05.000Z</time>
      </trkpt>
      <trkpt lat="47.25352" lon="-2.26153">
        <ele>19.200000762939</ele>
        <time>2022-09-04T08:24:06.000Z</time>
      </trkpt>
      <trkpt lat="47.25356" lon="-2.26152">
        <ele>18.799999237061</ele>
        <time>2022-09-04T08:24:08.000Z</time>
      </trkpt>
      <trkpt lat="47.25358" lon="-2.26151">
        <ele>18.39999961853</ele>
        <time>2022-09-04T08:24:09.000Z</time>
      </trkpt>
      <trkpt lat="47.2536" lon="-2.26151">
        <ele>18</ele>
        <time>2022-09-04T08:24:10.000Z</time>
      </trkpt>
      <trkpt lat="47.25362" lon="-2.26151">
        <ele>17.60000038147</ele>
        <time>2022-09-04T08:24:11.000Z</time>
      </trkpt>
      <trkpt lat="47.25364" lon="-2.2615">
        <ele>17</ele>
        <time>2022-09-04T08:24:12.000Z</time>
      </trkpt>
      <trkpt lat="47.25364" lon="-2.26148">
        <ele>17</ele>
        <time>2022-09-04T08:24:13.000Z</time>
      </trkpt>
      <trkpt lat="47.25366" lon="-2.26146">
        <ele>17</ele>
        <time>2022-09-04T08:24:14.000Z</time>
      </trkpt>
      <trkpt lat="47.25373" lon="-2.26152">
        <ele>17</ele>
        <time>2022-09-04T08:24:18.000Z</time>
      </trkpt>
      <trkpt lat="47.25371" lon="-2.26167">
        <ele>17</ele>
        <time>2022-09-04T08:24:23.000Z</time>
      </trkpt>
      <trkpt lat="47.25373" lon="-2.26186">
        <ele>17</ele>
        <time>2022-09-04T08:24:28.000Z</time>
      </trkpt>
      <trkpt lat="47.2538" lon="-2.26199">
        <ele>17</ele>
        <time>2022-09-04T08:24:32.000Z</time>
      </trkpt>
      <trkpt lat="47.25391" lon="-2.26224">
        <ele>17</ele>
        <time>2022-09-04T08:24:37.000Z</time>
      </trkpt>
      <trkpt lat="47.25394" lon="-2.26243">
        <ele>17</ele>
        <time>2022-09-04T08:24:40.000Z</time>
      </trkpt>
      <trkpt lat="47.25394" lon="-2.26248">
        <ele>17</ele>
        <time>2022-09-04T08:24:41.000Z</time>
      </trkpt>
      <trkpt lat="47.25391" lon="-2.26258">
        <ele>17.60000038147</ele>
        <time>2022-09-04T08:24:44.000Z</time>
      </trkpt>
      <trkpt lat="47.2539" lon="-2.26261">
        <ele>18</ele>
        <time>2022-09-04T08:24:45.000Z</time>
      </trkpt>
      <trkpt lat="47.2539" lon="-2.26263">
        <ele>18.60000038147</ele>
        <time>2022-09-04T08:24:46.000Z</time>
      </trkpt>
      <trkpt lat="47.2539" lon="-2.26266">
        <ele>19</ele>
        <time>2022-09-04T08:24:47.000Z</time>
      </trkpt>
      <trkpt lat="47.2539" lon="-2.26269">
        <ele>19.39999961853</ele>
        <time>2022-09-04T08:24:48.000Z</time>
      </trkpt>
      <trkpt lat="47.25391" lon="-2.26275">
        <ele>19.39999961853</ele>
        <time>2022-09-04T08:24:50.000Z</time>
      </trkpt>
      <trkpt lat="47.25396" lon="-2.26293">
        <ele>19.39999961853</ele>
        <time>2022-09-04T08:24:54.000Z</time>
      </trkpt>
      <trkpt lat="47.254" lon="-2.26313">
        <ele>19.39999961853</ele>
        <time>2022-09-04T08:24:58.000Z</time>
      </trkpt>
      <trkpt lat="47.25398" lon="-2.26327">
        <ele>19.799999237061</ele>
        <time>2022-09-04T08:25:02.000Z</time>
      </trkpt>
      <trkpt lat="47.25399" lon="-2.26331">
        <ele>20.39999961853</ele>
        <time>2022-09-04T08:25:03.000Z</time>
      </trkpt>
      <trkpt lat="47.25399" lon="-2.26337">
        <ele>20.799999237061</ele>
        <time>2022-09-04T08:25:04.000Z</time>
      </trkpt>
      <trkpt lat="47.254" lon="-2.26341">
        <ele>21.200000762939</ele>
        <time>2022-09-04T08:25:05.000Z</time>
      </trkpt>
      <trkpt lat="47.254" lon="-2.26345">
        <ele>21.60000038147</ele>
        <time>2022-09-04T08:25:06.000Z</time>
      </trkpt>
      <trkpt lat="47.25401" lon="-2.26357">
        <ele>21.60000038147</ele>
        <time>2022-09-04T08:25:08.000Z</time>
      </trkpt>
      <trkpt lat="47.25405" lon="-2.26365">
        <ele>21.60000038147</ele>
        <time>2022-09-04T08:25:10.000Z</time>
      </trkpt>
      <trkpt lat="47.25411" lon="-2.26369">
        <ele>21.60000038147</ele>
        <time>2022-09-04T08:25:12.000Z</time>
      </trkpt>
      <trkpt lat="47.25414" lon="-2.2637">
        <ele>20.60000038147</ele>
        <time>2022-09-04T08:25:13.000Z</time>
      </trkpt>
      <trkpt lat="47.25416" lon="-2.2637">
        <ele>20</ele>
        <time>2022-09-04T08:25:14.000Z</time>
      </trkpt>
      <trkpt lat="47.25417" lon="-2.26369">
        <ele>19.60000038147</ele>
        <time>2022-09-04T08:25:15.000Z</time>
      </trkpt>
      <trkpt lat="47.25417" lon="-2.26368">
        <ele>19</ele>
        <time>2022-09-04T08:25:16.000Z</time>
      </trkpt>
      <trkpt lat="47.25415" lon="-2.26366">
        <ele>19</ele>
        <time>2022-09-04T08:25:19.000Z</time>
      </trkpt>
      <trkpt lat="47.25413" lon="-2.26365">
        <ele>19</ele>
        <time>2022-09-04T08:25:21.000Z</time>
      </trkpt>
      <trkpt lat="47.2541" lon="-2.26358">
        <ele>19</ele>
        <time>2022-09-04T08:25:25.000Z</time>
      </trkpt>
      <trkpt lat="47.2541" lon="-2.26354">
        <ele>19</ele>
        <time>2022-09-04T08:25:26.000Z</time>
      </trkpt>
      <trkpt lat="47.25408" lon="-2.26336">
        <ele>19</ele>
        <time>2022-09-04T08:25:31.000Z</time>
      </trkpt>
      <trkpt lat="47.25409" lon="-2.26331">
        <ele>19</ele>
        <time>2022-09-04T08:25:33.000Z</time>
      </trkpt>
      <trkpt lat="47.2541" lon="-2.26322">
        <ele>19</ele>
        <time>2022-09-04T08:25:35.000Z</time>
      </trkpt>
      <trkpt lat="47.25413" lon="-2.26315">
        <ele>18.60000038147</ele>
        <time>2022-09-04T08:25:37.000Z</time>
      </trkpt>
      <trkpt lat="47.25416" lon="-2.26313">
        <ele>17.39999961853</ele>
        <time>2022-09-04T08:25:38.000Z</time>
      </trkpt>
      <trkpt lat="47.25419" lon="-2.26312">
        <ele>17</ele>
        <time>2022-09-04T08:25:39.000Z</time>
      </trkpt>
      <trkpt lat="47.25422" lon="-2.26313">
        <ele>16.39999961853</ele>
        <time>2022-09-04T08:25:40.000Z</time>
      </trkpt>
      <trkpt lat="47.25435" lon="-2.26309">
        <ele>16.39999961853</ele>
        <time>2022-09-04T08:25:45.000Z</time>
      </trkpt>
      <trkpt lat="47.25448" lon="-2.26307">
        <ele>16.39999961853</ele>
        <time>2022-09-04T08:25:50.000Z</time>
      </trkpt>
      <trkpt lat="47.2546" lon="-2.26306">
        <ele>16.39999961853</ele>
        <time>2022-09-04T08:25:54.000Z</time>
      </trkpt>
      <trkpt lat="47.25463" lon="-2.26306">
        <ele>16.39999961853</ele>
        <time>2022-09-04T08:25:55.000Z</time>
      </trkpt>
      <trkpt lat="47.25468" lon="-2.2631">
        <ele>16.799999237061</ele>
        <time>2022-09-04T08:25:58.000Z</time>
      </trkpt>
      <trkpt lat="47.25468" lon="-2.26312">
        <ele>17.200000762939</ele>
        <time>2022-09-04T08:25:59.000Z</time>
      </trkpt>
      <trkpt lat="47.25468" lon="-2.26314">
        <ele>17.60000038147</ele>
        <time>2022-09-04T08:26:00.000Z</time>
      </trkpt>
      <trkpt lat="47.25469" lon="-2.26315">
        <ele>18</ele>
        <time>2022-09-04T08:26:01.000Z</time>
      </trkpt>
      <trkpt lat="47.2547" lon="-2.26317">
        <ele>18.39999961853</ele>
        <time>2022-09-04T08:26:02.000Z</time>
      </trkpt>
      <trkpt lat="47.2547" lon="-2.26318">
        <ele>18.799999237061</ele>
        <time>2022-09-04T08:26:03.000Z</time>
      </trkpt>
      <trkpt lat="47.25471" lon="-2.26319">
        <ele>19.39999961853</ele>
        <time>2022-09-04T08:26:04.000Z</time>
      </trkpt>
      <trkpt lat="47.25472" lon="-2.26322">
        <ele>19.799999237061</ele>
        <time>2022-09-04T08:26:05.000Z</time>
      </trkpt>
      <trkpt lat="47.25472" lon="-2.26324">
        <ele>20.200000762939</ele>
        <time>2022-09-04T08:26:06.000Z</time>
      </trkpt>
      <trkpt lat="47.25473" lon="-2.26325">
        <ele>20.60000038147</ele>
        <time>2022-09-04T08:26:07.000Z</time>
      </trkpt>
      <trkpt lat="47.25472" lon="-2.26328">
        <ele>20.60000038147</ele>
        <time>2022-09-04T08:26:08.000Z</time>
      </trkpt>
      <trkpt lat="47.25473" lon="-2.26339">
        <ele>20.60000038147</ele>
        <time>2022-09-04T08:26:11.000Z</time>
      </trkpt>
      <trkpt lat="47.25473" lon="-2.26355">
        <ele>20.60000038147</ele>
        <time>2022-09-04T08:26:15.000Z</time>
      </trkpt>
      <trkpt lat="47.25473" lon="-2.26359">
        <ele>20.60000038147</ele>
        <time>2022-09-04T08:26:16.000Z</time>
      </trkpt>
      <trkpt lat="47.25477" lon="-2.26375">
        <ele>20.60000038147</ele>
        <time>2022-09-04T08:26:20.000Z</time>
      </trkpt>
      <trkpt lat="47.25483" lon="-2.26385">
        <ele>21</ele>
        <time>2022-09-04T08:26:24.000Z</time>
      </trkpt>
      <trkpt lat="47.25484" lon="-2.26388">
        <ele>21.60000038147</ele>
        <time>2022-09-04T08:26:25.000Z</time>
      </trkpt>
      <trkpt lat="47.25485" lon="-2.26392">
        <ele>22</ele>
        <time>2022-09-04T08:26:26.000Z</time>
      </trkpt>
      <trkpt lat="47.25486" lon="-2.26395">
        <ele>22.39999961853</ele>
        <time>2022-09-04T08:26:27.000Z</time>
      </trkpt>
      <trkpt lat="47.25487" lon="-2.26397">
        <ele>22.799999237061</ele>
        <time>2022-09-04T08:26:28.000Z</time>
      </trkpt>
      <trkpt lat="47.25488" lon="-2.26409">
        <ele>22.799999237061</ele>
        <time>2022-09-04T08:26:32.000Z</time>
      </trkpt>
      <trkpt lat="47.25485" lon="-2.2643">
        <ele>22.799999237061</ele>
        <time>2022-09-04T08:26:38.000Z</time>
      </trkpt>
      <trkpt lat="47.2548" lon="-2.26444">
        <ele>22.799999237061</ele>
        <time>2022-09-04T08:26:45.000Z</time>
      </trkpt>
      <trkpt lat="47.2548" lon="-2.26453">
        <ele>22.799999237061</ele>
        <time>2022-09-04T08:26:52.000Z</time>
      </trkpt>
      <trkpt lat="47.2548" lon="-2.26462">
        <ele>22.799999237061</ele>
        <time>2022-09-04T08:26:55.000Z</time>
      </trkpt>
      <trkpt lat="47.25479" lon="-2.26476">
        <ele>22.799999237061</ele>
        <time>2022-09-04T08:27:00.000Z</time>
      </trkpt>
      <trkpt lat="47.25477" lon="-2.26477">
        <ele>22.799999237061</ele>
        <time>2022-09-04T08:27:02.000Z</time>
      </trkpt>
      <trkpt lat="47.25475" lon="-2.26477">
        <ele>22.799999237061</ele>
        <time>2022-09-04T08:27:04.000Z</time>
      </trkpt>
      <trkpt lat="47.25474" lon="-2.26476">
        <ele>22.799999237061</ele>
        <time>2022-09-04T08:27:05.000Z</time>
      </trkpt>
      <trkpt lat="47.25467" lon="-2.2647">
        <ele>22.799999237061</ele>
        <time>2022-09-04T08:27:10.000Z</time>
      </trkpt>
      <trkpt lat="47.25467" lon="-2.26465">
        <ele>22.799999237061</ele>
        <time>2022-09-04T08:27:13.000Z</time>
      </trkpt>
      <trkpt lat="47.25466" lon="-2.26462">
        <ele>22.799999237061</ele>
        <time>2022-09-04T08:27:15.000Z</time>
      </trkpt>
      <trkpt lat="47.25465" lon="-2.26461">
        <ele>22.799999237061</ele>
        <time>2022-09-04T08:27:17.000Z</time>
      </trkpt>
      <trkpt lat="47.25454" lon="-2.2646">
        <ele>18.60000038147</ele>
        <time>2022-09-04T08:27:49.000Z</time>
      </trkpt>
      <trkpt lat="47.25455" lon="-2.26463">
        <ele>18.60000038147</ele>
        <time>2022-09-04T08:27:50.000Z</time>
      </trkpt>
      <trkpt lat="47.2546" lon="-2.26474">
        <ele>18.60000038147</ele>
        <time>2022-09-04T08:27:54.000Z</time>
      </trkpt>
      <trkpt lat="47.25462" lon="-2.26477">
        <ele>18.60000038147</ele>
        <time>2022-09-04T08:27:55.000Z</time>
      </trkpt>
      <trkpt lat="47.2547" lon="-2.26495">
        <ele>18.60000038147</ele>
        <time>2022-09-04T08:28:01.000Z</time>
      </trkpt>
      <trkpt lat="47.25474" lon="-2.26505">
        <ele>19</ele>
        <time>2022-09-04T08:28:04.000Z</time>
      </trkpt>
      <trkpt lat="47.25475" lon="-2.26507">
        <ele>19.39999961853</ele>
        <time>2022-09-04T08:28:05.000Z</time>
      </trkpt>
      <trkpt lat="47.25476" lon="-2.2651">
        <ele>20.39999961853</ele>
        <time>2022-09-04T08:28:06.000Z</time>
      </trkpt>
      <trkpt lat="47.25476" lon="-2.26514">
        <ele>20.799999237061</ele>
        <time>2022-09-04T08:28:07.000Z</time>
      </trkpt>
      <trkpt lat="47.25477" lon="-2.26516">
        <ele>20.799999237061</ele>
        <time>2022-09-04T08:28:08.000Z</time>
      </trkpt>
      <trkpt lat="47.2548" lon="-2.26544">
        <ele>20.799999237061</ele>
        <time>2022-09-04T08:28:14.000Z</time>
      </trkpt>
      <trkpt lat="47.25481" lon="-2.26548">
        <ele>21.200000762939</ele>
        <time>2022-09-04T08:28:15.000Z</time>
      </trkpt>
      <trkpt lat="47.25482" lon="-2.26552">
        <ele>21.60000038147</ele>
        <time>2022-09-04T08:28:16.000Z</time>
      </trkpt>
      <trkpt lat="47.25484" lon="-2.26556">
        <ele>22</ele>
        <time>2022-09-04T08:28:17.000Z</time>
      </trkpt>
      <trkpt lat="47.25487" lon="-2.26558">
        <ele>22.39999961853</ele>
        <time>2022-09-04T08:28:18.000Z</time>
      </trkpt>
      <trkpt lat="47.2549" lon="-2.2656">
        <ele>22.799999237061</ele>
        <time>2022-09-04T08:28:19.000Z</time>
      </trkpt>
      <trkpt lat="47.25494" lon="-2.2656">
        <ele>22.799999237061</ele>
        <time>2022-09-04T08:28:21.000Z</time>
      </trkpt>
      <trkpt lat="47.25495" lon="-2.2656">
        <ele>23.200000762939</ele>
        <time>2022-09-04T08:28:22.000Z</time>
      </trkpt>
      <trkpt lat="47.25497" lon="-2.26561">
        <ele>23.60000038147</ele>
        <time>2022-09-04T08:28:23.000Z</time>
      </trkpt>
      <trkpt lat="47.25497" lon="-2.26563">
        <ele>24</ele>
        <time>2022-09-04T08:28:24.000Z</time>
      </trkpt>
      <trkpt lat="47.25498" lon="-2.26566">
        <ele>24.39999961853</ele>
        <time>2022-09-04T08:28:25.000Z</time>
      </trkpt>
      <trkpt lat="47.25499" lon="-2.26568">
        <ele>24.799999237061</ele>
        <time>2022-09-04T08:28:26.000Z</time>
      </trkpt>
      <trkpt lat="47.255" lon="-2.2657">
        <ele>24.799999237061</ele>
        <time>2022-09-04T08:28:27.000Z</time>
      </trkpt>
      <trkpt lat="47.25502" lon="-2.26589">
        <ele>24.799999237061</ele>
        <time>2022-09-04T08:28:33.000Z</time>
      </trkpt>
      <trkpt lat="47.25502" lon="-2.26595">
        <ele>25.200000762939</ele>
        <time>2022-09-04T08:28:35.000Z</time>
      </trkpt>
      <trkpt lat="47.25502" lon="-2.26597">
        <ele>25.60000038147</ele>
        <time>2022-09-04T08:28:36.000Z</time>
      </trkpt>
      <trkpt lat="47.25503" lon="-2.26599">
        <ele>26.200000762939</ele>
        <time>2022-09-04T08:28:37.000Z</time>
      </trkpt>
      <trkpt lat="47.25503" lon="-2.26601">
        <ele>26.60000038147</ele>
        <time>2022-09-04T08:28:38.000Z</time>
      </trkpt>
      <trkpt lat="47.25502" lon="-2.26603">
        <ele>27</ele>
        <time>2022-09-04T08:28:39.000Z</time>
      </trkpt>
      <trkpt lat="47.25502" lon="-2.26605">
        <ele>27</ele>
        <time>2022-09-04T08:28:40.000Z</time>
      </trkpt>
      <trkpt lat="47.25501" lon="-2.26611">
        <ele>27</ele>
        <time>2022-09-04T08:28:45.000Z</time>
      </trkpt>
      <trkpt lat="47.25501" lon="-2.26622">
        <ele>27</ele>
        <time>2022-09-04T08:44:21.000Z</time>
      </trkpt>
      <trkpt lat="47.25493" lon="-2.26637">
        <ele>27</ele>
        <time>2022-09-04T08:44:26.000Z</time>
      </trkpt>
      <trkpt lat="47.25491" lon="-2.26641">
        <ele>26.60000038147</ele>
        <time>2022-09-04T08:44:27.000Z</time>
      </trkpt>
      <trkpt lat="47.25489" lon="-2.26645">
        <ele>26.200000762939</ele>
        <time>2022-09-04T08:44:28.000Z</time>
      </trkpt>
      <trkpt lat="47.25487" lon="-2.2665">
        <ele>25.799999237061</ele>
        <time>2022-09-04T08:44:29.000Z</time>
      </trkpt>
      <trkpt lat="47.25487" lon="-2.26655">
        <ele>25.39999961853</ele>
        <time>2022-09-04T08:44:30.000Z</time>
      </trkpt>
      <trkpt lat="47.25486" lon="-2.26659">
        <ele>25</ele>
        <time>2022-09-04T08:44:31.000Z</time>
      </trkpt>
      <trkpt lat="47.25486" lon="-2.26672">
        <ele>25</ele>
        <time>2022-09-04T08:44:35.000Z</time>
      </trkpt>
      <trkpt lat="47.25484" lon="-2.26688">
        <ele>25</ele>
        <time>2022-09-04T08:44:40.000Z</time>
      </trkpt>
      <trkpt lat="47.25479" lon="-2.26708">
        <ele>25</ele>
        <time>2022-09-04T08:44:45.000Z</time>
      </trkpt>
      <trkpt lat="47.25479" lon="-2.26713">
        <ele>25</ele>
        <time>2022-09-04T08:44:46.000Z</time>
      </trkpt>
      <trkpt lat="47.25479" lon="-2.26723">
        <ele>25</ele>
        <time>2022-09-04T08:44:48.000Z</time>
      </trkpt>
      <trkpt lat="47.25483" lon="-2.26743">
        <ele>25</ele>
        <time>2022-09-04T08:44:52.000Z</time>
      </trkpt>
      <trkpt lat="47.25493" lon="-2.26766">
        <ele>25</ele>
        <time>2022-09-04T08:44:57.000Z</time>
      </trkpt>
      <trkpt lat="47.25509" lon="-2.26791">
        <ele>25.39999961853</ele>
        <time>2022-09-04T08:45:03.000Z</time>
      </trkpt>
      <trkpt lat="47.25512" lon="-2.26794">
        <ele>25.799999237061</ele>
        <time>2022-09-04T08:45:04.000Z</time>
      </trkpt>
      <trkpt lat="47.25514" lon="-2.26798">
        <ele>26.200000762939</ele>
        <time>2022-09-04T08:45:05.000Z</time>
      </trkpt>
      <trkpt lat="47.25516" lon="-2.26801">
        <ele>26.60000038147</ele>
        <time>2022-09-04T08:45:06.000Z</time>
      </trkpt>
      <trkpt lat="47.25519" lon="-2.26805">
        <ele>27</ele>
        <time>2022-09-04T08:45:07.000Z</time>
      </trkpt>
      <trkpt lat="47.25526" lon="-2.26815">
        <ele>27</ele>
        <time>2022-09-04T08:45:10.000Z</time>
      </trkpt>
      <trkpt lat="47.25548" lon="-2.26835">
        <ele>27</ele>
        <time>2022-09-04T08:45:17.000Z</time>
      </trkpt>
      <trkpt lat="47.25559" lon="-2.26845">
        <ele>27.39999961853</ele>
        <time>2022-09-04T08:45:20.000Z</time>
      </trkpt>
      <trkpt lat="47.25562" lon="-2.26848">
        <ele>27.799999237061</ele>
        <time>2022-09-04T08:45:21.000Z</time>
      </trkpt>
      <trkpt lat="47.25566" lon="-2.26852">
        <ele>28.60000038147</ele>
        <time>2022-09-04T08:45:22.000Z</time>
      </trkpt>
      <trkpt lat="47.25569" lon="-2.26853">
        <ele>29</ele>
        <time>2022-09-04T08:45:23.000Z</time>
      </trkpt>
      <trkpt lat="47.25583" lon="-2.2686">
        <ele>29</ele>
        <time>2022-09-04T08:45:27.000Z</time>
      </trkpt>
      <trkpt lat="47.2559" lon="-2.26864">
        <ele>29.60000038147</ele>
        <time>2022-09-04T08:45:29.000Z</time>
      </trkpt>
      <trkpt lat="47.25593" lon="-2.26866">
        <ele>30</ele>
        <time>2022-09-04T08:45:30.000Z</time>
      </trkpt>
      <trkpt lat="47.25596" lon="-2.26868">
        <ele>30.39999961853</ele>
        <time>2022-09-04T08:45:31.000Z</time>
      </trkpt>
      <trkpt lat="47.256" lon="-2.26869">
        <ele>30.799999237061</ele>
        <time>2022-09-04T08:45:32.000Z</time>
      </trkpt>
      <trkpt lat="47.25603" lon="-2.2687">
        <ele>31.39999961853</ele>
        <time>2022-09-04T08:45:33.000Z</time>
      </trkpt>
      <trkpt lat="47.25613" lon="-2.26874">
        <ele>31.39999961853</ele>
        <time>2022-09-04T08:45:36.000Z</time>
      </trkpt>
      <trkpt lat="47.25624" lon="-2.26874">
        <ele>31.799999237061</ele>
        <time>2022-09-04T08:45:40.000Z</time>
      </trkpt>
      <trkpt lat="47.25625" lon="-2.26871">
        <ele>32.200000762939</ele>
        <time>2022-09-04T08:45:41.000Z</time>
      </trkpt>
      <trkpt lat="47.25627" lon="-2.26866">
        <ele>32.599998474121</ele>
        <time>2022-09-04T08:45:42.000Z</time>
      </trkpt>
      <trkpt lat="47.25629" lon="-2.26861">
        <ele>33</ele>
        <time>2022-09-04T08:45:43.000Z</time>
      </trkpt>
      <trkpt lat="47.25631" lon="-2.26856">
        <ele>33.400001525879</ele>
        <time>2022-09-04T08:45:44.000Z</time>
      </trkpt>
      <trkpt lat="47.2564" lon="-2.26843">
        <ele>33.400001525879</ele>
        <time>2022-09-04T08:45:47.000Z</time>
      </trkpt>
      <trkpt lat="47.25643" lon="-2.26838">
        <ele>33.400001525879</ele>
        <time>2022-09-04T08:45:48.000Z</time>
      </trkpt>
      <trkpt lat="47.25646" lon="-2.26835">
        <ele>33.400001525879</ele>
        <time>2022-09-04T08:45:49.000Z</time>
      </trkpt>
      <trkpt lat="47.25658" lon="-2.26825">
        <ele>33.400001525879</ele>
        <time>2022-09-04T08:45:52.000Z</time>
      </trkpt>
      <trkpt lat="47.25671" lon="-2.26817">
        <ele>33.400001525879</ele>
        <time>2022-09-04T08:45:55.000Z</time>
      </trkpt>
      <trkpt lat="47.25683" lon="-2.26814">
        <ele>33.400001525879</ele>
        <time>2022-09-04T08:45:58.000Z</time>
      </trkpt>
      <trkpt lat="47.25688" lon="-2.26815">
        <ele>33.400001525879</ele>
        <time>2022-09-04T08:45:59.000Z</time>
      </trkpt>
      <trkpt lat="47.25721" lon="-2.26831">
        <ele>33.400001525879</ele>
        <time>2022-09-04T08:46:06.000Z</time>
      </trkpt>
      <trkpt lat="47.25729" lon="-2.26839">
        <ele>33.400001525879</ele>
        <time>2022-09-04T08:46:08.000Z</time>
      </trkpt>
      <trkpt lat="47.25738" lon="-2.26854">
        <ele>33.400001525879</ele>
        <time>2022-09-04T08:46:11.000Z</time>
      </trkpt>
      <trkpt lat="47.2574" lon="-2.2686">
        <ele>33.400001525879</ele>
        <time>2022-09-04T08:46:12.000Z</time>
      </trkpt>
      <trkpt lat="47.25748" lon="-2.26886">
        <ele>33.400001525879</ele>
        <time>2022-09-04T08:46:17.000Z</time>
      </trkpt>
      <trkpt lat="47.2575" lon="-2.26895">
        <ele>33.400001525879</ele>
        <time>2022-09-04T08:46:19.000Z</time>
      </trkpt>
      <trkpt lat="47.25756" lon="-2.26899">
        <ele>33.400001525879</ele>
        <time>2022-09-04T08:46:21.000Z</time>
      </trkpt>
      <trkpt lat="47.25771" lon="-2.26895">
        <ele>33.400001525879</ele>
        <time>2022-09-04T08:46:25.000Z</time>
      </trkpt>
      <trkpt lat="47.2578" lon="-2.26891">
        <ele>33.400001525879</ele>
        <time>2022-09-04T08:46:27.000Z</time>
      </trkpt>
      <trkpt lat="47.25797" lon="-2.26884">
        <ele>33.400001525879</ele>
        <time>2022-09-04T08:46:31.000Z</time>
      </trkpt>
      <trkpt lat="47.2583" lon="-2.26867">
        <ele>33.400001525879</ele>
        <time>2022-09-04T08:46:38.000Z</time>
      </trkpt>
      <trkpt lat="47.2585" lon="-2.26858">
        <ele>33</ele>
        <time>2022-09-04T08:46:42.000Z</time>
      </trkpt>
      <trkpt lat="47.25855" lon="-2.26856">
        <ele>32.599998474121</ele>
        <time>2022-09-04T08:46:43.000Z</time>
      </trkpt>
      <trkpt lat="47.2586" lon="-2.26854">
        <ele>32</ele>
        <time>2022-09-04T08:46:44.000Z</time>
      </trkpt>
      <trkpt lat="47.25864" lon="-2.26852">
        <ele>31.60000038147</ele>
        <time>2022-09-04T08:46:45.000Z</time>
      </trkpt>
      <trkpt lat="47.2587" lon="-2.2685">
        <ele>31.200000762939</ele>
        <time>2022-09-04T08:46:46.000Z</time>
      </trkpt>
      <trkpt lat="47.25891" lon="-2.2684">
        <ele>31.200000762939</ele>
        <time>2022-09-04T08:46:50.000Z</time>
      </trkpt>
      <trkpt lat="47.25925" lon="-2.2682">
        <ele>30.799999237061</ele>
        <time>2022-09-04T08:46:56.000Z</time>
      </trkpt>
      <trkpt lat="47.25932" lon="-2.26818">
        <ele>30.39999961853</ele>
        <time>2022-09-04T08:46:57.000Z</time>
      </trkpt>
      <trkpt lat="47.25938" lon="-2.26818">
        <ele>30</ele>
        <time>2022-09-04T08:46:58.000Z</time>
      </trkpt>
      <trkpt lat="47.25945" lon="-2.26817">
        <ele>29.60000038147</ele>
        <time>2022-09-04T08:46:59.000Z</time>
      </trkpt>
      <trkpt lat="47.25952" lon="-2.26815">
        <ele>29.200000762939</ele>
        <time>2022-09-04T08:47:00.000Z</time>
      </trkpt>
      <trkpt lat="47.25964" lon="-2.26811">
        <ele>29.200000762939</ele>
        <time>2022-09-04T08:47:02.000Z</time>
      </trkpt>
      <trkpt lat="47.25977" lon="-2.26809">
        <ele>29.200000762939</ele>
        <time>2022-09-04T08:47:04.000Z</time>
      </trkpt>
      <trkpt lat="47.25981" lon="-2.26813">
        <ele>29.200000762939</ele>
        <time>2022-09-04T08:47:05.000Z</time>
      </trkpt>
      <trkpt lat="47.2599" lon="-2.26831">
        <ele>29.200000762939</ele>
        <time>2022-09-04T08:47:08.000Z</time>
      </trkpt>
      <trkpt lat="47.2599" lon="-2.26861">
        <ele>29.200000762939</ele>
        <time>2022-09-04T08:47:12.000Z</time>
      </trkpt>
      <trkpt lat="47.25992" lon="-2.26879">
        <ele>29.200000762939</ele>
        <time>2022-09-04T08:47:14.000Z</time>
      </trkpt>
      <trkpt lat="47.25993" lon="-2.26887">
        <ele>29.200000762939</ele>
        <time>2022-09-04T08:47:15.000Z</time>
      </trkpt>
      <trkpt lat="47.25999" lon="-2.26903">
        <ele>29.200000762939</ele>
        <time>2022-09-04T08:47:17.000Z</time>
      </trkpt>
      <trkpt lat="47.2602" lon="-2.2694">
        <ele>29.200000762939</ele>
        <time>2022-09-04T08:47:23.000Z</time>
      </trkpt>
      <trkpt lat="47.26028" lon="-2.26949">
        <ele>29.200000762939</ele>
        <time>2022-09-04T08:47:25.000Z</time>
      </trkpt>
      <trkpt lat="47.26039" lon="-2.26962">
        <ele>29.200000762939</ele>
        <time>2022-09-04T08:47:28.000Z</time>
      </trkpt>
      <trkpt lat="47.26051" lon="-2.26979">
        <ele>29.200000762939</ele>
        <time>2022-09-04T08:47:31.000Z</time>
      </trkpt>
      <trkpt lat="47.26054" lon="-2.26985">
        <ele>29.200000762939</ele>
        <time>2022-09-04T08:47:32.000Z</time>
      </trkpt>
      <trkpt lat="47.26068" lon="-2.27022">
        <ele>29.200000762939</ele>
        <time>2022-09-04T08:47:37.000Z</time>
      </trkpt>
      <trkpt lat="47.26083" lon="-2.27078">
        <ele>29.200000762939</ele>
        <time>2022-09-04T08:47:44.000Z</time>
      </trkpt>
      <trkpt lat="47.26094" lon="-2.27128">
        <ele>29.200000762939</ele>
        <time>2022-09-04T08:47:50.000Z</time>
      </trkpt>
      <trkpt lat="47.26114" lon="-2.27188">
        <ele>29.200000762939</ele>
        <time>2022-09-04T08:47:57.000Z</time>
      </trkpt>
      <trkpt lat="47.26131" lon="-2.27234">
        <ele>29.200000762939</ele>
        <time>2022-09-04T08:48:04.000Z</time>
      </trkpt>
      <trkpt lat="47.26145" lon="-2.2729">
        <ele>29.200000762939</ele>
        <time>2022-09-04T08:48:11.000Z</time>
      </trkpt>
      <trkpt lat="47.26148" lon="-2.27305">
        <ele>29.200000762939</ele>
        <time>2022-09-04T08:48:13.000Z</time>
      </trkpt>
      <trkpt lat="47.26155" lon="-2.27315">
        <ele>29.200000762939</ele>
        <time>2022-09-04T08:48:15.000Z</time>
      </trkpt>
      <trkpt lat="47.2617" lon="-2.27317">
        <ele>29.200000762939</ele>
        <time>2022-09-04T08:48:18.000Z</time>
      </trkpt>
      <trkpt lat="47.26181" lon="-2.27315">
        <ele>29.200000762939</ele>
        <time>2022-09-04T08:48:20.000Z</time>
      </trkpt>
      <trkpt lat="47.26199" lon="-2.27311">
        <ele>29.200000762939</ele>
        <time>2022-09-04T08:48:23.000Z</time>
      </trkpt>
      <trkpt lat="47.26205" lon="-2.27311">
        <ele>29.200000762939</ele>
        <time>2022-09-04T08:48:24.000Z</time>
      </trkpt>
      <trkpt lat="47.26235" lon="-2.27317">
        <ele>29.200000762939</ele>
        <time>2022-09-04T08:48:29.000Z</time>
      </trkpt>
      <trkpt lat="47.26241" lon="-2.27319">
        <ele>29.200000762939</ele>
        <time>2022-09-04T08:48:30.000Z</time>
      </trkpt>
      <trkpt lat="47.26253" lon="-2.2732">
        <ele>29.200000762939</ele>
        <time>2022-09-04T08:48:32.000Z</time>
      </trkpt>
      <trkpt lat="47.26266" lon="-2.27321">
        <ele>28.799999237061</ele>
        <time>2022-09-04T08:48:34.000Z</time>
      </trkpt>
      <trkpt lat="47.26273" lon="-2.27321">
        <ele>28.39999961853</ele>
        <time>2022-09-04T08:48:35.000Z</time>
      </trkpt>
      <trkpt lat="47.2628" lon="-2.27322">
        <ele>28</ele>
        <time>2022-09-04T08:48:36.000Z</time>
      </trkpt>
      <trkpt lat="47.26287" lon="-2.27323">
        <ele>27.60000038147</ele>
        <time>2022-09-04T08:48:37.000Z</time>
      </trkpt>
      <trkpt lat="47.26295" lon="-2.27324">
        <ele>27.200000762939</ele>
        <time>2022-09-04T08:48:38.000Z</time>
      </trkpt>
      <trkpt lat="47.2631" lon="-2.27327">
        <ele>27.200000762939</ele>
        <time>2022-09-04T08:48:40.000Z</time>
      </trkpt>
      <trkpt lat="47.26317" lon="-2.27327">
        <ele>27.200000762939</ele>
        <time>2022-09-04T08:48:41.000Z</time>
      </trkpt>
      <trkpt lat="47.26353" lon="-2.27331">
        <ele>27.200000762939</ele>
        <time>2022-09-04T08:48:46.000Z</time>
      </trkpt>
      <trkpt lat="47.26396" lon="-2.2733">
        <ele>27.200000762939</ele>
        <time>2022-09-04T08:48:52.000Z</time>
      </trkpt>
      <trkpt lat="47.26403" lon="-2.27331">
        <ele>27.200000762939</ele>
        <time>2022-09-04T08:48:53.000Z</time>
      </trkpt>
      <trkpt lat="47.26418" lon="-2.27334">
        <ele>26.799999237061</ele>
        <time>2022-09-04T08:48:55.000Z</time>
      </trkpt>
      <trkpt lat="47.26424" lon="-2.27338">
        <ele>26.39999961853</ele>
        <time>2022-09-04T08:48:56.000Z</time>
      </trkpt>
      <trkpt lat="47.2643" lon="-2.27344">
        <ele>26</ele>
        <time>2022-09-04T08:48:57.000Z</time>
      </trkpt>
      <trkpt lat="47.26434" lon="-2.27352">
        <ele>25.39999961853</ele>
        <time>2022-09-04T08:48:58.000Z</time>
      </trkpt>
      <trkpt lat="47.26437" lon="-2.27361">
        <ele>25</ele>
        <time>2022-09-04T08:48:59.000Z</time>
      </trkpt>
      <trkpt lat="47.2644" lon="-2.27369">
        <ele>25</ele>
        <time>2022-09-04T08:49:00.000Z</time>
      </trkpt>
      <trkpt lat="47.26448" lon="-2.27396">
        <ele>25</ele>
        <time>2022-09-04T08:49:03.000Z</time>
      </trkpt>
      <trkpt lat="47.26459" lon="-2.27433">
        <ele>24.60000038147</ele>
        <time>2022-09-04T08:49:07.000Z</time>
      </trkpt>
      <trkpt lat="47.26462" lon="-2.27442">
        <ele>24.200000762939</ele>
        <time>2022-09-04T08:49:08.000Z</time>
      </trkpt>
      <trkpt lat="47.26464" lon="-2.27452">
        <ele>23.799999237061</ele>
        <time>2022-09-04T08:49:09.000Z</time>
      </trkpt>
      <trkpt lat="47.26467" lon="-2.27461">
        <ele>23.39999961853</ele>
        <time>2022-09-04T08:49:10.000Z</time>
      </trkpt>
      <trkpt lat="47.2647" lon="-2.2747">
        <ele>23</ele>
        <time>2022-09-04T08:49:11.000Z</time>
      </trkpt>
      <trkpt lat="47.26481" lon="-2.27508">
        <ele>23</ele>
        <time>2022-09-04T08:49:15.000Z</time>
      </trkpt>
      <trkpt lat="47.26485" lon="-2.27528">
        <ele>23</ele>
        <time>2022-09-04T08:49:17.000Z</time>
      </trkpt>
      <trkpt lat="47.26486" lon="-2.27538">
        <ele>22.39999961853</ele>
        <time>2022-09-04T08:49:18.000Z</time>
      </trkpt>
      <trkpt lat="47.26487" lon="-2.27548">
        <ele>22</ele>
        <time>2022-09-04T08:49:19.000Z</time>
      </trkpt>
      <trkpt lat="47.26489" lon="-2.27558">
        <ele>21.60000038147</ele>
        <time>2022-09-04T08:49:20.000Z</time>
      </trkpt>
      <trkpt lat="47.26491" lon="-2.27566">
        <ele>21.200000762939</ele>
        <time>2022-09-04T08:49:21.000Z</time>
      </trkpt>
      <trkpt lat="47.26495" lon="-2.27573">
        <ele>20.799999237061</ele>
        <time>2022-09-04T08:49:22.000Z</time>
      </trkpt>
      <trkpt lat="47.26504" lon="-2.27578">
        <ele>20.799999237061</ele>
        <time>2022-09-04T08:49:24.000Z</time>
      </trkpt>
      <trkpt lat="47.26522" lon="-2.27577">
        <ele>20.799999237061</ele>
        <time>2022-09-04T08:49:27.000Z</time>
      </trkpt>
      <trkpt lat="47.26536" lon="-2.2758">
        <ele>20.799999237061</ele>
        <time>2022-09-04T08:49:29.000Z</time>
      </trkpt>
      <trkpt lat="47.26557" lon="-2.27582">
        <ele>20.799999237061</ele>
        <time>2022-09-04T08:49:32.000Z</time>
      </trkpt>
      <trkpt lat="47.26585" lon="-2.27586">
        <ele>20.799999237061</ele>
        <time>2022-09-04T08:49:36.000Z</time>
      </trkpt>
      <trkpt lat="47.26598" lon="-2.27592">
        <ele>20.799999237061</ele>
        <time>2022-09-04T08:49:38.000Z</time>
      </trkpt>
      <trkpt lat="47.26632" lon="-2.27608">
        <ele>20.799999237061</ele>
        <time>2022-09-04T08:49:44.000Z</time>
      </trkpt>
      <trkpt lat="47.26649" lon="-2.27616">
        <ele>20.799999237061</ele>
        <time>2022-09-04T08:49:47.000Z</time>
      </trkpt>
      <trkpt lat="47.26667" lon="-2.27623">
        <ele>20.799999237061</ele>
        <time>2022-09-04T08:49:50.000Z</time>
      </trkpt>
      <trkpt lat="47.26694" lon="-2.27633">
        <ele>20.39999961853</ele>
        <time>2022-09-04T08:49:55.000Z</time>
      </trkpt>
      <trkpt lat="47.26699" lon="-2.27636">
        <ele>20</ele>
        <time>2022-09-04T08:49:56.000Z</time>
      </trkpt>
      <trkpt lat="47.26704" lon="-2.27638">
        <ele>19.60000038147</ele>
        <time>2022-09-04T08:49:57.000Z</time>
      </trkpt>
      <trkpt lat="47.26709" lon="-2.2764">
        <ele>19.200000762939</ele>
        <time>2022-09-04T08:49:58.000Z</time>
      </trkpt>
      <trkpt lat="47.26714" lon="-2.27641">
        <ele>18.799999237061</ele>
        <time>2022-09-04T08:49:59.000Z</time>
      </trkpt>
      <trkpt lat="47.26724" lon="-2.27643">
        <ele>18.799999237061</ele>
        <time>2022-09-04T08:50:01.000Z</time>
      </trkpt>
      <trkpt lat="47.26728" lon="-2.27644">
        <ele>18.799999237061</ele>
        <time>2022-09-04T08:50:02.000Z</time>
      </trkpt>
      <trkpt lat="47.26748" lon="-2.27651">
        <ele>18.799999237061</ele>
        <time>2022-09-04T08:50:06.000Z</time>
      </trkpt>
      <trkpt lat="47.26752" lon="-2.27652">
        <ele>18.799999237061</ele>
        <time>2022-09-04T08:50:07.000Z</time>
      </trkpt>
      <trkpt lat="47.26762" lon="-2.27644">
        <ele>18.799999237061</ele>
        <time>2022-09-04T08:50:10.000Z</time>
      </trkpt>
      <trkpt lat="47.26762" lon="-2.27626">
        <ele>18.799999237061</ele>
        <time>2022-09-04T08:50:13.000Z</time>
      </trkpt>
      <trkpt lat="47.26757" lon="-2.27587">
        <ele>18.799999237061</ele>
        <time>2022-09-04T08:50:18.000Z</time>
      </trkpt>
      <trkpt lat="47.26754" lon="-2.27537">
        <ele>18.799999237061</ele>
        <time>2022-09-04T08:50:24.000Z</time>
      </trkpt>
      <trkpt lat="47.26754" lon="-2.27522">
        <ele>19.200000762939</ele>
        <time>2022-09-04T08:50:26.000Z</time>
      </trkpt>
      <trkpt lat="47.26753" lon="-2.27514">
        <ele>19.60000038147</ele>
        <time>2022-09-04T08:50:27.000Z</time>
      </trkpt>
      <trkpt lat="47.26753" lon="-2.27506">
        <ele>20</ele>
        <time>2022-09-04T08:50:28.000Z</time>
      </trkpt>
      <trkpt lat="47.26753" lon="-2.27497">
        <ele>20.60000038147</ele>
        <time>2022-09-04T08:50:29.000Z</time>
      </trkpt>
      <trkpt lat="47.26753" lon="-2.2749">
        <ele>21</ele>
        <time>2022-09-04T08:50:30.000Z</time>
      </trkpt>
      <trkpt lat="47.26753" lon="-2.27474">
        <ele>21</ele>
        <time>2022-09-04T08:50:32.000Z</time>
      </trkpt>
      <trkpt lat="47.26753" lon="-2.2742">
        <ele>21</ele>
        <time>2022-09-04T08:50:39.000Z</time>
      </trkpt>
      <trkpt lat="47.2676" lon="-2.27414">
        <ele>21</ele>
        <time>2022-09-04T08:50:41.000Z</time>
      </trkpt>
      <trkpt lat="47.26778" lon="-2.27414">
        <ele>21</ele>
        <time>2022-09-04T08:50:45.000Z</time>
      </trkpt>
      <trkpt lat="47.26824" lon="-2.27412">
        <ele>21</ele>
        <time>2022-09-04T08:50:54.000Z</time>
      </trkpt>
      <trkpt lat="47.26833" lon="-2.2741">
        <ele>20.60000038147</ele>
        <time>2022-09-04T08:50:56.000Z</time>
      </trkpt>
      <trkpt lat="47.26838" lon="-2.27409">
        <ele>20</ele>
        <time>2022-09-04T08:50:57.000Z</time>
      </trkpt>
      <trkpt lat="47.26841" lon="-2.27407">
        <ele>19.60000038147</ele>
        <time>2022-09-04T08:50:58.000Z</time>
      </trkpt>
      <trkpt lat="47.26846" lon="-2.27405">
        <ele>19.200000762939</ele>
        <time>2022-09-04T08:50:59.000Z</time>
      </trkpt>
      <trkpt lat="47.2685" lon="-2.27402">
        <ele>18.799999237061</ele>
        <time>2022-09-04T08:51:00.000Z</time>
      </trkpt>
      <trkpt lat="47.26871" lon="-2.27391">
        <ele>18.799999237061</ele>
        <time>2022-09-04T08:51:05.000Z</time>
      </trkpt>
      <trkpt lat="47.26876" lon="-2.27388">
        <ele>18.39999961853</ele>
        <time>2022-09-04T08:51:06.000Z</time>
      </trkpt>
      <trkpt lat="47.2688" lon="-2.27385">
        <ele>18</ele>
        <time>2022-09-04T08:51:07.000Z</time>
      </trkpt>
      <trkpt lat="47.26885" lon="-2.27383">
        <ele>17.60000038147</ele>
        <time>2022-09-04T08:51:08.000Z</time>
      </trkpt>
      <trkpt lat="47.2689" lon="-2.2738">
        <ele>16.799999237061</ele>
        <time>2022-09-04T08:51:09.000Z</time>
      </trkpt>
      <trkpt lat="47.26898" lon="-2.27374">
        <ele>16.799999237061</ele>
        <time>2022-09-04T08:51:11.000Z</time>
      </trkpt>
      <trkpt lat="47.26907" lon="-2.27353">
        <ele>16.799999237061</ele>
        <time>2022-09-04T08:51:16.000Z</time>
      </trkpt>
      <trkpt lat="47.26908" lon="-2.27349">
        <ele>16.799999237061</ele>
        <time>2022-09-04T08:51:17.000Z</time>
      </trkpt>
      <trkpt lat="47.26911" lon="-2.27343">
        <ele>16.799999237061</ele>
        <time>2022-09-04T08:51:19.000Z</time>
      </trkpt>
      <trkpt lat="47.26913" lon="-2.27338">
        <ele>16.799999237061</ele>
        <time>2022-09-04T08:51:20.000Z</time>
      </trkpt>
      <trkpt lat="47.26916" lon="-2.27329">
        <ele>16.39999961853</ele>
        <time>2022-09-04T08:51:22.000Z</time>
      </trkpt>
      <trkpt lat="47.26918" lon="-2.27325">
        <ele>16</ele>
        <time>2022-09-04T08:51:23.000Z</time>
      </trkpt>
      <trkpt lat="47.26918" lon="-2.27322">
        <ele>15.60000038147</ele>
        <time>2022-09-04T08:51:24.000Z</time>
      </trkpt>
      <trkpt lat="47.2692" lon="-2.27319">
        <ele>15.199999809265</ele>
        <time>2022-09-04T08:51:25.000Z</time>
      </trkpt>
      <trkpt lat="47.2692" lon="-2.27316">
        <ele>14.60000038147</ele>
        <time>2022-09-04T08:51:26.000Z</time>
      </trkpt>
      <trkpt lat="47.26923" lon="-2.27303">
        <ele>14.60000038147</ele>
        <time>2022-09-04T08:51:30.000Z</time>
      </trkpt>
      <trkpt lat="47.26923" lon="-2.27292">
        <ele>15.199999809265</ele>
        <time>2022-09-04T08:51:34.000Z</time>
      </trkpt>
      <trkpt lat="47.26923" lon="-2.27288">
        <ele>15.60000038147</ele>
        <time>2022-09-04T08:51:35.000Z</time>
      </trkpt>
      <trkpt lat="47.26924" lon="-2.27284">
        <ele>16</ele>
        <time>2022-09-04T08:51:36.000Z</time>
      </trkpt>
      <trkpt lat="47.26925" lon="-2.27281">
        <ele>16.39999961853</ele>
        <time>2022-09-04T08:51:37.000Z</time>
      </trkpt>
      <trkpt lat="47.26925" lon="-2.27276">
        <ele>16.799999237061</ele>
        <time>2022-09-04T08:51:38.000Z</time>
      </trkpt>
      <trkpt lat="47.26928" lon="-2.27272">
        <ele>16.799999237061</ele>
        <time>2022-09-04T08:51:40.000Z</time>
      </trkpt>
      <trkpt lat="47.26936" lon="-2.27268">
        <ele>16.39999961853</ele>
        <time>2022-09-04T08:51:43.000Z</time>
      </trkpt>
      <trkpt lat="47.26939" lon="-2.27268">
        <ele>16</ele>
        <time>2022-09-04T08:51:44.000Z</time>
      </trkpt>
      <trkpt lat="47.26942" lon="-2.27266">
        <ele>15.60000038147</ele>
        <time>2022-09-04T08:51:45.000Z</time>
      </trkpt>
      <trkpt lat="47.26943" lon="-2.27263">
        <ele>15</ele>
        <time>2022-09-04T08:51:46.000Z</time>
      </trkpt>
      <trkpt lat="47.26945" lon="-2.27261">
        <ele>14.60000038147</ele>
        <time>2022-09-04T08:51:47.000Z</time>
      </trkpt>
      <trkpt lat="47.2695" lon="-2.27255">
        <ele>14.60000038147</ele>
        <time>2022-09-04T08:51:49.000Z</time>
      </trkpt>
      <trkpt lat="47.26953" lon="-2.27248">
        <ele>14.60000038147</ele>
        <time>2022-09-04T08:51:51.000Z</time>
      </trkpt>
      <trkpt lat="47.26957" lon="-2.27236">
        <ele>14.60000038147</ele>
        <time>2022-09-04T08:51:54.000Z</time>
      </trkpt>
      <trkpt lat="47.26958" lon="-2.27227">
        <ele>14.60000038147</ele>
        <time>2022-09-04T08:51:56.000Z</time>
      </trkpt>
      <trkpt lat="47.26958" lon="-2.2722">
        <ele>14.60000038147</ele>
        <time>2022-09-04T08:51:58.000Z</time>
      </trkpt>
      <trkpt lat="47.26959" lon="-2.27211">
        <ele>14.60000038147</ele>
        <time>2022-09-04T08:52:02.000Z</time>
      </trkpt>
      <trkpt lat="47.26961" lon="-2.27209">
        <ele>14.60000038147</ele>
        <time>2022-09-04T08:52:03.000Z</time>
      </trkpt>
      <trkpt lat="47.26964" lon="-2.27197">
        <ele>14.60000038147</ele>
        <time>2022-09-04T08:52:07.000Z</time>
      </trkpt>
      <trkpt lat="47.26966" lon="-2.27193">
        <ele>14.60000038147</ele>
        <time>2022-09-04T08:52:09.000Z</time>
      </trkpt>
      <trkpt lat="47.2697" lon="-2.27195">
        <ele>14.60000038147</ele>
        <time>2022-09-04T08:52:11.000Z</time>
      </trkpt>
      <trkpt lat="47.26979" lon="-2.27187">
        <ele>14.60000038147</ele>
        <time>2022-09-04T08:52:15.000Z</time>
      </trkpt>
      <trkpt lat="47.26985" lon="-2.27184">
        <ele>14.60000038147</ele>
        <time>2022-09-04T08:52:17.000Z</time>
      </trkpt>
      <trkpt lat="47.26988" lon="-2.27181">
        <ele>14.60000038147</ele>
        <time>2022-09-04T08:52:18.000Z</time>
      </trkpt>
      <trkpt lat="47.2699" lon="-2.27177">
        <ele>14.60000038147</ele>
        <time>2022-09-04T08:52:19.000Z</time>
      </trkpt>
      <trkpt lat="47.26994" lon="-2.27175">
        <ele>14.60000038147</ele>
        <time>2022-09-04T08:52:21.000Z</time>
      </trkpt>
      <trkpt lat="47.26996" lon="-2.27176">
        <ele>14.60000038147</ele>
        <time>2022-09-04T08:52:22.000Z</time>
      </trkpt>
      <trkpt lat="47.27004" lon="-2.27176">
        <ele>14.60000038147</ele>
        <time>2022-09-04T08:52:27.000Z</time>
      </trkpt>
      <trkpt lat="47.27013" lon="-2.27165">
        <ele>14.199999809265</ele>
        <time>2022-09-04T08:52:32.000Z</time>
      </trkpt>
      <trkpt lat="47.27014" lon="-2.27162">
        <ele>13.800000190735</ele>
        <time>2022-09-04T08:52:33.000Z</time>
      </trkpt>
      <trkpt lat="47.27017" lon="-2.2716">
        <ele>13.39999961853</ele>
        <time>2022-09-04T08:52:34.000Z</time>
      </trkpt>
      <trkpt lat="47.2702" lon="-2.2716">
        <ele>13</ele>
        <time>2022-09-04T08:52:35.000Z</time>
      </trkpt>
      <trkpt lat="47.27022" lon="-2.27158">
        <ele>12.60000038147</ele>
        <time>2022-09-04T08:52:36.000Z</time>
      </trkpt>
      <trkpt lat="47.27026" lon="-2.27145">
        <ele>12.60000038147</ele>
        <time>2022-09-04T08:52:40.000Z</time>
      </trkpt>
      <trkpt lat="47.27026" lon="-2.27144">
        <ele>12.60000038147</ele>
        <time>2022-09-04T08:52:41.000Z</time>
      </trkpt>
      <trkpt lat="47.27028" lon="-2.27141">
        <ele>12.60000038147</ele>
        <time>2022-09-04T08:52:43.000Z</time>
      </trkpt>
      <trkpt lat="47.27025" lon="-2.27128">
        <ele>12.60000038147</ele>
        <time>2022-09-04T08:52:57.000Z</time>
      </trkpt>
      <trkpt lat="47.27017" lon="-2.27108">
        <ele>12.60000038147</ele>
        <time>2022-09-04T08:53:03.000Z</time>
      </trkpt>
      <trkpt lat="47.27014" lon="-2.27098">
        <ele>13</ele>
        <time>2022-09-04T08:53:05.000Z</time>
      </trkpt>
      <trkpt lat="47.27013" lon="-2.27092">
        <ele>13.39999961853</ele>
        <time>2022-09-04T08:53:06.000Z</time>
      </trkpt>
      <trkpt lat="47.27011" lon="-2.27087">
        <ele>13.800000190735</ele>
        <time>2022-09-04T08:53:07.000Z</time>
      </trkpt>
      <trkpt lat="47.27011" lon="-2.27082">
        <ele>14.199999809265</ele>
        <time>2022-09-04T08:53:08.000Z</time>
      </trkpt>
      <trkpt lat="47.27009" lon="-2.27076">
        <ele>14.800000190735</ele>
        <time>2022-09-04T08:53:09.000Z</time>
      </trkpt>
      <trkpt lat="47.27003" lon="-2.27056">
        <ele>14.800000190735</ele>
        <time>2022-09-04T08:53:13.000Z</time>
      </trkpt>
      <trkpt lat="47.26993" lon="-2.27037">
        <ele>14.800000190735</ele>
        <time>2022-09-04T08:53:17.000Z</time>
      </trkpt>
      <trkpt lat="47.2699" lon="-2.27033">
        <ele>14.800000190735</ele>
        <time>2022-09-04T08:53:18.000Z</time>
      </trkpt>
      <trkpt lat="47.26976" lon="-2.27016">
        <ele>14.800000190735</ele>
        <time>2022-09-04T08:53:22.000Z</time>
      </trkpt>
      <trkpt lat="47.26968" lon="-2.27007">
        <ele>14.199999809265</ele>
        <time>2022-09-04T08:53:24.000Z</time>
      </trkpt>
      <trkpt lat="47.26965" lon="-2.27003">
        <ele>13.800000190735</ele>
        <time>2022-09-04T08:53:25.000Z</time>
      </trkpt>
      <trkpt lat="47.26962" lon="-2.26997">
        <ele>13.39999961853</ele>
        <time>2022-09-04T08:53:26.000Z</time>
      </trkpt>
      <trkpt lat="47.26959" lon="-2.2699">
        <ele>13</ele>
        <time>2022-09-04T08:53:27.000Z</time>
      </trkpt>
      <trkpt lat="47.26959" lon="-2.26983">
        <ele>12.60000038147</ele>
        <time>2022-09-04T08:53:28.000Z</time>
      </trkpt>
      <trkpt lat="47.26961" lon="-2.2696">
        <ele>12.60000038147</ele>
        <time>2022-09-04T08:53:31.000Z</time>
      </trkpt>
      <trkpt lat="47.26961" lon="-2.26952">
        <ele>12.60000038147</ele>
        <time>2022-09-04T08:53:32.000Z</time>
      </trkpt>
      <trkpt lat="47.26967" lon="-2.26913">
        <ele>12.60000038147</ele>
        <time>2022-09-04T08:53:37.000Z</time>
      </trkpt>
      <trkpt lat="47.26961" lon="-2.2688">
        <ele>12.60000038147</ele>
        <time>2022-09-04T08:53:41.000Z</time>
      </trkpt>
      <trkpt lat="47.26955" lon="-2.26841">
        <ele>12</ele>
        <time>2022-09-04T08:53:46.000Z</time>
      </trkpt>
      <trkpt lat="47.26955" lon="-2.26835">
        <ele>11.60000038147</ele>
        <time>2022-09-04T08:53:47.000Z</time>
      </trkpt>
      <trkpt lat="47.26957" lon="-2.26829">
        <ele>11.199999809265</ele>
        <time>2022-09-04T08:53:48.000Z</time>
      </trkpt>
      <trkpt lat="47.2696" lon="-2.26824">
        <ele>10.800000190735</ele>
        <time>2022-09-04T08:53:49.000Z</time>
      </trkpt>
      <trkpt lat="47.26963" lon="-2.2682">
        <ele>10.39999961853</ele>
        <time>2022-09-04T08:53:50.000Z</time>
      </trkpt>
      <trkpt lat="47.2698" lon="-2.26804">
        <ele>10.39999961853</ele>
        <time>2022-09-04T08:53:55.000Z</time>
      </trkpt>
      <trkpt lat="47.26993" lon="-2.26794">
        <ele>10.39999961853</ele>
        <time>2022-09-04T08:54:00.000Z</time>
      </trkpt>
      <trkpt lat="47.27004" lon="-2.26781">
        <ele>10.39999961853</ele>
        <time>2022-09-04T08:54:04.000Z</time>
      </trkpt>
      <trkpt lat="47.27012" lon="-2.26769">
        <ele>10.39999961853</ele>
        <time>2022-09-04T08:54:07.000Z</time>
      </trkpt>
      <trkpt lat="47.27013" lon="-2.26766">
        <ele>10</ele>
        <time>2022-09-04T08:54:08.000Z</time>
      </trkpt>
      <trkpt lat="47.27015" lon="-2.26765">
        <ele>9.6000003814697</ele>
        <time>2022-09-04T08:54:09.000Z</time>
      </trkpt>
      <trkpt lat="47.27017" lon="-2.26763">
        <ele>9.1999998092651</ele>
        <time>2022-09-04T08:54:10.000Z</time>
      </trkpt>
      <trkpt lat="47.2702" lon="-2.2676">
        <ele>8.8000001907349</ele>
        <time>2022-09-04T08:54:11.000Z</time>
      </trkpt>
      <trkpt lat="47.27022" lon="-2.26759">
        <ele>8.3999996185303</ele>
        <time>2022-09-04T08:54:12.000Z</time>
      </trkpt>
      <trkpt lat="47.27031" lon="-2.26751">
        <ele>8.3999996185303</ele>
        <time>2022-09-04T08:54:17.000Z</time>
      </trkpt>
      <trkpt lat="47.27033" lon="-2.26736">
        <ele>8.3999996185303</ele>
        <time>2022-09-04T08:54:21.000Z</time>
      </trkpt>
      <trkpt lat="47.27033" lon="-2.26705">
        <ele>8.3999996185303</ele>
        <time>2022-09-04T08:54:27.000Z</time>
      </trkpt>
      <trkpt lat="47.27033" lon="-2.26672">
        <ele>8.3999996185303</ele>
        <time>2022-09-04T08:54:32.000Z</time>
      </trkpt>
      <trkpt lat="47.27032" lon="-2.26656">
        <ele>8.3999996185303</ele>
        <time>2022-09-04T08:54:34.000Z</time>
      </trkpt>
      <trkpt lat="47.27027" lon="-2.26644">
        <ele>8.3999996185303</ele>
        <time>2022-09-04T08:54:36.000Z</time>
      </trkpt>
      <trkpt lat="47.27022" lon="-2.26634">
        <ele>8.3999996185303</ele>
        <time>2022-09-04T08:54:38.000Z</time>
      </trkpt>
      <trkpt lat="47.27014" lon="-2.26617">
        <ele>8.3999996185303</ele>
        <time>2022-09-04T08:54:41.000Z</time>
      </trkpt>
      <trkpt lat="47.27007" lon="-2.26608">
        <ele>8.3999996185303</ele>
        <time>2022-09-04T08:54:43.000Z</time>
      </trkpt>
      <trkpt lat="47.26998" lon="-2.26594">
        <ele>8.8000001907349</ele>
        <time>2022-09-04T08:54:46.000Z</time>
      </trkpt>
      <trkpt lat="47.26994" lon="-2.2659">
        <ele>9.1999998092651</ele>
        <time>2022-09-04T08:54:47.000Z</time>
      </trkpt>
      <trkpt lat="47.26991" lon="-2.26585">
        <ele>9.6000003814697</ele>
        <time>2022-09-04T08:54:48.000Z</time>
      </trkpt>
      <trkpt lat="47.26988" lon="-2.2658">
        <ele>10</ele>
        <time>2022-09-04T08:54:49.000Z</time>
      </trkpt>
      <trkpt lat="47.26985" lon="-2.26574">
        <ele>10.39999961853</ele>
        <time>2022-09-04T08:54:50.000Z</time>
      </trkpt>
      <trkpt lat="47.26979" lon="-2.26555">
        <ele>10.39999961853</ele>
        <time>2022-09-04T08:54:53.000Z</time>
      </trkpt>
      <trkpt lat="47.26977" lon="-2.26549">
        <ele>10.39999961853</ele>
        <time>2022-09-04T08:54:54.000Z</time>
      </trkpt>
      <trkpt lat="47.26972" lon="-2.26534">
        <ele>10.800000190735</ele>
        <time>2022-09-04T08:54:57.000Z</time>
      </trkpt>
      <trkpt lat="47.2697" lon="-2.2653">
        <ele>11.199999809265</ele>
        <time>2022-09-04T08:54:58.000Z</time>
      </trkpt>
      <trkpt lat="47.2697" lon="-2.26525">
        <ele>11.60000038147</ele>
        <time>2022-09-04T08:54:59.000Z</time>
      </trkpt>
      <trkpt lat="47.2697" lon="-2.26521">
        <ele>12</ele>
        <time>2022-09-04T08:55:00.000Z</time>
      </trkpt>
      <trkpt lat="47.26971" lon="-2.26517">
        <ele>12.39999961853</ele>
        <time>2022-09-04T08:55:01.000Z</time>
      </trkpt>
      <trkpt lat="47.26972" lon="-2.26514">
        <ele>12.39999961853</ele>
        <time>2022-09-04T08:55:02.000Z</time>
      </trkpt>
      <trkpt lat="47.26975" lon="-2.26511">
        <ele>12.39999961853</ele>
        <time>2022-09-04T08:55:04.000Z</time>
      </trkpt>
      <trkpt lat="47.26978" lon="-2.26504">
        <ele>12.39999961853</ele>
        <time>2022-09-04T08:55:06.000Z</time>
      </trkpt>
      <trkpt lat="47.2698" lon="-2.26496">
        <ele>12.39999961853</ele>
        <time>2022-09-04T08:55:08.000Z</time>
      </trkpt>
      <trkpt lat="47.2698" lon="-2.26491">
        <ele>12.39999961853</ele>
        <time>2022-09-04T08:55:09.000Z</time>
      </trkpt>
      <trkpt lat="47.26983" lon="-2.26483">
        <ele>12.39999961853</ele>
        <time>2022-09-04T08:55:11.000Z</time>
      </trkpt>
      <trkpt lat="47.26988" lon="-2.26479">
        <ele>12.39999961853</ele>
        <time>2022-09-04T08:55:13.000Z</time>
      </trkpt>
      <trkpt lat="47.26991" lon="-2.26474">
        <ele>12.39999961853</ele>
        <time>2022-09-04T08:55:15.000Z</time>
      </trkpt>
      <trkpt lat="47.26997" lon="-2.26465">
        <ele>12.39999961853</ele>
        <time>2022-09-04T08:55:19.000Z</time>
      </trkpt>
      <trkpt lat="47.2701" lon="-2.26445">
        <ele>12.39999961853</ele>
        <time>2022-09-04T08:55:25.000Z</time>
      </trkpt>
      <trkpt lat="47.27018" lon="-2.26432">
        <ele>12.39999961853</ele>
        <time>2022-09-04T08:55:29.000Z</time>
      </trkpt>
      <trkpt lat="47.27022" lon="-2.26427">
        <ele>12.39999961853</ele>
        <time>2022-09-04T08:55:33.000Z</time>
      </trkpt>
      <trkpt lat="47.27024" lon="-2.26424">
        <ele>12.39999961853</ele>
        <time>2022-09-04T08:55:43.000Z</time>
      </trkpt>
      <trkpt lat="47.27029" lon="-2.26416">
        <ele>12.39999961853</ele>
        <time>2022-09-04T08:55:46.000Z</time>
      </trkpt>
      <trkpt lat="47.27043" lon="-2.26398">
        <ele>12.39999961853</ele>
        <time>2022-09-04T08:55:50.000Z</time>
      </trkpt>
      <trkpt lat="47.27055" lon="-2.26382">
        <ele>12.39999961853</ele>
        <time>2022-09-04T08:55:53.000Z</time>
      </trkpt>
      <trkpt lat="47.27063" lon="-2.2637">
        <ele>12.39999961853</ele>
        <time>2022-09-04T08:55:55.000Z</time>
      </trkpt>
      <trkpt lat="47.27087" lon="-2.26335">
        <ele>12.39999961853</ele>
        <time>2022-09-04T08:56:02.000Z</time>
      </trkpt>
      <trkpt lat="47.27111" lon="-2.26301">
        <ele>12.39999961853</ele>
        <time>2022-09-04T08:56:08.000Z</time>
      </trkpt>
      <trkpt lat="47.27114" lon="-2.26295">
        <ele>12.39999961853</ele>
        <time>2022-09-04T08:56:09.000Z</time>
      </trkpt>
      <trkpt lat="47.27126" lon="-2.26276">
        <ele>12.39999961853</ele>
        <time>2022-09-04T08:56:12.000Z</time>
      </trkpt>
      <trkpt lat="47.27152" lon="-2.26241">
        <ele>12.39999961853</ele>
        <time>2022-09-04T08:56:17.000Z</time>
      </trkpt>
      <trkpt lat="47.2719" lon="-2.26201">
        <ele>12.39999961853</ele>
        <time>2022-09-04T08:56:23.000Z</time>
      </trkpt>
      <trkpt lat="47.27197" lon="-2.26195">
        <ele>12</ele>
        <time>2022-09-04T08:56:24.000Z</time>
      </trkpt>
      <trkpt lat="47.27204" lon="-2.26188">
        <ele>11.60000038147</ele>
        <time>2022-09-04T08:56:25.000Z</time>
      </trkpt>
      <trkpt lat="47.27211" lon="-2.26184">
        <ele>11</ele>
        <time>2022-09-04T08:56:26.000Z</time>
      </trkpt>
      <trkpt lat="47.27217" lon="-2.26179">
        <ele>10.60000038147</ele>
        <time>2022-09-04T08:56:27.000Z</time>
      </trkpt>
      <trkpt lat="47.27224" lon="-2.26175">
        <ele>10.199999809265</ele>
        <time>2022-09-04T08:56:28.000Z</time>
      </trkpt>
      <trkpt lat="47.27259" lon="-2.26156">
        <ele>10.199999809265</ele>
        <time>2022-09-04T08:56:33.000Z</time>
      </trkpt>
      <trkpt lat="47.273" lon="-2.26138">
        <ele>10.199999809265</ele>
        <time>2022-09-04T08:56:39.000Z</time>
      </trkpt>
      <trkpt lat="47.27339" lon="-2.26126">
        <ele>10.199999809265</ele>
        <time>2022-09-04T08:56:45.000Z</time>
      </trkpt>
      <trkpt lat="47.27343" lon="-2.26121">
        <ele>10.199999809265</ele>
        <time>2022-09-04T08:56:46.000Z</time>
      </trkpt>
      <trkpt lat="47.27343" lon="-2.26107">
        <ele>10.199999809265</ele>
        <time>2022-09-04T08:56:48.000Z</time>
      </trkpt>
      <trkpt lat="47.27333" lon="-2.26086">
        <ele>10.199999809265</ele>
        <time>2022-09-04T08:56:51.000Z</time>
      </trkpt>
      <trkpt lat="47.27307" lon="-2.26032">
        <ele>10.199999809265</ele>
        <time>2022-09-04T08:56:58.000Z</time>
      </trkpt>
      <trkpt lat="47.27299" lon="-2.26018">
        <ele>9.8000001907349</ele>
        <time>2022-09-04T08:57:00.000Z</time>
      </trkpt>
      <trkpt lat="47.27295" lon="-2.26012">
        <ele>9.3999996185303</ele>
        <time>2022-09-04T08:57:01.000Z</time>
      </trkpt>
      <trkpt lat="47.27291" lon="-2.26006">
        <ele>9</ele>
        <time>2022-09-04T08:57:02.000Z</time>
      </trkpt>
      <trkpt lat="47.27291" lon="-2.26">
        <ele>8.6000003814697</ele>
        <time>2022-09-04T08:57:03.000Z</time>
      </trkpt>
      <trkpt lat="47.27293" lon="-2.25993">
        <ele>8.1999998092651</ele>
        <time>2022-09-04T08:57:04.000Z</time>
      </trkpt>
      <trkpt lat="47.27296" lon="-2.2599">
        <ele>8.1999998092651</ele>
        <time>2022-09-04T08:57:05.000Z</time>
      </trkpt>
      <trkpt lat="47.27316" lon="-2.25971">
        <ele>8.1999998092651</ele>
        <time>2022-09-04T08:57:11.000Z</time>
      </trkpt>
      <trkpt lat="47.27336" lon="-2.25956">
        <ele>8.1999998092651</ele>
        <time>2022-09-04T08:57:17.000Z</time>
      </trkpt>
      <trkpt lat="47.27346" lon="-2.25952">
        <ele>8.1999998092651</ele>
        <time>2022-09-04T08:57:19.000Z</time>
      </trkpt>
      <trkpt lat="47.27356" lon="-2.25942">
        <ele>8.1999998092651</ele>
        <time>2022-09-04T08:57:21.000Z</time>
      </trkpt>
      <trkpt lat="47.27368" lon="-2.2593">
        <ele>8.1999998092651</ele>
        <time>2022-09-04T08:57:23.000Z</time>
      </trkpt>
      <trkpt lat="47.27393" lon="-2.25902">
        <ele>8.1999998092651</ele>
        <time>2022-09-04T08:57:28.000Z</time>
      </trkpt>
      <trkpt lat="47.2741" lon="-2.25876">
        <ele>8.1999998092651</ele>
        <time>2022-09-04T08:57:32.000Z</time>
      </trkpt>
      <trkpt lat="47.27417" lon="-2.25861">
        <ele>8.1999998092651</ele>
        <time>2022-09-04T08:57:34.000Z</time>
      </trkpt>
      <trkpt lat="47.27438" lon="-2.25828">
        <ele>8.1999998092651</ele>
        <time>2022-09-04T08:57:39.000Z</time>
      </trkpt>
      <trkpt lat="47.27445" lon="-2.25814">
        <ele>8.1999998092651</ele>
        <time>2022-09-04T08:57:41.000Z</time>
      </trkpt>
      <trkpt lat="47.27455" lon="-2.25803">
        <ele>8.1999998092651</ele>
        <time>2022-09-04T08:57:43.000Z</time>
      </trkpt>
      <trkpt lat="47.27474" lon="-2.25787">
        <ele>8.1999998092651</ele>
        <time>2022-09-04T08:57:47.000Z</time>
      </trkpt>
      <trkpt lat="47.27492" lon="-2.25768">
        <ele>8.1999998092651</ele>
        <time>2022-09-04T08:57:51.000Z</time>
      </trkpt>
      <trkpt lat="47.27496" lon="-2.25763">
        <ele>8.1999998092651</ele>
        <time>2022-09-04T08:57:52.000Z</time>
      </trkpt>
      <trkpt lat="47.275" lon="-2.25758">
        <ele>8.1999998092651</ele>
        <time>2022-09-04T08:57:53.000Z</time>
      </trkpt>
      <trkpt lat="47.27513" lon="-2.25742">
        <ele>8.1999998092651</ele>
        <time>2022-09-04T08:57:56.000Z</time>
      </trkpt>
      <trkpt lat="47.27521" lon="-2.2573">
        <ele>8.1999998092651</ele>
        <time>2022-09-04T08:57:58.000Z</time>
      </trkpt>
      <trkpt lat="47.27528" lon="-2.25718">
        <ele>7.8000001907349</ele>
        <time>2022-09-04T08:58:00.000Z</time>
      </trkpt>
      <trkpt lat="47.27532" lon="-2.25712">
        <ele>7.4000000953674</ele>
        <time>2022-09-04T08:58:01.000Z</time>
      </trkpt>
      <trkpt lat="47.27535" lon="-2.25706">
        <ele>6.8000001907349</ele>
        <time>2022-09-04T08:58:02.000Z</time>
      </trkpt>
      <trkpt lat="47.27539" lon="-2.25699">
        <ele>6</ele>
        <time>2022-09-04T08:58:03.000Z</time>
      </trkpt>
      <trkpt lat="47.2755" lon="-2.2568">
        <ele>6</ele>
        <time>2022-09-04T08:58:06.000Z</time>
      </trkpt>
      <trkpt lat="47.27562" lon="-2.25663">
        <ele>5.5999999046326</ele>
        <time>2022-09-04T08:58:10.000Z</time>
      </trkpt>
      <trkpt lat="47.27564" lon="-2.2566">
        <ele>5.1999998092651</ele>
        <time>2022-09-04T08:58:11.000Z</time>
      </trkpt>
      <trkpt lat="47.27568" lon="-2.25658">
        <ele>4.8000001907349</ele>
        <time>2022-09-04T08:58:12.000Z</time>
      </trkpt>
      <trkpt lat="47.2757" lon="-2.25655">
        <ele>4.4000000953674</ele>
        <time>2022-09-04T08:58:13.000Z</time>
      </trkpt>
      <trkpt lat="47.27572" lon="-2.25651">
        <ele>4</ele>
        <time>2022-09-04T08:58:14.000Z</time>
      </trkpt>
      <trkpt lat="47.27577" lon="-2.25628">
        <ele>4</ele>
        <time>2022-09-04T08:58:18.000Z</time>
      </trkpt>
      <trkpt lat="47.27586" lon="-2.2562">
        <ele>4</ele>
        <time>2022-09-04T08:58:21.000Z</time>
      </trkpt>
      <trkpt lat="47.27604" lon="-2.25632">
        <ele>4</ele>
        <time>2022-09-04T08:58:25.000Z</time>
      </trkpt>
      <trkpt lat="47.27614" lon="-2.25647">
        <ele>4</ele>
        <time>2022-09-04T08:58:29.000Z</time>
      </trkpt>
      <trkpt lat="47.27608" lon="-2.25653">
        <ele>4</ele>
        <time>2022-09-04T08:58:32.000Z</time>
      </trkpt>
      <trkpt lat="47.276" lon="-2.25655">
        <ele>4</ele>
        <time>2022-09-04T08:58:34.000Z</time>
      </trkpt>
      <trkpt lat="47.27596" lon="-2.25655">
        <ele>4</ele>
        <time>2022-09-04T08:58:35.000Z</time>
      </trkpt>
      <trkpt lat="47.27592" lon="-2.25655">
        <ele>4</ele>
        <time>2022-09-04T08:58:36.000Z</time>
      </trkpt>
      <trkpt lat="47.27586" lon="-2.25664">
        <ele>4</ele>
        <time>2022-09-04T08:58:39.000Z</time>
      </trkpt>
      <trkpt lat="47.27591" lon="-2.25684">
        <ele>4</ele>
        <time>2022-09-04T08:58:43.000Z</time>
      </trkpt>
      <trkpt lat="47.27598" lon="-2.257">
        <ele>4</ele>
        <time>2022-09-04T08:58:46.000Z</time>
      </trkpt>
      <trkpt lat="47.27603" lon="-2.25712">
        <ele>4</ele>
        <time>2022-09-04T08:58:48.000Z</time>
      </trkpt>
      <trkpt lat="47.27605" lon="-2.25718">
        <ele>4</ele>
        <time>2022-09-04T08:58:49.000Z</time>
      </trkpt>
      <trkpt lat="47.27606" lon="-2.25724">
        <ele>4</ele>
        <time>2022-09-04T08:58:50.000Z</time>
      </trkpt>
      <trkpt lat="47.27608" lon="-2.25735">
        <ele>4</ele>
        <time>2022-09-04T08:58:52.000Z</time>
      </trkpt>
      <trkpt lat="47.27608" lon="-2.25745">
        <ele>4</ele>
        <time>2022-09-04T08:58:54.000Z</time>
      </trkpt>
      <trkpt lat="47.27608" lon="-2.25752">
        <ele>4</ele>
        <time>2022-09-04T08:58:55.000Z</time>
      </trkpt>
      <trkpt lat="47.27604" lon="-2.25776">
        <ele>4</ele>
        <time>2022-09-04T08:58:59.000Z</time>
      </trkpt>
      <trkpt lat="47.27603" lon="-2.25782">
        <ele>4</ele>
        <time>2022-09-04T08:59:00.000Z</time>
      </trkpt>
      <trkpt lat="47.27601" lon="-2.25788">
        <ele>4</ele>
        <time>2022-09-04T08:59:01.000Z</time>
      </trkpt>
      <trkpt lat="47.27599" lon="-2.258">
        <ele>4</ele>
        <time>2022-09-04T08:59:03.000Z</time>
      </trkpt>
      <trkpt lat="47.276" lon="-2.25805">
        <ele>4</ele>
        <time>2022-09-04T08:59:04.000Z</time>
      </trkpt>
      <trkpt lat="47.27607" lon="-2.2582">
        <ele>4</ele>
        <time>2022-09-04T08:59:07.000Z</time>
      </trkpt>
      <trkpt lat="47.27609" lon="-2.25826">
        <ele>4</ele>
        <time>2022-09-04T08:59:08.000Z</time>
      </trkpt>
      <trkpt lat="47.27614" lon="-2.25835">
        <ele>4</ele>
        <time>2022-09-04T08:59:10.000Z</time>
      </trkpt>
      <trkpt lat="47.27622" lon="-2.25844">
        <ele>4</ele>
        <time>2022-09-04T08:59:12.000Z</time>
      </trkpt>
      <trkpt lat="47.27633" lon="-2.25853">
        <ele>4</ele>
        <time>2022-09-04T08:59:15.000Z</time>
      </trkpt>
      <trkpt lat="47.27638" lon="-2.25855">
        <ele>4</ele>
        <time>2022-09-04T08:59:16.000Z</time>
      </trkpt>
      <trkpt lat="47.27647" lon="-2.25853">
        <ele>4</ele>
        <time>2022-09-04T08:59:18.000Z</time>
      </trkpt>
      <trkpt lat="47.27659" lon="-2.25843">
        <ele>4</ele>
        <time>2022-09-04T08:59:21.000Z</time>
      </trkpt>
      <trkpt lat="47.27662" lon="-2.25838">
        <ele>4</ele>
        <time>2022-09-04T08:59:22.000Z</time>
      </trkpt>
      <trkpt lat="47.27664" lon="-2.25824">
        <ele>4</ele>
        <time>2022-09-04T08:59:24.000Z</time>
      </trkpt>
      <trkpt lat="47.27662" lon="-2.25809">
        <ele>4</ele>
        <time>2022-09-04T08:59:26.000Z</time>
      </trkpt>
      <trkpt lat="47.2766" lon="-2.25802">
        <ele>4</ele>
        <time>2022-09-04T08:59:27.000Z</time>
      </trkpt>
      <trkpt lat="47.27657" lon="-2.25795">
        <ele>4</ele>
        <time>2022-09-04T08:59:28.000Z</time>
      </trkpt>
      <trkpt lat="47.27656" lon="-2.25773">
        <ele>4</ele>
        <time>2022-09-04T08:59:31.000Z</time>
      </trkpt>
      <trkpt lat="47.27652" lon="-2.25742">
        <ele>4</ele>
        <time>2022-09-04T08:59:35.000Z</time>
      </trkpt>
      <trkpt lat="47.2765" lon="-2.25728">
        <ele>4</ele>
        <time>2022-09-04T08:59:37.000Z</time>
      </trkpt>
      <trkpt lat="47.27645" lon="-2.25706">
        <ele>4</ele>
        <time>2022-09-04T08:59:40.000Z</time>
      </trkpt>
      <trkpt lat="47.27641" lon="-2.25677">
        <ele>4</ele>
        <time>2022-09-04T08:59:44.000Z</time>
      </trkpt>
      <trkpt lat="47.2763" lon="-2.25653">
        <ele>4</ele>
        <time>2022-09-04T08:59:49.000Z</time>
      </trkpt>
      <trkpt lat="47.27621" lon="-2.25647">
        <ele>4</ele>
        <time>2022-09-04T08:59:53.000Z</time>
      </trkpt>
      <trkpt lat="47.2762" lon="-2.25645">
        <ele>4</ele>
        <time>2022-09-04T08:59:54.000Z</time>
      </trkpt>
      <trkpt lat="47.2762" lon="-2.25644">
        <ele>4</ele>
        <time>2022-09-04T08:59:56.000Z</time>
      </trkpt>
      <trkpt lat="47.27619" lon="-2.25642">
        <ele>4</ele>
        <time>2022-09-04T09:00:19.000Z</time>
      </trkpt>
      <trkpt lat="47.27614" lon="-2.25634">
        <ele>4</ele>
        <time>2022-09-04T09:00:24.000Z</time>
      </trkpt>
      <trkpt lat="47.27605" lon="-2.25623">
        <ele>4</ele>
        <time>2022-09-04T09:00:29.000Z</time>
      </trkpt>
      <trkpt lat="47.27596" lon="-2.25616">
        <ele>4</ele>
        <time>2022-09-04T09:00:35.000Z</time>
      </trkpt>
      <trkpt lat="47.27594" lon="-2.25614">
        <ele>4</ele>
        <time>2022-09-04T09:00:38.000Z</time>
      </trkpt>
      <trkpt lat="47.27588" lon="-2.25614">
        <ele>4</ele>
        <time>2022-09-04T09:00:43.000Z</time>
      </trkpt>
      <trkpt lat="47.27586" lon="-2.25614">
        <ele>4</ele>
        <time>2022-09-04T09:00:44.000Z</time>
      </trkpt>
      <trkpt lat="47.27573" lon="-2.25613">
        <ele>4</ele>
        <time>2022-09-04T09:00:50.000Z</time>
      </trkpt>
      <trkpt lat="47.27566" lon="-2.25597">
        <ele>4</ele>
        <time>2022-09-04T09:00:55.000Z</time>
      </trkpt>
      <trkpt lat="47.27562" lon="-2.25571">
        <ele>4</ele>
        <time>2022-09-04T09:00:59.000Z</time>
      </trkpt>
      <trkpt lat="47.27561" lon="-2.25564">
        <ele>4</ele>
        <time>2022-09-04T09:01:00.000Z</time>
      </trkpt>
      <trkpt lat="47.27553" lon="-2.25524">
        <ele>4</ele>
        <time>2022-09-04T09:01:05.000Z</time>
      </trkpt>
      <trkpt lat="47.27551" lon="-2.25516">
        <ele>4</ele>
        <time>2022-09-04T09:01:06.000Z</time>
      </trkpt>
      <trkpt lat="47.2754" lon="-2.25497">
        <ele>4</ele>
        <time>2022-09-04T09:01:09.000Z</time>
      </trkpt>
      <trkpt lat="47.27536" lon="-2.25492">
        <ele>4</ele>
        <time>2022-09-04T09:01:10.000Z</time>
      </trkpt>
      <trkpt lat="47.27519" lon="-2.25471">
        <ele>4</ele>
        <time>2022-09-04T09:01:14.000Z</time>
      </trkpt>
      <trkpt lat="47.27498" lon="-2.25458">
        <ele>4</ele>
        <time>2022-09-04T09:01:19.000Z</time>
      </trkpt>
      <trkpt lat="47.27493" lon="-2.25458">
        <ele>4</ele>
        <time>2022-09-04T09:01:20.000Z</time>
      </trkpt>
      <trkpt lat="47.27463" lon="-2.25454">
        <ele>4</ele>
        <time>2022-09-04T09:01:25.000Z</time>
      </trkpt>
      <trkpt lat="47.27444" lon="-2.25441">
        <ele>4</ele>
        <time>2022-09-04T09:01:29.000Z</time>
      </trkpt>
      <trkpt lat="47.2744" lon="-2.25437">
        <ele>4</ele>
        <time>2022-09-04T09:01:30.000Z</time>
      </trkpt>
      <trkpt lat="47.27425" lon="-2.25422">
        <ele>4</ele>
        <time>2022-09-04T09:01:34.000Z</time>
      </trkpt>
      <trkpt lat="47.27422" lon="-2.25419">
        <ele>4</ele>
        <time>2022-09-04T09:01:35.000Z</time>
      </trkpt>
      <trkpt lat="47.27414" lon="-2.25398">
        <ele>4</ele>
        <time>2022-09-04T09:01:40.000Z</time>
      </trkpt>
      <trkpt lat="47.27404" lon="-2.25384">
        <ele>4</ele>
        <time>2022-09-04T09:01:44.000Z</time>
      </trkpt>
      <trkpt lat="47.27401" lon="-2.2537">
        <ele>4</ele>
        <time>2022-09-04T09:01:47.000Z</time>
      </trkpt>
      <trkpt lat="47.27401" lon="-2.25365">
        <ele>4</ele>
        <time>2022-09-04T09:01:48.000Z</time>
      </trkpt>
      <trkpt lat="47.27402" lon="-2.25345">
        <ele>4</ele>
        <time>2022-09-04T09:01:51.000Z</time>
      </trkpt>
      <trkpt lat="47.27401" lon="-2.25333">
        <ele>4</ele>
        <time>2022-09-04T09:01:53.000Z</time>
      </trkpt>
      <trkpt lat="47.27396" lon="-2.25318">
        <ele>4</ele>
        <time>2022-09-04T09:01:57.000Z</time>
      </trkpt>
      <trkpt lat="47.27396" lon="-2.25314">
        <ele>4</ele>
        <time>2022-09-04T09:01:58.000Z</time>
      </trkpt>
      <trkpt lat="47.274" lon="-2.25301">
        <ele>4</ele>
        <time>2022-09-04T09:02:01.000Z</time>
      </trkpt>
      <trkpt lat="47.27402" lon="-2.25298">
        <ele>4</ele>
        <time>2022-09-04T09:02:02.000Z</time>
      </trkpt>
      <trkpt lat="47.27405" lon="-2.25299">
        <ele>4</ele>
        <time>2022-09-04T09:02:04.000Z</time>
      </trkpt>
      <trkpt lat="47.27408" lon="-2.25304">
        <ele>3.5999999046326</ele>
        <time>2022-09-04T09:02:06.000Z</time>
      </trkpt>
      <trkpt lat="47.27409" lon="-2.25307">
        <ele>3.2000000476837</ele>
        <time>2022-09-04T09:02:07.000Z</time>
      </trkpt>
      <trkpt lat="47.2741" lon="-2.25311">
        <ele>2.7999999523163</ele>
        <time>2022-09-04T09:02:08.000Z</time>
      </trkpt>
      <trkpt lat="47.2741" lon="-2.25315">
        <ele>2.4000000953674</ele>
        <time>2022-09-04T09:02:09.000Z</time>
      </trkpt>
      <trkpt lat="47.2741" lon="-2.25318">
        <ele>2</ele>
        <time>2022-09-04T09:02:10.000Z</time>
      </trkpt>
      <trkpt lat="47.27411" lon="-2.25322">
        <ele>2</ele>
        <time>2022-09-04T09:02:11.000Z</time>
      </trkpt>
      <trkpt lat="47.27413" lon="-2.25326">
        <ele>2</ele>
        <time>2022-09-04T09:02:12.000Z</time>
      </trkpt>
      <trkpt lat="47.27419" lon="-2.25348">
        <ele>2</ele>
        <time>2022-09-04T09:02:17.000Z</time>
      </trkpt>
      <trkpt lat="47.27424" lon="-2.25373">
        <ele>2</ele>
        <time>2022-09-04T09:02:23.000Z</time>
      </trkpt>
      <trkpt lat="47.27426" lon="-2.25379">
        <ele>2</ele>
        <time>2022-09-04T09:02:26.000Z</time>
      </trkpt>
      <trkpt lat="47.27427" lon="-2.25372">
        <ele>2</ele>
        <time>2022-09-04T09:02:30.000Z</time>
      </trkpt>
      <trkpt lat="47.2743" lon="-2.25355">
        <ele>2</ele>
        <time>2022-09-04T09:02:35.000Z</time>
      </trkpt>
      <trkpt lat="47.27428" lon="-2.25329">
        <ele>2</ele>
        <time>2022-09-04T09:02:41.000Z</time>
      </trkpt>
      <trkpt lat="47.27427" lon="-2.25327">
        <ele>2</ele>
        <time>2022-09-04T09:02:42.000Z</time>
      </trkpt>
      <trkpt lat="47.27424" lon="-2.25329">
        <ele>2</ele>
        <time>2022-09-04T09:02:44.000Z</time>
      </trkpt>
      <trkpt lat="47.27422" lon="-2.25328">
        <ele>2</ele>
        <time>2022-09-04T09:02:46.000Z</time>
      </trkpt>
      <trkpt lat="47.27422" lon="-2.25325">
        <ele>2</ele>
        <time>2022-09-04T09:02:47.000Z</time>
      </trkpt>
      <trkpt lat="47.27419" lon="-2.25315">
        <ele>2</ele>
        <time>2022-09-04T09:02:51.000Z</time>
      </trkpt>
      <trkpt lat="47.27413" lon="-2.253">
        <ele>2</ele>
        <time>2022-09-04T09:02:56.000Z</time>
      </trkpt>
      <trkpt lat="47.27406" lon="-2.2528">
        <ele>2</ele>
        <time>2022-09-04T09:03:01.000Z</time>
      </trkpt>
      <trkpt lat="47.27399" lon="-2.2526">
        <ele>2</ele>
        <time>2022-09-04T09:03:07.000Z</time>
      </trkpt>
      <trkpt lat="47.27394" lon="-2.25235">
        <ele>2</ele>
        <time>2022-09-04T09:03:12.000Z</time>
      </trkpt>
      <trkpt lat="47.27393" lon="-2.25219">
        <ele>2</ele>
        <time>2022-09-04T09:03:14.000Z</time>
      </trkpt>
      <trkpt lat="47.27394" lon="-2.25205">
        <ele>2</ele>
        <time>2022-09-04T09:03:16.000Z</time>
      </trkpt>
      <trkpt lat="47.27391" lon="-2.25185">
        <ele>2</ele>
        <time>2022-09-04T09:03:19.000Z</time>
      </trkpt>
      <trkpt lat="47.27388" lon="-2.25177">
        <ele>2</ele>
        <time>2022-09-04T09:03:20.000Z</time>
      </trkpt>
      <trkpt lat="47.27374" lon="-2.25135">
        <ele>2</ele>
        <time>2022-09-04T09:03:26.000Z</time>
      </trkpt>
      <trkpt lat="47.27358" lon="-2.25097">
        <ele>2</ele>
        <time>2022-09-04T09:03:32.000Z</time>
      </trkpt>
      <trkpt lat="47.27351" lon="-2.25078">
        <ele>2</ele>
        <time>2022-09-04T09:03:35.000Z</time>
      </trkpt>
      <trkpt lat="47.27346" lon="-2.25059">
        <ele>2</ele>
        <time>2022-09-04T09:03:38.000Z</time>
      </trkpt>
      <trkpt lat="47.27346" lon="-2.25053">
        <ele>2</ele>
        <time>2022-09-04T09:03:39.000Z</time>
      </trkpt>
      <trkpt lat="47.27349" lon="-2.25034">
        <ele>2</ele>
        <time>2022-09-04T09:03:42.000Z</time>
      </trkpt>
      <trkpt lat="47.2735" lon="-2.25029">
        <ele>2</ele>
        <time>2022-09-04T09:03:43.000Z</time>
      </trkpt>
      <trkpt lat="47.27358" lon="-2.2501">
        <ele>2</ele>
        <time>2022-09-04T09:03:48.000Z</time>
      </trkpt>
      <trkpt lat="47.27368" lon="-2.24992">
        <ele>2</ele>
        <time>2022-09-04T09:03:53.000Z</time>
      </trkpt>
      <trkpt lat="47.27379" lon="-2.24977">
        <ele>2</ele>
        <time>2022-09-04T09:03:59.000Z</time>
      </trkpt>
      <trkpt lat="47.27386" lon="-2.24966">
        <ele>2</ele>
        <time>2022-09-04T09:04:05.000Z</time>
      </trkpt>
      <trkpt lat="47.27385" lon="-2.24951">
        <ele>2</ele>
        <time>2022-09-04T09:04:10.000Z</time>
      </trkpt>
      <trkpt lat="47.27383" lon="-2.2493">
        <ele>2</ele>
        <time>2022-09-04T09:04:16.000Z</time>
      </trkpt>
      <trkpt lat="47.27384" lon="-2.24921">
        <ele>2</ele>
        <time>2022-09-04T09:04:19.000Z</time>
      </trkpt>
      <trkpt lat="47.27385" lon="-2.24918">
        <ele>2</ele>
        <time>2022-09-04T09:04:20.000Z</time>
      </trkpt>
      <trkpt lat="47.27391" lon="-2.24907">
        <ele>2</ele>
        <time>2022-09-04T09:04:23.000Z</time>
      </trkpt>
      <trkpt lat="47.27393" lon="-2.24903">
        <ele>2</ele>
        <time>2022-09-04T09:04:24.000Z</time>
      </trkpt>
      <trkpt lat="47.27398" lon="-2.24898">
        <ele>2</ele>
        <time>2022-09-04T09:04:26.000Z</time>
      </trkpt>
      <trkpt lat="47.27402" lon="-2.24894">
        <ele>2</ele>
        <time>2022-09-04T09:04:28.000Z</time>
      </trkpt>
      <trkpt lat="47.27403" lon="-2.24892">
        <ele>2</ele>
        <time>2022-09-04T09:04:29.000Z</time>
      </trkpt>
      <trkpt lat="47.27406" lon="-2.24881">
        <ele>2</ele>
        <time>2022-09-04T09:04:32.000Z</time>
      </trkpt>
      <trkpt lat="47.27406" lon="-2.24876">
        <ele>2</ele>
        <time>2022-09-04T09:04:34.000Z</time>
      </trkpt>
      <trkpt lat="47.27407" lon="-2.24868">
        <ele>2</ele>
        <time>2022-09-04T09:04:37.000Z</time>
      </trkpt>
      <trkpt lat="47.27417" lon="-2.24849">
        <ele>2</ele>
        <time>2022-09-04T09:04:41.000Z</time>
      </trkpt>
      <trkpt lat="47.2743" lon="-2.24813">
        <ele>2</ele>
        <time>2022-09-04T09:04:45.000Z</time>
      </trkpt>
      <trkpt lat="47.27441" lon="-2.24794">
        <ele>2</ele>
        <time>2022-09-04T09:04:49.000Z</time>
      </trkpt>
      <trkpt lat="47.2745" lon="-2.24787">
        <ele>2</ele>
        <time>2022-09-04T09:04:51.000Z</time>
      </trkpt>
      <trkpt lat="47.27455" lon="-2.24784">
        <ele>2.4000000953674</ele>
        <time>2022-09-04T09:04:52.000Z</time>
      </trkpt>
      <trkpt lat="47.2746" lon="-2.24783">
        <ele>2.7999999523163</ele>
        <time>2022-09-04T09:04:53.000Z</time>
      </trkpt>
      <trkpt lat="47.27464" lon="-2.24783">
        <ele>3.2000000476837</ele>
        <time>2022-09-04T09:04:54.000Z</time>
      </trkpt>
      <trkpt lat="47.27469" lon="-2.24784">
        <ele>3.5999999046326</ele>
        <time>2022-09-04T09:04:55.000Z</time>
      </trkpt>
      <trkpt lat="47.27473" lon="-2.24784">
        <ele>4.1999998092651</ele>
        <time>2022-09-04T09:04:56.000Z</time>
      </trkpt>
      <trkpt lat="47.27477" lon="-2.24785">
        <ele>4.1999998092651</ele>
        <time>2022-09-04T09:04:57.000Z</time>
      </trkpt>
      <trkpt lat="47.2748" lon="-2.24785">
        <ele>4.5999999046326</ele>
        <time>2022-09-04T09:04:58.000Z</time>
      </trkpt>
      <trkpt lat="47.27484" lon="-2.24785">
        <ele>5</ele>
        <time>2022-09-04T09:04:59.000Z</time>
      </trkpt>
      <trkpt lat="47.27488" lon="-2.24786">
        <ele>5.4000000953674</ele>
        <time>2022-09-04T09:05:00.000Z</time>
      </trkpt>
      <trkpt lat="47.27492" lon="-2.24785">
        <ele>6</ele>
        <time>2022-09-04T09:05:01.000Z</time>
      </trkpt>
      <trkpt lat="47.27495" lon="-2.24785">
        <ele>6.4000000953674</ele>
        <time>2022-09-04T09:05:02.000Z</time>
      </trkpt>
      <trkpt lat="47.27515" lon="-2.24785">
        <ele>6.8000001907349</ele>
        <time>2022-09-04T09:05:07.000Z</time>
      </trkpt>
      <trkpt lat="47.27519" lon="-2.24785">
        <ele>7.1999998092651</ele>
        <time>2022-09-04T09:05:08.000Z</time>
      </trkpt>
      <trkpt lat="47.27523" lon="-2.24785">
        <ele>7.5999999046326</ele>
        <time>2022-09-04T09:05:09.000Z</time>
      </trkpt>
      <trkpt lat="47.27527" lon="-2.24785">
        <ele>8</ele>
        <time>2022-09-04T09:05:10.000Z</time>
      </trkpt>
      <trkpt lat="47.27532" lon="-2.24785">
        <ele>8.3999996185303</ele>
        <time>2022-09-04T09:05:11.000Z</time>
      </trkpt>
      <trkpt lat="47.27544" lon="-2.24784">
        <ele>8.3999996185303</ele>
        <time>2022-09-04T09:05:14.000Z</time>
      </trkpt>
      <trkpt lat="47.27567" lon="-2.24785">
        <ele>8.3999996185303</ele>
        <time>2022-09-04T09:05:19.000Z</time>
      </trkpt>
      <trkpt lat="47.27596" lon="-2.24786">
        <ele>8.3999996185303</ele>
        <time>2022-09-04T09:05:25.000Z</time>
      </trkpt>
      <trkpt lat="47.27618" lon="-2.24787">
        <ele>8.8000001907349</ele>
        <time>2022-09-04T09:05:30.000Z</time>
      </trkpt>
      <trkpt lat="47.27622" lon="-2.24786">
        <ele>9.1999998092651</ele>
        <time>2022-09-04T09:05:31.000Z</time>
      </trkpt>
      <trkpt lat="47.27626" lon="-2.24786">
        <ele>9.6000003814697</ele>
        <time>2022-09-04T09:05:32.000Z</time>
      </trkpt>
      <trkpt lat="47.2763" lon="-2.24786">
        <ele>10</ele>
        <time>2022-09-04T09:05:33.000Z</time>
      </trkpt>
      <trkpt lat="47.27635" lon="-2.24786">
        <ele>10.39999961853</ele>
        <time>2022-09-04T09:05:34.000Z</time>
      </trkpt>
      <trkpt lat="47.27639" lon="-2.24787">
        <ele>10.39999961853</ele>
        <time>2022-09-04T09:05:35.000Z</time>
      </trkpt>
      <trkpt lat="47.2766" lon="-2.24798">
        <ele>10.39999961853</ele>
        <time>2022-09-04T09:05:40.000Z</time>
      </trkpt>
      <trkpt lat="47.27665" lon="-2.24802">
        <ele>10</ele>
        <time>2022-09-04T09:05:41.000Z</time>
      </trkpt>
      <trkpt lat="47.2767" lon="-2.24804">
        <ele>9.6000003814697</ele>
        <time>2022-09-04T09:05:42.000Z</time>
      </trkpt>
      <trkpt lat="47.27676" lon="-2.24803">
        <ele>9.1999998092651</ele>
        <time>2022-09-04T09:05:43.000Z</time>
      </trkpt>
      <trkpt lat="47.27682" lon="-2.24804">
        <ele>8.8000001907349</ele>
        <time>2022-09-04T09:05:44.000Z</time>
      </trkpt>
      <trkpt lat="47.27687" lon="-2.24804">
        <ele>8.1999998092651</ele>
        <time>2022-09-04T09:05:45.000Z</time>
      </trkpt>
      <trkpt lat="47.27692" lon="-2.24804">
        <ele>8.1999998092651</ele>
        <time>2022-09-04T09:05:46.000Z</time>
      </trkpt>
      <trkpt lat="47.27702" lon="-2.24804">
        <ele>8.1999998092651</ele>
        <time>2022-09-04T09:05:48.000Z</time>
      </trkpt>
      <trkpt lat="47.27741" lon="-2.24804">
        <ele>8.1999998092651</ele>
        <time>2022-09-04T09:05:55.000Z</time>
      </trkpt>
      <trkpt lat="47.27783" lon="-2.24802">
        <ele>8.1999998092651</ele>
        <time>2022-09-04T09:06:03.000Z</time>
      </trkpt>
      <trkpt lat="47.27816" lon="-2.248">
        <ele>8.1999998092651</ele>
        <time>2022-09-04T09:06:10.000Z</time>
      </trkpt>
      <trkpt lat="47.27847" lon="-2.2479">
        <ele>8.1999998092651</ele>
        <time>2022-09-04T09:06:17.000Z</time>
      </trkpt>
      <trkpt lat="47.27866" lon="-2.24782">
        <ele>8.1999998092651</ele>
        <time>2022-09-04T09:06:23.000Z</time>
      </trkpt>
      <trkpt lat="47.27878" lon="-2.24784">
        <ele>8.1999998092651</ele>
        <time>2022-09-04T09:06:28.000Z</time>
      </trkpt>
      <trkpt lat="47.2788" lon="-2.24784">
        <ele>8.8000001907349</ele>
        <time>2022-09-04T09:06:29.000Z</time>
      </trkpt>
      <trkpt lat="47.27882" lon="-2.24783">
        <ele>9.1999998092651</ele>
        <time>2022-09-04T09:06:30.000Z</time>
      </trkpt>
      <trkpt lat="47.27882" lon="-2.24784">
        <ele>9.8000001907349</ele>
        <time>2022-09-04T09:06:31.000Z</time>
      </trkpt>
      <trkpt lat="47.27882" lon="-2.24784">
        <ele>10.199999809265</ele>
        <time>2022-09-04T09:06:32.000Z</time>
      </trkpt>
      <trkpt lat="47.27886" lon="-2.24784">
        <ele>10.60000038147</ele>
        <time>2022-09-04T09:06:36.000Z</time>
      </trkpt>
      <trkpt lat="47.27894" lon="-2.24793">
        <ele>10.60000038147</ele>
        <time>2022-09-04T09:06:40.000Z</time>
      </trkpt>
      <trkpt lat="47.27903" lon="-2.24802">
        <ele>10.60000038147</ele>
        <time>2022-09-04T09:06:43.000Z</time>
      </trkpt>
      <trkpt lat="47.27907" lon="-2.24804">
        <ele>10.60000038147</ele>
        <time>2022-09-04T09:06:44.000Z</time>
      </trkpt>
      <trkpt lat="47.27928" lon="-2.24815">
        <ele>10.60000038147</ele>
        <time>2022-09-04T09:06:49.000Z</time>
      </trkpt>
      <trkpt lat="47.27945" lon="-2.24824">
        <ele>10.60000038147</ele>
        <time>2022-09-04T09:06:53.000Z</time>
      </trkpt>
      <trkpt lat="47.2795" lon="-2.24825">
        <ele>11</ele>
        <time>2022-09-04T09:06:54.000Z</time>
      </trkpt>
      <trkpt lat="47.27954" lon="-2.24825">
        <ele>11.39999961853</ele>
        <time>2022-09-04T09:06:55.000Z</time>
      </trkpt>
      <trkpt lat="47.27958" lon="-2.24825">
        <ele>11.800000190735</ele>
        <time>2022-09-04T09:06:56.000Z</time>
      </trkpt>
      <trkpt lat="47.27963" lon="-2.24826">
        <ele>12.199999809265</ele>
        <time>2022-09-04T09:06:57.000Z</time>
      </trkpt>
      <trkpt lat="47.27968" lon="-2.24828">
        <ele>12.60000038147</ele>
        <time>2022-09-04T09:06:58.000Z</time>
      </trkpt>
      <trkpt lat="47.27983" lon="-2.24832">
        <ele>12.60000038147</ele>
        <time>2022-09-04T09:07:01.000Z</time>
      </trkpt>
      <trkpt lat="47.2802" lon="-2.2484">
        <ele>12.60000038147</ele>
        <time>2022-09-04T09:07:08.000Z</time>
      </trkpt>
      <trkpt lat="47.28035" lon="-2.24842">
        <ele>12.60000038147</ele>
        <time>2022-09-04T09:07:11.000Z</time>
      </trkpt>
      <trkpt lat="47.28045" lon="-2.24844">
        <ele>12.60000038147</ele>
        <time>2022-09-04T09:07:13.000Z</time>
      </trkpt>
      <trkpt lat="47.28069" lon="-2.24849">
        <ele>12.60000038147</ele>
        <time>2022-09-04T09:07:18.000Z</time>
      </trkpt>
      <trkpt lat="47.28079" lon="-2.24847">
        <ele>12.60000038147</ele>
        <time>2022-09-04T09:07:20.000Z</time>
      </trkpt>
      <trkpt lat="47.28084" lon="-2.24846">
        <ele>12.60000038147</ele>
        <time>2022-09-04T09:07:21.000Z</time>
      </trkpt>
      <trkpt lat="47.2809" lon="-2.24847">
        <ele>12.60000038147</ele>
        <time>2022-09-04T09:07:22.000Z</time>
      </trkpt>
      <trkpt lat="47.28115" lon="-2.24857">
        <ele>12.60000038147</ele>
        <time>2022-09-04T09:07:26.000Z</time>
      </trkpt>
      <trkpt lat="47.28137" lon="-2.24861">
        <ele>12.199999809265</ele>
        <time>2022-09-04T09:07:29.000Z</time>
      </trkpt>
      <trkpt lat="47.28144" lon="-2.2486">
        <ele>11.800000190735</ele>
        <time>2022-09-04T09:07:30.000Z</time>
      </trkpt>
      <trkpt lat="47.28149" lon="-2.24858">
        <ele>11.199999809265</ele>
        <time>2022-09-04T09:07:31.000Z</time>
      </trkpt>
      <trkpt lat="47.28154" lon="-2.24855">
        <ele>10.800000190735</ele>
        <time>2022-09-04T09:07:32.000Z</time>
      </trkpt>
      <trkpt lat="47.28157" lon="-2.2485">
        <ele>10.199999809265</ele>
        <time>2022-09-04T09:07:33.000Z</time>
      </trkpt>
      <trkpt lat="47.28158" lon="-2.24846">
        <ele>9.8000001907349</ele>
        <time>2022-09-04T09:07:34.000Z</time>
      </trkpt>
      <trkpt lat="47.28159" lon="-2.2484">
        <ele>9.3999996185303</ele>
        <time>2022-09-04T09:07:35.000Z</time>
      </trkpt>
      <trkpt lat="47.28159" lon="-2.24834">
        <ele>8.8000001907349</ele>
        <time>2022-09-04T09:07:36.000Z</time>
      </trkpt>
      <trkpt lat="47.2816" lon="-2.24828">
        <ele>8.3999996185303</ele>
        <time>2022-09-04T09:07:37.000Z</time>
      </trkpt>
      <trkpt lat="47.2816" lon="-2.24821">
        <ele>8</ele>
        <time>2022-09-04T09:07:38.000Z</time>
      </trkpt>
      <trkpt lat="47.28165" lon="-2.24812">
        <ele>8</ele>
        <time>2022-09-04T09:07:40.000Z</time>
      </trkpt>
      <trkpt lat="47.28179" lon="-2.2481">
        <ele>8</ele>
        <time>2022-09-04T09:07:43.000Z</time>
      </trkpt>
      <trkpt lat="47.28185" lon="-2.24811">
        <ele>7.4000000953674</ele>
        <time>2022-09-04T09:07:44.000Z</time>
      </trkpt>
      <trkpt lat="47.28192" lon="-2.24812">
        <ele>7</ele>
        <time>2022-09-04T09:07:45.000Z</time>
      </trkpt>
      <trkpt lat="47.282" lon="-2.24813">
        <ele>6.1999998092651</ele>
        <time>2022-09-04T09:07:46.000Z</time>
      </trkpt>
      <trkpt lat="47.28209" lon="-2.24815">
        <ele>5.4000000953674</ele>
        <time>2022-09-04T09:07:47.000Z</time>
      </trkpt>
      <trkpt lat="47.28218" lon="-2.24816">
        <ele>4.8000001907349</ele>
        <time>2022-09-04T09:07:48.000Z</time>
      </trkpt>
      <trkpt lat="47.28225" lon="-2.24816">
        <ele>4</ele>
        <time>2022-09-04T09:07:49.000Z</time>
      </trkpt>
      <trkpt lat="47.28233" lon="-2.24815">
        <ele>3.2000000476837</ele>
        <time>2022-09-04T09:07:50.000Z</time>
      </trkpt>
      <trkpt lat="47.2824" lon="-2.24812">
        <ele>2.4000000953674</ele>
        <time>2022-09-04T09:07:51.000Z</time>
      </trkpt>
      <trkpt lat="47.28247" lon="-2.24808">
        <ele>1.6000000238419</ele>
        <time>2022-09-04T09:07:52.000Z</time>
      </trkpt>
      <trkpt lat="47.28254" lon="-2.24803">
        <ele>0.80000001192093</ele>
        <time>2022-09-04T09:07:53.000Z</time>
      </trkpt>
      <trkpt lat="47.28274" lon="-2.24788">
        <ele>0.80000001192093</ele>
        <time>2022-09-04T09:07:56.000Z</time>
      </trkpt>
      <trkpt lat="47.28282" lon="-2.24783">
        <ele>0.40000000596046</ele>
        <time>2022-09-04T09:07:57.000Z</time>
      </trkpt>
      <trkpt lat="47.28289" lon="-2.24779">
        <ele>-0.20000000298023</ele>
        <time>2022-09-04T09:07:58.000Z</time>
      </trkpt>
      <trkpt lat="47.28297" lon="-2.24774">
        <ele>-0.60000002384186</ele>
        <time>2022-09-04T09:07:59.000Z</time>
      </trkpt>
      <trkpt lat="47.28304" lon="-2.24769">
        <ele>-1</ele>
        <time>2022-09-04T09:08:00.000Z</time>
      </trkpt>
      <trkpt lat="47.28311" lon="-2.24765">
        <ele>-1.6000000238419</ele>
        <time>2022-09-04T09:08:01.000Z</time>
      </trkpt>
      <trkpt lat="47.28334" lon="-2.24756">
        <ele>-1.6000000238419</ele>
        <time>2022-09-04T09:08:04.000Z</time>
      </trkpt>
      <trkpt lat="47.2834" lon="-2.24755">
        <ele>-2</ele>
        <time>2022-09-04T09:08:05.000Z</time>
      </trkpt>
      <trkpt lat="47.28346" lon="-2.24752">
        <ele>-2.4000000953674</ele>
        <time>2022-09-04T09:08:06.000Z</time>
      </trkpt>
      <trkpt lat="47.2835" lon="-2.24749">
        <ele>-2.7999999523163</ele>
        <time>2022-09-04T09:08:07.000Z</time>
      </trkpt>
      <trkpt lat="47.28352" lon="-2.24746">
        <ele>-3.2000000476837</ele>
        <time>2022-09-04T09:08:08.000Z</time>
      </trkpt>
      <trkpt lat="47.28354" lon="-2.24743">
        <ele>-3.5999999046326</ele>
        <time>2022-09-04T09:08:09.000Z</time>
      </trkpt>
      <trkpt lat="47.28361" lon="-2.24742">
        <ele>-3.5999999046326</ele>
        <time>2022-09-04T09:08:11.000Z</time>
      </trkpt>
      <trkpt lat="47.28363" lon="-2.24746">
        <ele>-3.5999999046326</ele>
        <time>2022-09-04T09:08:12.000Z</time>
      </trkpt>
      <trkpt lat="47.28367" lon="-2.24762">
        <ele>-3.5999999046326</ele>
        <time>2022-09-04T09:08:15.000Z</time>
      </trkpt>
      <trkpt lat="47.28368" lon="-2.24767">
        <ele>-3.5999999046326</ele>
        <time>2022-09-04T09:08:16.000Z</time>
      </trkpt>
      <trkpt lat="47.28377" lon="-2.24775">
        <ele>-3.5999999046326</ele>
        <time>2022-09-04T09:08:19.000Z</time>
      </trkpt>
      <trkpt lat="47.28395" lon="-2.24768">
        <ele>-3.5999999046326</ele>
        <time>2022-09-04T09:08:23.000Z</time>
      </trkpt>
      <trkpt lat="47.284" lon="-2.24765">
        <ele>-4</ele>
        <time>2022-09-04T09:08:24.000Z</time>
      </trkpt>
      <trkpt lat="47.28405" lon="-2.24762">
        <ele>-4.4000000953674</ele>
        <time>2022-09-04T09:08:25.000Z</time>
      </trkpt>
      <trkpt lat="47.2841" lon="-2.24758">
        <ele>-4.8000001907349</ele>
        <time>2022-09-04T09:08:26.000Z</time>
      </trkpt>
      <trkpt lat="47.28416" lon="-2.24754">
        <ele>-5.1999998092651</ele>
        <time>2022-09-04T09:08:27.000Z</time>
      </trkpt>
      <trkpt lat="47.28422" lon="-2.2475">
        <ele>-5.5999999046326</ele>
        <time>2022-09-04T09:08:28.000Z</time>
      </trkpt>
      <trkpt lat="47.28455" lon="-2.24725">
        <ele>-5.5999999046326</ele>
        <time>2022-09-04T09:08:34.000Z</time>
      </trkpt>
      <trkpt lat="47.28484" lon="-2.24702">
        <ele>-5.5999999046326</ele>
        <time>2022-09-04T09:08:39.000Z</time>
      </trkpt>
      <trkpt lat="47.28491" lon="-2.24698">
        <ele>-5.5999999046326</ele>
        <time>2022-09-04T09:08:40.000Z</time>
      </trkpt>
      <trkpt lat="47.28497" lon="-2.24694">
        <ele>-5.5999999046326</ele>
        <time>2022-09-04T09:08:41.000Z</time>
      </trkpt>
      <trkpt lat="47.28526" lon="-2.24672">
        <ele>-5.5999999046326</ele>
        <time>2022-09-04T09:08:46.000Z</time>
      </trkpt>
      <trkpt lat="47.28562" lon="-2.24642">
        <ele>-5.5999999046326</ele>
        <time>2022-09-04T09:08:53.000Z</time>
      </trkpt>
      <trkpt lat="47.28578" lon="-2.24628">
        <ele>-5.5999999046326</ele>
        <time>2022-09-04T09:08:58.000Z</time>
      </trkpt>
      <trkpt lat="47.2858" lon="-2.24625">
        <ele>-5.5999999046326</ele>
        <time>2022-09-04T09:08:59.000Z</time>
      </trkpt>
      <trkpt lat="47.28585" lon="-2.24616">
        <ele>-5.5999999046326</ele>
        <time>2022-09-04T09:09:02.000Z</time>
      </trkpt>
      <trkpt lat="47.28601" lon="-2.24599">
        <ele>-5.5999999046326</ele>
        <time>2022-09-04T09:09:07.000Z</time>
      </trkpt>
      <trkpt lat="47.28606" lon="-2.24581">
        <ele>-5.5999999046326</ele>
        <time>2022-09-04T09:09:10.000Z</time>
      </trkpt>
      <trkpt lat="47.28607" lon="-2.24575">
        <ele>-5.5999999046326</ele>
        <time>2022-09-04T09:09:11.000Z</time>
      </trkpt>
      <trkpt lat="47.28614" lon="-2.24547">
        <ele>-5.5999999046326</ele>
        <time>2022-09-04T09:09:15.000Z</time>
      </trkpt>
      <trkpt lat="47.28615" lon="-2.2454">
        <ele>-5.5999999046326</ele>
        <time>2022-09-04T09:09:16.000Z</time>
      </trkpt>
      <trkpt lat="47.28625" lon="-2.24502">
        <ele>-5.5999999046326</ele>
        <time>2022-09-04T09:09:21.000Z</time>
      </trkpt>
      <trkpt lat="47.28639" lon="-2.24446">
        <ele>-5.5999999046326</ele>
        <time>2022-09-04T09:09:28.000Z</time>
      </trkpt>
      <trkpt lat="47.28654" lon="-2.24392">
        <ele>-5.5999999046326</ele>
        <time>2022-09-04T09:09:35.000Z</time>
      </trkpt>
      <trkpt lat="47.28668" lon="-2.24341">
        <ele>-5.5999999046326</ele>
        <time>2022-09-04T09:09:42.000Z</time>
      </trkpt>
      <trkpt lat="47.28672" lon="-2.24327">
        <ele>-5.5999999046326</ele>
        <time>2022-09-04T09:09:44.000Z</time>
      </trkpt>
      <trkpt lat="47.28675" lon="-2.24308">
        <ele>-5.5999999046326</ele>
        <time>2022-09-04T09:09:47.000Z</time>
      </trkpt>
      <trkpt lat="47.28678" lon="-2.24297">
        <ele>-5.5999999046326</ele>
        <time>2022-09-04T09:09:49.000Z</time>
      </trkpt>
      <trkpt lat="47.28685" lon="-2.24272">
        <ele>-5.5999999046326</ele>
        <time>2022-09-04T09:09:53.000Z</time>
      </trkpt>
      <trkpt lat="47.28696" lon="-2.24262">
        <ele>-5.5999999046326</ele>
        <time>2022-09-04T09:09:56.000Z</time>
      </trkpt>
      <trkpt lat="47.28713" lon="-2.24261">
        <ele>-5.5999999046326</ele>
        <time>2022-09-04T09:10:00.000Z</time>
      </trkpt>
      <trkpt lat="47.28739" lon="-2.24262">
        <ele>-5.5999999046326</ele>
        <time>2022-09-04T09:10:06.000Z</time>
      </trkpt>
      <trkpt lat="47.28768" lon="-2.24261">
        <ele>-5.5999999046326</ele>
        <time>2022-09-04T09:10:12.000Z</time>
      </trkpt>
      <trkpt lat="47.28773" lon="-2.24259">
        <ele>-5.5999999046326</ele>
        <time>2022-09-04T09:10:13.000Z</time>
      </trkpt>
      <trkpt lat="47.2878" lon="-2.24253">
        <ele>-5.5999999046326</ele>
        <time>2022-09-04T09:10:15.000Z</time>
      </trkpt>
      <trkpt lat="47.28782" lon="-2.24236">
        <ele>-5.5999999046326</ele>
        <time>2022-09-04T09:10:18.000Z</time>
      </trkpt>
      <trkpt lat="47.28782" lon="-2.24206">
        <ele>-5.5999999046326</ele>
        <time>2022-09-04T09:10:22.000Z</time>
      </trkpt>
      <trkpt lat="47.28781" lon="-2.24198">
        <ele>-5.5999999046326</ele>
        <time>2022-09-04T09:10:23.000Z</time>
      </trkpt>
      <trkpt lat="47.28782" lon="-2.24152">
        <ele>-5.5999999046326</ele>
        <time>2022-09-04T09:10:29.000Z</time>
      </trkpt>
      <trkpt lat="47.28784" lon="-2.24107">
        <ele>-5.5999999046326</ele>
        <time>2022-09-04T09:10:34.000Z</time>
      </trkpt>
      <trkpt lat="47.28786" lon="-2.24063">
        <ele>-5.5999999046326</ele>
        <time>2022-09-04T09:10:39.000Z</time>
      </trkpt>
      <trkpt lat="47.28788" lon="-2.24056">
        <ele>-5.5999999046326</ele>
        <time>2022-09-04T09:10:40.000Z</time>
      </trkpt>
      <trkpt lat="47.2879" lon="-2.24033">
        <ele>-5.5999999046326</ele>
        <time>2022-09-04T09:10:43.000Z</time>
      </trkpt>
      <trkpt lat="47.28792" lon="-2.24017">
        <ele>-5.5999999046326</ele>
        <time>2022-09-04T09:10:45.000Z</time>
      </trkpt>
      <trkpt lat="47.28794" lon="-2.23981">
        <ele>-5.5999999046326</ele>
        <time>2022-09-04T09:10:49.000Z</time>
      </trkpt>
      <trkpt lat="47.28798" lon="-2.23933">
        <ele>-5.5999999046326</ele>
        <time>2022-09-04T09:10:55.000Z</time>
      </trkpt>
      <trkpt lat="47.288" lon="-2.23905">
        <ele>-5.5999999046326</ele>
        <time>2022-09-04T09:10:59.000Z</time>
      </trkpt>
      <trkpt lat="47.28803" lon="-2.23874">
        <ele>-5.5999999046326</ele>
        <time>2022-09-04T09:11:03.000Z</time>
      </trkpt>
      <trkpt lat="47.28804" lon="-2.23866">
        <ele>-5.5999999046326</ele>
        <time>2022-09-04T09:11:04.000Z</time>
      </trkpt>
      <trkpt lat="47.28804" lon="-2.23844">
        <ele>-5.5999999046326</ele>
        <time>2022-09-04T09:11:08.000Z</time>
      </trkpt>
      <trkpt lat="47.28807" lon="-2.23841">
        <ele>-6.1999998092651</ele>
        <time>2022-09-04T09:11:09.000Z</time>
      </trkpt>
      <trkpt lat="47.28809" lon="-2.23837">
        <ele>-6.5999999046326</ele>
        <time>2022-09-04T09:11:10.000Z</time>
      </trkpt>
      <trkpt lat="47.28811" lon="-2.23833">
        <ele>-7</ele>
        <time>2022-09-04T09:11:11.000Z</time>
      </trkpt>
      <trkpt lat="47.28812" lon="-2.23829">
        <ele>-7.4000000953674</ele>
        <time>2022-09-04T09:11:12.000Z</time>
      </trkpt>
      <trkpt lat="47.28813" lon="-2.23823">
        <ele>-7.8000001907349</ele>
        <time>2022-09-04T09:11:13.000Z</time>
      </trkpt>
      <trkpt lat="47.28809" lon="-2.23812">
        <ele>-7.8000001907349</ele>
        <time>2022-09-04T09:11:15.000Z</time>
      </trkpt>
      <trkpt lat="47.28796" lon="-2.23781">
        <ele>-7.8000001907349</ele>
        <time>2022-09-04T09:11:20.000Z</time>
      </trkpt>
      <trkpt lat="47.28772" lon="-2.23738">
        <ele>-7.8000001907349</ele>
        <time>2022-09-04T09:11:27.000Z</time>
      </trkpt>
      <trkpt lat="47.2874" lon="-2.23692">
        <ele>-7.8000001907349</ele>
        <time>2022-09-04T09:11:35.000Z</time>
      </trkpt>
      <trkpt lat="47.28716" lon="-2.23648">
        <ele>-7.8000001907349</ele>
        <time>2022-09-04T09:11:41.000Z</time>
      </trkpt>
      <trkpt lat="47.28693" lon="-2.23604">
        <ele>-7.8000001907349</ele>
        <time>2022-09-04T09:11:47.000Z</time>
      </trkpt>
      <trkpt lat="47.2867" lon="-2.2357">
        <ele>-7.8000001907349</ele>
        <time>2022-09-04T09:11:53.000Z</time>
      </trkpt>
      <trkpt lat="47.28662" lon="-2.23563">
        <ele>-7.8000001907349</ele>
        <time>2022-09-04T09:11:55.000Z</time>
      </trkpt>
      <trkpt lat="47.28653" lon="-2.2355">
        <ele>-7.8000001907349</ele>
        <time>2022-09-04T09:11:58.000Z</time>
      </trkpt>
      <trkpt lat="47.2865" lon="-2.23535">
        <ele>-7.8000001907349</ele>
        <time>2022-09-04T09:12:02.000Z</time>
      </trkpt>
      <trkpt lat="47.2865" lon="-2.2351">
        <ele>-7.8000001907349</ele>
        <time>2022-09-04T09:12:07.000Z</time>
      </trkpt>
      <trkpt lat="47.28651" lon="-2.23503">
        <ele>-7.8000001907349</ele>
        <time>2022-09-04T09:12:08.000Z</time>
      </trkpt>
      <trkpt lat="47.28652" lon="-2.23477">
        <ele>-7.8000001907349</ele>
        <time>2022-09-04T09:12:12.000Z</time>
      </trkpt>
      <trkpt lat="47.28652" lon="-2.23455">
        <ele>-7.8000001907349</ele>
        <time>2022-09-04T09:12:15.000Z</time>
      </trkpt>
      <trkpt lat="47.2865" lon="-2.23442">
        <ele>-7.8000001907349</ele>
        <time>2022-09-04T09:12:17.000Z</time>
      </trkpt>
      <trkpt lat="47.28641" lon="-2.23404">
        <ele>-7.8000001907349</ele>
        <time>2022-09-04T09:12:22.000Z</time>
      </trkpt>
      <trkpt lat="47.28641" lon="-2.23379">
        <ele>-7.8000001907349</ele>
        <time>2022-09-04T09:12:25.000Z</time>
      </trkpt>
      <trkpt lat="47.28642" lon="-2.23373">
        <ele>-7.8000001907349</ele>
        <time>2022-09-04T09:12:26.000Z</time>
      </trkpt>
      <trkpt lat="47.2865" lon="-2.23364">
        <ele>-7.8000001907349</ele>
        <time>2022-09-04T09:12:29.000Z</time>
      </trkpt>
      <trkpt lat="47.28661" lon="-2.23362">
        <ele>-7.8000001907349</ele>
        <time>2022-09-04T09:12:32.000Z</time>
      </trkpt>
      <trkpt lat="47.28664" lon="-2.23348">
        <ele>-7.8000001907349</ele>
        <time>2022-09-04T09:12:35.000Z</time>
      </trkpt>
      <trkpt lat="47.28667" lon="-2.23328">
        <ele>-7.8000001907349</ele>
        <time>2022-09-04T09:12:39.000Z</time>
      </trkpt>
      <trkpt lat="47.28668" lon="-2.23307">
        <ele>-7.8000001907349</ele>
        <time>2022-09-04T09:12:45.000Z</time>
      </trkpt>
      <trkpt lat="47.2867" lon="-2.23302">
        <ele>-7.4000000953674</ele>
        <time>2022-09-04T09:12:47.000Z</time>
      </trkpt>
      <trkpt lat="47.28671" lon="-2.233">
        <ele>-7</ele>
        <time>2022-09-04T09:12:48.000Z</time>
      </trkpt>
      <trkpt lat="47.28671" lon="-2.23297">
        <ele>-6.5999999046326</ele>
        <time>2022-09-04T09:12:49.000Z</time>
      </trkpt>
      <trkpt lat="47.28671" lon="-2.23292">
        <ele>-6.1999998092651</ele>
        <time>2022-09-04T09:12:50.000Z</time>
      </trkpt>
      <trkpt lat="47.28674" lon="-2.23288">
        <ele>-5.8000001907349</ele>
        <time>2022-09-04T09:12:51.000Z</time>
      </trkpt>
      <trkpt lat="47.28677" lon="-2.2328">
        <ele>-5.8000001907349</ele>
        <time>2022-09-04T09:12:53.000Z</time>
      </trkpt>
      <trkpt lat="47.28685" lon="-2.23261">
        <ele>-5.8000001907349</ele>
        <time>2022-09-04T09:12:57.000Z</time>
      </trkpt>
      <trkpt lat="47.28689" lon="-2.23253">
        <ele>-5.8000001907349</ele>
        <time>2022-09-04T09:13:00.000Z</time>
      </trkpt>
      <trkpt lat="47.28686" lon="-2.23238">
        <ele>-5.8000001907349</ele>
        <time>2022-09-04T09:13:04.000Z</time>
      </trkpt>
      <trkpt lat="47.28682" lon="-2.23222">
        <ele>-5.8000001907349</ele>
        <time>2022-09-04T09:13:06.000Z</time>
      </trkpt>
      <trkpt lat="47.2868" lon="-2.23214">
        <ele>-5.8000001907349</ele>
        <time>2022-09-04T09:13:07.000Z</time>
      </trkpt>
      <trkpt lat="47.28678" lon="-2.23206">
        <ele>-6.1999998092651</ele>
        <time>2022-09-04T09:13:08.000Z</time>
      </trkpt>
      <trkpt lat="47.28677" lon="-2.23197">
        <ele>-6.5999999046326</ele>
        <time>2022-09-04T09:13:09.000Z</time>
      </trkpt>
      <trkpt lat="47.28675" lon="-2.2319">
        <ele>-7</ele>
        <time>2022-09-04T09:13:10.000Z</time>
      </trkpt>
      <trkpt lat="47.28671" lon="-2.23185">
        <ele>-7.4000000953674</ele>
        <time>2022-09-04T09:13:11.000Z</time>
      </trkpt>
      <trkpt lat="47.28668" lon="-2.23183">
        <ele>-8</ele>
        <time>2022-09-04T09:13:12.000Z</time>
      </trkpt>
      <trkpt lat="47.28659" lon="-2.23185">
        <ele>-8</ele>
        <time>2022-09-04T09:13:15.000Z</time>
      </trkpt>
      <trkpt lat="47.28656" lon="-2.23185">
        <ele>-8</ele>
        <time>2022-09-04T09:13:16.000Z</time>
      </trkpt>
      <trkpt lat="47.28632" lon="-2.23191">
        <ele>-8</ele>
        <time>2022-09-04T09:13:22.000Z</time>
      </trkpt>
      <trkpt lat="47.2862" lon="-2.23201">
        <ele>-8</ele>
        <time>2022-09-04T09:13:27.000Z</time>
      </trkpt>
      <trkpt lat="47.28621" lon="-2.23212">
        <ele>-8</ele>
        <time>2022-09-04T09:13:31.000Z</time>
      </trkpt>
      <trkpt lat="47.2862" lon="-2.23222">
        <ele>-8</ele>
        <time>2022-09-04T09:13:35.000Z</time>
      </trkpt>
      <trkpt lat="47.28615" lon="-2.23229">
        <ele>-8</ele>
        <time>2022-09-04T09:13:38.000Z</time>
      </trkpt>
      <trkpt lat="47.28613" lon="-2.23231">
        <ele>-8</ele>
        <time>2022-09-04T09:13:40.000Z</time>
      </trkpt>
      <trkpt lat="47.28604" lon="-2.23237">
        <ele>-8</ele>
        <time>2022-09-04T09:13:45.000Z</time>
      </trkpt>
      <trkpt lat="47.28591" lon="-2.23245">
        <ele>-8</ele>
        <time>2022-09-04T09:13:50.000Z</time>
      </trkpt>
      <trkpt lat="47.28592" lon="-2.23258">
        <ele>-8</ele>
        <time>2022-09-04T09:13:53.000Z</time>
      </trkpt>
      <trkpt lat="47.28594" lon="-2.23274">
        <ele>-8</ele>
        <time>2022-09-04T09:13:56.000Z</time>
      </trkpt>
      <trkpt lat="47.28595" lon="-2.23281">
        <ele>-8</ele>
        <time>2022-09-04T09:13:57.000Z</time>
      </trkpt>
      <trkpt lat="47.28604" lon="-2.23293">
        <ele>-8</ele>
        <time>2022-09-04T09:14:00.000Z</time>
      </trkpt>
      <trkpt lat="47.28607" lon="-2.23295">
        <ele>-8</ele>
        <time>2022-09-04T09:14:01.000Z</time>
      </trkpt>
      <trkpt lat="47.28621" lon="-2.233">
        <ele>-8</ele>
        <time>2022-09-04T09:14:04.000Z</time>
      </trkpt>
      <trkpt lat="47.28625" lon="-2.233">
        <ele>-8</ele>
        <time>2022-09-04T09:14:05.000Z</time>
      </trkpt>
      <trkpt lat="47.28636" lon="-2.23298">
        <ele>-8</ele>
        <time>2022-09-04T09:14:08.000Z</time>
      </trkpt>
      <trkpt lat="47.28639" lon="-2.23297">
        <ele>-8</ele>
        <time>2022-09-04T09:14:09.000Z</time>
      </trkpt>
      <trkpt lat="47.28642" lon="-2.23299">
        <ele>-8</ele>
        <time>2022-09-04T09:14:10.000Z</time>
      </trkpt>
      <trkpt lat="47.28651" lon="-2.23302">
        <ele>-8</ele>
        <time>2022-09-04T09:14:12.000Z</time>
      </trkpt>
      <trkpt lat="47.28653" lon="-2.23306">
        <ele>-8</ele>
        <time>2022-09-04T09:14:13.000Z</time>
      </trkpt>
      <trkpt lat="47.28655" lon="-2.23313">
        <ele>-8</ele>
        <time>2022-09-04T09:14:15.000Z</time>
      </trkpt>
      <trkpt lat="47.28658" lon="-2.23323">
        <ele>-8</ele>
        <time>2022-09-04T09:14:20.000Z</time>
      </trkpt>
      <trkpt lat="47.28658" lon="-2.23322">
        <ele>-8</ele>
        <time>2022-09-04T09:14:21.000Z</time>
      </trkpt>
      <trkpt lat="47.28658" lon="-2.23319">
        <ele>-8</ele>
        <time>2022-09-04T09:14:23.000Z</time>
      </trkpt>
      <trkpt lat="47.28658" lon="-2.23304">
        <ele>-8</ele>
        <time>2022-09-04T09:14:27.000Z</time>
      </trkpt>
      <trkpt lat="47.28662" lon="-2.23298">
        <ele>-8</ele>
        <time>2022-09-04T09:14:30.000Z</time>
      </trkpt>
      <trkpt lat="47.28662" lon="-2.23297">
        <ele>-8</ele>
        <time>2022-09-04T09:14:31.000Z</time>
      </trkpt>
      <trkpt lat="47.28661" lon="-2.23297">
        <ele>-8</ele>
        <time>2022-09-04T09:14:33.000Z</time>
      </trkpt>
      <trkpt lat="47.28662" lon="-2.23296">
        <ele>-5.8000001907349</ele>
        <time>2022-09-04T09:15:35.000Z</time>
      </trkpt>
      <trkpt lat="47.28661" lon="-2.23297">
        <ele>-5.8000001907349</ele>
        <time>2022-09-04T09:15:36.000Z</time>
      </trkpt>
      <trkpt lat="47.28656" lon="-2.23309">
        <ele>-6.1999998092651</ele>
        <time>2022-09-04T09:15:39.000Z</time>
      </trkpt>
      <trkpt lat="47.28656" lon="-2.23312">
        <ele>-6.8000001907349</ele>
        <time>2022-09-04T09:15:40.000Z</time>
      </trkpt>
      <trkpt lat="47.28655" lon="-2.23314">
        <ele>-7.1999998092651</ele>
        <time>2022-09-04T09:15:41.000Z</time>
      </trkpt>
      <trkpt lat="47.28655" lon="-2.23314">
        <ele>-7.5999999046326</ele>
        <time>2022-09-04T09:15:42.000Z</time>
      </trkpt>
      <trkpt lat="47.28656" lon="-2.23322">
        <ele>-8.1999998092651</ele>
        <time>2022-09-04T09:16:17.000Z</time>
      </trkpt>
      <trkpt lat="47.28655" lon="-2.23326">
        <ele>-8.1999998092651</ele>
        <time>2022-09-04T09:16:19.000Z</time>
      </trkpt>
      <trkpt lat="47.28654" lon="-2.23338">
        <ele>-8.1999998092651</ele>
        <time>2022-09-04T09:16:23.000Z</time>
      </trkpt>
      <trkpt lat="47.28651" lon="-2.23365">
        <ele>-8.1999998092651</ele>
        <time>2022-09-04T09:16:28.000Z</time>
      </trkpt>
      <trkpt lat="47.28647" lon="-2.23399">
        <ele>-8.1999998092651</ele>
        <time>2022-09-04T09:16:33.000Z</time>
      </trkpt>
      <trkpt lat="47.28653" lon="-2.23427">
        <ele>-8.1999998092651</ele>
        <time>2022-09-04T09:16:37.000Z</time>
      </trkpt>
      <trkpt lat="47.28658" lon="-2.23447">
        <ele>-8.1999998092651</ele>
        <time>2022-09-04T09:16:41.000Z</time>
      </trkpt>
      <trkpt lat="47.28659" lon="-2.23465">
        <ele>-8.1999998092651</ele>
        <time>2022-09-04T09:16:44.000Z</time>
      </trkpt>
      <trkpt lat="47.28659" lon="-2.23471">
        <ele>-8.1999998092651</ele>
        <time>2022-09-04T09:16:45.000Z</time>
      </trkpt>
      <trkpt lat="47.28656" lon="-2.23484">
        <ele>-8.1999998092651</ele>
        <time>2022-09-04T09:16:47.000Z</time>
      </trkpt>
      <trkpt lat="47.28654" lon="-2.23498">
        <ele>-8.1999998092651</ele>
        <time>2022-09-04T09:16:49.000Z</time>
      </trkpt>
      <trkpt lat="47.28651" lon="-2.2353">
        <ele>-8.1999998092651</ele>
        <time>2022-09-04T09:16:54.000Z</time>
      </trkpt>
      <trkpt lat="47.28658" lon="-2.23558">
        <ele>-8.1999998092651</ele>
        <time>2022-09-04T09:16:58.000Z</time>
      </trkpt>
      <trkpt lat="47.28668" lon="-2.23564">
        <ele>-8.1999998092651</ele>
        <time>2022-09-04T09:17:00.000Z</time>
      </trkpt>
      <trkpt lat="47.28677" lon="-2.23572">
        <ele>-8.1999998092651</ele>
        <time>2022-09-04T09:17:02.000Z</time>
      </trkpt>
      <trkpt lat="47.28695" lon="-2.23593">
        <ele>-8.1999998092651</ele>
        <time>2022-09-04T09:17:07.000Z</time>
      </trkpt>
      <trkpt lat="47.28702" lon="-2.23593">
        <ele>-8.1999998092651</ele>
        <time>2022-09-04T09:17:09.000Z</time>
      </trkpt>
      <trkpt lat="47.28706" lon="-2.2359">
        <ele>-8.1999998092651</ele>
        <time>2022-09-04T09:17:10.000Z</time>
      </trkpt>
      <trkpt lat="47.28723" lon="-2.2357">
        <ele>-8.1999998092651</ele>
        <time>2022-09-04T09:17:15.000Z</time>
      </trkpt>
      <trkpt lat="47.28725" lon="-2.23565">
        <ele>-8.1999998092651</ele>
        <time>2022-09-04T09:17:16.000Z</time>
      </trkpt>
      <trkpt lat="47.28728" lon="-2.23559">
        <ele>-8.1999998092651</ele>
        <time>2022-09-04T09:17:17.000Z</time>
      </trkpt>
      <trkpt lat="47.28735" lon="-2.23546">
        <ele>-8.1999998092651</ele>
        <time>2022-09-04T09:17:20.000Z</time>
      </trkpt>
      <trkpt lat="47.28751" lon="-2.2353">
        <ele>-8.1999998092651</ele>
        <time>2022-09-04T09:17:25.000Z</time>
      </trkpt>
      <trkpt lat="47.28758" lon="-2.23525">
        <ele>-7.1999998092651</ele>
        <time>2022-09-04T09:17:27.000Z</time>
      </trkpt>
      <trkpt lat="47.28761" lon="-2.23524">
        <ele>-6.8000001907349</ele>
        <time>2022-09-04T09:17:28.000Z</time>
      </trkpt>
      <trkpt lat="47.28764" lon="-2.23522">
        <ele>-6.4000000953674</ele>
        <time>2022-09-04T09:17:29.000Z</time>
      </trkpt>
      <trkpt lat="47.28768" lon="-2.2352">
        <ele>-5.8000001907349</ele>
        <time>2022-09-04T09:17:30.000Z</time>
      </trkpt>
      <trkpt lat="47.28772" lon="-2.23519">
        <ele>-5.8000001907349</ele>
        <time>2022-09-04T09:17:31.000Z</time>
      </trkpt>
      <trkpt lat="47.28785" lon="-2.23516">
        <ele>-5.8000001907349</ele>
        <time>2022-09-04T09:17:34.000Z</time>
      </trkpt>
      <trkpt lat="47.2879" lon="-2.23514">
        <ele>-5.4000000953674</ele>
        <time>2022-09-04T09:17:35.000Z</time>
      </trkpt>
      <trkpt lat="47.28796" lon="-2.23513">
        <ele>-5</ele>
        <time>2022-09-04T09:17:36.000Z</time>
      </trkpt>
      <trkpt lat="47.28801" lon="-2.23513">
        <ele>-4.5999999046326</ele>
        <time>2022-09-04T09:17:37.000Z</time>
      </trkpt>
      <trkpt lat="47.28806" lon="-2.23511">
        <ele>-4.1999998092651</ele>
        <time>2022-09-04T09:17:38.000Z</time>
      </trkpt>
      <trkpt lat="47.28811" lon="-2.23511">
        <ele>-3.7999999523163</ele>
        <time>2022-09-04T09:17:39.000Z</time>
      </trkpt>
      <trkpt lat="47.28824" lon="-2.23509">
        <ele>-3.7999999523163</ele>
        <time>2022-09-04T09:17:42.000Z</time>
      </trkpt>
      <trkpt lat="47.28839" lon="-2.23509">
        <ele>-3.7999999523163</ele>
        <time>2022-09-04T09:17:45.000Z</time>
      </trkpt>
      <trkpt lat="47.28844" lon="-2.23508">
        <ele>-3.7999999523163</ele>
        <time>2022-09-04T09:17:46.000Z</time>
      </trkpt>
      <trkpt lat="47.28849" lon="-2.23508">
        <ele>-3.4000000953674</ele>
        <time>2022-09-04T09:17:47.000Z</time>
      </trkpt>
      <trkpt lat="47.28854" lon="-2.23507">
        <ele>-3</ele>
        <time>2022-09-04T09:17:48.000Z</time>
      </trkpt>
      <trkpt lat="47.28859" lon="-2.23506">
        <ele>-2.5999999046326</ele>
        <time>2022-09-04T09:17:49.000Z</time>
      </trkpt>
      <trkpt lat="47.28864" lon="-2.23505">
        <ele>-2</ele>
        <time>2022-09-04T09:17:50.000Z</time>
      </trkpt>
      <trkpt lat="47.28869" lon="-2.23505">
        <ele>-1.6000000238419</ele>
        <time>2022-09-04T09:17:51.000Z</time>
      </trkpt>
      <trkpt lat="47.28874" lon="-2.23504">
        <ele>-1.6000000238419</ele>
        <time>2022-09-04T09:17:52.000Z</time>
      </trkpt>
      <trkpt lat="47.28884" lon="-2.23505">
        <ele>-1.6000000238419</ele>
        <time>2022-09-04T09:17:54.000Z</time>
      </trkpt>
      <trkpt lat="47.28893" lon="-2.23505">
        <ele>-1.6000000238419</ele>
        <time>2022-09-04T09:17:56.000Z</time>
      </trkpt>
      <trkpt lat="47.28908" lon="-2.23504">
        <ele>-1.2000000476837</ele>
        <time>2022-09-04T09:17:59.000Z</time>
      </trkpt>
      <trkpt lat="47.28913" lon="-2.23503">
        <ele>-0.80000001192093</ele>
        <time>2022-09-04T09:18:00.000Z</time>
      </trkpt>
      <trkpt lat="47.28918" lon="-2.23501">
        <ele>-0.40000000596046</ele>
        <time>2022-09-04T09:18:01.000Z</time>
      </trkpt>
      <trkpt lat="47.28922" lon="-2.23498">
        <ele>13.2</ele>
        <time>2022-09-04T09:18:02.000Z</time>
      </trkpt>
      <trkpt lat="47.28926" lon="-2.23497">
        <ele>0.40000000596046</ele>
        <time>2022-09-04T09:18:03.000Z</time>
      </trkpt>
      <trkpt lat="47.28935" lon="-2.23495">
        <ele>0.40000000596046</ele>
        <time>2022-09-04T09:18:05.000Z</time>
      </trkpt>
      <trkpt lat="47.28949" lon="-2.23493">
        <ele>0.40000000596046</ele>
        <time>2022-09-04T09:18:08.000Z</time>
      </trkpt>
      <trkpt lat="47.28958" lon="-2.23487">
        <ele>0.40000000596046</ele>
        <time>2022-09-04T09:18:11.000Z</time>
      </trkpt>
      <trkpt lat="47.28959" lon="-2.23481">
        <ele>0.40000000596046</ele>
        <time>2022-09-04T09:18:12.000Z</time>
      </trkpt>
      <trkpt lat="47.2896" lon="-2.23456">
        <ele>0.40000000596046</ele>
        <time>2022-09-04T09:18:16.000Z</time>
      </trkpt>
      <trkpt lat="47.2896" lon="-2.23449">
        <ele>0.40000000596046</ele>
        <time>2022-09-04T09:18:17.000Z</time>
      </trkpt>
      <trkpt lat="47.28964" lon="-2.23419">
        <ele>0.40000000596046</ele>
        <time>2022-09-04T09:18:21.000Z</time>
      </trkpt>
      <trkpt lat="47.28969" lon="-2.23367">
        <ele>0.40000000596046</ele>
        <time>2022-09-04T09:18:28.000Z</time>
      </trkpt>
      <trkpt lat="47.28976" lon="-2.23306">
        <ele>0.40000000596046</ele>
        <time>2022-09-04T09:18:35.000Z</time>
      </trkpt>
      <trkpt lat="47.28982" lon="-2.23246">
        <ele>-0.40000000596046</ele>
        <time>2022-09-04T09:18:41.000Z</time>
      </trkpt>
      <trkpt lat="47.28982" lon="-2.23236">
        <ele>-0.80000001192093</ele>
        <time>2022-09-04T09:18:42.000Z</time>
      </trkpt>
      <trkpt lat="47.28983" lon="-2.23225">
        <ele>-1.2000000476837</ele>
        <time>2022-09-04T09:18:43.000Z</time>
      </trkpt>
      <trkpt lat="47.28984" lon="-2.23214">
        <ele>-1.6000000238419</ele>
        <time>2022-09-04T09:18:44.000Z</time>
      </trkpt>
      <trkpt lat="47.28985" lon="-2.23204">
        <ele>-1.6000000238419</ele>
        <time>2022-09-04T09:18:45.000Z</time>
      </trkpt>
      <trkpt lat="47.28988" lon="-2.23172">
        <ele>-2</ele>
        <time>2022-09-04T09:18:48.000Z</time>
      </trkpt>
      <trkpt lat="47.28989" lon="-2.23161">
        <ele>-2.4000000953674</ele>
        <time>2022-09-04T09:18:49.000Z</time>
      </trkpt>
      <trkpt lat="47.28991" lon="-2.2315">
        <ele>-2.7999999523163</ele>
        <time>2022-09-04T09:18:50.000Z</time>
      </trkpt>
      <trkpt lat="47.28992" lon="-2.23139">
        <ele>-3.2000000476837</ele>
        <time>2022-09-04T09:18:51.000Z</time>
      </trkpt>
      <trkpt lat="47.28994" lon="-2.23129">
        <ele>-3.5999999046326</ele>
        <time>2022-09-04T09:18:52.000Z</time>
      </trkpt>
      <trkpt lat="47.28996" lon="-2.23106">
        <ele>-4.1999998092651</ele>
        <time>2022-09-04T09:18:54.000Z</time>
      </trkpt>
      <trkpt lat="47.28998" lon="-2.23095">
        <ele>-4.5999999046326</ele>
        <time>2022-09-04T09:18:55.000Z</time>
      </trkpt>
      <trkpt lat="47.29" lon="-2.23083">
        <ele>-5</ele>
        <time>2022-09-04T09:18:56.000Z</time>
      </trkpt>
      <trkpt lat="47.29002" lon="-2.23071">
        <ele>-5.4000000953674</ele>
        <time>2022-09-04T09:18:57.000Z</time>
      </trkpt>
      <trkpt lat="47.29006" lon="-2.23059">
        <ele>-6</ele>
        <time>2022-09-04T09:18:58.000Z</time>
      </trkpt>
      <trkpt lat="47.29013" lon="-2.23036">
        <ele>-6</ele>
        <time>2022-09-04T09:19:00.000Z</time>
      </trkpt>
      <trkpt lat="47.29016" lon="-2.23025">
        <ele>-6.4000000953674</ele>
        <time>2022-09-04T09:19:01.000Z</time>
      </trkpt>
      <trkpt lat="47.29019" lon="-2.23014">
        <ele>-6.8000001907349</ele>
        <time>2022-09-04T09:19:02.000Z</time>
      </trkpt>
      <trkpt lat="47.29021" lon="-2.23004">
        <ele>-7.4000000953674</ele>
        <time>2022-09-04T09:19:03.000Z</time>
      </trkpt>
      <trkpt lat="47.29024" lon="-2.22997">
        <ele>-7.8000001907349</ele>
        <time>2022-09-04T09:19:04.000Z</time>
      </trkpt>
      <trkpt lat="47.29026" lon="-2.22988">
        <ele>-8.1999998092651</ele>
        <time>2022-09-04T09:19:05.000Z</time>
      </trkpt>
      <trkpt lat="47.29029" lon="-2.22974">
        <ele>-8.1999998092651</ele>
        <time>2022-09-04T09:19:07.000Z</time>
      </trkpt>
      <trkpt lat="47.29038" lon="-2.22973">
        <ele>-8.1999998092651</ele>
        <time>2022-09-04T09:19:09.000Z</time>
      </trkpt>
      <trkpt lat="47.29045" lon="-2.22987">
        <ele>-8.1999998092651</ele>
        <time>2022-09-04T09:19:11.000Z</time>
      </trkpt>
      <trkpt lat="47.29049" lon="-2.22995">
        <ele>-8.1999998092651</ele>
        <time>2022-09-04T09:19:12.000Z</time>
      </trkpt>
      <trkpt lat="47.29054" lon="-2.23002">
        <ele>-8.1999998092651</ele>
        <time>2022-09-04T09:19:13.000Z</time>
      </trkpt>
      <trkpt lat="47.29065" lon="-2.23014">
        <ele>-8.1999998092651</ele>
        <time>2022-09-04T09:19:15.000Z</time>
      </trkpt>
      <trkpt lat="47.29076" lon="-2.23027">
        <ele>-8.1999998092651</ele>
        <time>2022-09-04T09:19:17.000Z</time>
      </trkpt>
      <trkpt lat="47.29096" lon="-2.23053">
        <ele>-8.1999998092651</ele>
        <time>2022-09-04T09:19:21.000Z</time>
      </trkpt>
      <trkpt lat="47.29132" lon="-2.23099">
        <ele>-8.1999998092651</ele>
        <time>2022-09-04T09:19:28.000Z</time>
      </trkpt>
      <trkpt lat="47.29166" lon="-2.23142">
        <ele>-8.1999998092651</ele>
        <time>2022-09-04T09:19:35.000Z</time>
      </trkpt>
      <trkpt lat="47.29182" lon="-2.23164">
        <ele>-8.1999998092651</ele>
        <time>2022-09-04T09:19:39.000Z</time>
      </trkpt>
      <trkpt lat="47.29188" lon="-2.23177">
        <ele>-8.1999998092651</ele>
        <time>2022-09-04T09:19:41.000Z</time>
      </trkpt>
      <trkpt lat="47.29199" lon="-2.23208">
        <ele>-8.1999998092651</ele>
        <time>2022-09-04T09:19:46.000Z</time>
      </trkpt>
      <trkpt lat="47.29207" lon="-2.23234">
        <ele>-8.1999998092651</ele>
        <time>2022-09-04T09:19:50.000Z</time>
      </trkpt>
      <trkpt lat="47.29216" lon="-2.23246">
        <ele>-8.1999998092651</ele>
        <time>2022-09-04T09:19:52.000Z</time>
      </trkpt>
      <trkpt lat="47.29231" lon="-2.23266">
        <ele>-8.1999998092651</ele>
        <time>2022-09-04T09:19:55.000Z</time>
      </trkpt>
      <trkpt lat="47.29257" lon="-2.23309">
        <ele>-8.1999998092651</ele>
        <time>2022-09-04T09:20:01.000Z</time>
      </trkpt>
      <trkpt lat="47.2926" lon="-2.23318">
        <ele>-8.1999998092651</ele>
        <time>2022-09-04T09:20:02.000Z</time>
      </trkpt>
      <trkpt lat="47.29266" lon="-2.23335">
        <ele>-8.1999998092651</ele>
        <time>2022-09-04T09:20:04.000Z</time>
      </trkpt>
      <trkpt lat="47.2927" lon="-2.23353">
        <ele>-8.1999998092651</ele>
        <time>2022-09-04T09:20:06.000Z</time>
      </trkpt>
      <trkpt lat="47.29275" lon="-2.23378">
        <ele>-8.1999998092651</ele>
        <time>2022-09-04T09:20:09.000Z</time>
      </trkpt>
      <trkpt lat="47.29279" lon="-2.23396">
        <ele>-8.1999998092651</ele>
        <time>2022-09-04T09:20:11.000Z</time>
      </trkpt>
      <trkpt lat="47.29295" lon="-2.23473">
        <ele>-8.1999998092651</ele>
        <time>2022-09-04T09:20:19.000Z</time>
      </trkpt>
      <trkpt lat="47.29307" lon="-2.23542">
        <ele>-8.1999998092651</ele>
        <time>2022-09-04T09:20:26.000Z</time>
      </trkpt>
      <trkpt lat="47.29311" lon="-2.23581">
        <ele>-8.1999998092651</ele>
        <time>2022-09-04T09:20:30.000Z</time>
      </trkpt>
      <trkpt lat="47.29312" lon="-2.236">
        <ele>-8.1999998092651</ele>
        <time>2022-09-04T09:20:32.000Z</time>
      </trkpt>
      <trkpt lat="47.29313" lon="-2.23673">
        <ele>-8.1999998092651</ele>
        <time>2022-09-04T09:20:40.000Z</time>
      </trkpt>
      <trkpt lat="47.29313" lon="-2.23737">
        <ele>-8.1999998092651</ele>
        <time>2022-09-04T09:20:47.000Z</time>
      </trkpt>
      <trkpt lat="47.29315" lon="-2.23776">
        <ele>-8.1999998092651</ele>
        <time>2022-09-04T09:20:52.000Z</time>
      </trkpt>
      <trkpt lat="47.29328" lon="-2.23781">
        <ele>-8.1999998092651</ele>
        <time>2022-09-04T09:20:55.000Z</time>
      </trkpt>
      <trkpt lat="47.29348" lon="-2.23789">
        <ele>-8.1999998092651</ele>
        <time>2022-09-04T09:20:59.000Z</time>
      </trkpt>
      <trkpt lat="47.29353" lon="-2.23793">
        <ele>-8.1999998092651</ele>
        <time>2022-09-04T09:21:00.000Z</time>
      </trkpt>
      <trkpt lat="47.29358" lon="-2.23795">
        <ele>-8.1999998092651</ele>
        <time>2022-09-04T09:21:01.000Z</time>
      </trkpt>
      <trkpt lat="47.29367" lon="-2.23786">
        <ele>-8.1999998092651</ele>
        <time>2022-09-04T09:21:03.000Z</time>
      </trkpt>
      <trkpt lat="47.2937" lon="-2.23763">
        <ele>-8.1999998092651</ele>
        <time>2022-09-04T09:21:06.000Z</time>
      </trkpt>
      <trkpt lat="47.29379" lon="-2.23718">
        <ele>-8.1999998092651</ele>
        <time>2022-09-04T09:21:12.000Z</time>
      </trkpt>
      <trkpt lat="47.29388" lon="-2.23707">
        <ele>-7.8000001907349</ele>
        <time>2022-09-04T09:21:14.000Z</time>
      </trkpt>
      <trkpt lat="47.29393" lon="-2.23704">
        <ele>-7.4000000953674</ele>
        <time>2022-09-04T09:21:15.000Z</time>
      </trkpt>
      <trkpt lat="47.29398" lon="-2.23701">
        <ele>-7</ele>
        <time>2022-09-04T09:21:16.000Z</time>
      </trkpt>
      <trkpt lat="47.29404" lon="-2.23699">
        <ele>-6.5999999046326</ele>
        <time>2022-09-04T09:21:17.000Z</time>
      </trkpt>
      <trkpt lat="47.2941" lon="-2.23698">
        <ele>-6.1999998092651</ele>
        <time>2022-09-04T09:21:18.000Z</time>
      </trkpt>
      <trkpt lat="47.29421" lon="-2.23694">
        <ele>-6.1999998092651</ele>
        <time>2022-09-04T09:21:20.000Z</time>
      </trkpt>
      <trkpt lat="47.29436" lon="-2.23691">
        <ele>-5.8000001907349</ele>
        <time>2022-09-04T09:21:23.000Z</time>
      </trkpt>
      <trkpt lat="47.2944" lon="-2.23689">
        <ele>-5.4000000953674</ele>
        <time>2022-09-04T09:21:24.000Z</time>
      </trkpt>
      <trkpt lat="47.29445" lon="-2.23687">
        <ele>-5</ele>
        <time>2022-09-04T09:21:25.000Z</time>
      </trkpt>
      <trkpt lat="47.29449" lon="-2.23685">
        <ele>-4.5999999046326</ele>
        <time>2022-09-04T09:21:26.000Z</time>
      </trkpt>
      <trkpt lat="47.29454" lon="-2.23683">
        <ele>-4</ele>
        <time>2022-09-04T09:21:27.000Z</time>
      </trkpt>
      <trkpt lat="47.29466" lon="-2.23676">
        <ele>-3.5999999046326</ele>
        <time>2022-09-04T09:21:30.000Z</time>
      </trkpt>
      <trkpt lat="47.2947" lon="-2.23674">
        <ele>-3.2000000476837</ele>
        <time>2022-09-04T09:21:31.000Z</time>
      </trkpt>
      <trkpt lat="47.29474" lon="-2.23672">
        <ele>-2.7999999523163</ele>
        <time>2022-09-04T09:21:32.000Z</time>
      </trkpt>
      <trkpt lat="47.29477" lon="-2.23669">
        <ele>-2.4000000953674</ele>
        <time>2022-09-04T09:21:33.000Z</time>
      </trkpt>
      <trkpt lat="47.29481" lon="-2.23667">
        <ele>-2</ele>
        <time>2022-09-04T09:21:34.000Z</time>
      </trkpt>
      <trkpt lat="47.29491" lon="-2.23665">
        <ele>-2</ele>
        <time>2022-09-04T09:21:36.000Z</time>
      </trkpt>
      <trkpt lat="47.29496" lon="-2.2367">
        <ele>-2</ele>
        <time>2022-09-04T09:21:37.000Z</time>
      </trkpt>
      <trkpt lat="47.29498" lon="-2.23687">
        <ele>-2</ele>
        <time>2022-09-04T09:21:39.000Z</time>
      </trkpt>
      <trkpt lat="47.29498" lon="-2.23706">
        <ele>-2</ele>
        <time>2022-09-04T09:21:41.000Z</time>
      </trkpt>
      <trkpt lat="47.29499" lon="-2.23727">
        <ele>-2</ele>
        <time>2022-09-04T09:21:43.000Z</time>
      </trkpt>
      <trkpt lat="47.29501" lon="-2.23748">
        <ele>-2.4000000953674</ele>
        <time>2022-09-04T09:21:45.000Z</time>
      </trkpt>
      <trkpt lat="47.29502" lon="-2.23759">
        <ele>-2.7999999523163</ele>
        <time>2022-09-04T09:21:46.000Z</time>
      </trkpt>
      <trkpt lat="47.29504" lon="-2.2377">
        <ele>-3.2000000476837</ele>
        <time>2022-09-04T09:21:47.000Z</time>
      </trkpt>
      <trkpt lat="47.29506" lon="-2.23781">
        <ele>-3.7999999523163</ele>
        <time>2022-09-04T09:21:48.000Z</time>
      </trkpt>
      <trkpt lat="47.29509" lon="-2.23792">
        <ele>-4.1999998092651</ele>
        <time>2022-09-04T09:21:49.000Z</time>
      </trkpt>
      <trkpt lat="47.29512" lon="-2.23804">
        <ele>-4.5999999046326</ele>
        <time>2022-09-04T09:21:50.000Z</time>
      </trkpt>
      <trkpt lat="47.29514" lon="-2.23815">
        <ele>-5.1999998092651</ele>
        <time>2022-09-04T09:21:51.000Z</time>
      </trkpt>
      <trkpt lat="47.29518" lon="-2.23828">
        <ele>-5.5999999046326</ele>
        <time>2022-09-04T09:21:52.000Z</time>
      </trkpt>
      <trkpt lat="47.29521" lon="-2.23839">
        <ele>-6</ele>
        <time>2022-09-04T09:21:53.000Z</time>
      </trkpt>
      <trkpt lat="47.29525" lon="-2.2385">
        <ele>-6.5999999046326</ele>
        <time>2022-09-04T09:21:54.000Z</time>
      </trkpt>
      <trkpt lat="47.29534" lon="-2.23893">
        <ele>-6.5999999046326</ele>
        <time>2022-09-04T09:21:58.000Z</time>
      </trkpt>
      <trkpt lat="47.29544" lon="-2.23962">
        <ele>-6.5999999046326</ele>
        <time>2022-09-04T09:22:05.000Z</time>
      </trkpt>
      <trkpt lat="47.29555" lon="-2.24024">
        <ele>-6.5999999046326</ele>
        <time>2022-09-04T09:22:12.000Z</time>
      </trkpt>
      <trkpt lat="47.29566" lon="-2.24087">
        <ele>-6.5999999046326</ele>
        <time>2022-09-04T09:22:20.000Z</time>
      </trkpt>
      <trkpt lat="47.29574" lon="-2.24133">
        <ele>-6.5999999046326</ele>
        <time>2022-09-04T09:22:26.000Z</time>
      </trkpt>
      <trkpt lat="47.29575" lon="-2.24141">
        <ele>-6.5999999046326</ele>
        <time>2022-09-04T09:22:27.000Z</time>
      </trkpt>
      <trkpt lat="47.29584" lon="-2.24182">
        <ele>-6.5999999046326</ele>
        <time>2022-09-04T09:22:33.000Z</time>
      </trkpt>
      <trkpt lat="47.29591" lon="-2.24206">
        <ele>-6.5999999046326</ele>
        <time>2022-09-04T09:22:38.000Z</time>
      </trkpt>
      <trkpt lat="47.29594" lon="-2.24207">
        <ele>-6.5999999046326</ele>
        <time>2022-09-04T09:22:39.000Z</time>
      </trkpt>
      <trkpt lat="47.29604" lon="-2.24199">
        <ele>-6.5999999046326</ele>
        <time>2022-09-04T09:22:43.000Z</time>
      </trkpt>
      <trkpt lat="47.29607" lon="-2.2418">
        <ele>-6.5999999046326</ele>
        <time>2022-09-04T09:22:46.000Z</time>
      </trkpt>
      <trkpt lat="47.29609" lon="-2.24164">
        <ele>-6.5999999046326</ele>
        <time>2022-09-04T09:22:48.000Z</time>
      </trkpt>
      <trkpt lat="47.2961" lon="-2.24156">
        <ele>-6.5999999046326</ele>
        <time>2022-09-04T09:22:49.000Z</time>
      </trkpt>
      <trkpt lat="47.29612" lon="-2.24139">
        <ele>-6.5999999046326</ele>
        <time>2022-09-04T09:22:51.000Z</time>
      </trkpt>
      <trkpt lat="47.29617" lon="-2.2409">
        <ele>-6.5999999046326</ele>
        <time>2022-09-04T09:22:57.000Z</time>
      </trkpt>
      <trkpt lat="47.2962" lon="-2.24075">
        <ele>-6.5999999046326</ele>
        <time>2022-09-04T09:22:59.000Z</time>
      </trkpt>
      <trkpt lat="47.29626" lon="-2.24063">
        <ele>-6.5999999046326</ele>
        <time>2022-09-04T09:23:01.000Z</time>
      </trkpt>
      <trkpt lat="47.2963" lon="-2.24041">
        <ele>-6.5999999046326</ele>
        <time>2022-09-04T09:23:04.000Z</time>
      </trkpt>
      <trkpt lat="47.2963" lon="-2.24033">
        <ele>-6.5999999046326</ele>
        <time>2022-09-04T09:23:05.000Z</time>
      </trkpt>
      <trkpt lat="47.29636" lon="-2.23993">
        <ele>-6.5999999046326</ele>
        <time>2022-09-04T09:23:10.000Z</time>
      </trkpt>
      <trkpt lat="47.2964" lon="-2.23988">
        <ele>-6.5999999046326</ele>
        <time>2022-09-04T09:23:11.000Z</time>
      </trkpt>
      <trkpt lat="47.29651" lon="-2.23974">
        <ele>-7.4000000953674</ele>
        <time>2022-09-04T09:23:14.000Z</time>
      </trkpt>
      <trkpt lat="47.29655" lon="-2.23969">
        <ele>-7.8000001907349</ele>
        <time>2022-09-04T09:23:15.000Z</time>
      </trkpt>
      <trkpt lat="47.29659" lon="-2.23965">
        <ele>-8.1999998092651</ele>
        <time>2022-09-04T09:23:16.000Z</time>
      </trkpt>
      <trkpt lat="47.29663" lon="-2.23961">
        <ele>-8.6000003814697</ele>
        <time>2022-09-04T09:23:17.000Z</time>
      </trkpt>
      <trkpt lat="47.29693" lon="-2.23945">
        <ele>-8.6000003814697</ele>
        <time>2022-09-04T09:23:22.000Z</time>
      </trkpt>
      <trkpt lat="47.29699" lon="-2.23941">
        <ele>-8.6000003814697</ele>
        <time>2022-09-04T09:23:23.000Z</time>
      </trkpt>
      <trkpt lat="47.29707" lon="-2.23926">
        <ele>-8.6000003814697</ele>
        <time>2022-09-04T09:23:25.000Z</time>
      </trkpt>
      <trkpt lat="47.2971" lon="-2.239">
        <ele>-8.6000003814697</ele>
        <time>2022-09-04T09:23:28.000Z</time>
      </trkpt>
      <trkpt lat="47.29714" lon="-2.23867">
        <ele>-8.6000003814697</ele>
        <time>2022-09-04T09:23:32.000Z</time>
      </trkpt>
      <trkpt lat="47.29716" lon="-2.2386">
        <ele>-8.6000003814697</ele>
        <time>2022-09-04T09:23:33.000Z</time>
      </trkpt>
      <trkpt lat="47.29721" lon="-2.23843">
        <ele>-8.6000003814697</ele>
        <time>2022-09-04T09:23:35.000Z</time>
      </trkpt>
      <trkpt lat="47.29733" lon="-2.23818">
        <ele>-8.6000003814697</ele>
        <time>2022-09-04T09:23:38.000Z</time>
      </trkpt>
      <trkpt lat="47.29743" lon="-2.23804">
        <ele>-8.6000003814697</ele>
        <time>2022-09-04T09:23:40.000Z</time>
      </trkpt>
      <trkpt lat="47.29755" lon="-2.23794">
        <ele>-8.6000003814697</ele>
        <time>2022-09-04T09:23:42.000Z</time>
      </trkpt>
      <trkpt lat="47.29776" lon="-2.23789">
        <ele>-8.6000003814697</ele>
        <time>2022-09-04T09:23:45.000Z</time>
      </trkpt>
      <trkpt lat="47.29796" lon="-2.23794">
        <ele>-8.6000003814697</ele>
        <time>2022-09-04T09:23:48.000Z</time>
      </trkpt>
      <trkpt lat="47.29802" lon="-2.23795">
        <ele>-8.6000003814697</ele>
        <time>2022-09-04T09:23:49.000Z</time>
      </trkpt>
      <trkpt lat="47.29831" lon="-2.23815">
        <ele>-8.6000003814697</ele>
        <time>2022-09-04T09:23:54.000Z</time>
      </trkpt>
      <trkpt lat="47.29848" lon="-2.23823">
        <ele>-8.6000003814697</ele>
        <time>2022-09-04T09:23:57.000Z</time>
      </trkpt>
      <trkpt lat="47.29853" lon="-2.23823">
        <ele>-8.6000003814697</ele>
        <time>2022-09-04T09:23:58.000Z</time>
      </trkpt>
      <trkpt lat="47.29889" lon="-2.23819">
        <ele>-8.6000003814697</ele>
        <time>2022-09-04T09:24:04.000Z</time>
      </trkpt>
      <trkpt lat="47.29901" lon="-2.23819">
        <ele>-8.6000003814697</ele>
        <time>2022-09-04T09:24:06.000Z</time>
      </trkpt>
      <trkpt lat="47.29921" lon="-2.23823">
        <ele>-8.6000003814697</ele>
        <time>2022-09-04T09:24:09.000Z</time>
      </trkpt>
      <trkpt lat="47.29939" lon="-2.2383">
        <ele>-8.6000003814697</ele>
        <time>2022-09-04T09:24:12.000Z</time>
      </trkpt>
      <trkpt lat="47.2995" lon="-2.23836">
        <ele>-8.6000003814697</ele>
        <time>2022-09-04T09:24:14.000Z</time>
      </trkpt>
      <trkpt lat="47.29978" lon="-2.2386">
        <ele>-8.6000003814697</ele>
        <time>2022-09-04T09:24:19.000Z</time>
      </trkpt>
      <trkpt lat="47.29989" lon="-2.23869">
        <ele>-8.6000003814697</ele>
        <time>2022-09-04T09:24:21.000Z</time>
      </trkpt>
      <trkpt lat="47.29999" lon="-2.23882">
        <ele>-8.6000003814697</ele>
        <time>2022-09-04T09:24:24.000Z</time>
      </trkpt>
      <trkpt lat="47.30002" lon="-2.23885">
        <ele>-8.6000003814697</ele>
        <time>2022-09-04T09:24:27.000Z</time>
      </trkpt>
      <trkpt lat="47.30004" lon="-2.23889">
        <ele>-8.6000003814697</ele>
        <time>2022-09-04T09:25:20.000Z</time>
      </trkpt>
      <trkpt lat="47.30003" lon="-2.23905">
        <ele>-8.6000003814697</ele>
        <time>2022-09-04T09:25:25.000Z</time>
      </trkpt>
      <trkpt lat="47.30001" lon="-2.23921">
        <ele>-8.6000003814697</ele>
        <time>2022-09-04T09:25:28.000Z</time>
      </trkpt>
      <trkpt lat="47.30001" lon="-2.23927">
        <ele>-8.6000003814697</ele>
        <time>2022-09-04T09:25:29.000Z</time>
      </trkpt>
      <trkpt lat="47.30004" lon="-2.23955">
        <ele>-8.6000003814697</ele>
        <time>2022-09-04T09:25:33.000Z</time>
      </trkpt>
      <trkpt lat="47.30003" lon="-2.23962">
        <ele>-8.6000003814697</ele>
        <time>2022-09-04T09:25:34.000Z</time>
      </trkpt>
      <trkpt lat="47.29999" lon="-2.24008">
        <ele>-8.6000003814697</ele>
        <time>2022-09-04T09:25:40.000Z</time>
      </trkpt>
      <trkpt lat="47.29999" lon="-2.24022">
        <ele>-7.8000001907349</ele>
        <time>2022-09-04T09:25:42.000Z</time>
      </trkpt>
      <trkpt lat="47.29999" lon="-2.2403">
        <ele>-7.4000000953674</ele>
        <time>2022-09-04T09:25:43.000Z</time>
      </trkpt>
      <trkpt lat="47.29998" lon="-2.24037">
        <ele>-6.8000001907349</ele>
        <time>2022-09-04T09:25:44.000Z</time>
      </trkpt>
      <trkpt lat="47.29999" lon="-2.24044">
        <ele>-6.4000000953674</ele>
        <time>2022-09-04T09:25:45.000Z</time>
      </trkpt>
      <trkpt lat="47.29999" lon="-2.24051">
        <ele>-6.4000000953674</ele>
        <time>2022-09-04T09:25:46.000Z</time>
      </trkpt>
      <trkpt lat="47.3" lon="-2.24057">
        <ele>-6.4000000953674</ele>
        <time>2022-09-04T09:25:47.000Z</time>
      </trkpt>
      <trkpt lat="47.29999" lon="-2.24065">
        <ele>-6.4000000953674</ele>
        <time>2022-09-04T09:25:48.000Z</time>
      </trkpt>
      <trkpt lat="47.29999" lon="-2.24085">
        <ele>-6.4000000953674</ele>
        <time>2022-09-04T09:25:51.000Z</time>
      </trkpt>
      <trkpt lat="47.29999" lon="-2.24092">
        <ele>-6</ele>
        <time>2022-09-04T09:25:52.000Z</time>
      </trkpt>
      <trkpt lat="47.29999" lon="-2.24099">
        <ele>-5.5999999046326</ele>
        <time>2022-09-04T09:25:53.000Z</time>
      </trkpt>
      <trkpt lat="47.29999" lon="-2.24105">
        <ele>-5.1999998092651</ele>
        <time>2022-09-04T09:25:54.000Z</time>
      </trkpt>
      <trkpt lat="47.29999" lon="-2.2411">
        <ele>-4.8000001907349</ele>
        <time>2022-09-04T09:25:55.000Z</time>
      </trkpt>
      <trkpt lat="47.29999" lon="-2.24115">
        <ele>-4.4000000953674</ele>
        <time>2022-09-04T09:25:56.000Z</time>
      </trkpt>
      <trkpt lat="47.29998" lon="-2.24119">
        <ele>-4.4000000953674</ele>
        <time>2022-09-04T09:25:57.000Z</time>
      </trkpt>
      <trkpt lat="47.29996" lon="-2.24129">
        <ele>-4</ele>
        <time>2022-09-04T09:25:59.000Z</time>
      </trkpt>
      <trkpt lat="47.29995" lon="-2.24133">
        <ele>-3.5999999046326</ele>
        <time>2022-09-04T09:26:00.000Z</time>
      </trkpt>
      <trkpt lat="47.29994" lon="-2.24138">
        <ele>-3</ele>
        <time>2022-09-04T09:26:01.000Z</time>
      </trkpt>
      <trkpt lat="47.29992" lon="-2.24143">
        <ele>-2.5999999046326</ele>
        <time>2022-09-04T09:26:02.000Z</time>
      </trkpt>
      <trkpt lat="47.29992" lon="-2.24147">
        <ele>-2.2000000476837</ele>
        <time>2022-09-04T09:26:03.000Z</time>
      </trkpt>
      <trkpt lat="47.29991" lon="-2.24151">
        <ele>-2.2000000476837</ele>
        <time>2022-09-04T09:26:04.000Z</time>
      </trkpt>
      <trkpt lat="47.2999" lon="-2.24156">
        <ele>-1.7999999523163</ele>
        <time>2022-09-04T09:26:05.000Z</time>
      </trkpt>
      <trkpt lat="47.29989" lon="-2.24161">
        <ele>-1.3999999761581</ele>
        <time>2022-09-04T09:26:06.000Z</time>
      </trkpt>
      <trkpt lat="47.29989" lon="-2.24165">
        <ele>-0.40000000596046</ele>
        <time>2022-09-04T09:26:07.000Z</time>
      </trkpt>
      <trkpt lat="47.29988" lon="-2.24169">
        <ele>12.6</ele>
        <time>2022-09-04T09:26:08.000Z</time>
      </trkpt>
      <trkpt lat="47.29987" lon="-2.24177">
        <ele>13.2</ele>
        <time>2022-09-04T09:26:10.000Z</time>
      </trkpt>
      <trkpt lat="47.2998" lon="-2.24193">
        <ele>0.40000000596046</ele>
        <time>2022-09-04T09:26:13.000Z</time>
      </trkpt>
      <trkpt lat="47.29978" lon="-2.242">
        <ele>0.80000001192093</ele>
        <time>2022-09-04T09:26:14.000Z</time>
      </trkpt>
      <trkpt lat="47.29975" lon="-2.24206">
        <ele>1.2000000476837</ele>
        <time>2022-09-04T09:26:15.000Z</time>
      </trkpt>
      <trkpt lat="47.29973" lon="-2.24211">
        <ele>1.7999999523163</ele>
        <time>2022-09-04T09:26:16.000Z</time>
      </trkpt>
      <trkpt lat="47.2997" lon="-2.24217">
        <ele>2.2000000476837</ele>
        <time>2022-09-04T09:26:17.000Z</time>
      </trkpt>
      <trkpt lat="47.29962" lon="-2.24234">
        <ele>2.2000000476837</ele>
        <time>2022-09-04T09:26:20.000Z</time>
      </trkpt>
      <trkpt lat="47.29942" lon="-2.24276">
        <ele>2.2000000476837</ele>
        <time>2022-09-04T09:26:27.000Z</time>
      </trkpt>
      <trkpt lat="47.29939" lon="-2.24281">
        <ele>2.2000000476837</ele>
        <time>2022-09-04T09:26:28.000Z</time>
      </trkpt>
      <trkpt lat="47.29925" lon="-2.24287">
        <ele>2.2000000476837</ele>
        <time>2022-09-04T09:26:31.000Z</time>
      </trkpt>
      <trkpt lat="47.29912" lon="-2.24279">
        <ele>2.2000000476837</ele>
        <time>2022-09-04T09:26:34.000Z</time>
      </trkpt>
      <trkpt lat="47.29904" lon="-2.24275">
        <ele>2.2000000476837</ele>
        <time>2022-09-04T09:26:36.000Z</time>
      </trkpt>
      <trkpt lat="47.29899" lon="-2.24272">
        <ele>2.2000000476837</ele>
        <time>2022-09-04T09:26:37.000Z</time>
      </trkpt>
      <trkpt lat="47.29895" lon="-2.24268">
        <ele>2.5999999046326</ele>
        <time>2022-09-04T09:26:38.000Z</time>
      </trkpt>
      <trkpt lat="47.2989" lon="-2.24265">
        <ele>3</ele>
        <time>2022-09-04T09:26:39.000Z</time>
      </trkpt>
      <trkpt lat="47.29885" lon="-2.24262">
        <ele>3.4000000953674</ele>
        <time>2022-09-04T09:26:40.000Z</time>
      </trkpt>
      <trkpt lat="47.29881" lon="-2.24258">
        <ele>3.7999999523163</ele>
        <time>2022-09-04T09:26:41.000Z</time>
      </trkpt>
      <trkpt lat="47.29876" lon="-2.24255">
        <ele>4.1999998092651</ele>
        <time>2022-09-04T09:26:42.000Z</time>
      </trkpt>
      <trkpt lat="47.29872" lon="-2.24252">
        <ele>4.1999998092651</ele>
        <time>2022-09-04T09:26:43.000Z</time>
      </trkpt>
      <trkpt lat="47.29866" lon="-2.2425">
        <ele>4.1999998092651</ele>
        <time>2022-09-04T09:26:44.000Z</time>
      </trkpt>
      <trkpt lat="47.29852" lon="-2.24242">
        <ele>4.1999998092651</ele>
        <time>2022-09-04T09:26:47.000Z</time>
      </trkpt>
      <trkpt lat="47.29841" lon="-2.24238">
        <ele>4.1999998092651</ele>
        <time>2022-09-04T09:26:49.000Z</time>
      </trkpt>
      <trkpt lat="47.29826" lon="-2.24233">
        <ele>4.1999998092651</ele>
        <time>2022-09-04T09:26:52.000Z</time>
      </trkpt>
      <trkpt lat="47.29809" lon="-2.2422">
        <ele>4.1999998092651</ele>
        <time>2022-09-04T09:26:55.000Z</time>
      </trkpt>
      <trkpt lat="47.29803" lon="-2.24217">
        <ele>4.1999998092651</ele>
        <time>2022-09-04T09:26:56.000Z</time>
      </trkpt>
      <trkpt lat="47.2979" lon="-2.24221">
        <ele>4.1999998092651</ele>
        <time>2022-09-04T09:26:58.000Z</time>
      </trkpt>
      <trkpt lat="47.29777" lon="-2.24228">
        <ele>4.1999998092651</ele>
        <time>2022-09-04T09:27:00.000Z</time>
      </trkpt>
      <trkpt lat="47.29771" lon="-2.24232">
        <ele>3.7999999523163</ele>
        <time>2022-09-04T09:27:01.000Z</time>
      </trkpt>
      <trkpt lat="47.29764" lon="-2.24236">
        <ele>3.4000000953674</ele>
        <time>2022-09-04T09:27:02.000Z</time>
      </trkpt>
      <trkpt lat="47.29757" lon="-2.2424">
        <ele>2.7999999523163</ele>
        <time>2022-09-04T09:27:03.000Z</time>
      </trkpt>
      <trkpt lat="47.2975" lon="-2.24243">
        <ele>2.4000000953674</ele>
        <time>2022-09-04T09:27:04.000Z</time>
      </trkpt>
      <trkpt lat="47.29742" lon="-2.24247">
        <ele>2</ele>
        <time>2022-09-04T09:27:05.000Z</time>
      </trkpt>
      <trkpt lat="47.2972" lon="-2.24259">
        <ele>1.6000000238419</ele>
        <time>2022-09-04T09:27:08.000Z</time>
      </trkpt>
      <trkpt lat="47.29713" lon="-2.24263">
        <ele>1.2000000476837</ele>
        <time>2022-09-04T09:27:09.000Z</time>
      </trkpt>
      <trkpt lat="47.29705" lon="-2.24267">
        <ele>0.80000001192093</ele>
        <time>2022-09-04T09:27:10.000Z</time>
      </trkpt>
      <trkpt lat="47.29697" lon="-2.24272">
        <ele>0.40000000596046</ele>
        <time>2022-09-04T09:27:11.000Z</time>
      </trkpt>
      <trkpt lat="47.29689" lon="-2.24277">
        <ele>9.2</ele>
        <time>2022-09-04T09:27:12.000Z</time>
      </trkpt>
      <trkpt lat="47.29673" lon="-2.24285">
        <ele>-0.40000000596046</ele>
        <time>2022-09-04T09:27:14.000Z</time>
      </trkpt>
      <trkpt lat="47.29666" lon="-2.2429">
        <ele>-1</ele>
        <time>2022-09-04T09:27:15.000Z</time>
      </trkpt>
      <trkpt lat="47.29658" lon="-2.24294">
        <ele>-1.3999999761581</ele>
        <time>2022-09-04T09:27:16.000Z</time>
      </trkpt>
      <trkpt lat="47.29651" lon="-2.24298">
        <ele>-1.7999999523163</ele>
        <time>2022-09-04T09:27:17.000Z</time>
      </trkpt>
      <trkpt lat="47.29643" lon="-2.24301">
        <ele>-2.2000000476837</ele>
        <time>2022-09-04T09:27:18.000Z</time>
      </trkpt>
      <trkpt lat="47.29606" lon="-2.24317">
        <ele>-2.2000000476837</ele>
        <time>2022-09-04T09:27:23.000Z</time>
      </trkpt>
      <trkpt lat="47.29591" lon="-2.2432">
        <ele>-2.5999999046326</ele>
        <time>2022-09-04T09:27:25.000Z</time>
      </trkpt>
      <trkpt lat="47.29585" lon="-2.24321">
        <ele>-3</ele>
        <time>2022-09-04T09:27:26.000Z</time>
      </trkpt>
      <trkpt lat="47.29579" lon="-2.24321">
        <ele>-3.4000000953674</ele>
        <time>2022-09-04T09:27:27.000Z</time>
      </trkpt>
      <trkpt lat="47.29573" lon="-2.24319">
        <ele>-3.7999999523163</ele>
        <time>2022-09-04T09:27:28.000Z</time>
      </trkpt>
      <trkpt lat="47.29567" lon="-2.24314">
        <ele>-4.1999998092651</ele>
        <time>2022-09-04T09:27:29.000Z</time>
      </trkpt>
      <trkpt lat="47.29554" lon="-2.24302">
        <ele>-4.1999998092651</ele>
        <time>2022-09-04T09:27:31.000Z</time>
      </trkpt>
      <trkpt lat="47.29534" lon="-2.24289">
        <ele>-4.8000001907349</ele>
        <time>2022-09-04T09:27:34.000Z</time>
      </trkpt>
      <trkpt lat="47.29527" lon="-2.2429">
        <ele>-5.1999998092651</ele>
        <time>2022-09-04T09:27:35.000Z</time>
      </trkpt>
      <trkpt lat="47.2952" lon="-2.24293">
        <ele>-5.5999999046326</ele>
        <time>2022-09-04T09:27:36.000Z</time>
      </trkpt>
      <trkpt lat="47.29514" lon="-2.24296">
        <ele>-6</ele>
        <time>2022-09-04T09:27:37.000Z</time>
      </trkpt>
      <trkpt lat="47.29508" lon="-2.24299">
        <ele>-6.4000000953674</ele>
        <time>2022-09-04T09:27:38.000Z</time>
      </trkpt>
      <trkpt lat="47.2948" lon="-2.24308">
        <ele>-6.4000000953674</ele>
        <time>2022-09-04T09:27:43.000Z</time>
      </trkpt>
      <trkpt lat="47.29475" lon="-2.2431">
        <ele>-5.8000001907349</ele>
        <time>2022-09-04T09:27:44.000Z</time>
      </trkpt>
      <trkpt lat="47.2947" lon="-2.24312">
        <ele>-5.4000000953674</ele>
        <time>2022-09-04T09:27:45.000Z</time>
      </trkpt>
      <trkpt lat="47.29464" lon="-2.24313">
        <ele>-4.5999999046326</ele>
        <time>2022-09-04T09:27:46.000Z</time>
      </trkpt>
      <trkpt lat="47.29459" lon="-2.24315">
        <ele>-4.1999998092651</ele>
        <time>2022-09-04T09:27:47.000Z</time>
      </trkpt>
      <trkpt lat="47.29449" lon="-2.24319">
        <ele>-4.1999998092651</ele>
        <time>2022-09-04T09:27:49.000Z</time>
      </trkpt>
      <trkpt lat="47.29438" lon="-2.24323">
        <ele>-3.7999999523163</ele>
        <time>2022-09-04T09:27:51.000Z</time>
      </trkpt>
      <trkpt lat="47.29433" lon="-2.24325">
        <ele>-3.4000000953674</ele>
        <time>2022-09-04T09:27:52.000Z</time>
      </trkpt>
      <trkpt lat="47.29428" lon="-2.24328">
        <ele>-3</ele>
        <time>2022-09-04T09:27:53.000Z</time>
      </trkpt>
      <trkpt lat="47.29423" lon="-2.24332">
        <ele>-2.4000000953674</ele>
        <time>2022-09-04T09:27:54.000Z</time>
      </trkpt>
      <trkpt lat="47.29418" lon="-2.24337">
        <ele>-2</ele>
        <time>2022-09-04T09:27:55.000Z</time>
      </trkpt>
      <trkpt lat="47.29398" lon="-2.24355">
        <ele>-2</ele>
        <time>2022-09-04T09:27:59.000Z</time>
      </trkpt>
      <trkpt lat="47.29394" lon="-2.24361">
        <ele>-2</ele>
        <time>2022-09-04T09:28:00.000Z</time>
      </trkpt>
      <trkpt lat="47.29374" lon="-2.2438">
        <ele>-2</ele>
        <time>2022-09-04T09:28:04.000Z</time>
      </trkpt>
      <trkpt lat="47.29342" lon="-2.24412">
        <ele>-2</ele>
        <time>2022-09-04T09:28:10.000Z</time>
      </trkpt>
      <trkpt lat="47.29313" lon="-2.24441">
        <ele>-2</ele>
        <time>2022-09-04T09:28:16.000Z</time>
      </trkpt>
      <trkpt lat="47.29291" lon="-2.24463">
        <ele>-2</ele>
        <time>2022-09-04T09:28:21.000Z</time>
      </trkpt>
      <trkpt lat="47.29289" lon="-2.2447">
        <ele>-1.6000000238419</ele>
        <time>2022-09-04T09:28:22.000Z</time>
      </trkpt>
      <trkpt lat="47.29287" lon="-2.24477">
        <ele>-1.2000000476837</ele>
        <time>2022-09-04T09:28:23.000Z</time>
      </trkpt>
      <trkpt lat="47.29287" lon="-2.24484">
        <ele>-0.80000001192093</ele>
        <time>2022-09-04T09:28:24.000Z</time>
      </trkpt>
      <trkpt lat="47.29289" lon="-2.24492">
        <ele>-0.40000000596046</ele>
        <time>2022-09-04T09:28:25.000Z</time>
      </trkpt>
      <trkpt lat="47.29289" lon="-2.24499">
        <ele>11.6</ele>
        <time>2022-09-04T09:28:26.000Z</time>
      </trkpt>
      <trkpt lat="47.29291" lon="-2.24525">
        <ele>11.5</ele>
        <time>2022-09-04T09:28:29.000Z</time>
      </trkpt>
      <trkpt lat="47.29291" lon="-2.24534">
        <ele>11.5</ele>
        <time>2022-09-04T09:28:30.000Z</time>
      </trkpt>
      <trkpt lat="47.29297" lon="-2.24597">
        <ele>10.6</ele>
        <time>2022-09-04T09:28:37.000Z</time>
      </trkpt>
      <trkpt lat="47.29297" lon="-2.24613">
        <ele>10.7</ele>
        <time>2022-09-04T09:28:39.000Z</time>
      </trkpt>
      <trkpt lat="47.29293" lon="-2.24629">
        <ele>11.6</ele>
        <time>2022-09-04T09:28:41.000Z</time>
      </trkpt>
      <trkpt lat="47.29292" lon="-2.24643">
        <ele>12</ele>
        <time>2022-09-04T09:28:43.000Z</time>
      </trkpt>
      <trkpt lat="47.29293" lon="-2.24666">
        <ele>12</ele>
        <time>2022-09-04T09:28:46.000Z</time>
      </trkpt>
      <trkpt lat="47.29293" lon="-2.24673">
        <ele>12.2</ele>
        <time>2022-09-04T09:28:47.000Z</time>
      </trkpt>
      <trkpt lat="47.29297" lon="-2.24687">
        <ele>12.7</ele>
        <time>2022-09-04T09:28:49.000Z</time>
      </trkpt>
      <trkpt lat="47.29302" lon="-2.24705">
        <ele>13.1</ele>
        <time>2022-09-04T09:28:52.000Z</time>
      </trkpt>
      <trkpt lat="47.29311" lon="-2.24748">
        <ele>13.8</ele>
        <time>2022-09-04T09:28:58.000Z</time>
      </trkpt>
      <trkpt lat="47.29315" lon="-2.24763">
        <ele>0.40000000596046</ele>
        <time>2022-09-04T09:29:00.000Z</time>
      </trkpt>
      <trkpt lat="47.29318" lon="-2.24768">
        <ele>0.80000001192093</ele>
        <time>2022-09-04T09:29:01.000Z</time>
      </trkpt>
      <trkpt lat="47.2932" lon="-2.24774">
        <ele>1.2000000476837</ele>
        <time>2022-09-04T09:29:02.000Z</time>
      </trkpt>
      <trkpt lat="47.29323" lon="-2.2478">
        <ele>1.6000000238419</ele>
        <time>2022-09-04T09:29:03.000Z</time>
      </trkpt>
      <trkpt lat="47.29325" lon="-2.24786">
        <ele>2</ele>
        <time>2022-09-04T09:29:04.000Z</time>
      </trkpt>
      <trkpt lat="47.29333" lon="-2.24816">
        <ele>2</ele>
        <time>2022-09-04T09:29:08.000Z</time>
      </trkpt>
      <trkpt lat="47.29334" lon="-2.24824">
        <ele>2</ele>
        <time>2022-09-04T09:29:09.000Z</time>
      </trkpt>
      <trkpt lat="47.29336" lon="-2.24864">
        <ele>2</ele>
        <time>2022-09-04T09:29:14.000Z</time>
      </trkpt>
      <trkpt lat="47.29336" lon="-2.24874">
        <ele>2</ele>
        <time>2022-09-04T09:29:15.000Z</time>
      </trkpt>
      <trkpt lat="47.29333" lon="-2.24904">
        <ele>2</ele>
        <time>2022-09-04T09:29:19.000Z</time>
      </trkpt>
      <trkpt lat="47.29326" lon="-2.24913">
        <ele>2</ele>
        <time>2022-09-04T09:29:21.000Z</time>
      </trkpt>
      <trkpt lat="47.29315" lon="-2.24916">
        <ele>2</ele>
        <time>2022-09-04T09:29:23.000Z</time>
      </trkpt>
      <trkpt lat="47.29311" lon="-2.24917">
        <ele>2</ele>
        <time>2022-09-04T09:29:24.000Z</time>
      </trkpt>
      <trkpt lat="47.29293" lon="-2.24918">
        <ele>2.4000000953674</ele>
        <time>2022-09-04T09:29:28.000Z</time>
      </trkpt>
      <trkpt lat="47.29289" lon="-2.24918">
        <ele>3</ele>
        <time>2022-09-04T09:29:29.000Z</time>
      </trkpt>
      <trkpt lat="47.29284" lon="-2.24919">
        <ele>3.4000000953674</ele>
        <time>2022-09-04T09:29:30.000Z</time>
      </trkpt>
      <trkpt lat="47.2928" lon="-2.2492">
        <ele>3.7999999523163</ele>
        <time>2022-09-04T09:29:31.000Z</time>
      </trkpt>
      <trkpt lat="47.29275" lon="-2.2492">
        <ele>4.1999998092651</ele>
        <time>2022-09-04T09:29:32.000Z</time>
      </trkpt>
      <trkpt lat="47.29271" lon="-2.2492">
        <ele>4.1999998092651</ele>
        <time>2022-09-04T09:29:33.000Z</time>
      </trkpt>
      <trkpt lat="47.29266" lon="-2.2492">
        <ele>4.1999998092651</ele>
        <time>2022-09-04T09:29:34.000Z</time>
      </trkpt>
      <trkpt lat="47.29259" lon="-2.24927">
        <ele>4.1999998092651</ele>
        <time>2022-09-04T09:29:36.000Z</time>
      </trkpt>
      <trkpt lat="47.29257" lon="-2.24935">
        <ele>4.1999998092651</ele>
        <time>2022-09-04T09:29:37.000Z</time>
      </trkpt>
      <trkpt lat="47.29258" lon="-2.24957">
        <ele>4.1999998092651</ele>
        <time>2022-09-04T09:29:40.000Z</time>
      </trkpt>
      <trkpt lat="47.29259" lon="-2.24964">
        <ele>4.1999998092651</ele>
        <time>2022-09-04T09:29:41.000Z</time>
      </trkpt>
      <trkpt lat="47.29269" lon="-2.25001">
        <ele>4.1999998092651</ele>
        <time>2022-09-04T09:29:46.000Z</time>
      </trkpt>
      <trkpt lat="47.29271" lon="-2.25008">
        <ele>4.1999998092651</ele>
        <time>2022-09-04T09:29:47.000Z</time>
      </trkpt>
      <trkpt lat="47.29275" lon="-2.25029">
        <ele>4.1999998092651</ele>
        <time>2022-09-04T09:29:50.000Z</time>
      </trkpt>
      <trkpt lat="47.29279" lon="-2.25042">
        <ele>4.1999998092651</ele>
        <time>2022-09-04T09:29:52.000Z</time>
      </trkpt>
      <trkpt lat="47.29283" lon="-2.25055">
        <ele>4.1999998092651</ele>
        <time>2022-09-04T09:29:54.000Z</time>
      </trkpt>
      <trkpt lat="47.29291" lon="-2.25092">
        <ele>4.1999998092651</ele>
        <time>2022-09-04T09:29:59.000Z</time>
      </trkpt>
      <trkpt lat="47.29295" lon="-2.25118">
        <ele>3.5999999046326</ele>
        <time>2022-09-04T09:30:02.000Z</time>
      </trkpt>
      <trkpt lat="47.29296" lon="-2.25127">
        <ele>3.2000000476837</ele>
        <time>2022-09-04T09:30:03.000Z</time>
      </trkpt>
      <trkpt lat="47.29297" lon="-2.25136">
        <ele>2.7999999523163</ele>
        <time>2022-09-04T09:30:04.000Z</time>
      </trkpt>
      <trkpt lat="47.29299" lon="-2.25145">
        <ele>2.4000000953674</ele>
        <time>2022-09-04T09:30:05.000Z</time>
      </trkpt>
      <trkpt lat="47.293" lon="-2.25154">
        <ele>2</ele>
        <time>2022-09-04T09:30:06.000Z</time>
      </trkpt>
      <trkpt lat="47.29305" lon="-2.25182">
        <ele>1.3999999761581</ele>
        <time>2022-09-04T09:30:09.000Z</time>
      </trkpt>
      <trkpt lat="47.29308" lon="-2.2519">
        <ele>1</ele>
        <time>2022-09-04T09:30:10.000Z</time>
      </trkpt>
      <trkpt lat="47.29312" lon="-2.25196">
        <ele>0.60000002384186</ele>
        <time>2022-09-04T09:30:11.000Z</time>
      </trkpt>
      <trkpt lat="47.29317" lon="-2.25197">
        <ele>0.20000000298023</ele>
        <time>2022-09-04T09:30:12.000Z</time>
      </trkpt>
      <trkpt lat="47.29322" lon="-2.25196">
        <ele>-0.20000000298023</ele>
        <time>2022-09-04T09:30:13.000Z</time>
      </trkpt>
      <trkpt lat="47.29327" lon="-2.25195">
        <ele>-0.20000000298023</ele>
        <time>2022-09-04T09:30:14.000Z</time>
      </trkpt>
      <trkpt lat="47.29337" lon="-2.25196">
        <ele>-0.20000000298023</ele>
        <time>2022-09-04T09:30:16.000Z</time>
      </trkpt>
      <trkpt lat="47.29342" lon="-2.25197">
        <ele>-0.20000000298023</ele>
        <time>2022-09-04T09:30:17.000Z</time>
      </trkpt>
      <trkpt lat="47.29358" lon="-2.25201">
        <ele>-0.20000000298023</ele>
        <time>2022-09-04T09:30:20.000Z</time>
      </trkpt>
      <trkpt lat="47.2937" lon="-2.25205">
        <ele>-0.20000000298023</ele>
        <time>2022-09-04T09:30:22.000Z</time>
      </trkpt>
      <trkpt lat="47.29388" lon="-2.25209">
        <ele>-0.20000000298023</ele>
        <time>2022-09-04T09:30:25.000Z</time>
      </trkpt>
      <trkpt lat="47.29392" lon="-2.25211">
        <ele>-0.20000000298023</ele>
        <time>2022-09-04T09:30:26.000Z</time>
      </trkpt>
      <trkpt lat="47.29404" lon="-2.25212">
        <ele>-0.20000000298023</ele>
        <time>2022-09-04T09:30:28.000Z</time>
      </trkpt>
      <trkpt lat="47.29417" lon="-2.2521">
        <ele>-0.20000000298023</ele>
        <time>2022-09-04T09:30:30.000Z</time>
      </trkpt>
      <trkpt lat="47.29428" lon="-2.25207">
        <ele>-0.20000000298023</ele>
        <time>2022-09-04T09:30:32.000Z</time>
      </trkpt>
      <trkpt lat="47.2944" lon="-2.25204">
        <ele>-0.20000000298023</ele>
        <time>2022-09-04T09:30:34.000Z</time>
      </trkpt>
      <trkpt lat="47.29446" lon="-2.25202">
        <ele>-0.20000000298023</ele>
        <time>2022-09-04T09:30:35.000Z</time>
      </trkpt>
      <trkpt lat="47.29457" lon="-2.25199">
        <ele>0.20000000298023</ele>
        <time>2022-09-04T09:30:37.000Z</time>
      </trkpt>
      <trkpt lat="47.29463" lon="-2.25198">
        <ele>0.60000002384186</ele>
        <time>2022-09-04T09:30:38.000Z</time>
      </trkpt>
      <trkpt lat="47.29468" lon="-2.25197">
        <ele>1.3999999761581</ele>
        <time>2022-09-04T09:30:39.000Z</time>
      </trkpt>
      <trkpt lat="47.29473" lon="-2.25196">
        <ele>2</ele>
        <time>2022-09-04T09:30:40.000Z</time>
      </trkpt>
      <trkpt lat="47.29479" lon="-2.25195">
        <ele>2</ele>
        <time>2022-09-04T09:30:41.000Z</time>
      </trkpt>
      <trkpt lat="47.29494" lon="-2.25189">
        <ele>2</ele>
        <time>2022-09-04T09:30:44.000Z</time>
      </trkpt>
      <trkpt lat="47.29504" lon="-2.25185">
        <ele>2</ele>
        <time>2022-09-04T09:30:46.000Z</time>
      </trkpt>
      <trkpt lat="47.29529" lon="-2.25177">
        <ele>2</ele>
        <time>2022-09-04T09:30:52.000Z</time>
      </trkpt>
      <trkpt lat="47.29539" lon="-2.25178">
        <ele>2</ele>
        <time>2022-09-04T09:30:55.000Z</time>
      </trkpt>
      <trkpt lat="47.29541" lon="-2.2518">
        <ele>2</ele>
        <time>2022-09-04T09:30:56.000Z</time>
      </trkpt>
      <trkpt lat="47.29542" lon="-2.25182">
        <ele>2.4000000953674</ele>
        <time>2022-09-04T09:30:57.000Z</time>
      </trkpt>
      <trkpt lat="47.29544" lon="-2.25184">
        <ele>2.7999999523163</ele>
        <time>2022-09-04T09:30:58.000Z</time>
      </trkpt>
      <trkpt lat="47.29544" lon="-2.25186">
        <ele>3.2000000476837</ele>
        <time>2022-09-04T09:30:59.000Z</time>
      </trkpt>
      <trkpt lat="47.29545" lon="-2.25189">
        <ele>3.5999999046326</ele>
        <time>2022-09-04T09:31:00.000Z</time>
      </trkpt>
      <trkpt lat="47.29544" lon="-2.25192">
        <ele>4</ele>
        <time>2022-09-04T09:31:01.000Z</time>
      </trkpt>
      <trkpt lat="47.29541" lon="-2.2521">
        <ele>4</ele>
        <time>2022-09-04T09:31:05.000Z</time>
      </trkpt>
      <trkpt lat="47.29538" lon="-2.2523">
        <ele>4</ele>
        <time>2022-09-04T09:31:08.000Z</time>
      </trkpt>
      <trkpt lat="47.29538" lon="-2.25237">
        <ele>4</ele>
        <time>2022-09-04T09:31:09.000Z</time>
      </trkpt>
      <trkpt lat="47.29538" lon="-2.25244">
        <ele>4</ele>
        <time>2022-09-04T09:31:10.000Z</time>
      </trkpt>
      <trkpt lat="47.29537" lon="-2.25257">
        <ele>4</ele>
        <time>2022-09-04T09:31:12.000Z</time>
      </trkpt>
      <trkpt lat="47.29539" lon="-2.25279">
        <ele>4</ele>
        <time>2022-09-04T09:31:15.000Z</time>
      </trkpt>
      <trkpt lat="47.29543" lon="-2.25288">
        <ele>4</ele>
        <time>2022-09-04T09:31:16.000Z</time>
      </trkpt>
      <trkpt lat="47.29549" lon="-2.25306">
        <ele>4</ele>
        <time>2022-09-04T09:31:18.000Z</time>
      </trkpt>
      <trkpt lat="47.29559" lon="-2.2533">
        <ele>4</ele>
        <time>2022-09-04T09:31:21.000Z</time>
      </trkpt>
      <trkpt lat="47.29574" lon="-2.25368">
        <ele>4</ele>
        <time>2022-09-04T09:31:26.000Z</time>
      </trkpt>
      <trkpt lat="47.29577" lon="-2.25376">
        <ele>4.8000001907349</ele>
        <time>2022-09-04T09:31:27.000Z</time>
      </trkpt>
      <trkpt lat="47.29579" lon="-2.25384">
        <ele>5.1999998092651</ele>
        <time>2022-09-04T09:31:28.000Z</time>
      </trkpt>
      <trkpt lat="47.2958" lon="-2.25392">
        <ele>5.8000001907349</ele>
        <time>2022-09-04T09:31:29.000Z</time>
      </trkpt>
      <trkpt lat="47.29582" lon="-2.25401">
        <ele>6.1999998092651</ele>
        <time>2022-09-04T09:31:30.000Z</time>
      </trkpt>
      <trkpt lat="47.29584" lon="-2.25419">
        <ele>6.1999998092651</ele>
        <time>2022-09-04T09:31:32.000Z</time>
      </trkpt>
      <trkpt lat="47.29587" lon="-2.2548">
        <ele>6.1999998092651</ele>
        <time>2022-09-04T09:31:39.000Z</time>
      </trkpt>
      <trkpt lat="47.29586" lon="-2.25498">
        <ele>6.5999999046326</ele>
        <time>2022-09-04T09:31:41.000Z</time>
      </trkpt>
      <trkpt lat="47.29584" lon="-2.25507">
        <ele>7</ele>
        <time>2022-09-04T09:31:42.000Z</time>
      </trkpt>
      <trkpt lat="47.29582" lon="-2.25515">
        <ele>7.4000000953674</ele>
        <time>2022-09-04T09:31:43.000Z</time>
      </trkpt>
      <trkpt lat="47.29579" lon="-2.25522">
        <ele>8</ele>
        <time>2022-09-04T09:31:44.000Z</time>
      </trkpt>
      <trkpt lat="47.29575" lon="-2.25529">
        <ele>8.3999996185303</ele>
        <time>2022-09-04T09:31:45.000Z</time>
      </trkpt>
      <trkpt lat="47.29565" lon="-2.25542">
        <ele>8.3999996185303</ele>
        <time>2022-09-04T09:31:47.000Z</time>
      </trkpt>
      <trkpt lat="47.29559" lon="-2.25547">
        <ele>8.3999996185303</ele>
        <time>2022-09-04T09:31:48.000Z</time>
      </trkpt>
      <trkpt lat="47.29543" lon="-2.25558">
        <ele>8.3999996185303</ele>
        <time>2022-09-04T09:31:51.000Z</time>
      </trkpt>
      <trkpt lat="47.29522" lon="-2.25572">
        <ele>8.3999996185303</ele>
        <time>2022-09-04T09:31:55.000Z</time>
      </trkpt>
      <trkpt lat="47.29518" lon="-2.25575">
        <ele>8.3999996185303</ele>
        <time>2022-09-04T09:31:56.000Z</time>
      </trkpt>
      <trkpt lat="47.29508" lon="-2.25582">
        <ele>8.8000001907349</ele>
        <time>2022-09-04T09:31:58.000Z</time>
      </trkpt>
      <trkpt lat="47.29503" lon="-2.25585">
        <ele>9.1999998092651</ele>
        <time>2022-09-04T09:31:59.000Z</time>
      </trkpt>
      <trkpt lat="47.29498" lon="-2.25589">
        <ele>9.6000003814697</ele>
        <time>2022-09-04T09:32:00.000Z</time>
      </trkpt>
      <trkpt lat="47.29492" lon="-2.25592">
        <ele>10.199999809265</ele>
        <time>2022-09-04T09:32:01.000Z</time>
      </trkpt>
      <trkpt lat="47.29487" lon="-2.25595">
        <ele>10.60000038147</ele>
        <time>2022-09-04T09:32:02.000Z</time>
      </trkpt>
      <trkpt lat="47.29472" lon="-2.25603">
        <ele>10.60000038147</ele>
        <time>2022-09-04T09:32:05.000Z</time>
      </trkpt>
      <trkpt lat="47.29446" lon="-2.25614">
        <ele>11</ele>
        <time>2022-09-04T09:32:10.000Z</time>
      </trkpt>
      <trkpt lat="47.29441" lon="-2.25616">
        <ele>11.39999961853</ele>
        <time>2022-09-04T09:32:11.000Z</time>
      </trkpt>
      <trkpt lat="47.29435" lon="-2.25619">
        <ele>11.800000190735</ele>
        <time>2022-09-04T09:32:12.000Z</time>
      </trkpt>
      <trkpt lat="47.2943" lon="-2.25621">
        <ele>12.199999809265</ele>
        <time>2022-09-04T09:32:13.000Z</time>
      </trkpt>
      <trkpt lat="47.29424" lon="-2.25623">
        <ele>12.60000038147</ele>
        <time>2022-09-04T09:32:14.000Z</time>
      </trkpt>
      <trkpt lat="47.29397" lon="-2.25637">
        <ele>12.60000038147</ele>
        <time>2022-09-04T09:32:19.000Z</time>
      </trkpt>
      <trkpt lat="47.2939" lon="-2.25645">
        <ele>12.60000038147</ele>
        <time>2022-09-04T09:32:22.000Z</time>
      </trkpt>
      <trkpt lat="47.29394" lon="-2.25651">
        <ele>12.60000038147</ele>
        <time>2022-09-04T09:32:26.000Z</time>
      </trkpt>
      <trkpt lat="47.29401" lon="-2.25653">
        <ele>12.60000038147</ele>
        <time>2022-09-04T09:32:30.000Z</time>
      </trkpt>
      <trkpt lat="47.29416" lon="-2.25666">
        <ele>12.60000038147</ele>
        <time>2022-09-04T09:32:35.000Z</time>
      </trkpt>
      <trkpt lat="47.29422" lon="-2.25677">
        <ele>12.60000038147</ele>
        <time>2022-09-04T09:32:37.000Z</time>
      </trkpt>
      <trkpt lat="47.2943" lon="-2.25696">
        <ele>12.199999809265</ele>
        <time>2022-09-04T09:32:40.000Z</time>
      </trkpt>
      <trkpt lat="47.29433" lon="-2.25703">
        <ele>11.39999961853</ele>
        <time>2022-09-04T09:32:41.000Z</time>
      </trkpt>
      <trkpt lat="47.29436" lon="-2.25711">
        <ele>11</ele>
        <time>2022-09-04T09:32:42.000Z</time>
      </trkpt>
      <trkpt lat="47.29439" lon="-2.25719">
        <ele>10.60000038147</ele>
        <time>2022-09-04T09:32:43.000Z</time>
      </trkpt>
      <trkpt lat="47.29441" lon="-2.25727">
        <ele>10</ele>
        <time>2022-09-04T09:32:44.000Z</time>
      </trkpt>
      <trkpt lat="47.29443" lon="-2.25736">
        <ele>9.6000003814697</ele>
        <time>2022-09-04T09:32:45.000Z</time>
      </trkpt>
      <trkpt lat="47.29446" lon="-2.25746">
        <ele>9</ele>
        <time>2022-09-04T09:32:46.000Z</time>
      </trkpt>
      <trkpt lat="47.29448" lon="-2.25754">
        <ele>8.6000003814697</ele>
        <time>2022-09-04T09:32:47.000Z</time>
      </trkpt>
      <trkpt lat="47.2945" lon="-2.25762">
        <ele>8</ele>
        <time>2022-09-04T09:32:48.000Z</time>
      </trkpt>
      <trkpt lat="47.29451" lon="-2.25768">
        <ele>7.5999999046326</ele>
        <time>2022-09-04T09:32:49.000Z</time>
      </trkpt>
      <trkpt lat="47.2945" lon="-2.25773">
        <ele>7</ele>
        <time>2022-09-04T09:32:50.000Z</time>
      </trkpt>
      <trkpt lat="47.29449" lon="-2.25775">
        <ele>6.5999999046326</ele>
        <time>2022-09-04T09:32:51.000Z</time>
      </trkpt>
      <trkpt lat="47.29447" lon="-2.25777">
        <ele>6</ele>
        <time>2022-09-04T09:32:52.000Z</time>
      </trkpt>
      <trkpt lat="47.29436" lon="-2.25786">
        <ele>6</ele>
        <time>2022-09-04T09:32:57.000Z</time>
      </trkpt>
      <trkpt lat="47.29437" lon="-2.25799">
        <ele>6</ele>
        <time>2022-09-04T09:33:00.000Z</time>
      </trkpt>
      <trkpt lat="47.29439" lon="-2.2581">
        <ele>6</ele>
        <time>2022-09-04T09:33:02.000Z</time>
      </trkpt>
      <trkpt lat="47.29439" lon="-2.25816">
        <ele>6</ele>
        <time>2022-09-04T09:33:03.000Z</time>
      </trkpt>
      <trkpt lat="47.29438" lon="-2.25823">
        <ele>6</ele>
        <time>2022-09-04T09:33:04.000Z</time>
      </trkpt>
      <trkpt lat="47.29432" lon="-2.2584">
        <ele>6</ele>
        <time>2022-09-04T09:33:07.000Z</time>
      </trkpt>
      <trkpt lat="47.29431" lon="-2.25846">
        <ele>6</ele>
        <time>2022-09-04T09:33:08.000Z</time>
      </trkpt>
      <trkpt lat="47.29433" lon="-2.25855">
        <ele>6</ele>
        <time>2022-09-04T09:33:10.000Z</time>
      </trkpt>
      <trkpt lat="47.29434" lon="-2.25859">
        <ele>6</ele>
        <time>2022-09-04T09:33:11.000Z</time>
      </trkpt>
      <trkpt lat="47.29436" lon="-2.25871">
        <ele>6</ele>
        <time>2022-09-04T09:33:13.000Z</time>
      </trkpt>
      <trkpt lat="47.2944" lon="-2.25901">
        <ele>6</ele>
        <time>2022-09-04T09:33:17.000Z</time>
      </trkpt>
      <trkpt lat="47.29437" lon="-2.25924">
        <ele>6</ele>
        <time>2022-09-04T09:33:20.000Z</time>
      </trkpt>
      <trkpt lat="47.29433" lon="-2.2593">
        <ele>6</ele>
        <time>2022-09-04T09:33:21.000Z</time>
      </trkpt>
      <trkpt lat="47.29423" lon="-2.25943">
        <ele>6</ele>
        <time>2022-09-04T09:33:24.000Z</time>
      </trkpt>
      <trkpt lat="47.29419" lon="-2.25946">
        <ele>6</ele>
        <time>2022-09-04T09:33:25.000Z</time>
      </trkpt>
      <trkpt lat="47.29404" lon="-2.2595">
        <ele>6</ele>
        <time>2022-09-04T09:33:29.000Z</time>
      </trkpt>
      <trkpt lat="47.29397" lon="-2.25956">
        <ele>6</ele>
        <time>2022-09-04T09:33:32.000Z</time>
      </trkpt>
      <trkpt lat="47.29398" lon="-2.25976">
        <ele>6</ele>
        <time>2022-09-04T09:33:35.000Z</time>
      </trkpt>
      <trkpt lat="47.29394" lon="-2.25999">
        <ele>6</ele>
        <time>2022-09-04T09:33:38.000Z</time>
      </trkpt>
      <trkpt lat="47.29392" lon="-2.26017">
        <ele>6</ele>
        <time>2022-09-04T09:33:40.000Z</time>
      </trkpt>
      <trkpt lat="47.29392" lon="-2.26025">
        <ele>6</ele>
        <time>2022-09-04T09:33:41.000Z</time>
      </trkpt>
      <trkpt lat="47.29395" lon="-2.26039">
        <ele>6</ele>
        <time>2022-09-04T09:33:43.000Z</time>
      </trkpt>
      <trkpt lat="47.29402" lon="-2.26058">
        <ele>6</ele>
        <time>2022-09-04T09:33:46.000Z</time>
      </trkpt>
      <trkpt lat="47.29406" lon="-2.26072">
        <ele>6</ele>
        <time>2022-09-04T09:33:48.000Z</time>
      </trkpt>
      <trkpt lat="47.29412" lon="-2.26104">
        <ele>6</ele>
        <time>2022-09-04T09:33:52.000Z</time>
      </trkpt>
      <trkpt lat="47.29409" lon="-2.26123">
        <ele>6</ele>
        <time>2022-09-04T09:33:55.000Z</time>
      </trkpt>
      <trkpt lat="47.29408" lon="-2.26144">
        <ele>6</ele>
        <time>2022-09-04T09:33:59.000Z</time>
      </trkpt>
      <trkpt lat="47.29407" lon="-2.26148">
        <ele>6</ele>
        <time>2022-09-04T09:34:00.000Z</time>
      </trkpt>
      <trkpt lat="47.29403" lon="-2.26157">
        <ele>6</ele>
        <time>2022-09-04T09:34:02.000Z</time>
      </trkpt>
      <trkpt lat="47.2939" lon="-2.26161">
        <ele>6.4000000953674</ele>
        <time>2022-09-04T09:34:06.000Z</time>
      </trkpt>
      <trkpt lat="47.29386" lon="-2.2616">
        <ele>6.8000001907349</ele>
        <time>2022-09-04T09:34:07.000Z</time>
      </trkpt>
      <trkpt lat="47.29383" lon="-2.2616">
        <ele>7.1999998092651</ele>
        <time>2022-09-04T09:34:08.000Z</time>
      </trkpt>
      <trkpt lat="47.2938" lon="-2.2616">
        <ele>7.8000001907349</ele>
        <time>2022-09-04T09:34:09.000Z</time>
      </trkpt>
      <trkpt lat="47.29376" lon="-2.2616">
        <ele>8.1999998092651</ele>
        <time>2022-09-04T09:34:10.000Z</time>
      </trkpt>
      <trkpt lat="47.29363" lon="-2.26164">
        <ele>8.1999998092651</ele>
        <time>2022-09-04T09:34:14.000Z</time>
      </trkpt>
      <trkpt lat="47.29348" lon="-2.26167">
        <ele>8.6000003814697</ele>
        <time>2022-09-04T09:34:19.000Z</time>
      </trkpt>
      <trkpt lat="47.29346" lon="-2.26168">
        <ele>9</ele>
        <time>2022-09-04T09:34:20.000Z</time>
      </trkpt>
      <trkpt lat="47.29344" lon="-2.26169">
        <ele>9.3999996185303</ele>
        <time>2022-09-04T09:34:21.000Z</time>
      </trkpt>
      <trkpt lat="47.29341" lon="-2.2617">
        <ele>9.8000001907349</ele>
        <time>2022-09-04T09:34:22.000Z</time>
      </trkpt>
      <trkpt lat="47.29338" lon="-2.26171">
        <ele>10.199999809265</ele>
        <time>2022-09-04T09:34:23.000Z</time>
      </trkpt>
      <trkpt lat="47.29332" lon="-2.26172">
        <ele>10.199999809265</ele>
        <time>2022-09-04T09:34:25.000Z</time>
      </trkpt>
      <trkpt lat="47.29322" lon="-2.26175">
        <ele>10.60000038147</ele>
        <time>2022-09-04T09:34:30.000Z</time>
      </trkpt>
      <trkpt lat="47.2932" lon="-2.26177">
        <ele>11</ele>
        <time>2022-09-04T09:34:31.000Z</time>
      </trkpt>
      <trkpt lat="47.29318" lon="-2.2618">
        <ele>11.39999961853</ele>
        <time>2022-09-04T09:34:32.000Z</time>
      </trkpt>
      <trkpt lat="47.29316" lon="-2.26181">
        <ele>11.800000190735</ele>
        <time>2022-09-04T09:34:33.000Z</time>
      </trkpt>
      <trkpt lat="47.29312" lon="-2.26181">
        <ele>12.199999809265</ele>
        <time>2022-09-04T09:34:34.000Z</time>
      </trkpt>
      <trkpt lat="47.29308" lon="-2.26181">
        <ele>12.199999809265</ele>
        <time>2022-09-04T09:34:35.000Z</time>
      </trkpt>
      <trkpt lat="47.29285" lon="-2.26181">
        <ele>12.199999809265</ele>
        <time>2022-09-04T09:34:40.000Z</time>
      </trkpt>
      <trkpt lat="47.2927" lon="-2.26179">
        <ele>12.199999809265</ele>
        <time>2022-09-04T09:34:44.000Z</time>
      </trkpt>
      <trkpt lat="47.29266" lon="-2.26175">
        <ele>12.199999809265</ele>
        <time>2022-09-04T09:34:45.000Z</time>
      </trkpt>
      <trkpt lat="47.2926" lon="-2.26162">
        <ele>12.199999809265</ele>
        <time>2022-09-04T09:34:48.000Z</time>
      </trkpt>
      <trkpt lat="47.29258" lon="-2.26157">
        <ele>12.199999809265</ele>
        <time>2022-09-04T09:34:49.000Z</time>
      </trkpt>
      <trkpt lat="47.29251" lon="-2.26141">
        <ele>12.199999809265</ele>
        <time>2022-09-04T09:34:52.000Z</time>
      </trkpt>
      <trkpt lat="47.29249" lon="-2.26136">
        <ele>12.199999809265</ele>
        <time>2022-09-04T09:34:53.000Z</time>
      </trkpt>
      <trkpt lat="47.29239" lon="-2.26111">
        <ele>12.199999809265</ele>
        <time>2022-09-04T09:34:57.000Z</time>
      </trkpt>
      <trkpt lat="47.29236" lon="-2.26105">
        <ele>12.199999809265</ele>
        <time>2022-09-04T09:34:58.000Z</time>
      </trkpt>
      <trkpt lat="47.29231" lon="-2.26093">
        <ele>12.199999809265</ele>
        <time>2022-09-04T09:35:00.000Z</time>
      </trkpt>
      <trkpt lat="47.29221" lon="-2.26077">
        <ele>12.199999809265</ele>
        <time>2022-09-04T09:35:03.000Z</time>
      </trkpt>
      <trkpt lat="47.29214" lon="-2.26066">
        <ele>12.199999809265</ele>
        <time>2022-09-04T09:35:05.000Z</time>
      </trkpt>
      <trkpt lat="47.29201" lon="-2.2605">
        <ele>12.199999809265</ele>
        <time>2022-09-04T09:35:08.000Z</time>
      </trkpt>
      <trkpt lat="47.29196" lon="-2.26045">
        <ele>12.199999809265</ele>
        <time>2022-09-04T09:35:09.000Z</time>
      </trkpt>
      <trkpt lat="47.29188" lon="-2.26034">
        <ele>12.199999809265</ele>
        <time>2022-09-04T09:35:11.000Z</time>
      </trkpt>
      <trkpt lat="47.29178" lon="-2.26001">
        <ele>12.199999809265</ele>
        <time>2022-09-04T09:35:15.000Z</time>
      </trkpt>
      <trkpt lat="47.2916" lon="-2.25982">
        <ele>12.199999809265</ele>
        <time>2022-09-04T09:35:19.000Z</time>
      </trkpt>
      <trkpt lat="47.29149" lon="-2.25979">
        <ele>12.199999809265</ele>
        <time>2022-09-04T09:35:21.000Z</time>
      </trkpt>
      <trkpt lat="47.29131" lon="-2.25977">
        <ele>12.199999809265</ele>
        <time>2022-09-04T09:35:24.000Z</time>
      </trkpt>
      <trkpt lat="47.29115" lon="-2.25976">
        <ele>11.800000190735</ele>
        <time>2022-09-04T09:35:27.000Z</time>
      </trkpt>
      <trkpt lat="47.2911" lon="-2.25977">
        <ele>11.39999961853</ele>
        <time>2022-09-04T09:35:28.000Z</time>
      </trkpt>
      <trkpt lat="47.29105" lon="-2.25979">
        <ele>11</ele>
        <time>2022-09-04T09:35:29.000Z</time>
      </trkpt>
      <trkpt lat="47.291" lon="-2.25982">
        <ele>10.60000038147</ele>
        <time>2022-09-04T09:35:30.000Z</time>
      </trkpt>
      <trkpt lat="47.29096" lon="-2.25987">
        <ele>10.199999809265</ele>
        <time>2022-09-04T09:35:31.000Z</time>
      </trkpt>
      <trkpt lat="47.29092" lon="-2.25991">
        <ele>10.199999809265</ele>
        <time>2022-09-04T09:35:32.000Z</time>
      </trkpt>
      <trkpt lat="47.29087" lon="-2.26002">
        <ele>10.199999809265</ele>
        <time>2022-09-04T09:35:34.000Z</time>
      </trkpt>
      <trkpt lat="47.29089" lon="-2.26016">
        <ele>10.199999809265</ele>
        <time>2022-09-04T09:35:37.000Z</time>
      </trkpt>
      <trkpt lat="47.29091" lon="-2.26022">
        <ele>10.199999809265</ele>
        <time>2022-09-04T09:35:38.000Z</time>
      </trkpt>
      <trkpt lat="47.291" lon="-2.26045">
        <ele>10.199999809265</ele>
        <time>2022-09-04T09:35:42.000Z</time>
      </trkpt>
      <trkpt lat="47.29101" lon="-2.26053">
        <ele>10.199999809265</ele>
        <time>2022-09-04T09:35:43.000Z</time>
      </trkpt>
      <trkpt lat="47.29106" lon="-2.26089">
        <ele>10.199999809265</ele>
        <time>2022-09-04T09:35:48.000Z</time>
      </trkpt>
      <trkpt lat="47.29105" lon="-2.26118">
        <ele>10.199999809265</ele>
        <time>2022-09-04T09:35:52.000Z</time>
      </trkpt>
      <trkpt lat="47.29097" lon="-2.26153">
        <ele>10.199999809265</ele>
        <time>2022-09-04T09:35:57.000Z</time>
      </trkpt>
      <trkpt lat="47.29094" lon="-2.26177">
        <ele>10.60000038147</ele>
        <time>2022-09-04T09:36:00.000Z</time>
      </trkpt>
      <trkpt lat="47.29092" lon="-2.26186">
        <ele>11</ele>
        <time>2022-09-04T09:36:01.000Z</time>
      </trkpt>
      <trkpt lat="47.29091" lon="-2.26194">
        <ele>11.39999961853</ele>
        <time>2022-09-04T09:36:02.000Z</time>
      </trkpt>
      <trkpt lat="47.29089" lon="-2.26203">
        <ele>11.800000190735</ele>
        <time>2022-09-04T09:36:03.000Z</time>
      </trkpt>
      <trkpt lat="47.29088" lon="-2.26212">
        <ele>12.199999809265</ele>
        <time>2022-09-04T09:36:04.000Z</time>
      </trkpt>
      <trkpt lat="47.29079" lon="-2.26259">
        <ele>12.199999809265</ele>
        <time>2022-09-04T09:36:09.000Z</time>
      </trkpt>
      <trkpt lat="47.29064" lon="-2.26319">
        <ele>12.199999809265</ele>
        <time>2022-09-04T09:36:16.000Z</time>
      </trkpt>
      <trkpt lat="47.29052" lon="-2.26339">
        <ele>12.199999809265</ele>
        <time>2022-09-04T09:36:19.000Z</time>
      </trkpt>
      <trkpt lat="47.29044" lon="-2.2635">
        <ele>12.199999809265</ele>
        <time>2022-09-04T09:36:21.000Z</time>
      </trkpt>
      <trkpt lat="47.29039" lon="-2.26354">
        <ele>12.199999809265</ele>
        <time>2022-09-04T09:36:22.000Z</time>
      </trkpt>
      <trkpt lat="47.29021" lon="-2.26371">
        <ele>12.199999809265</ele>
        <time>2022-09-04T09:36:26.000Z</time>
      </trkpt>
      <trkpt lat="47.29015" lon="-2.26391">
        <ele>12.199999809265</ele>
        <time>2022-09-04T09:36:29.000Z</time>
      </trkpt>
      <trkpt lat="47.29015" lon="-2.26407">
        <ele>12.199999809265</ele>
        <time>2022-09-04T09:36:31.000Z</time>
      </trkpt>
      <trkpt lat="47.29016" lon="-2.26424">
        <ele>12.199999809265</ele>
        <time>2022-09-04T09:36:33.000Z</time>
      </trkpt>
      <trkpt lat="47.29017" lon="-2.26433">
        <ele>12.199999809265</ele>
        <time>2022-09-04T09:36:34.000Z</time>
      </trkpt>
      <trkpt lat="47.2902" lon="-2.26465">
        <ele>12.199999809265</ele>
        <time>2022-09-04T09:36:37.000Z</time>
      </trkpt>
      <trkpt lat="47.29028" lon="-2.26522">
        <ele>11.800000190735</ele>
        <time>2022-09-04T09:36:42.000Z</time>
      </trkpt>
      <trkpt lat="47.29032" lon="-2.26532">
        <ele>11.39999961853</ele>
        <time>2022-09-04T09:36:43.000Z</time>
      </trkpt>
      <trkpt lat="47.29034" lon="-2.26542">
        <ele>11</ele>
        <time>2022-09-04T09:36:44.000Z</time>
      </trkpt>
      <trkpt lat="47.29036" lon="-2.26551">
        <ele>10.60000038147</ele>
        <time>2022-09-04T09:36:45.000Z</time>
      </trkpt>
      <trkpt lat="47.29038" lon="-2.2656">
        <ele>10.199999809265</ele>
        <time>2022-09-04T09:36:46.000Z</time>
      </trkpt>
      <trkpt lat="47.29046" lon="-2.26615">
        <ele>10.199999809265</ele>
        <time>2022-09-04T09:36:52.000Z</time>
      </trkpt>
      <trkpt lat="47.29051" lon="-2.26689">
        <ele>10.199999809265</ele>
        <time>2022-09-04T09:36:59.000Z</time>
      </trkpt>
      <trkpt lat="47.29052" lon="-2.26701">
        <ele>9.8000001907349</ele>
        <time>2022-09-04T09:37:00.000Z</time>
      </trkpt>
      <trkpt lat="47.29054" lon="-2.26713">
        <ele>9.3999996185303</ele>
        <time>2022-09-04T09:37:01.000Z</time>
      </trkpt>
      <trkpt lat="47.29055" lon="-2.26726">
        <ele>9</ele>
        <time>2022-09-04T09:37:02.000Z</time>
      </trkpt>
      <trkpt lat="47.29057" lon="-2.26739">
        <ele>8.6000003814697</ele>
        <time>2022-09-04T09:37:03.000Z</time>
      </trkpt>
      <trkpt lat="47.29059" lon="-2.26751">
        <ele>8</ele>
        <time>2022-09-04T09:37:04.000Z</time>
      </trkpt>
      <trkpt lat="47.29061" lon="-2.26764">
        <ele>7.5999999046326</ele>
        <time>2022-09-04T09:37:05.000Z</time>
      </trkpt>
      <trkpt lat="47.29062" lon="-2.26778">
        <ele>7</ele>
        <time>2022-09-04T09:37:06.000Z</time>
      </trkpt>
      <trkpt lat="47.29063" lon="-2.26791">
        <ele>6.5999999046326</ele>
        <time>2022-09-04T09:37:07.000Z</time>
      </trkpt>
      <trkpt lat="47.29064" lon="-2.26805">
        <ele>6</ele>
        <time>2022-09-04T09:37:08.000Z</time>
      </trkpt>
      <trkpt lat="47.29064" lon="-2.26819">
        <ele>5.5999999046326</ele>
        <time>2022-09-04T09:37:09.000Z</time>
      </trkpt>
      <trkpt lat="47.29063" lon="-2.26832">
        <ele>5.1999998092651</ele>
        <time>2022-09-04T09:37:10.000Z</time>
      </trkpt>
      <trkpt lat="47.29062" lon="-2.26844">
        <ele>4.1999998092651</ele>
        <time>2022-09-04T09:37:11.000Z</time>
      </trkpt>
      <trkpt lat="47.29061" lon="-2.26856">
        <ele>3.7999999523163</ele>
        <time>2022-09-04T09:37:12.000Z</time>
      </trkpt>
      <trkpt lat="47.2906" lon="-2.26874">
        <ele>3.7999999523163</ele>
        <time>2022-09-04T09:37:14.000Z</time>
      </trkpt>
      <trkpt lat="47.29062" lon="-2.26892">
        <ele>3.7999999523163</ele>
        <time>2022-09-04T09:37:18.000Z</time>
      </trkpt>
      <trkpt lat="47.29067" lon="-2.26898">
        <ele>3.7999999523163</ele>
        <time>2022-09-04T09:37:22.000Z</time>
      </trkpt>
      <trkpt lat="47.29069" lon="-2.26901">
        <ele>3.7999999523163</ele>
        <time>2022-09-04T09:37:23.000Z</time>
      </trkpt>
      <trkpt lat="47.29074" lon="-2.26911">
        <ele>3.7999999523163</ele>
        <time>2022-09-04T09:37:26.000Z</time>
      </trkpt>
      <trkpt lat="47.29076" lon="-2.26919">
        <ele>3.7999999523163</ele>
        <time>2022-09-04T09:37:29.000Z</time>
      </trkpt>
      <trkpt lat="47.29075" lon="-2.26925">
        <ele>3.7999999523163</ele>
        <time>2022-09-04T09:37:31.000Z</time>
      </trkpt>
      <trkpt lat="47.29074" lon="-2.26933">
        <ele>3.7999999523163</ele>
        <time>2022-09-04T09:37:34.000Z</time>
      </trkpt>
      <trkpt lat="47.29075" lon="-2.26938">
        <ele>3.7999999523163</ele>
        <time>2022-09-04T09:37:36.000Z</time>
      </trkpt>
      <trkpt lat="47.29075" lon="-2.26963">
        <ele>3.7999999523163</ele>
        <time>2022-09-04T09:37:41.000Z</time>
      </trkpt>
      <trkpt lat="47.29073" lon="-2.26982">
        <ele>3.7999999523163</ele>
        <time>2022-09-04T09:37:44.000Z</time>
      </trkpt>
      <trkpt lat="47.29072" lon="-2.26996">
        <ele>3.7999999523163</ele>
        <time>2022-09-04T09:37:46.000Z</time>
      </trkpt>
      <trkpt lat="47.29074" lon="-2.2702">
        <ele>3.7999999523163</ele>
        <time>2022-09-04T09:37:50.000Z</time>
      </trkpt>
      <trkpt lat="47.29074" lon="-2.27027">
        <ele>3.7999999523163</ele>
        <time>2022-09-04T09:37:51.000Z</time>
      </trkpt>
      <trkpt lat="47.29071" lon="-2.27046">
        <ele>3.7999999523163</ele>
        <time>2022-09-04T09:37:54.000Z</time>
      </trkpt>
      <trkpt lat="47.29071" lon="-2.27057">
        <ele>3.7999999523163</ele>
        <time>2022-09-04T09:37:56.000Z</time>
      </trkpt>
      <trkpt lat="47.2907" lon="-2.2708">
        <ele>3.7999999523163</ele>
        <time>2022-09-04T09:38:00.000Z</time>
      </trkpt>
      <trkpt lat="47.2907" lon="-2.27093">
        <ele>3.7999999523163</ele>
        <time>2022-09-04T09:38:02.000Z</time>
      </trkpt>
      <trkpt lat="47.2907" lon="-2.27114">
        <ele>3.7999999523163</ele>
        <time>2022-09-04T09:38:05.000Z</time>
      </trkpt>
      <trkpt lat="47.29069" lon="-2.27119">
        <ele>3.7999999523163</ele>
        <time>2022-09-04T09:38:06.000Z</time>
      </trkpt>
      <trkpt lat="47.29069" lon="-2.27134">
        <ele>3.7999999523163</ele>
        <time>2022-09-04T09:38:09.000Z</time>
      </trkpt>
      <trkpt lat="47.29068" lon="-2.27168">
        <ele>3.7999999523163</ele>
        <time>2022-09-04T09:38:15.000Z</time>
      </trkpt>
      <trkpt lat="47.2907" lon="-2.27177">
        <ele>3.7999999523163</ele>
        <time>2022-09-04T09:38:17.000Z</time>
      </trkpt>
      <trkpt lat="47.29074" lon="-2.27182">
        <ele>3.7999999523163</ele>
        <time>2022-09-04T09:38:18.000Z</time>
      </trkpt>
      <trkpt lat="47.29086" lon="-2.27192">
        <ele>3.7999999523163</ele>
        <time>2022-09-04T09:38:21.000Z</time>
      </trkpt>
      <trkpt lat="47.2909" lon="-2.27192">
        <ele>3.7999999523163</ele>
        <time>2022-09-04T09:38:22.000Z</time>
      </trkpt>
      <trkpt lat="47.29103" lon="-2.27194">
        <ele>3.7999999523163</ele>
        <time>2022-09-04T09:38:26.000Z</time>
      </trkpt>
      <trkpt lat="47.29109" lon="-2.27197">
        <ele>3.7999999523163</ele>
        <time>2022-09-04T09:38:29.000Z</time>
      </trkpt>
      <trkpt lat="47.29111" lon="-2.27201">
        <ele>3.7999999523163</ele>
        <time>2022-09-04T09:38:31.000Z</time>
      </trkpt>
      <trkpt lat="47.29111" lon="-2.27216">
        <ele>3.7999999523163</ele>
        <time>2022-09-04T09:38:37.000Z</time>
      </trkpt>
      <trkpt lat="47.29108" lon="-2.27235">
        <ele>3.7999999523163</ele>
        <time>2022-09-04T09:38:42.000Z</time>
      </trkpt>
      <trkpt lat="47.29105" lon="-2.27254">
        <ele>3.7999999523163</ele>
        <time>2022-09-04T09:38:46.000Z</time>
      </trkpt>
      <trkpt lat="47.29102" lon="-2.27282">
        <ele>3.7999999523163</ele>
        <time>2022-09-04T09:38:51.000Z</time>
      </trkpt>
      <trkpt lat="47.29098" lon="-2.27305">
        <ele>3.7999999523163</ele>
        <time>2022-09-04T09:38:55.000Z</time>
      </trkpt>
      <trkpt lat="47.29094" lon="-2.27334">
        <ele>3.7999999523163</ele>
        <time>2022-09-04T09:39:00.000Z</time>
      </trkpt>
      <trkpt lat="47.291" lon="-2.27349">
        <ele>3.7999999523163</ele>
        <time>2022-09-04T09:39:04.000Z</time>
      </trkpt>
      <trkpt lat="47.29102" lon="-2.27369">
        <ele>3.7999999523163</ele>
        <time>2022-09-04T09:39:07.000Z</time>
      </trkpt>
      <trkpt lat="47.29105" lon="-2.27386">
        <ele>3.7999999523163</ele>
        <time>2022-09-04T09:39:09.000Z</time>
      </trkpt>
      <trkpt lat="47.29107" lon="-2.27413">
        <ele>3.7999999523163</ele>
        <time>2022-09-04T09:39:12.000Z</time>
      </trkpt>
      <trkpt lat="47.29107" lon="-2.27432">
        <ele>3.7999999523163</ele>
        <time>2022-09-04T09:39:14.000Z</time>
      </trkpt>
      <trkpt lat="47.29105" lon="-2.27475">
        <ele>3.7999999523163</ele>
        <time>2022-09-04T09:39:19.000Z</time>
      </trkpt>
      <trkpt lat="47.29104" lon="-2.27507">
        <ele>3.7999999523163</ele>
        <time>2022-09-04T09:39:24.000Z</time>
      </trkpt>
      <trkpt lat="47.29105" lon="-2.27515">
        <ele>3.7999999523163</ele>
        <time>2022-09-04T09:39:27.000Z</time>
      </trkpt>
      <trkpt lat="47.29102" lon="-2.27527">
        <ele>3.7999999523163</ele>
        <time>2022-09-04T09:40:05.000Z</time>
      </trkpt>
      <trkpt lat="47.29097" lon="-2.27529">
        <ele>3.7999999523163</ele>
        <time>2022-09-04T09:40:07.000Z</time>
      </trkpt>
      <trkpt lat="47.29077" lon="-2.27529">
        <ele>3.7999999523163</ele>
        <time>2022-09-04T09:40:12.000Z</time>
      </trkpt>
      <trkpt lat="47.2905" lon="-2.27527">
        <ele>3.7999999523163</ele>
        <time>2022-09-04T09:40:17.000Z</time>
      </trkpt>
      <trkpt lat="47.29005" lon="-2.27525">
        <ele>3.7999999523163</ele>
        <time>2022-09-04T09:40:24.000Z</time>
      </trkpt>
      <trkpt lat="47.28966" lon="-2.27525">
        <ele>3.7999999523163</ele>
        <time>2022-09-04T09:40:30.000Z</time>
      </trkpt>
      <trkpt lat="47.28926" lon="-2.27526">
        <ele>3.7999999523163</ele>
        <time>2022-09-04T09:40:36.000Z</time>
      </trkpt>
      <trkpt lat="47.28878" lon="-2.27534">
        <ele>3.7999999523163</ele>
        <time>2022-09-04T09:40:43.000Z</time>
      </trkpt>
      <trkpt lat="47.2884" lon="-2.27538">
        <ele>3.7999999523163</ele>
        <time>2022-09-04T09:40:49.000Z</time>
      </trkpt>
      <trkpt lat="47.28818" lon="-2.27544">
        <ele>3.7999999523163</ele>
        <time>2022-09-04T09:40:53.000Z</time>
      </trkpt>
      <trkpt lat="47.28802" lon="-2.27557">
        <ele>3.7999999523163</ele>
        <time>2022-09-04T09:40:56.000Z</time>
      </trkpt>
      <trkpt lat="47.28797" lon="-2.27562">
        <ele>3.7999999523163</ele>
        <time>2022-09-04T09:40:57.000Z</time>
      </trkpt>
      <trkpt lat="47.28775" lon="-2.2759">
        <ele>3.7999999523163</ele>
        <time>2022-09-04T09:41:02.000Z</time>
      </trkpt>
      <trkpt lat="47.28746" lon="-2.27627">
        <ele>3.7999999523163</ele>
        <time>2022-09-04T09:41:08.000Z</time>
      </trkpt>
      <trkpt lat="47.28724" lon="-2.27658">
        <ele>3.7999999523163</ele>
        <time>2022-09-04T09:41:13.000Z</time>
      </trkpt>
      <trkpt lat="47.28696" lon="-2.27702">
        <ele>3.7999999523163</ele>
        <time>2022-09-04T09:41:20.000Z</time>
      </trkpt>
      <trkpt lat="47.28673" lon="-2.27739">
        <ele>3.7999999523163</ele>
        <time>2022-09-04T09:41:26.000Z</time>
      </trkpt>
      <trkpt lat="47.28661" lon="-2.27768">
        <ele>3.7999999523163</ele>
        <time>2022-09-04T09:41:30.000Z</time>
      </trkpt>
      <trkpt lat="47.28659" lon="-2.27775">
        <ele>3.7999999523163</ele>
        <time>2022-09-04T09:41:31.000Z</time>
      </trkpt>
      <trkpt lat="47.28645" lon="-2.2783">
        <ele>3.7999999523163</ele>
        <time>2022-09-04T09:41:38.000Z</time>
      </trkpt>
      <trkpt lat="47.2864" lon="-2.27859">
        <ele>3.7999999523163</ele>
        <time>2022-09-04T09:41:42.000Z</time>
      </trkpt>
      <trkpt lat="47.28639" lon="-2.27867">
        <ele>3.7999999523163</ele>
        <time>2022-09-04T09:41:43.000Z</time>
      </trkpt>
      <trkpt lat="47.28638" lon="-2.27875">
        <ele>4.1999998092651</ele>
        <time>2022-09-04T09:41:44.000Z</time>
      </trkpt>
      <trkpt lat="47.28636" lon="-2.27882">
        <ele>4.5999999046326</ele>
        <time>2022-09-04T09:41:45.000Z</time>
      </trkpt>
      <trkpt lat="47.28634" lon="-2.2789">
        <ele>5</ele>
        <time>2022-09-04T09:41:46.000Z</time>
      </trkpt>
      <trkpt lat="47.28633" lon="-2.27897">
        <ele>5.4000000953674</ele>
        <time>2022-09-04T09:41:47.000Z</time>
      </trkpt>
      <trkpt lat="47.28631" lon="-2.27905">
        <ele>5.8000001907349</ele>
        <time>2022-09-04T09:41:48.000Z</time>
      </trkpt>
      <trkpt lat="47.28629" lon="-2.2792">
        <ele>5.8000001907349</ele>
        <time>2022-09-04T09:41:50.000Z</time>
      </trkpt>
      <trkpt lat="47.28627" lon="-2.27934">
        <ele>5.8000001907349</ele>
        <time>2022-09-04T09:41:52.000Z</time>
      </trkpt>
      <trkpt lat="47.28617" lon="-2.27951">
        <ele>5.8000001907349</ele>
        <time>2022-09-04T09:41:55.000Z</time>
      </trkpt>
      <trkpt lat="47.2861" lon="-2.27974">
        <ele>5.8000001907349</ele>
        <time>2022-09-04T09:41:58.000Z</time>
      </trkpt>
      <trkpt lat="47.28608" lon="-2.27982">
        <ele>5.8000001907349</ele>
        <time>2022-09-04T09:41:59.000Z</time>
      </trkpt>
      <trkpt lat="47.28602" lon="-2.28009">
        <ele>5.8000001907349</ele>
        <time>2022-09-04T09:42:03.000Z</time>
      </trkpt>
      <trkpt lat="47.28599" lon="-2.28014">
        <ele>5.8000001907349</ele>
        <time>2022-09-04T09:42:04.000Z</time>
      </trkpt>
      <trkpt lat="47.28588" lon="-2.28033">
        <ele>5.8000001907349</ele>
        <time>2022-09-04T09:42:09.000Z</time>
      </trkpt>
      <trkpt lat="47.28572" lon="-2.28049">
        <ele>5.8000001907349</ele>
        <time>2022-09-04T09:42:15.000Z</time>
      </trkpt>
      <trkpt lat="47.28557" lon="-2.28055">
        <ele>5.8000001907349</ele>
        <time>2022-09-04T09:42:19.000Z</time>
      </trkpt>
      <trkpt lat="47.28553" lon="-2.28053">
        <ele>6.1999998092651</ele>
        <time>2022-09-04T09:42:20.000Z</time>
      </trkpt>
      <trkpt lat="47.28549" lon="-2.28052">
        <ele>6.5999999046326</ele>
        <time>2022-09-04T09:42:21.000Z</time>
      </trkpt>
      <trkpt lat="47.28546" lon="-2.28052">
        <ele>7</ele>
        <time>2022-09-04T09:42:22.000Z</time>
      </trkpt>
      <trkpt lat="47.28543" lon="-2.28053">
        <ele>7.4000000953674</ele>
        <time>2022-09-04T09:42:23.000Z</time>
      </trkpt>
      <trkpt lat="47.28542" lon="-2.28053">
        <ele>7.8000001907349</ele>
        <time>2022-09-04T09:42:24.000Z</time>
      </trkpt>
      <trkpt lat="47.2854" lon="-2.28053">
        <ele>7.8000001907349</ele>
        <time>2022-09-04T09:42:25.000Z</time>
      </trkpt>
      <trkpt lat="47.28538" lon="-2.28053">
        <ele>8.3999996185303</ele>
        <time>2022-09-04T09:42:26.000Z</time>
      </trkpt>
      <trkpt lat="47.28535" lon="-2.28053">
        <ele>8.8000001907349</ele>
        <time>2022-09-04T09:42:27.000Z</time>
      </trkpt>
      <trkpt lat="47.28532" lon="-2.28054">
        <ele>9.1999998092651</ele>
        <time>2022-09-04T09:42:28.000Z</time>
      </trkpt>
      <trkpt lat="47.28529" lon="-2.28053">
        <ele>9.6000003814697</ele>
        <time>2022-09-04T09:42:29.000Z</time>
      </trkpt>
      <trkpt lat="47.28526" lon="-2.28052">
        <ele>10.199999809265</ele>
        <time>2022-09-04T09:42:30.000Z</time>
      </trkpt>
      <trkpt lat="47.2852" lon="-2.28049">
        <ele>10.60000038147</ele>
        <time>2022-09-04T09:42:32.000Z</time>
      </trkpt>
      <trkpt lat="47.28516" lon="-2.28046">
        <ele>11.39999961853</ele>
        <time>2022-09-04T09:42:33.000Z</time>
      </trkpt>
      <trkpt lat="47.28514" lon="-2.28044">
        <ele>11.800000190735</ele>
        <time>2022-09-04T09:42:34.000Z</time>
      </trkpt>
      <trkpt lat="47.2851" lon="-2.28042">
        <ele>12.39999961853</ele>
        <time>2022-09-04T09:42:35.000Z</time>
      </trkpt>
      <trkpt lat="47.28501" lon="-2.28038">
        <ele>12.39999961853</ele>
        <time>2022-09-04T09:42:38.000Z</time>
      </trkpt>
      <trkpt lat="47.28494" lon="-2.28043">
        <ele>12.800000190735</ele>
        <time>2022-09-04T09:42:41.000Z</time>
      </trkpt>
      <trkpt lat="47.28491" lon="-2.28046">
        <ele>13.199999809265</ele>
        <time>2022-09-04T09:42:42.000Z</time>
      </trkpt>
      <trkpt lat="47.28489" lon="-2.28049">
        <ele>13.60000038147</ele>
        <time>2022-09-04T09:42:43.000Z</time>
      </trkpt>
      <trkpt lat="47.28489" lon="-2.28053">
        <ele>14</ele>
        <time>2022-09-04T09:42:44.000Z</time>
      </trkpt>
      <trkpt lat="47.28489" lon="-2.28057">
        <ele>14.39999961853</ele>
        <time>2022-09-04T09:42:45.000Z</time>
      </trkpt>
      <trkpt lat="47.28493" lon="-2.28073">
        <ele>14.39999961853</ele>
        <time>2022-09-04T09:42:49.000Z</time>
      </trkpt>
      <trkpt lat="47.28493" lon="-2.28078">
        <ele>14.39999961853</ele>
        <time>2022-09-04T09:42:50.000Z</time>
      </trkpt>
      <trkpt lat="47.28488" lon="-2.28085">
        <ele>14.39999961853</ele>
        <time>2022-09-04T09:42:52.000Z</time>
      </trkpt>
      <trkpt lat="47.28479" lon="-2.28091">
        <ele>13.800000190735</ele>
        <time>2022-09-04T09:42:54.000Z</time>
      </trkpt>
      <trkpt lat="47.28475" lon="-2.28093">
        <ele>13.39999961853</ele>
        <time>2022-09-04T09:42:55.000Z</time>
      </trkpt>
      <trkpt lat="47.28471" lon="-2.28095">
        <ele>13</ele>
        <time>2022-09-04T09:42:56.000Z</time>
      </trkpt>
      <trkpt lat="47.28467" lon="-2.28094">
        <ele>12.60000038147</ele>
        <time>2022-09-04T09:42:57.000Z</time>
      </trkpt>
      <trkpt lat="47.28464" lon="-2.28091">
        <ele>12.199999809265</ele>
        <time>2022-09-04T09:42:58.000Z</time>
      </trkpt>
      <trkpt lat="47.28461" lon="-2.2809">
        <ele>12.199999809265</ele>
        <time>2022-09-04T09:42:59.000Z</time>
      </trkpt>
      <trkpt lat="47.28453" lon="-2.28088">
        <ele>12.199999809265</ele>
        <time>2022-09-04T09:43:02.000Z</time>
      </trkpt>
      <trkpt lat="47.28445" lon="-2.28085">
        <ele>12.199999809265</ele>
        <time>2022-09-04T09:43:04.000Z</time>
      </trkpt>
      <trkpt lat="47.2844" lon="-2.28088">
        <ele>12.199999809265</ele>
        <time>2022-09-04T09:43:06.000Z</time>
      </trkpt>
      <trkpt lat="47.28436" lon="-2.28089">
        <ele>12.199999809265</ele>
        <time>2022-09-04T09:43:07.000Z</time>
      </trkpt>
      <trkpt lat="47.28425" lon="-2.28084">
        <ele>12.199999809265</ele>
        <time>2022-09-04T09:43:10.000Z</time>
      </trkpt>
      <trkpt lat="47.28423" lon="-2.28085">
        <ele>12.199999809265</ele>
        <time>2022-09-04T09:43:11.000Z</time>
      </trkpt>
      <trkpt lat="47.28417" lon="-2.28085">
        <ele>12.199999809265</ele>
        <time>2022-09-04T09:43:13.000Z</time>
      </trkpt>
      <trkpt lat="47.28402" lon="-2.28079">
        <ele>12.199999809265</ele>
        <time>2022-09-04T09:43:18.000Z</time>
      </trkpt>
      <trkpt lat="47.28399" lon="-2.28079">
        <ele>12.199999809265</ele>
        <time>2022-09-04T09:43:19.000Z</time>
      </trkpt>
      <trkpt lat="47.28388" lon="-2.28078">
        <ele>12.199999809265</ele>
        <time>2022-09-04T09:43:22.000Z</time>
      </trkpt>
      <trkpt lat="47.28374" lon="-2.28075">
        <ele>12.199999809265</ele>
        <time>2022-09-04T09:43:28.000Z</time>
      </trkpt>
      <trkpt lat="47.28371" lon="-2.28069">
        <ele>12.199999809265</ele>
        <time>2022-09-04T09:43:31.000Z</time>
      </trkpt>
      <trkpt lat="47.28371" lon="-2.28064">
        <ele>12.199999809265</ele>
        <time>2022-09-04T09:43:33.000Z</time>
      </trkpt>
      <trkpt lat="47.28375" lon="-2.28051">
        <ele>12.60000038147</ele>
        <time>2022-09-04T09:43:38.000Z</time>
      </trkpt>
      <trkpt lat="47.28375" lon="-2.28049">
        <ele>13</ele>
        <time>2022-09-04T09:43:39.000Z</time>
      </trkpt>
      <trkpt lat="47.28376" lon="-2.28047">
        <ele>13.39999961853</ele>
        <time>2022-09-04T09:43:40.000Z</time>
      </trkpt>
      <trkpt lat="47.28376" lon="-2.28044">
        <ele>13.800000190735</ele>
        <time>2022-09-04T09:43:41.000Z</time>
      </trkpt>
      <trkpt lat="47.28376" lon="-2.28042">
        <ele>14.39999961853</ele>
        <time>2022-09-04T09:43:42.000Z</time>
      </trkpt>
      <trkpt lat="47.28377" lon="-2.28038">
        <ele>14.39999961853</ele>
        <time>2022-09-04T09:43:44.000Z</time>
      </trkpt>
      <trkpt lat="47.28377" lon="-2.28036">
        <ele>14.800000190735</ele>
        <time>2022-09-04T09:43:45.000Z</time>
      </trkpt>
      <trkpt lat="47.28378" lon="-2.28033">
        <ele>15.199999809265</ele>
        <time>2022-09-04T09:43:46.000Z</time>
      </trkpt>
      <trkpt lat="47.28379" lon="-2.28031">
        <ele>16</ele>
        <time>2022-09-04T09:43:47.000Z</time>
      </trkpt>
      <trkpt lat="47.2838" lon="-2.28028">
        <ele>16.39999961853</ele>
        <time>2022-09-04T09:43:48.000Z</time>
      </trkpt>
      <trkpt lat="47.28381" lon="-2.28026">
        <ele>16.39999961853</ele>
        <time>2022-09-04T09:43:49.000Z</time>
      </trkpt>
      <trkpt lat="47.28383" lon="-2.28024">
        <ele>16.39999961853</ele>
        <time>2022-09-04T09:43:50.000Z</time>
      </trkpt>
      <trkpt lat="47.2839" lon="-2.28022">
        <ele>16.39999961853</ele>
        <time>2022-09-04T09:43:54.000Z</time>
      </trkpt>
      <trkpt lat="47.28391" lon="-2.28025">
        <ele>16.39999961853</ele>
        <time>2022-09-04T09:43:57.000Z</time>
      </trkpt>
      <trkpt lat="47.28391" lon="-2.28027">
        <ele>16.39999961853</ele>
        <time>2022-09-04T09:43:58.000Z</time>
      </trkpt>
      <trkpt lat="47.28383" lon="-2.2804">
        <ele>16.39999961853</ele>
        <time>2022-09-04T09:44:03.000Z</time>
      </trkpt>
      <trkpt lat="47.28377" lon="-2.2805">
        <ele>16</ele>
        <time>2022-09-04T09:44:07.000Z</time>
      </trkpt>
      <trkpt lat="47.28377" lon="-2.28052">
        <ele>15.60000038147</ele>
        <time>2022-09-04T09:44:08.000Z</time>
      </trkpt>
      <trkpt lat="47.28375" lon="-2.28053">
        <ele>15</ele>
        <time>2022-09-04T09:44:09.000Z</time>
      </trkpt>
      <trkpt lat="47.28373" lon="-2.28053">
        <ele>14.60000038147</ele>
        <time>2022-09-04T09:44:10.000Z</time>
      </trkpt>
      <trkpt lat="47.28371" lon="-2.28055">
        <ele>14.199999809265</ele>
        <time>2022-09-04T09:44:11.000Z</time>
      </trkpt>
      <trkpt lat="47.28369" lon="-2.28058">
        <ele>14.199999809265</ele>
        <time>2022-09-04T09:44:12.000Z</time>
      </trkpt>
      <trkpt lat="47.28367" lon="-2.28062">
        <ele>13.800000190735</ele>
        <time>2022-09-04T09:44:13.000Z</time>
      </trkpt>
      <trkpt lat="47.28366" lon="-2.28065">
        <ele>13.39999961853</ele>
        <time>2022-09-04T09:44:14.000Z</time>
      </trkpt>
      <trkpt lat="47.28365" lon="-2.28068">
        <ele>13</ele>
        <time>2022-09-04T09:44:15.000Z</time>
      </trkpt>
      <trkpt lat="47.28365" lon="-2.28072">
        <ele>12.60000038147</ele>
        <time>2022-09-04T09:44:16.000Z</time>
      </trkpt>
      <trkpt lat="47.28363" lon="-2.28078">
        <ele>12.199999809265</ele>
        <time>2022-09-04T09:44:17.000Z</time>
      </trkpt>
      <trkpt lat="47.28362" lon="-2.28083">
        <ele>11.60000038147</ele>
        <time>2022-09-04T09:44:18.000Z</time>
      </trkpt>
      <trkpt lat="47.28363" lon="-2.28088">
        <ele>11.199999809265</ele>
        <time>2022-09-04T09:44:19.000Z</time>
      </trkpt>
      <trkpt lat="47.28365" lon="-2.28092">
        <ele>10.800000190735</ele>
        <time>2022-09-04T09:44:20.000Z</time>
      </trkpt>
      <trkpt lat="47.28365" lon="-2.28094">
        <ele>10.39999961853</ele>
        <time>2022-09-04T09:44:21.000Z</time>
      </trkpt>
      <trkpt lat="47.28364" lon="-2.28093">
        <ele>9.8000001907349</ele>
        <time>2022-09-04T09:44:27.000Z</time>
      </trkpt>
      <trkpt lat="47.28364" lon="-2.28093">
        <ele>9.8000001907349</ele>
        <time>2022-09-04T09:44:29.000Z</time>
      </trkpt>
      <trkpt lat="47.28362" lon="-2.28092">
        <ele>9.8000001907349</ele>
        <time>2022-09-04T09:44:33.000Z</time>
      </trkpt>
      <trkpt lat="47.28358" lon="-2.28091">
        <ele>9.8000001907349</ele>
        <time>2022-09-04T09:44:37.000Z</time>
      </trkpt>
      <trkpt lat="47.28333" lon="-2.28098">
        <ele>9.8000001907349</ele>
        <time>2022-09-04T09:44:47.000Z</time>
      </trkpt>
      <trkpt lat="47.28329" lon="-2.28108">
        <ele>9.8000001907349</ele>
        <time>2022-09-04T09:44:49.000Z</time>
      </trkpt>
      <trkpt lat="47.28326" lon="-2.28123">
        <ele>9.8000001907349</ele>
        <time>2022-09-04T09:44:53.000Z</time>
      </trkpt>
      <trkpt lat="47.28325" lon="-2.28154">
        <ele>9.8000001907349</ele>
        <time>2022-09-04T09:45:00.000Z</time>
      </trkpt>
      <trkpt lat="47.28325" lon="-2.28159">
        <ele>10.800000190735</ele>
        <time>2022-09-04T09:45:01.000Z</time>
      </trkpt>
      <trkpt lat="47.28325" lon="-2.28164">
        <ele>11.199999809265</ele>
        <time>2022-09-04T09:45:02.000Z</time>
      </trkpt>
      <trkpt lat="47.28325" lon="-2.28169">
        <ele>11.60000038147</ele>
        <time>2022-09-04T09:45:03.000Z</time>
      </trkpt>
      <trkpt lat="47.28325" lon="-2.28174">
        <ele>12</ele>
        <time>2022-09-04T09:45:04.000Z</time>
      </trkpt>
      <trkpt lat="47.28324" lon="-2.28184">
        <ele>12</ele>
        <time>2022-09-04T09:45:06.000Z</time>
      </trkpt>
      <trkpt lat="47.28324" lon="-2.28195">
        <ele>12.39999961853</ele>
        <time>2022-09-04T09:45:08.000Z</time>
      </trkpt>
      <trkpt lat="47.28324" lon="-2.28201">
        <ele>12.800000190735</ele>
        <time>2022-09-04T09:45:09.000Z</time>
      </trkpt>
      <trkpt lat="47.28324" lon="-2.28206">
        <ele>13.199999809265</ele>
        <time>2022-09-04T09:45:10.000Z</time>
      </trkpt>
      <trkpt lat="47.28324" lon="-2.28212">
        <ele>13.60000038147</ele>
        <time>2022-09-04T09:45:11.000Z</time>
      </trkpt>
      <trkpt lat="47.28324" lon="-2.28217">
        <ele>14</ele>
        <time>2022-09-04T09:45:12.000Z</time>
      </trkpt>
      <trkpt lat="47.28325" lon="-2.28251">
        <ele>14</ele>
        <time>2022-09-04T09:45:19.000Z</time>
      </trkpt>
      <trkpt lat="47.28325" lon="-2.28251">
        <ele>14.39999961853</ele>
        <time>2022-09-04T09:45:20.000Z</time>
      </trkpt>
      <trkpt lat="47.28325" lon="-2.28251">
        <ele>14.800000190735</ele>
        <time>2022-09-04T09:45:21.000Z</time>
      </trkpt>
      <trkpt lat="47.28325" lon="-2.28251">
        <ele>15.199999809265</ele>
        <time>2022-09-04T09:45:22.000Z</time>
      </trkpt>
      <trkpt lat="47.28324" lon="-2.28257">
        <ele>16</ele>
        <time>2022-09-04T09:45:49.000Z</time>
      </trkpt>
      <trkpt lat="47.28325" lon="-2.28264">
        <ele>16</ele>
        <time>2022-09-04T09:45:51.000Z</time>
      </trkpt>
      <trkpt lat="47.28324" lon="-2.28285">
        <ele>16</ele>
        <time>2022-09-04T09:45:56.000Z</time>
      </trkpt>
      <trkpt lat="47.28322" lon="-2.28302">
        <ele>16.60000038147</ele>
        <time>2022-09-04T09:46:00.000Z</time>
      </trkpt>
      <trkpt lat="47.28322" lon="-2.28307">
        <ele>17</ele>
        <time>2022-09-04T09:46:01.000Z</time>
      </trkpt>
      <trkpt lat="47.28323" lon="-2.28312">
        <ele>17.39999961853</ele>
        <time>2022-09-04T09:46:02.000Z</time>
      </trkpt>
      <trkpt lat="47.28324" lon="-2.28318">
        <ele>17.799999237061</ele>
        <time>2022-09-04T09:46:03.000Z</time>
      </trkpt>
      <trkpt lat="47.28324" lon="-2.28323">
        <ele>18.200000762939</ele>
        <time>2022-09-04T09:46:04.000Z</time>
      </trkpt>
      <trkpt lat="47.28325" lon="-2.28335">
        <ele>18.200000762939</ele>
        <time>2022-09-04T09:46:06.000Z</time>
      </trkpt>
      <trkpt lat="47.28323" lon="-2.28361">
        <ele>18.200000762939</ele>
        <time>2022-09-04T09:46:10.000Z</time>
      </trkpt>
      <trkpt lat="47.2832" lon="-2.28382">
        <ele>18.200000762939</ele>
        <time>2022-09-04T09:46:13.000Z</time>
      </trkpt>
      <trkpt lat="47.28308" lon="-2.28433">
        <ele>18.200000762939</ele>
        <time>2022-09-04T09:46:20.000Z</time>
      </trkpt>
      <trkpt lat="47.28295" lon="-2.28491">
        <ele>18.200000762939</ele>
        <time>2022-09-04T09:46:27.000Z</time>
      </trkpt>
      <trkpt lat="47.28286" lon="-2.28554">
        <ele>18.200000762939</ele>
        <time>2022-09-04T09:46:34.000Z</time>
      </trkpt>
      <trkpt lat="47.28272" lon="-2.28626">
        <ele>18.200000762939</ele>
        <time>2022-09-04T09:46:42.000Z</time>
      </trkpt>
      <trkpt lat="47.28258" lon="-2.28694">
        <ele>18.200000762939</ele>
        <time>2022-09-04T09:46:50.000Z</time>
      </trkpt>
      <trkpt lat="47.28247" lon="-2.28751">
        <ele>18.200000762939</ele>
        <time>2022-09-04T09:46:57.000Z</time>
      </trkpt>
      <trkpt lat="47.28238" lon="-2.28805">
        <ele>18.200000762939</ele>
        <time>2022-09-04T09:47:04.000Z</time>
      </trkpt>
      <trkpt lat="47.2823" lon="-2.28855">
        <ele>18.200000762939</ele>
        <time>2022-09-04T09:47:11.000Z</time>
      </trkpt>
      <trkpt lat="47.28227" lon="-2.28867">
        <ele>18.200000762939</ele>
        <time>2022-09-04T09:47:13.000Z</time>
      </trkpt>
      <trkpt lat="47.2822" lon="-2.28874">
        <ele>18.200000762939</ele>
        <time>2022-09-04T09:47:15.000Z</time>
      </trkpt>
      <trkpt lat="47.28205" lon="-2.2887">
        <ele>18.200000762939</ele>
        <time>2022-09-04T09:47:18.000Z</time>
      </trkpt>
      <trkpt lat="47.28195" lon="-2.28862">
        <ele>18.200000762939</ele>
        <time>2022-09-04T09:47:20.000Z</time>
      </trkpt>
      <trkpt lat="47.2818" lon="-2.28849">
        <ele>18.200000762939</ele>
        <time>2022-09-04T09:47:23.000Z</time>
      </trkpt>
      <trkpt lat="47.28135" lon="-2.28812">
        <ele>17.799999237061</ele>
        <time>2022-09-04T09:47:31.000Z</time>
      </trkpt>
      <trkpt lat="47.28129" lon="-2.28807">
        <ele>17.39999961853</ele>
        <time>2022-09-04T09:47:32.000Z</time>
      </trkpt>
      <trkpt lat="47.28122" lon="-2.28802">
        <ele>17</ele>
        <time>2022-09-04T09:47:33.000Z</time>
      </trkpt>
      <trkpt lat="47.28116" lon="-2.28798">
        <ele>16.39999961853</ele>
        <time>2022-09-04T09:47:34.000Z</time>
      </trkpt>
      <trkpt lat="47.28109" lon="-2.28794">
        <ele>16</ele>
        <time>2022-09-04T09:47:35.000Z</time>
      </trkpt>
      <trkpt lat="47.28088" lon="-2.28781">
        <ele>16</ele>
        <time>2022-09-04T09:47:38.000Z</time>
      </trkpt>
      <trkpt lat="47.28073" lon="-2.28774">
        <ele>15.60000038147</ele>
        <time>2022-09-04T09:47:40.000Z</time>
      </trkpt>
      <trkpt lat="47.28065" lon="-2.2877">
        <ele>15.199999809265</ele>
        <time>2022-09-04T09:47:41.000Z</time>
      </trkpt>
      <trkpt lat="47.28058" lon="-2.28767">
        <ele>14.800000190735</ele>
        <time>2022-09-04T09:47:42.000Z</time>
      </trkpt>
      <trkpt lat="47.28051" lon="-2.28764">
        <ele>14.39999961853</ele>
        <time>2022-09-04T09:47:43.000Z</time>
      </trkpt>
      <trkpt lat="47.28043" lon="-2.28763">
        <ele>14</ele>
        <time>2022-09-04T09:47:44.000Z</time>
      </trkpt>
      <trkpt lat="47.28036" lon="-2.2876">
        <ele>14</ele>
        <time>2022-09-04T09:47:45.000Z</time>
      </trkpt>
      <trkpt lat="47.27985" lon="-2.28751">
        <ele>14</ele>
        <time>2022-09-04T09:47:52.000Z</time>
      </trkpt>
      <trkpt lat="47.27945" lon="-2.28753">
        <ele>14</ele>
        <time>2022-09-04T09:47:58.000Z</time>
      </trkpt>
      <trkpt lat="47.27916" lon="-2.28764">
        <ele>14</ele>
        <time>2022-09-04T09:48:03.000Z</time>
      </trkpt>
      <trkpt lat="47.27905" lon="-2.28768">
        <ele>14</ele>
        <time>2022-09-04T09:48:05.000Z</time>
      </trkpt>
      <trkpt lat="47.27881" lon="-2.28778">
        <ele>14</ele>
        <time>2022-09-04T09:48:10.000Z</time>
      </trkpt>
      <trkpt lat="47.27873" lon="-2.28796">
        <ele>14</ele>
        <time>2022-09-04T09:48:14.000Z</time>
      </trkpt>
      <trkpt lat="47.27866" lon="-2.28813">
        <ele>14</ele>
        <time>2022-09-04T09:48:17.000Z</time>
      </trkpt>
      <trkpt lat="47.27858" lon="-2.28816">
        <ele>14</ele>
        <time>2022-09-04T09:48:19.000Z</time>
      </trkpt>
      <trkpt lat="47.27845" lon="-2.28807">
        <ele>14</ele>
        <time>2022-09-04T09:48:22.000Z</time>
      </trkpt>
      <trkpt lat="47.2784" lon="-2.28804">
        <ele>14</ele>
        <time>2022-09-04T09:48:23.000Z</time>
      </trkpt>
      <trkpt lat="47.27824" lon="-2.28796">
        <ele>14</ele>
        <time>2022-09-04T09:48:26.000Z</time>
      </trkpt>
      <trkpt lat="47.27818" lon="-2.28796">
        <ele>14</ele>
        <time>2022-09-04T09:48:27.000Z</time>
      </trkpt>
      <trkpt lat="47.27806" lon="-2.28796">
        <ele>14</ele>
        <time>2022-09-04T09:48:29.000Z</time>
      </trkpt>
      <trkpt lat="47.27792" lon="-2.28805">
        <ele>14</ele>
        <time>2022-09-04T09:48:32.000Z</time>
      </trkpt>
      <trkpt lat="47.27779" lon="-2.2883">
        <ele>14</ele>
        <time>2022-09-04T09:48:36.000Z</time>
      </trkpt>
      <trkpt lat="47.27772" lon="-2.28843">
        <ele>14</ele>
        <time>2022-09-04T09:48:38.000Z</time>
      </trkpt>
      <trkpt lat="47.27765" lon="-2.28855">
        <ele>14</ele>
        <time>2022-09-04T09:48:40.000Z</time>
      </trkpt>
      <trkpt lat="47.27746" lon="-2.28886">
        <ele>14</ele>
        <time>2022-09-04T09:48:45.000Z</time>
      </trkpt>
      <trkpt lat="47.27725" lon="-2.28916">
        <ele>14</ele>
        <time>2022-09-04T09:48:50.000Z</time>
      </trkpt>
      <trkpt lat="47.27711" lon="-2.28943">
        <ele>14</ele>
        <time>2022-09-04T09:48:54.000Z</time>
      </trkpt>
      <trkpt lat="47.27704" lon="-2.28959">
        <ele>14</ele>
        <time>2022-09-04T09:48:56.000Z</time>
      </trkpt>
      <trkpt lat="47.27701" lon="-2.28968">
        <ele>14</ele>
        <time>2022-09-04T09:48:57.000Z</time>
      </trkpt>
      <trkpt lat="47.27689" lon="-2.29">
        <ele>14</ele>
        <time>2022-09-04T09:49:01.000Z</time>
      </trkpt>
      <trkpt lat="47.27671" lon="-2.29033">
        <ele>14</ele>
        <time>2022-09-04T09:49:06.000Z</time>
      </trkpt>
      <trkpt lat="47.27658" lon="-2.29061">
        <ele>14</ele>
        <time>2022-09-04T09:49:10.000Z</time>
      </trkpt>
      <trkpt lat="47.27655" lon="-2.29067">
        <ele>14</ele>
        <time>2022-09-04T09:49:11.000Z</time>
      </trkpt>
      <trkpt lat="47.27633" lon="-2.2911">
        <ele>14</ele>
        <time>2022-09-04T09:49:17.000Z</time>
      </trkpt>
      <trkpt lat="47.2761" lon="-2.2915">
        <ele>14</ele>
        <time>2022-09-04T09:49:23.000Z</time>
      </trkpt>
      <trkpt lat="47.27602" lon="-2.2916">
        <ele>14</ele>
        <time>2022-09-04T09:49:25.000Z</time>
      </trkpt>
      <trkpt lat="47.27582" lon="-2.29181">
        <ele>14</ele>
        <time>2022-09-04T09:49:29.000Z</time>
      </trkpt>
      <trkpt lat="47.27573" lon="-2.29193">
        <ele>14</ele>
        <time>2022-09-04T09:49:31.000Z</time>
      </trkpt>
      <trkpt lat="47.27561" lon="-2.29212">
        <ele>14</ele>
        <time>2022-09-04T09:49:34.000Z</time>
      </trkpt>
      <trkpt lat="47.27553" lon="-2.29223">
        <ele>14</ele>
        <time>2022-09-04T09:49:36.000Z</time>
      </trkpt>
      <trkpt lat="47.27539" lon="-2.2924">
        <ele>14</ele>
        <time>2022-09-04T09:49:39.000Z</time>
      </trkpt>
      <trkpt lat="47.27511" lon="-2.29272">
        <ele>14</ele>
        <time>2022-09-04T09:49:45.000Z</time>
      </trkpt>
      <trkpt lat="47.27489" lon="-2.29297">
        <ele>14</ele>
        <time>2022-09-04T09:49:51.000Z</time>
      </trkpt>
      <trkpt lat="47.27474" lon="-2.29306">
        <ele>14</ele>
        <time>2022-09-04T09:49:55.000Z</time>
      </trkpt>
      <trkpt lat="47.27464" lon="-2.29309">
        <ele>14</ele>
        <time>2022-09-04T09:49:57.000Z</time>
      </trkpt>
      <trkpt lat="47.27447" lon="-2.29325">
        <ele>14</ele>
        <time>2022-09-04T09:50:01.000Z</time>
      </trkpt>
      <trkpt lat="47.27443" lon="-2.2933">
        <ele>14</ele>
        <time>2022-09-04T09:50:02.000Z</time>
      </trkpt>
      <trkpt lat="47.27426" lon="-2.29347">
        <ele>14</ele>
        <time>2022-09-04T09:50:06.000Z</time>
      </trkpt>
      <trkpt lat="47.27396" lon="-2.29378">
        <ele>14</ele>
        <time>2022-09-04T09:50:13.000Z</time>
      </trkpt>
      <trkpt lat="47.27367" lon="-2.29411">
        <ele>14.39999961853</ele>
        <time>2022-09-04T09:50:20.000Z</time>
      </trkpt>
      <trkpt lat="47.27363" lon="-2.29416">
        <ele>14.800000190735</ele>
        <time>2022-09-04T09:50:21.000Z</time>
      </trkpt>
      <trkpt lat="47.2736" lon="-2.29421">
        <ele>15.39999961853</ele>
        <time>2022-09-04T09:50:22.000Z</time>
      </trkpt>
      <trkpt lat="47.27357" lon="-2.29426">
        <ele>15.800000190735</ele>
        <time>2022-09-04T09:50:23.000Z</time>
      </trkpt>
      <trkpt lat="47.27353" lon="-2.29431">
        <ele>16.200000762939</ele>
        <time>2022-09-04T09:50:24.000Z</time>
      </trkpt>
      <trkpt lat="47.27346" lon="-2.29439">
        <ele>16.200000762939</ele>
        <time>2022-09-04T09:50:26.000Z</time>
      </trkpt>
      <trkpt lat="47.27337" lon="-2.29447">
        <ele>16.200000762939</ele>
        <time>2022-09-04T09:50:28.000Z</time>
      </trkpt>
      <trkpt lat="47.27324" lon="-2.29459">
        <ele>16.200000762939</ele>
        <time>2022-09-04T09:50:31.000Z</time>
      </trkpt>
      <trkpt lat="47.27297" lon="-2.29485">
        <ele>16.200000762939</ele>
        <time>2022-09-04T09:50:37.000Z</time>
      </trkpt>
      <trkpt lat="47.27277" lon="-2.29508">
        <ele>16.200000762939</ele>
        <time>2022-09-04T09:50:42.000Z</time>
      </trkpt>
      <trkpt lat="47.27273" lon="-2.29512">
        <ele>16.200000762939</ele>
        <time>2022-09-04T09:50:43.000Z</time>
      </trkpt>
      <trkpt lat="47.27267" lon="-2.2952">
        <ele>16.200000762939</ele>
        <time>2022-09-04T09:50:45.000Z</time>
      </trkpt>
      <trkpt lat="47.27258" lon="-2.2953">
        <ele>16.200000762939</ele>
        <time>2022-09-04T09:50:48.000Z</time>
      </trkpt>
      <trkpt lat="47.27251" lon="-2.2954">
        <ele>16.200000762939</ele>
        <time>2022-09-04T09:50:51.000Z</time>
      </trkpt>
      <trkpt lat="47.2725" lon="-2.29547">
        <ele>16.200000762939</ele>
        <time>2022-09-04T09:50:53.000Z</time>
      </trkpt>
      <trkpt lat="47.27252" lon="-2.29568">
        <ele>16.200000762939</ele>
        <time>2022-09-04T09:50:57.000Z</time>
      </trkpt>
      <trkpt lat="47.27257" lon="-2.29597">
        <ele>16.200000762939</ele>
        <time>2022-09-04T09:51:02.000Z</time>
      </trkpt>
      <trkpt lat="47.27258" lon="-2.29604">
        <ele>16.200000762939</ele>
        <time>2022-09-04T09:51:03.000Z</time>
      </trkpt>
      <trkpt lat="47.27263" lon="-2.29627">
        <ele>16.200000762939</ele>
        <time>2022-09-04T09:51:08.000Z</time>
      </trkpt>
      <trkpt lat="47.27265" lon="-2.29635">
        <ele>16.60000038147</ele>
        <time>2022-09-04T09:51:11.000Z</time>
      </trkpt>
      <trkpt lat="47.27266" lon="-2.29637">
        <ele>17</ele>
        <time>2022-09-04T09:51:12.000Z</time>
      </trkpt>
      <trkpt lat="47.27266" lon="-2.29638">
        <ele>17.799999237061</ele>
        <time>2022-09-04T09:51:13.000Z</time>
      </trkpt>
      <trkpt lat="47.27266" lon="-2.29639">
        <ele>18.200000762939</ele>
        <time>2022-09-04T09:51:14.000Z</time>
      </trkpt>
      <trkpt lat="47.27266" lon="-2.29644">
        <ele>18.200000762939</ele>
        <time>2022-09-04T09:51:21.000Z</time>
      </trkpt>
      <trkpt lat="47.27267" lon="-2.29654">
        <ele>18.200000762939</ele>
        <time>2022-09-04T09:51:24.000Z</time>
      </trkpt>
      <trkpt lat="47.27269" lon="-2.29671">
        <ele>18.200000762939</ele>
        <time>2022-09-04T09:51:27.000Z</time>
      </trkpt>
      <trkpt lat="47.2727" lon="-2.29678">
        <ele>18.200000762939</ele>
        <time>2022-09-04T09:51:28.000Z</time>
      </trkpt>
      <trkpt lat="47.27272" lon="-2.29685">
        <ele>18.200000762939</ele>
        <time>2022-09-04T09:51:29.000Z</time>
      </trkpt>
      <trkpt lat="47.27282" lon="-2.29722">
        <ele>18.200000762939</ele>
        <time>2022-09-04T09:51:34.000Z</time>
      </trkpt>
      <trkpt lat="47.27292" lon="-2.29761">
        <ele>18.200000762939</ele>
        <time>2022-09-04T09:51:39.000Z</time>
      </trkpt>
      <trkpt lat="47.27294" lon="-2.29769">
        <ele>18.200000762939</ele>
        <time>2022-09-04T09:51:40.000Z</time>
      </trkpt>
      <trkpt lat="47.27299" lon="-2.29784">
        <ele>18.200000762939</ele>
        <time>2022-09-04T09:51:42.000Z</time>
      </trkpt>
      <trkpt lat="47.2731" lon="-2.29805">
        <ele>18.200000762939</ele>
        <time>2022-09-04T09:51:45.000Z</time>
      </trkpt>
      <trkpt lat="47.27314" lon="-2.29811">
        <ele>18.200000762939</ele>
        <time>2022-09-04T09:51:46.000Z</time>
      </trkpt>
      <trkpt lat="47.2733" lon="-2.29838">
        <ele>18.200000762939</ele>
        <time>2022-09-04T09:51:50.000Z</time>
      </trkpt>
      <trkpt lat="47.27337" lon="-2.29853">
        <ele>18.200000762939</ele>
        <time>2022-09-04T09:51:52.000Z</time>
      </trkpt>
      <trkpt lat="47.27348" lon="-2.29875">
        <ele>18.200000762939</ele>
        <time>2022-09-04T09:51:55.000Z</time>
      </trkpt>
      <trkpt lat="47.27369" lon="-2.29922">
        <ele>18.200000762939</ele>
        <time>2022-09-04T09:52:01.000Z</time>
      </trkpt>
      <trkpt lat="47.27372" lon="-2.29931">
        <ele>18.200000762939</ele>
        <time>2022-09-04T09:52:02.000Z</time>
      </trkpt>
      <trkpt lat="47.27383" lon="-2.29954">
        <ele>18.200000762939</ele>
        <time>2022-09-04T09:52:05.000Z</time>
      </trkpt>
      <trkpt lat="47.27386" lon="-2.29961">
        <ele>18.200000762939</ele>
        <time>2022-09-04T09:52:06.000Z</time>
      </trkpt>
      <trkpt lat="47.27411" lon="-2.30022">
        <ele>18.200000762939</ele>
        <time>2022-09-04T09:52:13.000Z</time>
      </trkpt>
      <trkpt lat="47.27427" lon="-2.30064">
        <ele>17.799999237061</ele>
        <time>2022-09-04T09:52:18.000Z</time>
      </trkpt>
      <trkpt lat="47.2743" lon="-2.30073">
        <ele>17.39999961853</ele>
        <time>2022-09-04T09:52:19.000Z</time>
      </trkpt>
      <trkpt lat="47.27432" lon="-2.30082">
        <ele>17</ele>
        <time>2022-09-04T09:52:20.000Z</time>
      </trkpt>
      <trkpt lat="47.27434" lon="-2.30091">
        <ele>16.60000038147</ele>
        <time>2022-09-04T09:52:21.000Z</time>
      </trkpt>
      <trkpt lat="47.27437" lon="-2.301">
        <ele>16.200000762939</ele>
        <time>2022-09-04T09:52:22.000Z</time>
      </trkpt>
      <trkpt lat="47.27442" lon="-2.30118">
        <ele>16.200000762939</ele>
        <time>2022-09-04T09:52:24.000Z</time>
      </trkpt>
      <trkpt lat="47.27444" lon="-2.30127">
        <ele>16.200000762939</ele>
        <time>2022-09-04T09:52:25.000Z</time>
      </trkpt>
      <trkpt lat="47.27456" lon="-2.30181">
        <ele>15.60000038147</ele>
        <time>2022-09-04T09:52:31.000Z</time>
      </trkpt>
      <trkpt lat="47.27458" lon="-2.3019">
        <ele>15.199999809265</ele>
        <time>2022-09-04T09:52:32.000Z</time>
      </trkpt>
      <trkpt lat="47.27459" lon="-2.30196">
        <ele>14.800000190735</ele>
        <time>2022-09-04T09:52:33.000Z</time>
      </trkpt>
      <trkpt lat="47.27458" lon="-2.30202">
        <ele>14.199999809265</ele>
        <time>2022-09-04T09:52:34.000Z</time>
      </trkpt>
      <trkpt lat="47.27455" lon="-2.30206">
        <ele>13.800000190735</ele>
        <time>2022-09-04T09:52:35.000Z</time>
      </trkpt>
      <trkpt lat="47.27447" lon="-2.30211">
        <ele>13.800000190735</ele>
        <time>2022-09-04T09:52:37.000Z</time>
      </trkpt>
      <trkpt lat="47.27438" lon="-2.30218">
        <ele>13.800000190735</ele>
        <time>2022-09-04T09:52:39.000Z</time>
      </trkpt>
      <trkpt lat="47.27421" lon="-2.30227">
        <ele>13.800000190735</ele>
        <time>2022-09-04T09:52:42.000Z</time>
      </trkpt>
      <trkpt lat="47.27388" lon="-2.30245">
        <ele>13.800000190735</ele>
        <time>2022-09-04T09:52:48.000Z</time>
      </trkpt>
      <trkpt lat="47.27382" lon="-2.30247">
        <ele>13.800000190735</ele>
        <time>2022-09-04T09:52:49.000Z</time>
      </trkpt>
      <trkpt lat="47.27359" lon="-2.30253">
        <ele>13.800000190735</ele>
        <time>2022-09-04T09:52:53.000Z</time>
      </trkpt>
      <trkpt lat="47.27346" lon="-2.30253">
        <ele>13.800000190735</ele>
        <time>2022-09-04T09:52:55.000Z</time>
      </trkpt>
      <trkpt lat="47.27328" lon="-2.30256">
        <ele>13.800000190735</ele>
        <time>2022-09-04T09:52:58.000Z</time>
      </trkpt>
      <trkpt lat="47.27317" lon="-2.30258">
        <ele>13.800000190735</ele>
        <time>2022-09-04T09:53:00.000Z</time>
      </trkpt>
      <trkpt lat="47.27298" lon="-2.30259">
        <ele>13.800000190735</ele>
        <time>2022-09-04T09:53:03.000Z</time>
      </trkpt>
      <trkpt lat="47.27285" lon="-2.30258">
        <ele>13.800000190735</ele>
        <time>2022-09-04T09:53:05.000Z</time>
      </trkpt>
      <trkpt lat="47.27271" lon="-2.3026">
        <ele>13.39999961853</ele>
        <time>2022-09-04T09:53:07.000Z</time>
      </trkpt>
      <trkpt lat="47.27265" lon="-2.30262">
        <ele>13</ele>
        <time>2022-09-04T09:53:08.000Z</time>
      </trkpt>
      <trkpt lat="47.27258" lon="-2.30265">
        <ele>12.60000038147</ele>
        <time>2022-09-04T09:53:09.000Z</time>
      </trkpt>
      <trkpt lat="47.27252" lon="-2.30266">
        <ele>12.199999809265</ele>
        <time>2022-09-04T09:53:10.000Z</time>
      </trkpt>
      <trkpt lat="47.27247" lon="-2.30265">
        <ele>11.800000190735</ele>
        <time>2022-09-04T09:53:11.000Z</time>
      </trkpt>
      <trkpt lat="47.27242" lon="-2.30265">
        <ele>11.800000190735</ele>
        <time>2022-09-04T09:53:12.000Z</time>
      </trkpt>
      <trkpt lat="47.27238" lon="-2.30262">
        <ele>11.800000190735</ele>
        <time>2022-09-04T09:53:13.000Z</time>
      </trkpt>
      <trkpt lat="47.2723" lon="-2.30258">
        <ele>11.800000190735</ele>
        <time>2022-09-04T09:53:15.000Z</time>
      </trkpt>
      <trkpt lat="47.27219" lon="-2.30257">
        <ele>11.800000190735</ele>
        <time>2022-09-04T09:53:18.000Z</time>
      </trkpt>
      <trkpt lat="47.27214" lon="-2.30255">
        <ele>11.800000190735</ele>
        <time>2022-09-04T09:53:19.000Z</time>
      </trkpt>
      <trkpt lat="47.2721" lon="-2.30256">
        <ele>11.800000190735</ele>
        <time>2022-09-04T09:53:20.000Z</time>
      </trkpt>
      <trkpt lat="47.272" lon="-2.30259">
        <ele>11.800000190735</ele>
        <time>2022-09-04T09:53:22.000Z</time>
      </trkpt>
      <trkpt lat="47.27184" lon="-2.30262">
        <ele>11.800000190735</ele>
        <time>2022-09-04T09:53:26.000Z</time>
      </trkpt>
      <trkpt lat="47.2718" lon="-2.30258">
        <ele>11.800000190735</ele>
        <time>2022-09-04T09:53:27.000Z</time>
      </trkpt>
      <trkpt lat="47.27166" lon="-2.30244">
        <ele>11.800000190735</ele>
        <time>2022-09-04T09:53:31.000Z</time>
      </trkpt>
      <trkpt lat="47.27161" lon="-2.30243">
        <ele>11.800000190735</ele>
        <time>2022-09-04T09:53:32.000Z</time>
      </trkpt>
      <trkpt lat="47.2715" lon="-2.30246">
        <ele>11.800000190735</ele>
        <time>2022-09-04T09:53:34.000Z</time>
      </trkpt>
      <trkpt lat="47.27141" lon="-2.30248">
        <ele>11.800000190735</ele>
        <time>2022-09-04T09:53:36.000Z</time>
      </trkpt>
      <trkpt lat="47.27129" lon="-2.30252">
        <ele>11.800000190735</ele>
        <time>2022-09-04T09:53:39.000Z</time>
      </trkpt>
      <trkpt lat="47.27124" lon="-2.30254">
        <ele>11.800000190735</ele>
        <time>2022-09-04T09:53:40.000Z</time>
      </trkpt>
      <trkpt lat="47.27111" lon="-2.30258">
        <ele>11.800000190735</ele>
        <time>2022-09-04T09:53:43.000Z</time>
      </trkpt>
      <trkpt lat="47.27106" lon="-2.30259">
        <ele>11.800000190735</ele>
        <time>2022-09-04T09:53:44.000Z</time>
      </trkpt>
      <trkpt lat="47.27102" lon="-2.30261">
        <ele>11.800000190735</ele>
        <time>2022-09-04T09:53:45.000Z</time>
      </trkpt>
      <trkpt lat="47.27092" lon="-2.30271">
        <ele>11.800000190735</ele>
        <time>2022-09-04T09:53:48.000Z</time>
      </trkpt>
      <trkpt lat="47.27077" lon="-2.3029">
        <ele>12.199999809265</ele>
        <time>2022-09-04T09:53:53.000Z</time>
      </trkpt>
      <trkpt lat="47.27076" lon="-2.30295">
        <ele>12.60000038147</ele>
        <time>2022-09-04T09:53:54.000Z</time>
      </trkpt>
      <trkpt lat="47.27074" lon="-2.30301">
        <ele>13</ele>
        <time>2022-09-04T09:53:55.000Z</time>
      </trkpt>
      <trkpt lat="47.27072" lon="-2.30307">
        <ele>13.60000038147</ele>
        <time>2022-09-04T09:53:56.000Z</time>
      </trkpt>
      <trkpt lat="47.27071" lon="-2.30314">
        <ele>14</ele>
        <time>2022-09-04T09:53:57.000Z</time>
      </trkpt>
      <trkpt lat="47.27067" lon="-2.30328">
        <ele>14</ele>
        <time>2022-09-04T09:53:59.000Z</time>
      </trkpt>
      <trkpt lat="47.27057" lon="-2.30374">
        <ele>14</ele>
        <time>2022-09-04T09:54:05.000Z</time>
      </trkpt>
      <trkpt lat="47.27051" lon="-2.30419">
        <ele>14</ele>
        <time>2022-09-04T09:54:10.000Z</time>
      </trkpt>
      <trkpt lat="47.27048" lon="-2.30436">
        <ele>14</ele>
        <time>2022-09-04T09:54:12.000Z</time>
      </trkpt>
      <trkpt lat="47.27044" lon="-2.3046">
        <ele>14</ele>
        <time>2022-09-04T09:54:15.000Z</time>
      </trkpt>
      <trkpt lat="47.27031" lon="-2.30506">
        <ele>14</ele>
        <time>2022-09-04T09:54:21.000Z</time>
      </trkpt>
      <trkpt lat="47.27027" lon="-2.30522">
        <ele>14</ele>
        <time>2022-09-04T09:54:23.000Z</time>
      </trkpt>
      <trkpt lat="47.2702" lon="-2.30552">
        <ele>14</ele>
        <time>2022-09-04T09:54:27.000Z</time>
      </trkpt>
      <trkpt lat="47.27003" lon="-2.30601">
        <ele>14</ele>
        <time>2022-09-04T09:54:34.000Z</time>
      </trkpt>
      <trkpt lat="47.26983" lon="-2.30615">
        <ele>14</ele>
        <time>2022-09-04T09:54:38.000Z</time>
      </trkpt>
      <trkpt lat="47.26963" lon="-2.30623">
        <ele>14</ele>
        <time>2022-09-04T09:54:42.000Z</time>
      </trkpt>
      <trkpt lat="47.26958" lon="-2.30625">
        <ele>14</ele>
        <time>2022-09-04T09:54:43.000Z</time>
      </trkpt>
      <trkpt lat="47.26924" lon="-2.30633">
        <ele>14</ele>
        <time>2022-09-04T09:54:50.000Z</time>
      </trkpt>
      <trkpt lat="47.2692" lon="-2.30635">
        <ele>14.39999961853</ele>
        <time>2022-09-04T09:54:51.000Z</time>
      </trkpt>
      <trkpt lat="47.26917" lon="-2.30638">
        <ele>14.800000190735</ele>
        <time>2022-09-04T09:54:52.000Z</time>
      </trkpt>
      <trkpt lat="47.26913" lon="-2.30642">
        <ele>15.199999809265</ele>
        <time>2022-09-04T09:54:53.000Z</time>
      </trkpt>
      <trkpt lat="47.2691" lon="-2.30647">
        <ele>15.60000038147</ele>
        <time>2022-09-04T09:54:54.000Z</time>
      </trkpt>
      <trkpt lat="47.26907" lon="-2.3065">
        <ele>16</ele>
        <time>2022-09-04T09:54:55.000Z</time>
      </trkpt>
      <trkpt lat="47.26903" lon="-2.30655">
        <ele>16</ele>
        <time>2022-09-04T09:54:56.000Z</time>
      </trkpt>
      <trkpt lat="47.26879" lon="-2.30683">
        <ele>16</ele>
        <time>2022-09-04T09:55:02.000Z</time>
      </trkpt>
      <trkpt lat="47.26872" lon="-2.30695">
        <ele>16</ele>
        <time>2022-09-04T09:55:04.000Z</time>
      </trkpt>
      <trkpt lat="47.26858" lon="-2.3072">
        <ele>16</ele>
        <time>2022-09-04T09:55:08.000Z</time>
      </trkpt>
      <trkpt lat="47.26838" lon="-2.3077">
        <ele>16</ele>
        <time>2022-09-04T09:55:15.000Z</time>
      </trkpt>
      <trkpt lat="47.26828" lon="-2.3079">
        <ele>16</ele>
        <time>2022-09-04T09:55:18.000Z</time>
      </trkpt>
      <trkpt lat="47.26818" lon="-2.30798">
        <ele>16</ele>
        <time>2022-09-04T09:55:20.000Z</time>
      </trkpt>
      <trkpt lat="47.26804" lon="-2.3081">
        <ele>16</ele>
        <time>2022-09-04T09:55:23.000Z</time>
      </trkpt>
      <trkpt lat="47.26795" lon="-2.3082">
        <ele>16</ele>
        <time>2022-09-04T09:55:25.000Z</time>
      </trkpt>
      <trkpt lat="47.26764" lon="-2.30852">
        <ele>16</ele>
        <time>2022-09-04T09:55:32.000Z</time>
      </trkpt>
      <trkpt lat="47.26742" lon="-2.30872">
        <ele>16</ele>
        <time>2022-09-04T09:55:37.000Z</time>
      </trkpt>
      <trkpt lat="47.26736" lon="-2.30871">
        <ele>16</ele>
        <time>2022-09-04T09:55:38.000Z</time>
      </trkpt>
      <trkpt lat="47.26723" lon="-2.30855">
        <ele>16</ele>
        <time>2022-09-04T09:55:41.000Z</time>
      </trkpt>
      <trkpt lat="47.26716" lon="-2.30842">
        <ele>16</ele>
        <time>2022-09-04T09:55:43.000Z</time>
      </trkpt>
      <trkpt lat="47.26707" lon="-2.30822">
        <ele>16</ele>
        <time>2022-09-04T09:55:46.000Z</time>
      </trkpt>
      <trkpt lat="47.26691" lon="-2.30781">
        <ele>16</ele>
        <time>2022-09-04T09:55:51.000Z</time>
      </trkpt>
      <trkpt lat="47.26685" lon="-2.30766">
        <ele>16</ele>
        <time>2022-09-04T09:55:53.000Z</time>
      </trkpt>
      <trkpt lat="47.26678" lon="-2.30748">
        <ele>16</ele>
        <time>2022-09-04T09:55:55.000Z</time>
      </trkpt>
      <trkpt lat="47.26674" lon="-2.30739">
        <ele>15.60000038147</ele>
        <time>2022-09-04T09:55:56.000Z</time>
      </trkpt>
      <trkpt lat="47.2667" lon="-2.30731">
        <ele>15.199999809265</ele>
        <time>2022-09-04T09:55:57.000Z</time>
      </trkpt>
      <trkpt lat="47.26667" lon="-2.30721">
        <ele>14.800000190735</ele>
        <time>2022-09-04T09:55:58.000Z</time>
      </trkpt>
      <trkpt lat="47.26664" lon="-2.30712">
        <ele>14.199999809265</ele>
        <time>2022-09-04T09:55:59.000Z</time>
      </trkpt>
      <trkpt lat="47.26661" lon="-2.30705">
        <ele>13.800000190735</ele>
        <time>2022-09-04T09:56:00.000Z</time>
      </trkpt>
      <trkpt lat="47.26655" lon="-2.30694">
        <ele>13.800000190735</ele>
        <time>2022-09-04T09:56:02.000Z</time>
      </trkpt>
      <trkpt lat="47.26651" lon="-2.30693">
        <ele>13.800000190735</ele>
        <time>2022-09-04T09:56:03.000Z</time>
      </trkpt>
      <trkpt lat="47.26647" lon="-2.30702">
        <ele>13.800000190735</ele>
        <time>2022-09-04T09:56:05.000Z</time>
      </trkpt>
      <trkpt lat="47.26644" lon="-2.30713">
        <ele>13.800000190735</ele>
        <time>2022-09-04T09:56:07.000Z</time>
      </trkpt>
      <trkpt lat="47.26642" lon="-2.30718">
        <ele>13.39999961853</ele>
        <time>2022-09-04T09:56:08.000Z</time>
      </trkpt>
      <trkpt lat="47.26639" lon="-2.30723">
        <ele>13</ele>
        <time>2022-09-04T09:56:09.000Z</time>
      </trkpt>
      <trkpt lat="47.26635" lon="-2.30727">
        <ele>12.60000038147</ele>
        <time>2022-09-04T09:56:10.000Z</time>
      </trkpt>
      <trkpt lat="47.2663" lon="-2.30731">
        <ele>11.800000190735</ele>
        <time>2022-09-04T09:56:11.000Z</time>
      </trkpt>
      <trkpt lat="47.26624" lon="-2.30738">
        <ele>11.800000190735</ele>
        <time>2022-09-04T09:56:13.000Z</time>
      </trkpt>
      <trkpt lat="47.26619" lon="-2.30751">
        <ele>11.800000190735</ele>
        <time>2022-09-04T09:56:16.000Z</time>
      </trkpt>
      <trkpt lat="47.26619" lon="-2.30755">
        <ele>11.800000190735</ele>
        <time>2022-09-04T09:56:17.000Z</time>
      </trkpt>
      <trkpt lat="47.26616" lon="-2.30762">
        <ele>11.800000190735</ele>
        <time>2022-09-04T09:56:19.000Z</time>
      </trkpt>
      <trkpt lat="47.26613" lon="-2.30764">
        <ele>11.800000190735</ele>
        <time>2022-09-04T09:56:20.000Z</time>
      </trkpt>
      <trkpt lat="47.2661" lon="-2.3077">
        <ele>11.39999961853</ele>
        <time>2022-09-04T09:56:21.000Z</time>
      </trkpt>
      <trkpt lat="47.26607" lon="-2.30775">
        <ele>11</ele>
        <time>2022-09-04T09:56:22.000Z</time>
      </trkpt>
      <trkpt lat="47.26603" lon="-2.30779">
        <ele>10.60000038147</ele>
        <time>2022-09-04T09:56:23.000Z</time>
      </trkpt>
      <trkpt lat="47.266" lon="-2.30783">
        <ele>10.199999809265</ele>
        <time>2022-09-04T09:56:24.000Z</time>
      </trkpt>
      <trkpt lat="47.26596" lon="-2.30789">
        <ele>9.8000001907349</ele>
        <time>2022-09-04T09:56:25.000Z</time>
      </trkpt>
      <trkpt lat="47.26588" lon="-2.30799">
        <ele>9.8000001907349</ele>
        <time>2022-09-04T09:56:27.000Z</time>
      </trkpt>
      <trkpt lat="47.26582" lon="-2.30809">
        <ele>9.8000001907349</ele>
        <time>2022-09-04T09:56:29.000Z</time>
      </trkpt>
      <trkpt lat="47.26575" lon="-2.30821">
        <ele>9.3999996185303</ele>
        <time>2022-09-04T09:56:31.000Z</time>
      </trkpt>
      <trkpt lat="47.26572" lon="-2.30826">
        <ele>8.8000001907349</ele>
        <time>2022-09-04T09:56:32.000Z</time>
      </trkpt>
      <trkpt lat="47.26569" lon="-2.3083">
        <ele>8.3999996185303</ele>
        <time>2022-09-04T09:56:33.000Z</time>
      </trkpt>
      <trkpt lat="47.26565" lon="-2.30832">
        <ele>8</ele>
        <time>2022-09-04T09:56:34.000Z</time>
      </trkpt>
      <trkpt lat="47.26561" lon="-2.30833">
        <ele>7.5999999046326</ele>
        <time>2022-09-04T09:56:35.000Z</time>
      </trkpt>
      <trkpt lat="47.2655" lon="-2.30845">
        <ele>7.5999999046326</ele>
        <time>2022-09-04T09:56:38.000Z</time>
      </trkpt>
      <trkpt lat="47.26547" lon="-2.30849">
        <ele>7.5999999046326</ele>
        <time>2022-09-04T09:56:39.000Z</time>
      </trkpt>
      <trkpt lat="47.26536" lon="-2.30864">
        <ele>7.5999999046326</ele>
        <time>2022-09-04T09:56:42.000Z</time>
      </trkpt>
      <trkpt lat="47.26533" lon="-2.3087">
        <ele>7.1999998092651</ele>
        <time>2022-09-04T09:56:43.000Z</time>
      </trkpt>
      <trkpt lat="47.26529" lon="-2.30875">
        <ele>6.8000001907349</ele>
        <time>2022-09-04T09:56:44.000Z</time>
      </trkpt>
      <trkpt lat="47.26527" lon="-2.30883">
        <ele>6.4000000953674</ele>
        <time>2022-09-04T09:56:45.000Z</time>
      </trkpt>
      <trkpt lat="47.26524" lon="-2.30889">
        <ele>6</ele>
        <time>2022-09-04T09:56:46.000Z</time>
      </trkpt>
      <trkpt lat="47.26523" lon="-2.30892">
        <ele>5.5999999046326</ele>
        <time>2022-09-04T09:56:47.000Z</time>
      </trkpt>
      <trkpt lat="47.26519" lon="-2.30887">
        <ele>5.5999999046326</ele>
        <time>2022-09-04T09:56:48.000Z</time>
      </trkpt>
      <trkpt lat="47.26507" lon="-2.30868">
        <ele>5.5999999046326</ele>
        <time>2022-09-04T09:56:53.000Z</time>
      </trkpt>
      <trkpt lat="47.26502" lon="-2.30861">
        <ele>6</ele>
        <time>2022-09-04T09:56:55.000Z</time>
      </trkpt>
      <trkpt lat="47.265" lon="-2.30858">
        <ele>6.4000000953674</ele>
        <time>2022-09-04T09:56:56.000Z</time>
      </trkpt>
      <trkpt lat="47.26499" lon="-2.30855">
        <ele>6.8000001907349</ele>
        <time>2022-09-04T09:56:57.000Z</time>
      </trkpt>
      <trkpt lat="47.26496" lon="-2.30852">
        <ele>7.1999998092651</ele>
        <time>2022-09-04T09:56:58.000Z</time>
      </trkpt>
      <trkpt lat="47.26494" lon="-2.30849">
        <ele>7.5999999046326</ele>
        <time>2022-09-04T09:56:59.000Z</time>
      </trkpt>
      <trkpt lat="47.26482" lon="-2.30833">
        <ele>8.1999998092651</ele>
        <time>2022-09-04T09:57:03.000Z</time>
      </trkpt>
      <trkpt lat="47.2648" lon="-2.30828">
        <ele>8.6000003814697</ele>
        <time>2022-09-04T09:57:04.000Z</time>
      </trkpt>
      <trkpt lat="47.26479" lon="-2.30824">
        <ele>9</ele>
        <time>2022-09-04T09:57:05.000Z</time>
      </trkpt>
      <trkpt lat="47.26477" lon="-2.3082">
        <ele>9.3999996185303</ele>
        <time>2022-09-04T09:57:06.000Z</time>
      </trkpt>
      <trkpt lat="47.26474" lon="-2.30816">
        <ele>9.8000001907349</ele>
        <time>2022-09-04T09:57:07.000Z</time>
      </trkpt>
      <trkpt lat="47.26463" lon="-2.30802">
        <ele>9.8000001907349</ele>
        <time>2022-09-04T09:57:10.000Z</time>
      </trkpt>
      <trkpt lat="47.26449" lon="-2.3077">
        <ele>10.199999809265</ele>
        <time>2022-09-04T09:57:16.000Z</time>
      </trkpt>
      <trkpt lat="47.26446" lon="-2.30765">
        <ele>10.60000038147</ele>
        <time>2022-09-04T09:57:17.000Z</time>
      </trkpt>
      <trkpt lat="47.26444" lon="-2.3076">
        <ele>11.199999809265</ele>
        <time>2022-09-04T09:57:18.000Z</time>
      </trkpt>
      <trkpt lat="47.26442" lon="-2.30754">
        <ele>11.60000038147</ele>
        <time>2022-09-04T09:57:19.000Z</time>
      </trkpt>
      <trkpt lat="47.2644" lon="-2.30749">
        <ele>12</ele>
        <time>2022-09-04T09:57:20.000Z</time>
      </trkpt>
      <trkpt lat="47.26434" lon="-2.30734">
        <ele>12</ele>
        <time>2022-09-04T09:57:23.000Z</time>
      </trkpt>
      <trkpt lat="47.26429" lon="-2.30724">
        <ele>12</ele>
        <time>2022-09-04T09:57:25.000Z</time>
      </trkpt>
      <trkpt lat="47.26423" lon="-2.30709">
        <ele>12</ele>
        <time>2022-09-04T09:57:28.000Z</time>
      </trkpt>
      <trkpt lat="47.26422" lon="-2.30704">
        <ele>12</ele>
        <time>2022-09-04T09:57:29.000Z</time>
      </trkpt>
      <trkpt lat="47.26413" lon="-2.30693">
        <ele>12</ele>
        <time>2022-09-04T09:57:32.000Z</time>
      </trkpt>
      <trkpt lat="47.26409" lon="-2.30691">
        <ele>12</ele>
        <time>2022-09-04T09:57:33.000Z</time>
      </trkpt>
      <trkpt lat="47.26391" lon="-2.30676">
        <ele>12</ele>
        <time>2022-09-04T09:57:37.000Z</time>
      </trkpt>
      <trkpt lat="47.26379" lon="-2.30664">
        <ele>12</ele>
        <time>2022-09-04T09:57:40.000Z</time>
      </trkpt>
      <trkpt lat="47.26374" lon="-2.30653">
        <ele>12</ele>
        <time>2022-09-04T09:57:42.000Z</time>
      </trkpt>
      <trkpt lat="47.26369" lon="-2.30643">
        <ele>12</ele>
        <time>2022-09-04T09:57:44.000Z</time>
      </trkpt>
      <trkpt lat="47.26363" lon="-2.30631">
        <ele>12</ele>
        <time>2022-09-04T09:57:47.000Z</time>
      </trkpt>
      <trkpt lat="47.26358" lon="-2.30624">
        <ele>12.39999961853</ele>
        <time>2022-09-04T09:57:49.000Z</time>
      </trkpt>
      <trkpt lat="47.26357" lon="-2.3062">
        <ele>12.800000190735</ele>
        <time>2022-09-04T09:57:50.000Z</time>
      </trkpt>
      <trkpt lat="47.26355" lon="-2.30616">
        <ele>13.60000038147</ele>
        <time>2022-09-04T09:57:51.000Z</time>
      </trkpt>
      <trkpt lat="47.26353" lon="-2.30612">
        <ele>14</ele>
        <time>2022-09-04T09:57:52.000Z</time>
      </trkpt>
      <trkpt lat="47.26345" lon="-2.30596">
        <ele>14</ele>
        <time>2022-09-04T09:57:58.000Z</time>
      </trkpt>
      <trkpt lat="47.26334" lon="-2.30591">
        <ele>14</ele>
        <time>2022-09-04T09:58:03.000Z</time>
      </trkpt>
      <trkpt lat="47.26317" lon="-2.30601">
        <ele>14</ele>
        <time>2022-09-04T09:58:08.000Z</time>
      </trkpt>
      <trkpt lat="47.26298" lon="-2.30608">
        <ele>14</ele>
        <time>2022-09-04T09:58:12.000Z</time>
      </trkpt>
      <trkpt lat="47.26289" lon="-2.30613">
        <ele>14</ele>
        <time>2022-09-04T09:58:14.000Z</time>
      </trkpt>
      <trkpt lat="47.26284" lon="-2.30617">
        <ele>13.199999809265</ele>
        <time>2022-09-04T09:58:15.000Z</time>
      </trkpt>
      <trkpt lat="47.26279" lon="-2.3062">
        <ele>12.800000190735</ele>
        <time>2022-09-04T09:58:16.000Z</time>
      </trkpt>
      <trkpt lat="47.26273" lon="-2.30622">
        <ele>12.39999961853</ele>
        <time>2022-09-04T09:58:17.000Z</time>
      </trkpt>
      <trkpt lat="47.26267" lon="-2.30625">
        <ele>12</ele>
        <time>2022-09-04T09:58:18.000Z</time>
      </trkpt>
      <trkpt lat="47.26255" lon="-2.30632">
        <ele>12</ele>
        <time>2022-09-04T09:58:20.000Z</time>
      </trkpt>
      <trkpt lat="47.26243" lon="-2.30641">
        <ele>11.60000038147</ele>
        <time>2022-09-04T09:58:22.000Z</time>
      </trkpt>
      <trkpt lat="47.26237" lon="-2.30645">
        <ele>11.199999809265</ele>
        <time>2022-09-04T09:58:23.000Z</time>
      </trkpt>
      <trkpt lat="47.26232" lon="-2.30651">
        <ele>10.800000190735</ele>
        <time>2022-09-04T09:58:24.000Z</time>
      </trkpt>
      <trkpt lat="47.26226" lon="-2.30657">
        <ele>10.39999961853</ele>
        <time>2022-09-04T09:58:25.000Z</time>
      </trkpt>
      <trkpt lat="47.2622" lon="-2.30662">
        <ele>10</ele>
        <time>2022-09-04T09:58:26.000Z</time>
      </trkpt>
      <trkpt lat="47.26203" lon="-2.30682">
        <ele>9.6000003814697</ele>
        <time>2022-09-04T09:58:29.000Z</time>
      </trkpt>
      <trkpt lat="47.26198" lon="-2.30689">
        <ele>9</ele>
        <time>2022-09-04T09:58:30.000Z</time>
      </trkpt>
      <trkpt lat="47.26192" lon="-2.30697">
        <ele>8.6000003814697</ele>
        <time>2022-09-04T09:58:31.000Z</time>
      </trkpt>
      <trkpt lat="47.26187" lon="-2.30704">
        <ele>8.1999998092651</ele>
        <time>2022-09-04T09:58:32.000Z</time>
      </trkpt>
      <trkpt lat="47.2618" lon="-2.30713">
        <ele>7.8000001907349</ele>
        <time>2022-09-04T09:58:33.000Z</time>
      </trkpt>
      <trkpt lat="47.26174" lon="-2.30721">
        <ele>7.4000000953674</ele>
        <time>2022-09-04T09:58:34.000Z</time>
      </trkpt>
      <trkpt lat="47.26167" lon="-2.30728">
        <ele>7</ele>
        <time>2022-09-04T09:58:35.000Z</time>
      </trkpt>
      <trkpt lat="47.2616" lon="-2.30736">
        <ele>6.4000000953674</ele>
        <time>2022-09-04T09:58:36.000Z</time>
      </trkpt>
      <trkpt lat="47.26153" lon="-2.30742">
        <ele>6</ele>
        <time>2022-09-04T09:58:37.000Z</time>
      </trkpt>
      <trkpt lat="47.26146" lon="-2.30748">
        <ele>5.4000000953674</ele>
        <time>2022-09-04T09:58:38.000Z</time>
      </trkpt>
      <trkpt lat="47.26138" lon="-2.30754">
        <ele>5</ele>
        <time>2022-09-04T09:58:39.000Z</time>
      </trkpt>
      <trkpt lat="47.26129" lon="-2.30759">
        <ele>4</ele>
        <time>2022-09-04T09:58:40.000Z</time>
      </trkpt>
      <trkpt lat="47.26122" lon="-2.30765">
        <ele>3.4000000953674</ele>
        <time>2022-09-04T09:58:41.000Z</time>
      </trkpt>
      <trkpt lat="47.26113" lon="-2.30772">
        <ele>3</ele>
        <time>2022-09-04T09:58:42.000Z</time>
      </trkpt>
      <trkpt lat="47.26105" lon="-2.30778">
        <ele>2.5999999046326</ele>
        <time>2022-09-04T09:58:43.000Z</time>
      </trkpt>
      <trkpt lat="47.26098" lon="-2.30784">
        <ele>2</ele>
        <time>2022-09-04T09:58:44.000Z</time>
      </trkpt>
      <trkpt lat="47.2609" lon="-2.30789">
        <ele>1.6000000238419</ele>
        <time>2022-09-04T09:58:45.000Z</time>
      </trkpt>
      <trkpt lat="47.26083" lon="-2.30795">
        <ele>1</ele>
        <time>2022-09-04T09:58:46.000Z</time>
      </trkpt>
      <trkpt lat="47.26061" lon="-2.30811">
        <ele>1</ele>
        <time>2022-09-04T09:58:49.000Z</time>
      </trkpt>
      <trkpt lat="47.26019" lon="-2.30852">
        <ele>1</ele>
        <time>2022-09-04T09:58:56.000Z</time>
      </trkpt>
      <trkpt lat="47.26015" lon="-2.3086">
        <ele>1</ele>
        <time>2022-09-04T09:58:57.000Z</time>
      </trkpt>
      <trkpt lat="47.26003" lon="-2.30882">
        <ele>1</ele>
        <time>2022-09-04T09:59:00.000Z</time>
      </trkpt>
      <trkpt lat="47.25977" lon="-2.30934">
        <ele>1</ele>
        <time>2022-09-04T09:59:07.000Z</time>
      </trkpt>
      <trkpt lat="47.2597" lon="-2.30948">
        <ele>1.6000000238419</ele>
        <time>2022-09-04T09:59:09.000Z</time>
      </trkpt>
      <trkpt lat="47.25966" lon="-2.30955">
        <ele>2</ele>
        <time>2022-09-04T09:59:10.000Z</time>
      </trkpt>
      <trkpt lat="47.25962" lon="-2.30962">
        <ele>2.4000000953674</ele>
        <time>2022-09-04T09:59:11.000Z</time>
      </trkpt>
      <trkpt lat="47.25958" lon="-2.30968">
        <ele>2.7999999523163</ele>
        <time>2022-09-04T09:59:12.000Z</time>
      </trkpt>
      <trkpt lat="47.25954" lon="-2.30975">
        <ele>3.2000000476837</ele>
        <time>2022-09-04T09:59:13.000Z</time>
      </trkpt>
      <trkpt lat="47.25926" lon="-2.31005">
        <ele>3.2000000476837</ele>
        <time>2022-09-04T09:59:19.000Z</time>
      </trkpt>
      <trkpt lat="47.25911" lon="-2.31017">
        <ele>3.2000000476837</ele>
        <time>2022-09-04T09:59:22.000Z</time>
      </trkpt>
      <trkpt lat="47.25897" lon="-2.31031">
        <ele>3.2000000476837</ele>
        <time>2022-09-04T09:59:25.000Z</time>
      </trkpt>
      <trkpt lat="47.25857" lon="-2.3107">
        <ele>3.2000000476837</ele>
        <time>2022-09-04T09:59:33.000Z</time>
      </trkpt>
      <trkpt lat="47.25821" lon="-2.31103">
        <ele>3.2000000476837</ele>
        <time>2022-09-04T09:59:40.000Z</time>
      </trkpt>
      <trkpt lat="47.25795" lon="-2.31133">
        <ele>3.2000000476837</ele>
        <time>2022-09-04T09:59:46.000Z</time>
      </trkpt>
      <trkpt lat="47.25793" lon="-2.31141">
        <ele>3.2000000476837</ele>
        <time>2022-09-04T09:59:47.000Z</time>
      </trkpt>
      <trkpt lat="47.25789" lon="-2.31167">
        <ele>2.7999999523163</ele>
        <time>2022-09-04T09:59:50.000Z</time>
      </trkpt>
      <trkpt lat="47.2579" lon="-2.31177">
        <ele>2.4000000953674</ele>
        <time>2022-09-04T09:59:51.000Z</time>
      </trkpt>
      <trkpt lat="47.25792" lon="-2.31186">
        <ele>2</ele>
        <time>2022-09-04T09:59:52.000Z</time>
      </trkpt>
      <trkpt lat="47.25796" lon="-2.31194">
        <ele>1.6000000238419</ele>
        <time>2022-09-04T09:59:53.000Z</time>
      </trkpt>
      <trkpt lat="47.25799" lon="-2.31203">
        <ele>1.2000000476837</ele>
        <time>2022-09-04T09:59:54.000Z</time>
      </trkpt>
      <trkpt lat="47.25807" lon="-2.3123">
        <ele>0.80000001192093</ele>
        <time>2022-09-04T09:59:57.000Z</time>
      </trkpt>
      <trkpt lat="47.2581" lon="-2.3124">
        <ele>0.20000000298023</ele>
        <time>2022-09-04T09:59:58.000Z</time>
      </trkpt>
      <trkpt lat="47.25812" lon="-2.31251">
        <ele>-0.20000000298023</ele>
        <time>2022-09-04T09:59:59.000Z</time>
      </trkpt>
      <trkpt lat="47.25813" lon="-2.31261">
        <ele>-0.60000002384186</ele>
        <time>2022-09-04T10:00:00.000Z</time>
      </trkpt>
      <trkpt lat="47.25814" lon="-2.31272">
        <ele>-1</ele>
        <time>2022-09-04T10:00:01.000Z</time>
      </trkpt>
      <trkpt lat="47.25818" lon="-2.31325">
        <ele>-1.6000000238419</ele>
        <time>2022-09-04T10:00:06.000Z</time>
      </trkpt>
      <trkpt lat="47.25818" lon="-2.31335">
        <ele>-2</ele>
        <time>2022-09-04T10:00:07.000Z</time>
      </trkpt>
      <trkpt lat="47.25817" lon="-2.31345">
        <ele>-2.4000000953674</ele>
        <time>2022-09-04T10:00:08.000Z</time>
      </trkpt>
      <trkpt lat="47.25815" lon="-2.31356">
        <ele>-2.7999999523163</ele>
        <time>2022-09-04T10:00:09.000Z</time>
      </trkpt>
      <trkpt lat="47.25812" lon="-2.31365">
        <ele>-3.2000000476837</ele>
        <time>2022-09-04T10:00:10.000Z</time>
      </trkpt>
      <trkpt lat="47.25804" lon="-2.31383">
        <ele>-3.2000000476837</ele>
        <time>2022-09-04T10:00:12.000Z</time>
      </trkpt>
      <trkpt lat="47.25799" lon="-2.3139">
        <ele>-3.2000000476837</ele>
        <time>2022-09-04T10:00:13.000Z</time>
      </trkpt>
      <trkpt lat="47.25779" lon="-2.31416">
        <ele>-3.2000000476837</ele>
        <time>2022-09-04T10:00:17.000Z</time>
      </trkpt>
      <trkpt lat="47.25746" lon="-2.31459">
        <ele>-3.2000000476837</ele>
        <time>2022-09-04T10:00:24.000Z</time>
      </trkpt>
      <trkpt lat="47.25722" lon="-2.31493">
        <ele>-2.7999999523163</ele>
        <time>2022-09-04T10:00:30.000Z</time>
      </trkpt>
      <trkpt lat="47.25718" lon="-2.31499">
        <ele>-2.4000000953674</ele>
        <time>2022-09-04T10:00:31.000Z</time>
      </trkpt>
      <trkpt lat="47.25715" lon="-2.31504">
        <ele>-2</ele>
        <time>2022-09-04T10:00:32.000Z</time>
      </trkpt>
      <trkpt lat="47.25711" lon="-2.3151">
        <ele>-1.6000000238419</ele>
        <time>2022-09-04T10:00:33.000Z</time>
      </trkpt>
      <trkpt lat="47.25708" lon="-2.31516">
        <ele>-1.2000000476837</ele>
        <time>2022-09-04T10:00:34.000Z</time>
      </trkpt>
      <trkpt lat="47.25699" lon="-2.31535">
        <ele>-1.2000000476837</ele>
        <time>2022-09-04T10:00:37.000Z</time>
      </trkpt>
      <trkpt lat="47.25685" lon="-2.31585">
        <ele>-1.2000000476837</ele>
        <time>2022-09-04T10:00:44.000Z</time>
      </trkpt>
      <trkpt lat="47.25672" lon="-2.31644">
        <ele>-1.2000000476837</ele>
        <time>2022-09-04T10:00:52.000Z</time>
      </trkpt>
      <trkpt lat="47.2567" lon="-2.31661">
        <ele>-1.2000000476837</ele>
        <time>2022-09-04T10:00:54.000Z</time>
      </trkpt>
      <trkpt lat="47.25667" lon="-2.31685">
        <ele>-1.2000000476837</ele>
        <time>2022-09-04T10:00:57.000Z</time>
      </trkpt>
      <trkpt lat="47.25652" lon="-2.31695">
        <ele>-1.2000000476837</ele>
        <time>2022-09-04T10:01:00.000Z</time>
      </trkpt>
      <trkpt lat="47.25637" lon="-2.31715">
        <ele>-1.2000000476837</ele>
        <time>2022-09-04T10:01:04.000Z</time>
      </trkpt>
      <trkpt lat="47.2563" lon="-2.31726">
        <ele>-0.80000001192093</ele>
        <time>2022-09-04T10:01:06.000Z</time>
      </trkpt>
      <trkpt lat="47.25628" lon="-2.31733">
        <ele>-0.20000000298023</ele>
        <time>2022-09-04T10:01:07.000Z</time>
      </trkpt>
      <trkpt lat="47.25627" lon="-2.3174">
        <ele>0.20000000298023</ele>
        <time>2022-09-04T10:01:08.000Z</time>
      </trkpt>
      <trkpt lat="47.25625" lon="-2.31747">
        <ele>1</ele>
        <time>2022-09-04T10:01:09.000Z</time>
      </trkpt>
      <trkpt lat="47.25614" lon="-2.31764">
        <ele>1</ele>
        <time>2022-09-04T10:01:12.000Z</time>
      </trkpt>
      <trkpt lat="47.25598" lon="-2.31767">
        <ele>1</ele>
        <time>2022-09-04T10:01:15.000Z</time>
      </trkpt>
      <trkpt lat="47.25592" lon="-2.31768">
        <ele>1</ele>
        <time>2022-09-04T10:01:16.000Z</time>
      </trkpt>
      <trkpt lat="47.25586" lon="-2.3177">
        <ele>1</ele>
        <time>2022-09-04T10:01:17.000Z</time>
      </trkpt>
      <trkpt lat="47.25572" lon="-2.31779">
        <ele>1</ele>
        <time>2022-09-04T10:01:20.000Z</time>
      </trkpt>
      <trkpt lat="47.25566" lon="-2.31787">
        <ele>1.3999999761581</ele>
        <time>2022-09-04T10:01:22.000Z</time>
      </trkpt>
      <trkpt lat="47.25564" lon="-2.31792">
        <ele>1.7999999523163</ele>
        <time>2022-09-04T10:01:23.000Z</time>
      </trkpt>
      <trkpt lat="47.25562" lon="-2.31798">
        <ele>2.2000000476837</ele>
        <time>2022-09-04T10:01:24.000Z</time>
      </trkpt>
      <trkpt lat="47.25559" lon="-2.31804">
        <ele>2.5999999046326</ele>
        <time>2022-09-04T10:01:25.000Z</time>
      </trkpt>
      <trkpt lat="47.25554" lon="-2.31807">
        <ele>3</ele>
        <time>2022-09-04T10:01:26.000Z</time>
      </trkpt>
      <trkpt lat="47.2555" lon="-2.31809">
        <ele>3</ele>
        <time>2022-09-04T10:01:27.000Z</time>
      </trkpt>
      <trkpt lat="47.25539" lon="-2.31809">
        <ele>3</ele>
        <time>2022-09-04T10:01:29.000Z</time>
      </trkpt>
      <trkpt lat="47.25534" lon="-2.31811">
        <ele>3</ele>
        <time>2022-09-04T10:01:30.000Z</time>
      </trkpt>
      <trkpt lat="47.25529" lon="-2.31813">
        <ele>3</ele>
        <time>2022-09-04T10:01:31.000Z</time>
      </trkpt>
      <trkpt lat="47.25525" lon="-2.31814">
        <ele>3.5999999046326</ele>
        <time>2022-09-04T10:01:32.000Z</time>
      </trkpt>
      <trkpt lat="47.25521" lon="-2.31815">
        <ele>4.4000000953674</ele>
        <time>2022-09-04T10:01:33.000Z</time>
      </trkpt>
      <trkpt lat="47.25517" lon="-2.31816">
        <ele>4.8000001907349</ele>
        <time>2022-09-04T10:01:34.000Z</time>
      </trkpt>
      <trkpt lat="47.25514" lon="-2.31817">
        <ele>5.1999998092651</ele>
        <time>2022-09-04T10:01:35.000Z</time>
      </trkpt>
      <trkpt lat="47.25508" lon="-2.31822">
        <ele>5.1999998092651</ele>
        <time>2022-09-04T10:01:37.000Z</time>
      </trkpt>
      <trkpt lat="47.2551" lon="-2.31829">
        <ele>5.1999998092651</ele>
        <time>2022-09-04T10:01:39.000Z</time>
      </trkpt>
      <trkpt lat="47.25517" lon="-2.31832">
        <ele>5.1999998092651</ele>
        <time>2022-09-04T10:01:42.000Z</time>
      </trkpt>
      <trkpt lat="47.2552" lon="-2.31833">
        <ele>5.1999998092651</ele>
        <time>2022-09-04T10:01:43.000Z</time>
      </trkpt>
      <trkpt lat="47.2552" lon="-2.31834">
        <ele>5.1999998092651</ele>
        <time>2022-09-04T10:01:46.000Z</time>
      </trkpt>
      <trkpt lat="47.25521" lon="-2.31835">
        <ele>5.1999998092651</ele>
        <time>2022-09-04T10:02:52.000Z</time>
      </trkpt>
      <trkpt lat="47.2552" lon="-2.31837">
        <ele>5.1999998092651</ele>
        <time>2022-09-04T10:02:54.000Z</time>
      </trkpt>
      <trkpt lat="47.25517" lon="-2.31835">
        <ele>5.1999998092651</ele>
        <time>2022-09-04T10:02:57.000Z</time>
      </trkpt>
      <trkpt lat="47.25516" lon="-2.31833">
        <ele>5.1999998092651</ele>
        <time>2022-09-04T10:03:14.000Z</time>
      </trkpt>
      <trkpt lat="47.25508" lon="-2.31827">
        <ele>5.1999998092651</ele>
        <time>2022-09-04T10:03:20.000Z</time>
      </trkpt>
      <trkpt lat="47.25498" lon="-2.31827">
        <ele>5.1999998092651</ele>
        <time>2022-09-04T10:03:23.000Z</time>
      </trkpt>
      <trkpt lat="47.25481" lon="-2.31835">
        <ele>5.1999998092651</ele>
        <time>2022-09-04T10:03:28.000Z</time>
      </trkpt>
      <trkpt lat="47.25478" lon="-2.31838">
        <ele>5.1999998092651</ele>
        <time>2022-09-04T10:03:29.000Z</time>
      </trkpt>
      <trkpt lat="47.25468" lon="-2.31851">
        <ele>5.1999998092651</ele>
        <time>2022-09-04T10:03:32.000Z</time>
      </trkpt>
      <trkpt lat="47.25465" lon="-2.31856">
        <ele>5.1999998092651</ele>
        <time>2022-09-04T10:03:33.000Z</time>
      </trkpt>
      <trkpt lat="47.25463" lon="-2.31861">
        <ele>5.1999998092651</ele>
        <time>2022-09-04T10:03:34.000Z</time>
      </trkpt>
      <trkpt lat="47.25458" lon="-2.31879">
        <ele>5.1999998092651</ele>
        <time>2022-09-04T10:03:37.000Z</time>
      </trkpt>
      <trkpt lat="47.25454" lon="-2.31913">
        <ele>5.1999998092651</ele>
        <time>2022-09-04T10:03:42.000Z</time>
      </trkpt>
      <trkpt lat="47.25453" lon="-2.3192">
        <ele>5.1999998092651</ele>
        <time>2022-09-04T10:03:43.000Z</time>
      </trkpt>
      <trkpt lat="47.2545" lon="-2.31933">
        <ele>5.1999998092651</ele>
        <time>2022-09-04T10:03:45.000Z</time>
      </trkpt>
      <trkpt lat="47.25442" lon="-2.31951">
        <ele>5.1999998092651</ele>
        <time>2022-09-04T10:03:48.000Z</time>
      </trkpt>
      <trkpt lat="47.25421" lon="-2.31976">
        <ele>5.1999998092651</ele>
        <time>2022-09-04T10:03:54.000Z</time>
      </trkpt>
      <trkpt lat="47.25397" lon="-2.32008">
        <ele>5.1999998092651</ele>
        <time>2022-09-04T10:04:01.000Z</time>
      </trkpt>
      <trkpt lat="47.2537" lon="-2.32046">
        <ele>4.8000001907349</ele>
        <time>2022-09-04T10:04:08.000Z</time>
      </trkpt>
      <trkpt lat="47.25366" lon="-2.3205">
        <ele>4.4000000953674</ele>
        <time>2022-09-04T10:04:09.000Z</time>
      </trkpt>
      <trkpt lat="47.25363" lon="-2.32054">
        <ele>4</ele>
        <time>2022-09-04T10:04:10.000Z</time>
      </trkpt>
      <trkpt lat="47.25361" lon="-2.32055">
        <ele>3.4000000953674</ele>
        <time>2022-09-04T10:04:11.000Z</time>
      </trkpt>
      <trkpt lat="47.2536" lon="-2.32056">
        <ele>3</ele>
        <time>2022-09-04T10:04:12.000Z</time>
      </trkpt>
      <trkpt lat="47.25347" lon="-2.32057">
        <ele>3</ele>
        <time>2022-09-04T10:04:17.000Z</time>
      </trkpt>
      <trkpt lat="47.25335" lon="-2.32046">
        <ele>3</ele>
        <time>2022-09-04T10:04:21.000Z</time>
      </trkpt>
      <trkpt lat="47.25325" lon="-2.32035">
        <ele>3</ele>
        <time>2022-09-04T10:04:24.000Z</time>
      </trkpt>
      <trkpt lat="47.25315" lon="-2.32023">
        <ele>3</ele>
        <time>2022-09-04T10:04:27.000Z</time>
      </trkpt>
      <trkpt lat="47.253" lon="-2.31998">
        <ele>3.4000000953674</ele>
        <time>2022-09-04T10:04:32.000Z</time>
      </trkpt>
      <trkpt lat="47.25297" lon="-2.31992">
        <ele>3.7999999523163</ele>
        <time>2022-09-04T10:04:33.000Z</time>
      </trkpt>
      <trkpt lat="47.25294" lon="-2.31987">
        <ele>4.1999998092651</ele>
        <time>2022-09-04T10:04:34.000Z</time>
      </trkpt>
      <trkpt lat="47.25291" lon="-2.31981">
        <ele>4.5999999046326</ele>
        <time>2022-09-04T10:04:35.000Z</time>
      </trkpt>
      <trkpt lat="47.25289" lon="-2.31976">
        <ele>5</ele>
        <time>2022-09-04T10:04:36.000Z</time>
      </trkpt>
      <trkpt lat="47.25279" lon="-2.31951">
        <ele>5</ele>
        <time>2022-09-04T10:04:41.000Z</time>
      </trkpt>
      <trkpt lat="47.25267" lon="-2.31929">
        <ele>5</ele>
        <time>2022-09-04T10:04:46.000Z</time>
      </trkpt>
      <trkpt lat="47.2526" lon="-2.31915">
        <ele>5.5999999046326</ele>
        <time>2022-09-04T10:04:49.000Z</time>
      </trkpt>
      <trkpt lat="47.25257" lon="-2.31911">
        <ele>6</ele>
        <time>2022-09-04T10:04:50.000Z</time>
      </trkpt>
      <trkpt lat="47.25255" lon="-2.31906">
        <ele>6.8000001907349</ele>
        <time>2022-09-04T10:04:51.000Z</time>
      </trkpt>
      <trkpt lat="47.25252" lon="-2.31901">
        <ele>7.1999998092651</ele>
        <time>2022-09-04T10:04:52.000Z</time>
      </trkpt>
      <trkpt lat="47.25249" lon="-2.31896">
        <ele>7.1999998092651</ele>
        <time>2022-09-04T10:04:53.000Z</time>
      </trkpt>
      <trkpt lat="47.25232" lon="-2.31859">
        <ele>7.1999998092651</ele>
        <time>2022-09-04T10:05:00.000Z</time>
      </trkpt>
      <trkpt lat="47.25229" lon="-2.31854">
        <ele>7.1999998092651</ele>
        <time>2022-09-04T10:05:01.000Z</time>
      </trkpt>
      <trkpt lat="47.25218" lon="-2.31834">
        <ele>7.5999999046326</ele>
        <time>2022-09-04T10:05:05.000Z</time>
      </trkpt>
      <trkpt lat="47.25215" lon="-2.31829">
        <ele>8</ele>
        <time>2022-09-04T10:05:06.000Z</time>
      </trkpt>
      <trkpt lat="47.25212" lon="-2.31824">
        <ele>8.6000003814697</ele>
        <time>2022-09-04T10:05:07.000Z</time>
      </trkpt>
      <trkpt lat="47.2521" lon="-2.31819">
        <ele>9</ele>
        <time>2022-09-04T10:05:08.000Z</time>
      </trkpt>
      <trkpt lat="47.25207" lon="-2.31815">
        <ele>9.3999996185303</ele>
        <time>2022-09-04T10:05:09.000Z</time>
      </trkpt>
      <trkpt lat="47.25201" lon="-2.31805">
        <ele>9.3999996185303</ele>
        <time>2022-09-04T10:05:11.000Z</time>
      </trkpt>
      <trkpt lat="47.25195" lon="-2.31796">
        <ele>9.3999996185303</ele>
        <time>2022-09-04T10:05:13.000Z</time>
      </trkpt>
      <trkpt lat="47.25182" lon="-2.31769">
        <ele>9.3999996185303</ele>
        <time>2022-09-04T10:05:19.000Z</time>
      </trkpt>
      <trkpt lat="47.25176" lon="-2.31756">
        <ele>9.3999996185303</ele>
        <time>2022-09-04T10:05:23.000Z</time>
      </trkpt>
      <trkpt lat="47.25176" lon="-2.31753">
        <ele>9.3999996185303</ele>
        <time>2022-09-04T10:05:24.000Z</time>
      </trkpt>
      <trkpt lat="47.25179" lon="-2.3175">
        <ele>9.3999996185303</ele>
        <time>2022-09-04T10:05:28.000Z</time>
      </trkpt>
      <trkpt lat="47.25184" lon="-2.31754">
        <ele>15.39999961853</ele>
        <time>2022-09-04T11:01:57.000Z</time>
      </trkpt>
      <trkpt lat="47.25187" lon="-2.31761">
        <ele>15.39999961853</ele>
        <time>2022-09-04T11:02:00.000Z</time>
      </trkpt>
      <trkpt lat="47.25198" lon="-2.31781">
        <ele>15.39999961853</ele>
        <time>2022-09-04T11:02:06.000Z</time>
      </trkpt>
      <trkpt lat="47.25214" lon="-2.31814">
        <ele>15.39999961853</ele>
        <time>2022-09-04T11:02:14.000Z</time>
      </trkpt>
      <trkpt lat="47.25236" lon="-2.31858">
        <ele>15.39999961853</ele>
        <time>2022-09-04T11:02:23.000Z</time>
      </trkpt>
      <trkpt lat="47.25255" lon="-2.3189">
        <ele>15.39999961853</ele>
        <time>2022-09-04T11:02:30.000Z</time>
      </trkpt>
      <trkpt lat="47.25262" lon="-2.31905">
        <ele>15</ele>
        <time>2022-09-04T11:02:33.000Z</time>
      </trkpt>
      <trkpt lat="47.25265" lon="-2.3191">
        <ele>14.60000038147</ele>
        <time>2022-09-04T11:02:34.000Z</time>
      </trkpt>
      <trkpt lat="47.25267" lon="-2.31916">
        <ele>14.199999809265</ele>
        <time>2022-09-04T11:02:35.000Z</time>
      </trkpt>
      <trkpt lat="47.2527" lon="-2.31921">
        <ele>13.800000190735</ele>
        <time>2022-09-04T11:02:36.000Z</time>
      </trkpt>
      <trkpt lat="47.25273" lon="-2.31925">
        <ele>13.39999961853</ele>
        <time>2022-09-04T11:02:37.000Z</time>
      </trkpt>
      <trkpt lat="47.25278" lon="-2.31936">
        <ele>13.39999961853</ele>
        <time>2022-09-04T11:02:39.000Z</time>
      </trkpt>
      <trkpt lat="47.25302" lon="-2.31986">
        <ele>13.39999961853</ele>
        <time>2022-09-04T11:02:47.000Z</time>
      </trkpt>
      <trkpt lat="47.25305" lon="-2.31992">
        <ele>13</ele>
        <time>2022-09-04T11:02:48.000Z</time>
      </trkpt>
      <trkpt lat="47.25309" lon="-2.31999">
        <ele>12.60000038147</ele>
        <time>2022-09-04T11:02:49.000Z</time>
      </trkpt>
      <trkpt lat="47.25312" lon="-2.32005">
        <ele>12.199999809265</ele>
        <time>2022-09-04T11:02:50.000Z</time>
      </trkpt>
      <trkpt lat="47.25316" lon="-2.32011">
        <ele>11.800000190735</ele>
        <time>2022-09-04T11:02:51.000Z</time>
      </trkpt>
      <trkpt lat="47.2532" lon="-2.32017">
        <ele>11.199999809265</ele>
        <time>2022-09-04T11:02:52.000Z</time>
      </trkpt>
      <trkpt lat="47.25328" lon="-2.32027">
        <ele>11.199999809265</ele>
        <time>2022-09-04T11:02:54.000Z</time>
      </trkpt>
      <trkpt lat="47.25343" lon="-2.32046">
        <ele>10.800000190735</ele>
        <time>2022-09-04T11:02:58.000Z</time>
      </trkpt>
      <trkpt lat="47.25347" lon="-2.32049">
        <ele>10.39999961853</ele>
        <time>2022-09-04T11:02:59.000Z</time>
      </trkpt>
      <trkpt lat="47.25349" lon="-2.32051">
        <ele>10</ele>
        <time>2022-09-04T11:03:00.000Z</time>
      </trkpt>
      <trkpt lat="47.25351" lon="-2.32054">
        <ele>9.6000003814697</ele>
        <time>2022-09-04T11:03:01.000Z</time>
      </trkpt>
      <trkpt lat="47.25354" lon="-2.32055">
        <ele>9.1999998092651</ele>
        <time>2022-09-04T11:03:02.000Z</time>
      </trkpt>
      <trkpt lat="47.25355" lon="-2.32056">
        <ele>9.1999998092651</ele>
        <time>2022-09-04T11:03:04.000Z</time>
      </trkpt>
      <trkpt lat="47.25354" lon="-2.32056">
        <ele>9.1999998092651</ele>
        <time>2022-09-04T11:03:05.000Z</time>
      </trkpt>
      <trkpt lat="47.25357" lon="-2.32055">
        <ele>9.1999998092651</ele>
        <time>2022-09-04T11:03:38.000Z</time>
      </trkpt>
      <trkpt lat="47.2536" lon="-2.32051">
        <ele>9.1999998092651</ele>
        <time>2022-09-04T11:03:40.000Z</time>
      </trkpt>
      <trkpt lat="47.25371" lon="-2.32034">
        <ele>9.1999998092651</ele>
        <time>2022-09-04T11:03:44.000Z</time>
      </trkpt>
      <trkpt lat="47.25375" lon="-2.3203">
        <ele>9.1999998092651</ele>
        <time>2022-09-04T11:03:45.000Z</time>
      </trkpt>
      <trkpt lat="47.25394" lon="-2.32006">
        <ele>9.1999998092651</ele>
        <time>2022-09-04T11:03:51.000Z</time>
      </trkpt>
      <trkpt lat="47.25416" lon="-2.31977">
        <ele>9.1999998092651</ele>
        <time>2022-09-04T11:03:58.000Z</time>
      </trkpt>
      <trkpt lat="47.25428" lon="-2.31961">
        <ele>9.6000003814697</ele>
        <time>2022-09-04T11:04:02.000Z</time>
      </trkpt>
      <trkpt lat="47.25432" lon="-2.31957">
        <ele>10.199999809265</ele>
        <time>2022-09-04T11:04:03.000Z</time>
      </trkpt>
      <trkpt lat="47.25435" lon="-2.31953">
        <ele>10.60000038147</ele>
        <time>2022-09-04T11:04:04.000Z</time>
      </trkpt>
      <trkpt lat="47.25438" lon="-2.31948">
        <ele>11</ele>
        <time>2022-09-04T11:04:05.000Z</time>
      </trkpt>
      <trkpt lat="47.25441" lon="-2.31944">
        <ele>11.39999961853</ele>
        <time>2022-09-04T11:04:06.000Z</time>
      </trkpt>
      <trkpt lat="47.25444" lon="-2.31939">
        <ele>11.39999961853</ele>
        <time>2022-09-04T11:04:07.000Z</time>
      </trkpt>
      <trkpt lat="47.25453" lon="-2.31914">
        <ele>11.39999961853</ele>
        <time>2022-09-04T11:04:11.000Z</time>
      </trkpt>
      <trkpt lat="47.25456" lon="-2.31896">
        <ele>11.39999961853</ele>
        <time>2022-09-04T11:04:14.000Z</time>
      </trkpt>
      <trkpt lat="47.25458" lon="-2.31877">
        <ele>11.39999961853</ele>
        <time>2022-09-04T11:04:17.000Z</time>
      </trkpt>
      <trkpt lat="47.25459" lon="-2.31859">
        <ele>11.39999961853</ele>
        <time>2022-09-04T11:04:20.000Z</time>
      </trkpt>
      <trkpt lat="47.25459" lon="-2.31841">
        <ele>11.39999961853</ele>
        <time>2022-09-04T11:04:23.000Z</time>
      </trkpt>
      <trkpt lat="47.25466" lon="-2.31825">
        <ele>11.39999961853</ele>
        <time>2022-09-04T11:04:27.000Z</time>
      </trkpt>
      <trkpt lat="47.25478" lon="-2.31827">
        <ele>11.39999961853</ele>
        <time>2022-09-04T11:04:30.000Z</time>
      </trkpt>
      <trkpt lat="47.25483" lon="-2.31825">
        <ele>11.39999961853</ele>
        <time>2022-09-04T11:04:31.000Z</time>
      </trkpt>
      <trkpt lat="47.25498" lon="-2.31819">
        <ele>11.39999961853</ele>
        <time>2022-09-04T11:04:35.000Z</time>
      </trkpt>
      <trkpt lat="47.25502" lon="-2.31817">
        <ele>11.39999961853</ele>
        <time>2022-09-04T11:04:36.000Z</time>
      </trkpt>
      <trkpt lat="47.25506" lon="-2.31816">
        <ele>11.39999961853</ele>
        <time>2022-09-04T11:04:37.000Z</time>
      </trkpt>
      <trkpt lat="47.25536" lon="-2.31803">
        <ele>11.39999961853</ele>
        <time>2022-09-04T11:04:44.000Z</time>
      </trkpt>
      <trkpt lat="47.25551" lon="-2.31799">
        <ele>11.39999961853</ele>
        <time>2022-09-04T11:04:47.000Z</time>
      </trkpt>
      <trkpt lat="47.25559" lon="-2.31794">
        <ele>11.39999961853</ele>
        <time>2022-09-04T11:04:49.000Z</time>
      </trkpt>
      <trkpt lat="47.25562" lon="-2.31791">
        <ele>11.39999961853</ele>
        <time>2022-09-04T11:04:50.000Z</time>
      </trkpt>
      <trkpt lat="47.25571" lon="-2.31776">
        <ele>11.39999961853</ele>
        <time>2022-09-04T11:04:53.000Z</time>
      </trkpt>
      <trkpt lat="47.25578" lon="-2.31768">
        <ele>11.39999961853</ele>
        <time>2022-09-04T11:04:55.000Z</time>
      </trkpt>
      <trkpt lat="47.25586" lon="-2.31755">
        <ele>11</ele>
        <time>2022-09-04T11:04:57.000Z</time>
      </trkpt>
      <trkpt lat="47.25589" lon="-2.31747">
        <ele>10.60000038147</ele>
        <time>2022-09-04T11:04:58.000Z</time>
      </trkpt>
      <trkpt lat="47.25591" lon="-2.3174">
        <ele>10.199999809265</ele>
        <time>2022-09-04T11:04:59.000Z</time>
      </trkpt>
      <trkpt lat="47.25593" lon="-2.31732">
        <ele>9.8000001907349</ele>
        <time>2022-09-04T11:05:00.000Z</time>
      </trkpt>
      <trkpt lat="47.25595" lon="-2.31725">
        <ele>9.1999998092651</ele>
        <time>2022-09-04T11:05:01.000Z</time>
      </trkpt>
      <trkpt lat="47.25598" lon="-2.31719">
        <ele>9.1999998092651</ele>
        <time>2022-09-04T11:05:02.000Z</time>
      </trkpt>
      <trkpt lat="47.25612" lon="-2.31709">
        <ele>9.1999998092651</ele>
        <time>2022-09-04T11:05:05.000Z</time>
      </trkpt>
      <trkpt lat="47.25634" lon="-2.31705">
        <ele>9.1999998092651</ele>
        <time>2022-09-04T11:05:09.000Z</time>
      </trkpt>
      <trkpt lat="47.2564" lon="-2.31702">
        <ele>9.1999998092651</ele>
        <time>2022-09-04T11:05:10.000Z</time>
      </trkpt>
      <trkpt lat="47.2565" lon="-2.31691">
        <ele>8.8000001907349</ele>
        <time>2022-09-04T11:05:12.000Z</time>
      </trkpt>
      <trkpt lat="47.25654" lon="-2.31685">
        <ele>8.3999996185303</ele>
        <time>2022-09-04T11:05:13.000Z</time>
      </trkpt>
      <trkpt lat="47.25657" lon="-2.31678">
        <ele>8</ele>
        <time>2022-09-04T11:05:14.000Z</time>
      </trkpt>
      <trkpt lat="47.25659" lon="-2.3167">
        <ele>7.5999999046326</ele>
        <time>2022-09-04T11:05:15.000Z</time>
      </trkpt>
      <trkpt lat="47.25662" lon="-2.31663">
        <ele>7.1999998092651</ele>
        <time>2022-09-04T11:05:16.000Z</time>
      </trkpt>
      <trkpt lat="47.25672" lon="-2.3166">
        <ele>7.1999998092651</ele>
        <time>2022-09-04T11:05:18.000Z</time>
      </trkpt>
      <trkpt lat="47.25687" lon="-2.31673">
        <ele>7.1999998092651</ele>
        <time>2022-09-04T11:05:21.000Z</time>
      </trkpt>
      <trkpt lat="47.25699" lon="-2.31678">
        <ele>6.5999999046326</ele>
        <time>2022-09-04T11:05:23.000Z</time>
      </trkpt>
      <trkpt lat="47.25705" lon="-2.31682">
        <ele>6.1999998092651</ele>
        <time>2022-09-04T11:05:24.000Z</time>
      </trkpt>
      <trkpt lat="47.25711" lon="-2.31685">
        <ele>5.8000001907349</ele>
        <time>2022-09-04T11:05:25.000Z</time>
      </trkpt>
      <trkpt lat="47.25716" lon="-2.3169">
        <ele>4.8000001907349</ele>
        <time>2022-09-04T11:05:26.000Z</time>
      </trkpt>
      <trkpt lat="47.25729" lon="-2.31697">
        <ele>4.8000001907349</ele>
        <time>2022-09-04T11:05:28.000Z</time>
      </trkpt>
      <trkpt lat="47.25742" lon="-2.31691">
        <ele>4.8000001907349</ele>
        <time>2022-09-04T11:05:30.000Z</time>
      </trkpt>
      <trkpt lat="47.25757" lon="-2.31677">
        <ele>4.8000001907349</ele>
        <time>2022-09-04T11:05:33.000Z</time>
      </trkpt>
      <trkpt lat="47.25762" lon="-2.31673">
        <ele>4.8000001907349</ele>
        <time>2022-09-04T11:05:34.000Z</time>
      </trkpt>
      <trkpt lat="47.25794" lon="-2.3165">
        <ele>4.8000001907349</ele>
        <time>2022-09-04T11:05:41.000Z</time>
      </trkpt>
      <trkpt lat="47.25803" lon="-2.31643">
        <ele>4.8000001907349</ele>
        <time>2022-09-04T11:05:43.000Z</time>
      </trkpt>
      <trkpt lat="47.25826" lon="-2.31626">
        <ele>4.8000001907349</ele>
        <time>2022-09-04T11:05:48.000Z</time>
      </trkpt>
      <trkpt lat="47.25858" lon="-2.31595">
        <ele>4.8000001907349</ele>
        <time>2022-09-04T11:05:55.000Z</time>
      </trkpt>
      <trkpt lat="47.25885" lon="-2.31567">
        <ele>4.8000001907349</ele>
        <time>2022-09-04T11:06:00.000Z</time>
      </trkpt>
      <trkpt lat="47.25899" lon="-2.31531">
        <ele>4.8000001907349</ele>
        <time>2022-09-04T11:06:04.000Z</time>
      </trkpt>
      <trkpt lat="47.25907" lon="-2.31514">
        <ele>4.8000001907349</ele>
        <time>2022-09-04T11:06:07.000Z</time>
      </trkpt>
      <trkpt lat="47.2591" lon="-2.31512">
        <ele>4.4000000953674</ele>
        <time>2022-09-04T11:06:08.000Z</time>
      </trkpt>
      <trkpt lat="47.25912" lon="-2.31509">
        <ele>4</ele>
        <time>2022-09-04T11:06:09.000Z</time>
      </trkpt>
      <trkpt lat="47.25915" lon="-2.31508">
        <ele>3.5999999046326</ele>
        <time>2022-09-04T11:06:10.000Z</time>
      </trkpt>
      <trkpt lat="47.25915" lon="-2.31505">
        <ele>3.2000000476837</ele>
        <time>2022-09-04T11:06:11.000Z</time>
      </trkpt>
      <trkpt lat="47.25915" lon="-2.31503">
        <ele>2.7999999523163</ele>
        <time>2022-09-04T11:06:12.000Z</time>
      </trkpt>
      <trkpt lat="47.25914" lon="-2.315">
        <ele>2.7999999523163</ele>
        <time>2022-09-04T11:06:15.000Z</time>
      </trkpt>
      <trkpt lat="47.25921" lon="-2.31483">
        <ele>2.7999999523163</ele>
        <time>2022-09-04T11:06:19.000Z</time>
      </trkpt>
      <trkpt lat="47.25936" lon="-2.31455">
        <ele>2.7999999523163</ele>
        <time>2022-09-04T11:06:25.000Z</time>
      </trkpt>
      <trkpt lat="47.2595" lon="-2.31463">
        <ele>2.7999999523163</ele>
        <time>2022-09-04T11:06:28.000Z</time>
      </trkpt>
      <trkpt lat="47.25961" lon="-2.31475">
        <ele>2.7999999523163</ele>
        <time>2022-09-04T11:06:31.000Z</time>
      </trkpt>
      <trkpt lat="47.25965" lon="-2.3148">
        <ele>2.7999999523163</ele>
        <time>2022-09-04T11:06:32.000Z</time>
      </trkpt>
      <trkpt lat="47.25971" lon="-2.31492">
        <ele>2.7999999523163</ele>
        <time>2022-09-04T11:06:34.000Z</time>
      </trkpt>
      <trkpt lat="47.25976" lon="-2.31505">
        <ele>2.7999999523163</ele>
        <time>2022-09-04T11:06:36.000Z</time>
      </trkpt>
      <trkpt lat="47.25981" lon="-2.31517">
        <ele>2.7999999523163</ele>
        <time>2022-09-04T11:06:38.000Z</time>
      </trkpt>
      <trkpt lat="47.25988" lon="-2.31528">
        <ele>2.7999999523163</ele>
        <time>2022-09-04T11:06:40.000Z</time>
      </trkpt>
      <trkpt lat="47.25997" lon="-2.31544">
        <ele>2.7999999523163</ele>
        <time>2022-09-04T11:06:43.000Z</time>
      </trkpt>
      <trkpt lat="47.26007" lon="-2.31556">
        <ele>2.7999999523163</ele>
        <time>2022-09-04T11:06:46.000Z</time>
      </trkpt>
      <trkpt lat="47.26018" lon="-2.3156">
        <ele>2.7999999523163</ele>
        <time>2022-09-04T11:06:49.000Z</time>
      </trkpt>
      <trkpt lat="47.26021" lon="-2.31555">
        <ele>2.7999999523163</ele>
        <time>2022-09-04T11:06:50.000Z</time>
      </trkpt>
      <trkpt lat="47.26029" lon="-2.3154">
        <ele>2.7999999523163</ele>
        <time>2022-09-04T11:06:53.000Z</time>
      </trkpt>
      <trkpt lat="47.26036" lon="-2.31534">
        <ele>2.7999999523163</ele>
        <time>2022-09-04T11:06:55.000Z</time>
      </trkpt>
      <trkpt lat="47.26046" lon="-2.31529">
        <ele>2.2000000476837</ele>
        <time>2022-09-04T11:06:57.000Z</time>
      </trkpt>
      <trkpt lat="47.2605" lon="-2.31527">
        <ele>1.7999999523163</ele>
        <time>2022-09-04T11:06:58.000Z</time>
      </trkpt>
      <trkpt lat="47.26054" lon="-2.31528">
        <ele>1.3999999761581</ele>
        <time>2022-09-04T11:06:59.000Z</time>
      </trkpt>
      <trkpt lat="47.26056" lon="-2.31531">
        <ele>0.80000001192093</ele>
        <time>2022-09-04T11:07:00.000Z</time>
      </trkpt>
      <trkpt lat="47.26059" lon="-2.31535">
        <ele>0.40000000596046</ele>
        <time>2022-09-04T11:07:01.000Z</time>
      </trkpt>
      <trkpt lat="47.26061" lon="-2.31541">
        <ele>0.40000000596046</ele>
        <time>2022-09-04T11:07:02.000Z</time>
      </trkpt>
      <trkpt lat="47.26066" lon="-2.31552">
        <ele>0.40000000596046</ele>
        <time>2022-09-04T11:07:04.000Z</time>
      </trkpt>
      <trkpt lat="47.26078" lon="-2.31575">
        <ele>0.40000000596046</ele>
        <time>2022-09-04T11:07:09.000Z</time>
      </trkpt>
      <trkpt lat="47.26081" lon="-2.31577">
        <ele>0.40000000596046</ele>
        <time>2022-09-04T11:07:10.000Z</time>
      </trkpt>
      <trkpt lat="47.2609" lon="-2.31586">
        <ele>0.40000000596046</ele>
        <time>2022-09-04T11:07:13.000Z</time>
      </trkpt>
      <trkpt lat="47.26095" lon="-2.31596">
        <ele>0.40000000596046</ele>
        <time>2022-09-04T11:07:15.000Z</time>
      </trkpt>
      <trkpt lat="47.26102" lon="-2.31607">
        <ele>0.40000000596046</ele>
        <time>2022-09-04T11:07:17.000Z</time>
      </trkpt>
      <trkpt lat="47.26111" lon="-2.31613">
        <ele>0.40000000596046</ele>
        <time>2022-09-04T11:07:19.000Z</time>
      </trkpt>
      <trkpt lat="47.26115" lon="-2.31614">
        <ele>4</ele>
        <time>2022-09-04T11:07:20.000Z</time>
      </trkpt>
      <trkpt lat="47.2612" lon="-2.31614">
        <ele>-0.40000000596046</ele>
        <time>2022-09-04T11:07:21.000Z</time>
      </trkpt>
      <trkpt lat="47.26126" lon="-2.31614">
        <ele>-0.80000001192093</ele>
        <time>2022-09-04T11:07:22.000Z</time>
      </trkpt>
      <trkpt lat="47.26131" lon="-2.31613">
        <ele>-1.2000000476837</ele>
        <time>2022-09-04T11:07:23.000Z</time>
      </trkpt>
      <trkpt lat="47.26135" lon="-2.31612">
        <ele>-1.6000000238419</ele>
        <time>2022-09-04T11:07:24.000Z</time>
      </trkpt>
      <trkpt lat="47.26163" lon="-2.31604">
        <ele>-1.6000000238419</ele>
        <time>2022-09-04T11:07:30.000Z</time>
      </trkpt>
      <trkpt lat="47.26196" lon="-2.31591">
        <ele>-1.6000000238419</ele>
        <time>2022-09-04T11:07:37.000Z</time>
      </trkpt>
      <trkpt lat="47.26211" lon="-2.31589">
        <ele>-1.6000000238419</ele>
        <time>2022-09-04T11:07:40.000Z</time>
      </trkpt>
      <trkpt lat="47.2622" lon="-2.31593">
        <ele>-1.6000000238419</ele>
        <time>2022-09-04T11:07:42.000Z</time>
      </trkpt>
      <trkpt lat="47.26241" lon="-2.31612">
        <ele>-1.6000000238419</ele>
        <time>2022-09-04T11:07:48.000Z</time>
      </trkpt>
      <trkpt lat="47.26249" lon="-2.31622">
        <ele>-1.6000000238419</ele>
        <time>2022-09-04T11:07:50.000Z</time>
      </trkpt>
      <trkpt lat="47.26258" lon="-2.31635">
        <ele>-1.6000000238419</ele>
        <time>2022-09-04T11:07:53.000Z</time>
      </trkpt>
      <trkpt lat="47.26272" lon="-2.3166">
        <ele>-1.6000000238419</ele>
        <time>2022-09-04T11:07:58.000Z</time>
      </trkpt>
      <trkpt lat="47.26289" lon="-2.31695">
        <ele>-1.6000000238419</ele>
        <time>2022-09-04T11:08:05.000Z</time>
      </trkpt>
      <trkpt lat="47.26303" lon="-2.31708">
        <ele>-1.6000000238419</ele>
        <time>2022-09-04T11:08:09.000Z</time>
      </trkpt>
      <trkpt lat="47.26311" lon="-2.31706">
        <ele>-1.6000000238419</ele>
        <time>2022-09-04T11:08:11.000Z</time>
      </trkpt>
      <trkpt lat="47.26314" lon="-2.31704">
        <ele>-1.6000000238419</ele>
        <time>2022-09-04T11:08:12.000Z</time>
      </trkpt>
      <trkpt lat="47.26329" lon="-2.31694">
        <ele>-1.6000000238419</ele>
        <time>2022-09-04T11:08:17.000Z</time>
      </trkpt>
      <trkpt lat="47.26334" lon="-2.31686">
        <ele>-1.6000000238419</ele>
        <time>2022-09-04T11:08:19.000Z</time>
      </trkpt>
      <trkpt lat="47.26337" lon="-2.31684">
        <ele>-1.2000000476837</ele>
        <time>2022-09-04T11:08:20.000Z</time>
      </trkpt>
      <trkpt lat="47.2634" lon="-2.31683">
        <ele>-0.80000001192093</ele>
        <time>2022-09-04T11:08:21.000Z</time>
      </trkpt>
      <trkpt lat="47.26343" lon="-2.31682">
        <ele>-0.40000000596046</ele>
        <time>2022-09-04T11:08:22.000Z</time>
      </trkpt>
      <trkpt lat="47.26345" lon="-2.31681">
        <ele>0.20000000298023</ele>
        <time>2022-09-04T11:08:23.000Z</time>
      </trkpt>
      <trkpt lat="47.26348" lon="-2.3168">
        <ele>0.60000002384186</ele>
        <time>2022-09-04T11:08:24.000Z</time>
      </trkpt>
      <trkpt lat="47.26351" lon="-2.31679">
        <ele>0.60000002384186</ele>
        <time>2022-09-04T11:08:25.000Z</time>
      </trkpt>
      <trkpt lat="47.26363" lon="-2.31674">
        <ele>0.60000002384186</ele>
        <time>2022-09-04T11:08:29.000Z</time>
      </trkpt>
      <trkpt lat="47.26382" lon="-2.31665">
        <ele>0.60000002384186</ele>
        <time>2022-09-04T11:08:35.000Z</time>
      </trkpt>
      <trkpt lat="47.26385" lon="-2.31663">
        <ele>1</ele>
        <time>2022-09-04T11:08:36.000Z</time>
      </trkpt>
      <trkpt lat="47.26388" lon="-2.31662">
        <ele>1.3999999761581</ele>
        <time>2022-09-04T11:08:37.000Z</time>
      </trkpt>
      <trkpt lat="47.26391" lon="-2.3166">
        <ele>1.7999999523163</ele>
        <time>2022-09-04T11:08:38.000Z</time>
      </trkpt>
      <trkpt lat="47.26393" lon="-2.31659">
        <ele>2.2000000476837</ele>
        <time>2022-09-04T11:08:39.000Z</time>
      </trkpt>
      <trkpt lat="47.26396" lon="-2.31657">
        <ele>2.5999999046326</ele>
        <time>2022-09-04T11:08:40.000Z</time>
      </trkpt>
      <trkpt lat="47.26405" lon="-2.31651">
        <ele>2.5999999046326</ele>
        <time>2022-09-04T11:08:43.000Z</time>
      </trkpt>
      <trkpt lat="47.26407" lon="-2.31647">
        <ele>2.5999999046326</ele>
        <time>2022-09-04T11:08:44.000Z</time>
      </trkpt>
      <trkpt lat="47.26407" lon="-2.31638">
        <ele>2.5999999046326</ele>
        <time>2022-09-04T11:08:46.000Z</time>
      </trkpt>
      <trkpt lat="47.26409" lon="-2.31604">
        <ele>2.5999999046326</ele>
        <time>2022-09-04T11:08:53.000Z</time>
      </trkpt>
      <trkpt lat="47.26409" lon="-2.3157">
        <ele>2.5999999046326</ele>
        <time>2022-09-04T11:09:00.000Z</time>
      </trkpt>
      <trkpt lat="47.2641" lon="-2.31558">
        <ele>2.5999999046326</ele>
        <time>2022-09-04T11:09:03.000Z</time>
      </trkpt>
      <trkpt lat="47.26413" lon="-2.31554">
        <ele>2.5999999046326</ele>
        <time>2022-09-04T11:09:05.000Z</time>
      </trkpt>
      <trkpt lat="47.26416" lon="-2.31554">
        <ele>2.5999999046326</ele>
        <time>2022-09-04T11:09:07.000Z</time>
      </trkpt>
      <trkpt lat="47.26416" lon="-2.31554">
        <ele>3</ele>
        <time>2022-09-04T11:09:08.000Z</time>
      </trkpt>
      <trkpt lat="47.26416" lon="-2.31554">
        <ele>3.4000000953674</ele>
        <time>2022-09-04T11:09:09.000Z</time>
      </trkpt>
    </trkseg>
  </trk>
</gpx>